<?xml version="1.0" encoding="UTF-8" standalone="no" ?>
<gpx xmlns="http://www.topografix.com/GPX/1/1" xmlns:xsi="http://www.w3.org/2001/XMLSchema-instance" xsi:schemaLocation="http://www.topografix.com/GPX/1/1 http://www.topografix.com/GPX/1/1/gpx.xsd" version="1.1" creator="VisuGPX - https://www.visugpx.com">
  <metadata>
    <name>83-D-St Jaume</name>
    <desc><![CDATA[83-D-St Jaume : Vignaubière, la Panisse
2023-01-29]]></desc>
  </metadata>
  <trk>
    <name><![CDATA[2023-01-29-D-St Jaume]]></name>
    <extensions>
      <line xmlns="http://www.topografix.com/GPX/gpx_style/0/2">
        <width>4</width>
      </line>
    </extensions>
    <trkseg>
      <trkpt lat="43.48135" lon="6.3281">
        <ele>143.7</ele>
        <time>2023-01-29T08:10:35.000Z</time>
      </trkpt>
      <trkpt lat="43.48135" lon="6.3281">
        <ele>143.7</ele>
        <time>2023-01-29T08:10:36.000Z</time>
      </trkpt>
      <trkpt lat="43.48135" lon="6.3281">
        <ele>142.3</ele>
        <time>2023-01-29T08:11:21.000Z</time>
      </trkpt>
      <trkpt lat="43.48136" lon="6.32811">
        <ele>141.5</ele>
        <time>2023-01-29T08:11:29.000Z</time>
      </trkpt>
      <trkpt lat="43.48136" lon="6.32811">
        <ele>141.5</ele>
        <time>2023-01-29T08:11:29.000Z</time>
      </trkpt>
      <trkpt lat="43.48136" lon="6.32811">
        <ele>141.5</ele>
        <time>2023-01-29T08:11:44.000Z</time>
      </trkpt>
      <trkpt lat="43.48137" lon="6.32812">
        <ele>141.3</ele>
        <time>2023-01-29T08:11:48.000Z</time>
      </trkpt>
      <trkpt lat="43.48137" lon="6.32812">
        <ele>141.3</ele>
        <time>2023-01-29T08:11:49.000Z</time>
      </trkpt>
      <trkpt lat="43.48137" lon="6.32813">
        <ele>141.4</ele>
        <time>2023-01-29T08:11:51.000Z</time>
      </trkpt>
      <trkpt lat="43.48137" lon="6.32813">
        <ele>141.4</ele>
        <time>2023-01-29T08:12:01.000Z</time>
      </trkpt>
      <trkpt lat="43.48136" lon="6.32814">
        <ele>141.4</ele>
        <time>2023-01-29T08:12:04.000Z</time>
      </trkpt>
      <trkpt lat="43.48136" lon="6.32815">
        <ele>141.2</ele>
        <time>2023-01-29T08:12:20.000Z</time>
      </trkpt>
      <trkpt lat="43.48137" lon="6.32815">
        <ele>140.9</ele>
        <time>2023-01-29T08:12:23.000Z</time>
      </trkpt>
      <trkpt lat="43.48136" lon="6.32815">
        <ele>141</ele>
        <time>2023-01-29T08:12:29.000Z</time>
      </trkpt>
      <trkpt lat="43.48136" lon="6.32814">
        <ele>140.7</ele>
        <time>2023-01-29T08:12:32.000Z</time>
      </trkpt>
      <trkpt lat="43.48136" lon="6.32814">
        <ele>140.5</ele>
        <time>2023-01-29T08:12:43.000Z</time>
      </trkpt>
      <trkpt lat="43.48136" lon="6.32814">
        <ele>140.7</ele>
        <time>2023-01-29T08:12:44.000Z</time>
      </trkpt>
      <trkpt lat="43.48136" lon="6.32814">
        <ele>140.7</ele>
        <time>2023-01-29T08:12:46.000Z</time>
      </trkpt>
      <trkpt lat="43.4813" lon="6.32808">
        <ele>140.5</ele>
        <time>2023-01-29T08:12:57.000Z</time>
      </trkpt>
      <trkpt lat="43.4813" lon="6.32808">
        <ele>140.2</ele>
        <time>2023-01-29T08:13:01.000Z</time>
      </trkpt>
      <trkpt lat="43.48135" lon="6.32814">
        <ele>140.7</ele>
        <time>2023-01-29T08:13:13.000Z</time>
      </trkpt>
      <trkpt lat="43.48135" lon="6.32814">
        <ele>140.7</ele>
        <time>2023-01-29T08:13:14.000Z</time>
      </trkpt>
      <trkpt lat="43.48135" lon="6.32814">
        <ele>140.8</ele>
        <time>2023-01-29T08:13:17.000Z</time>
      </trkpt>
      <trkpt lat="43.48135" lon="6.32814">
        <ele>140.4</ele>
        <time>2023-01-29T08:13:46.000Z</time>
      </trkpt>
      <trkpt lat="43.48135" lon="6.32814">
        <ele>140.4</ele>
        <time>2023-01-29T08:13:47.000Z</time>
      </trkpt>
      <trkpt lat="43.48135" lon="6.32814">
        <ele>140.4</ele>
        <time>2023-01-29T08:13:50.000Z</time>
      </trkpt>
      <trkpt lat="43.48135" lon="6.32814">
        <ele>140.4</ele>
        <time>2023-01-29T08:13:52.000Z</time>
      </trkpt>
      <trkpt lat="43.48135" lon="6.32814">
        <ele>140.8</ele>
        <time>2023-01-29T08:14:01.000Z</time>
      </trkpt>
      <trkpt lat="43.48135" lon="6.32814">
        <ele>140.7</ele>
        <time>2023-01-29T08:14:02.000Z</time>
      </trkpt>
      <trkpt lat="43.48136" lon="6.32813">
        <ele>140.5</ele>
        <time>2023-01-29T08:14:21.000Z</time>
      </trkpt>
      <trkpt lat="43.48136" lon="6.32812">
        <ele>140.7</ele>
        <time>2023-01-29T08:14:24.000Z</time>
      </trkpt>
      <trkpt lat="43.48136" lon="6.32812">
        <ele>140.4</ele>
        <time>2023-01-29T08:14:25.000Z</time>
      </trkpt>
      <trkpt lat="43.48136" lon="6.32812">
        <ele>140.4</ele>
        <time>2023-01-29T08:14:26.000Z</time>
      </trkpt>
      <trkpt lat="43.48136" lon="6.32812">
        <ele>140.4</ele>
        <time>2023-01-29T08:14:34.000Z</time>
      </trkpt>
      <trkpt lat="43.48136" lon="6.32812">
        <ele>140.5</ele>
        <time>2023-01-29T08:14:35.000Z</time>
      </trkpt>
      <trkpt lat="43.48136" lon="6.32811">
        <ele>140.5</ele>
        <time>2023-01-29T08:14:40.000Z</time>
      </trkpt>
      <trkpt lat="43.48135" lon="6.32811">
        <ele>140.3</ele>
        <time>2023-01-29T08:14:42.000Z</time>
      </trkpt>
      <trkpt lat="43.48136" lon="6.32811">
        <ele>140.1</ele>
        <time>2023-01-29T08:14:45.000Z</time>
      </trkpt>
      <trkpt lat="43.48136" lon="6.32812">
        <ele>140.5</ele>
        <time>2023-01-29T08:14:48.000Z</time>
      </trkpt>
      <trkpt lat="43.48135" lon="6.32812">
        <ele>140.6</ele>
        <time>2023-01-29T08:14:53.000Z</time>
      </trkpt>
      <trkpt lat="43.48135" lon="6.32812">
        <ele>140.5</ele>
        <time>2023-01-29T08:14:54.000Z</time>
      </trkpt>
      <trkpt lat="43.48135" lon="6.32812">
        <ele>140.3</ele>
        <time>2023-01-29T08:14:56.000Z</time>
      </trkpt>
      <trkpt lat="43.48135" lon="6.32811">
        <ele>140.4</ele>
        <time>2023-01-29T08:14:57.000Z</time>
      </trkpt>
      <trkpt lat="43.48135" lon="6.32811">
        <ele>140.2</ele>
        <time>2023-01-29T08:14:59.000Z</time>
      </trkpt>
      <trkpt lat="43.48136" lon="6.32814">
        <ele>140.2</ele>
        <time>2023-01-29T08:15:05.000Z</time>
      </trkpt>
      <trkpt lat="43.48136" lon="6.32813">
        <ele>140.3</ele>
        <time>2023-01-29T08:15:21.000Z</time>
      </trkpt>
      <trkpt lat="43.48136" lon="6.32813">
        <ele>140.3</ele>
        <time>2023-01-29T08:15:22.000Z</time>
      </trkpt>
      <trkpt lat="43.48135" lon="6.32813">
        <ele>140.1</ele>
        <time>2023-01-29T08:15:25.000Z</time>
      </trkpt>
      <trkpt lat="43.48135" lon="6.32813">
        <ele>140.1</ele>
        <time>2023-01-29T08:15:26.000Z</time>
      </trkpt>
      <trkpt lat="43.48135" lon="6.32813">
        <ele>140.1</ele>
        <time>2023-01-29T08:15:29.000Z</time>
      </trkpt>
      <trkpt lat="43.48135" lon="6.32812">
        <ele>140.3</ele>
        <time>2023-01-29T08:15:33.000Z</time>
      </trkpt>
      <trkpt lat="43.48135" lon="6.32812">
        <ele>140.4</ele>
        <time>2023-01-29T08:15:36.000Z</time>
      </trkpt>
      <trkpt lat="43.48135" lon="6.32812">
        <ele>140.4</ele>
        <time>2023-01-29T08:15:38.000Z</time>
      </trkpt>
      <trkpt lat="43.48136" lon="6.32812">
        <ele>140.3</ele>
        <time>2023-01-29T08:15:47.000Z</time>
      </trkpt>
      <trkpt lat="43.48136" lon="6.32813">
        <ele>140.2</ele>
        <time>2023-01-29T08:15:52.000Z</time>
      </trkpt>
      <trkpt lat="43.48136" lon="6.32812">
        <ele>140.1</ele>
        <time>2023-01-29T08:15:53.000Z</time>
      </trkpt>
      <trkpt lat="43.48136" lon="6.32812">
        <ele>140.1</ele>
        <time>2023-01-29T08:15:54.000Z</time>
      </trkpt>
      <trkpt lat="43.48136" lon="6.32813">
        <ele>140.2</ele>
        <time>2023-01-29T08:16:06.000Z</time>
      </trkpt>
      <trkpt lat="43.48136" lon="6.32813">
        <ele>140.1</ele>
        <time>2023-01-29T08:16:07.000Z</time>
      </trkpt>
      <trkpt lat="43.48136" lon="6.32813">
        <ele>140.1</ele>
        <time>2023-01-29T08:16:09.000Z</time>
      </trkpt>
      <trkpt lat="43.48136" lon="6.32813">
        <ele>140</ele>
        <time>2023-01-29T08:16:10.000Z</time>
      </trkpt>
      <trkpt lat="43.48136" lon="6.32811">
        <ele>140.3</ele>
        <time>2023-01-29T08:16:21.000Z</time>
      </trkpt>
      <trkpt lat="43.48135" lon="6.32802">
        <ele>139.4</ele>
        <time>2023-01-29T08:16:32.000Z</time>
      </trkpt>
      <trkpt lat="43.48135" lon="6.32801">
        <ele>139.5</ele>
        <time>2023-01-29T08:16:34.000Z</time>
      </trkpt>
      <trkpt lat="43.48135" lon="6.32801">
        <ele>139.6</ele>
        <time>2023-01-29T08:16:36.000Z</time>
      </trkpt>
      <trkpt lat="43.48134" lon="6.32801">
        <ele>139.6</ele>
        <time>2023-01-29T08:16:42.000Z</time>
      </trkpt>
      <trkpt lat="43.48134" lon="6.32801">
        <ele>139.5</ele>
        <time>2023-01-29T08:16:43.000Z</time>
      </trkpt>
      <trkpt lat="43.48134" lon="6.32801">
        <ele>139.7</ele>
        <time>2023-01-29T08:17:03.000Z</time>
      </trkpt>
      <trkpt lat="43.48134" lon="6.32801">
        <ele>139.5</ele>
        <time>2023-01-29T08:17:07.000Z</time>
      </trkpt>
      <trkpt lat="43.48133" lon="6.32801">
        <ele>139.5</ele>
        <time>2023-01-29T08:17:17.000Z</time>
      </trkpt>
      <trkpt lat="43.48124" lon="6.32799">
        <ele>139.1</ele>
        <time>2023-01-29T08:17:27.000Z</time>
      </trkpt>
      <trkpt lat="43.48115" lon="6.32797">
        <ele>138.8</ele>
        <time>2023-01-29T08:17:37.000Z</time>
      </trkpt>
      <trkpt lat="43.48106" lon="6.3279">
        <ele>138.3</ele>
        <time>2023-01-29T08:17:51.000Z</time>
      </trkpt>
      <trkpt lat="43.48101" lon="6.32779">
        <ele>137.3</ele>
        <time>2023-01-29T08:18:01.000Z</time>
      </trkpt>
      <trkpt lat="43.48094" lon="6.3277">
        <ele>136.4</ele>
        <time>2023-01-29T08:18:10.000Z</time>
      </trkpt>
      <trkpt lat="43.48085" lon="6.32762">
        <ele>135.2</ele>
        <time>2023-01-29T08:18:17.000Z</time>
      </trkpt>
      <trkpt lat="43.48076" lon="6.32757">
        <ele>134.7</ele>
        <time>2023-01-29T08:18:24.000Z</time>
      </trkpt>
      <trkpt lat="43.48068" lon="6.3275">
        <ele>133.6</ele>
        <time>2023-01-29T08:18:32.000Z</time>
      </trkpt>
      <trkpt lat="43.4806" lon="6.32745">
        <ele>132.9</ele>
        <time>2023-01-29T08:18:39.000Z</time>
      </trkpt>
      <trkpt lat="43.48051" lon="6.32737">
        <ele>132</ele>
        <time>2023-01-29T08:18:45.000Z</time>
      </trkpt>
      <trkpt lat="43.48042" lon="6.32733">
        <ele>131.5</ele>
        <time>2023-01-29T08:18:52.000Z</time>
      </trkpt>
      <trkpt lat="43.48032" lon="6.32731">
        <ele>130.9</ele>
        <time>2023-01-29T08:19:00.000Z</time>
      </trkpt>
      <trkpt lat="43.48022" lon="6.32729">
        <ele>130.4</ele>
        <time>2023-01-29T08:19:07.000Z</time>
      </trkpt>
      <trkpt lat="43.48012" lon="6.32729">
        <ele>129.8</ele>
        <time>2023-01-29T08:19:14.000Z</time>
      </trkpt>
      <trkpt lat="43.48002" lon="6.3273">
        <ele>129.6</ele>
        <time>2023-01-29T08:19:21.000Z</time>
      </trkpt>
      <trkpt lat="43.47994" lon="6.32736">
        <ele>129.3</ele>
        <time>2023-01-29T08:19:28.000Z</time>
      </trkpt>
      <trkpt lat="43.47984" lon="6.32737">
        <ele>129.3</ele>
        <time>2023-01-29T08:19:35.000Z</time>
      </trkpt>
      <trkpt lat="43.47974" lon="6.32739">
        <ele>129.4</ele>
        <time>2023-01-29T08:19:42.000Z</time>
      </trkpt>
      <trkpt lat="43.47965" lon="6.32738">
        <ele>129.5</ele>
        <time>2023-01-29T08:19:48.000Z</time>
      </trkpt>
      <trkpt lat="43.47956" lon="6.32738">
        <ele>129.5</ele>
        <time>2023-01-29T08:19:55.000Z</time>
      </trkpt>
      <trkpt lat="43.47946" lon="6.3274">
        <ele>130</ele>
        <time>2023-01-29T08:20:03.000Z</time>
      </trkpt>
      <trkpt lat="43.47937" lon="6.32741">
        <ele>130.9</ele>
        <time>2023-01-29T08:20:11.000Z</time>
      </trkpt>
      <trkpt lat="43.47927" lon="6.32738">
        <ele>131.2</ele>
        <time>2023-01-29T08:20:19.000Z</time>
      </trkpt>
      <trkpt lat="43.47918" lon="6.32738">
        <ele>131.8</ele>
        <time>2023-01-29T08:20:27.000Z</time>
      </trkpt>
      <trkpt lat="43.47908" lon="6.32737">
        <ele>131.4</ele>
        <time>2023-01-29T08:20:35.000Z</time>
      </trkpt>
      <trkpt lat="43.47898" lon="6.32736">
        <ele>130.8</ele>
        <time>2023-01-29T08:20:44.000Z</time>
      </trkpt>
      <trkpt lat="43.4789" lon="6.3273">
        <ele>130.5</ele>
        <time>2023-01-29T08:20:51.000Z</time>
      </trkpt>
      <trkpt lat="43.47881" lon="6.32725">
        <ele>130.3</ele>
        <time>2023-01-29T08:20:58.000Z</time>
      </trkpt>
      <trkpt lat="43.47874" lon="6.32717">
        <ele>130.5</ele>
        <time>2023-01-29T08:21:04.000Z</time>
      </trkpt>
      <trkpt lat="43.47866" lon="6.3271">
        <ele>131.1</ele>
        <time>2023-01-29T08:21:13.000Z</time>
      </trkpt>
      <trkpt lat="43.47859" lon="6.32702">
        <ele>132</ele>
        <time>2023-01-29T08:21:20.000Z</time>
      </trkpt>
      <trkpt lat="43.4785" lon="6.32695">
        <ele>132.6</ele>
        <time>2023-01-29T08:21:29.000Z</time>
      </trkpt>
      <trkpt lat="43.47842" lon="6.32688">
        <ele>133</ele>
        <time>2023-01-29T08:21:38.000Z</time>
      </trkpt>
      <trkpt lat="43.47835" lon="6.32678">
        <ele>132.6</ele>
        <time>2023-01-29T08:21:46.000Z</time>
      </trkpt>
      <trkpt lat="43.4783" lon="6.32667">
        <ele>132.1</ele>
        <time>2023-01-29T08:21:55.000Z</time>
      </trkpt>
      <trkpt lat="43.47823" lon="6.32657">
        <ele>130.8</ele>
        <time>2023-01-29T08:22:04.000Z</time>
      </trkpt>
      <trkpt lat="43.47818" lon="6.32646">
        <ele>129.7</ele>
        <time>2023-01-29T08:22:12.000Z</time>
      </trkpt>
      <trkpt lat="43.47813" lon="6.32634">
        <ele>128.5</ele>
        <time>2023-01-29T08:22:22.000Z</time>
      </trkpt>
      <trkpt lat="43.47807" lon="6.32624">
        <ele>127.1</ele>
        <time>2023-01-29T08:22:32.000Z</time>
      </trkpt>
      <trkpt lat="43.47803" lon="6.32612">
        <ele>126</ele>
        <time>2023-01-29T08:22:41.000Z</time>
      </trkpt>
      <trkpt lat="43.47797" lon="6.32602">
        <ele>125.3</ele>
        <time>2023-01-29T08:22:50.000Z</time>
      </trkpt>
      <trkpt lat="43.47793" lon="6.3259">
        <ele>124.5</ele>
        <time>2023-01-29T08:22:57.000Z</time>
      </trkpt>
      <trkpt lat="43.47788" lon="6.3258">
        <ele>123.2</ele>
        <time>2023-01-29T08:23:05.000Z</time>
      </trkpt>
      <trkpt lat="43.47784" lon="6.32568">
        <ele>122.6</ele>
        <time>2023-01-29T08:23:14.000Z</time>
      </trkpt>
      <trkpt lat="43.47785" lon="6.32555">
        <ele>121.2</ele>
        <time>2023-01-29T08:23:24.000Z</time>
      </trkpt>
      <trkpt lat="43.47784" lon="6.32542">
        <ele>120.7</ele>
        <time>2023-01-29T08:23:32.000Z</time>
      </trkpt>
      <trkpt lat="43.47784" lon="6.32529">
        <ele>119.9</ele>
        <time>2023-01-29T08:23:41.000Z</time>
      </trkpt>
      <trkpt lat="43.47783" lon="6.32515">
        <ele>118.4</ele>
        <time>2023-01-29T08:23:51.000Z</time>
      </trkpt>
      <trkpt lat="43.47784" lon="6.32502">
        <ele>117.3</ele>
        <time>2023-01-29T08:24:01.000Z</time>
      </trkpt>
      <trkpt lat="43.47785" lon="6.32489">
        <ele>116.1</ele>
        <time>2023-01-29T08:24:09.000Z</time>
      </trkpt>
      <trkpt lat="43.47783" lon="6.32475">
        <ele>115.3</ele>
        <time>2023-01-29T08:24:17.000Z</time>
      </trkpt>
      <trkpt lat="43.47779" lon="6.32463">
        <ele>114.8</ele>
        <time>2023-01-29T08:24:25.000Z</time>
      </trkpt>
      <trkpt lat="43.47775" lon="6.32451">
        <ele>114.2</ele>
        <time>2023-01-29T08:24:33.000Z</time>
      </trkpt>
      <trkpt lat="43.47771" lon="6.32438">
        <ele>114.5</ele>
        <time>2023-01-29T08:24:42.000Z</time>
      </trkpt>
      <trkpt lat="43.47767" lon="6.32424">
        <ele>114.4</ele>
        <time>2023-01-29T08:24:50.000Z</time>
      </trkpt>
      <trkpt lat="43.47762" lon="6.32413">
        <ele>114.4</ele>
        <time>2023-01-29T08:24:58.000Z</time>
      </trkpt>
      <trkpt lat="43.47758" lon="6.324">
        <ele>114.1</ele>
        <time>2023-01-29T08:25:07.000Z</time>
      </trkpt>
      <trkpt lat="43.47754" lon="6.32387">
        <ele>114.2</ele>
        <time>2023-01-29T08:25:15.000Z</time>
      </trkpt>
      <trkpt lat="43.47748" lon="6.32377">
        <ele>114.1</ele>
        <time>2023-01-29T08:25:23.000Z</time>
      </trkpt>
      <trkpt lat="43.47744" lon="6.32366">
        <ele>114.8</ele>
        <time>2023-01-29T08:25:30.000Z</time>
      </trkpt>
      <trkpt lat="43.47738" lon="6.32356">
        <ele>115.3</ele>
        <time>2023-01-29T08:25:38.000Z</time>
      </trkpt>
      <trkpt lat="43.47733" lon="6.32343">
        <ele>116</ele>
        <time>2023-01-29T08:25:48.000Z</time>
      </trkpt>
      <trkpt lat="43.47729" lon="6.32331">
        <ele>117</ele>
        <time>2023-01-29T08:25:58.000Z</time>
      </trkpt>
      <trkpt lat="43.47725" lon="6.3232">
        <ele>117.7</ele>
        <time>2023-01-29T08:26:07.000Z</time>
      </trkpt>
      <trkpt lat="43.4772" lon="6.3231">
        <ele>118.5</ele>
        <time>2023-01-29T08:26:16.000Z</time>
      </trkpt>
      <trkpt lat="43.47717" lon="6.32298">
        <ele>119.4</ele>
        <time>2023-01-29T08:26:25.000Z</time>
      </trkpt>
      <trkpt lat="43.47713" lon="6.32286">
        <ele>120</ele>
        <time>2023-01-29T08:26:35.000Z</time>
      </trkpt>
      <trkpt lat="43.47711" lon="6.32273">
        <ele>120.4</ele>
        <time>2023-01-29T08:26:43.000Z</time>
      </trkpt>
      <trkpt lat="43.47707" lon="6.32261">
        <ele>121.3</ele>
        <time>2023-01-29T08:26:53.000Z</time>
      </trkpt>
      <trkpt lat="43.47705" lon="6.32248">
        <ele>122.3</ele>
        <time>2023-01-29T08:27:02.000Z</time>
      </trkpt>
      <trkpt lat="43.47703" lon="6.32236">
        <ele>123.4</ele>
        <time>2023-01-29T08:27:11.000Z</time>
      </trkpt>
      <trkpt lat="43.47696" lon="6.32226">
        <ele>124</ele>
        <time>2023-01-29T08:27:20.000Z</time>
      </trkpt>
      <trkpt lat="43.47688" lon="6.32218">
        <ele>125.2</ele>
        <time>2023-01-29T08:27:31.000Z</time>
      </trkpt>
      <trkpt lat="43.47682" lon="6.32207">
        <ele>126.2</ele>
        <time>2023-01-29T08:27:41.000Z</time>
      </trkpt>
      <trkpt lat="43.47676" lon="6.32197">
        <ele>126.8</ele>
        <time>2023-01-29T08:27:51.000Z</time>
      </trkpt>
      <trkpt lat="43.4767" lon="6.32188">
        <ele>127.4</ele>
        <time>2023-01-29T08:28:00.000Z</time>
      </trkpt>
      <trkpt lat="43.47662" lon="6.32178">
        <ele>128</ele>
        <time>2023-01-29T08:28:10.000Z</time>
      </trkpt>
      <trkpt lat="43.47657" lon="6.32167">
        <ele>128.9</ele>
        <time>2023-01-29T08:28:19.000Z</time>
      </trkpt>
      <trkpt lat="43.47652" lon="6.32157">
        <ele>129.6</ele>
        <time>2023-01-29T08:28:29.000Z</time>
      </trkpt>
      <trkpt lat="43.47646" lon="6.32147">
        <ele>130.4</ele>
        <time>2023-01-29T08:28:38.000Z</time>
      </trkpt>
      <trkpt lat="43.4764" lon="6.32137">
        <ele>131.1</ele>
        <time>2023-01-29T08:28:47.000Z</time>
      </trkpt>
      <trkpt lat="43.47636" lon="6.32124">
        <ele>131.8</ele>
        <time>2023-01-29T08:28:57.000Z</time>
      </trkpt>
      <trkpt lat="43.4763" lon="6.32115">
        <ele>132.5</ele>
        <time>2023-01-29T08:29:07.000Z</time>
      </trkpt>
      <trkpt lat="43.47624" lon="6.32105">
        <ele>133</ele>
        <time>2023-01-29T08:29:18.000Z</time>
      </trkpt>
      <trkpt lat="43.47617" lon="6.32097">
        <ele>133.7</ele>
        <time>2023-01-29T08:29:32.000Z</time>
      </trkpt>
      <trkpt lat="43.47616" lon="6.32096">
        <ele>133.8</ele>
        <time>2023-01-29T08:29:36.000Z</time>
      </trkpt>
      <trkpt lat="43.47616" lon="6.32096">
        <ele>133.7</ele>
        <time>2023-01-29T08:29:43.000Z</time>
      </trkpt>
      <trkpt lat="43.47616" lon="6.32096">
        <ele>133.7</ele>
        <time>2023-01-29T08:29:44.000Z</time>
      </trkpt>
      <trkpt lat="43.47616" lon="6.32096">
        <ele>133.7</ele>
        <time>2023-01-29T08:29:58.000Z</time>
      </trkpt>
      <trkpt lat="43.47616" lon="6.32096">
        <ele>133.6</ele>
        <time>2023-01-29T08:29:59.000Z</time>
      </trkpt>
      <trkpt lat="43.47616" lon="6.32096">
        <ele>133.7</ele>
        <time>2023-01-29T08:30:14.000Z</time>
      </trkpt>
      <trkpt lat="43.47615" lon="6.32095">
        <ele>133.6</ele>
        <time>2023-01-29T08:30:16.000Z</time>
      </trkpt>
      <trkpt lat="43.47615" lon="6.32095">
        <ele>133.6</ele>
        <time>2023-01-29T08:30:56.000Z</time>
      </trkpt>
      <trkpt lat="43.47615" lon="6.32094">
        <ele>133.8</ele>
        <time>2023-01-29T08:31:00.000Z</time>
      </trkpt>
      <trkpt lat="43.47615" lon="6.32094">
        <ele>133.4</ele>
        <time>2023-01-29T08:31:04.000Z</time>
      </trkpt>
      <trkpt lat="43.47615" lon="6.32094">
        <ele>133.6</ele>
        <time>2023-01-29T08:31:05.000Z</time>
      </trkpt>
      <trkpt lat="43.47614" lon="6.32094">
        <ele>133.7</ele>
        <time>2023-01-29T08:31:08.000Z</time>
      </trkpt>
      <trkpt lat="43.47615" lon="6.32094">
        <ele>133.9</ele>
        <time>2023-01-29T08:31:10.000Z</time>
      </trkpt>
      <trkpt lat="43.47614" lon="6.32094">
        <ele>133.7</ele>
        <time>2023-01-29T08:31:15.000Z</time>
      </trkpt>
      <trkpt lat="43.47614" lon="6.32094">
        <ele>133.7</ele>
        <time>2023-01-29T08:31:16.000Z</time>
      </trkpt>
      <trkpt lat="43.47615" lon="6.32094">
        <ele>133.8</ele>
        <time>2023-01-29T08:31:21.000Z</time>
      </trkpt>
      <trkpt lat="43.47615" lon="6.32094">
        <ele>133.8</ele>
        <time>2023-01-29T08:31:22.000Z</time>
      </trkpt>
      <trkpt lat="43.47614" lon="6.32094">
        <ele>133.7</ele>
        <time>2023-01-29T08:31:25.000Z</time>
      </trkpt>
      <trkpt lat="43.47614" lon="6.32094">
        <ele>133.8</ele>
        <time>2023-01-29T08:31:28.000Z</time>
      </trkpt>
      <trkpt lat="43.47614" lon="6.32094">
        <ele>133.8</ele>
        <time>2023-01-29T08:31:33.000Z</time>
      </trkpt>
      <trkpt lat="43.47614" lon="6.32095">
        <ele>133.8</ele>
        <time>2023-01-29T08:31:35.000Z</time>
      </trkpt>
      <trkpt lat="43.47614" lon="6.32095">
        <ele>133.7</ele>
        <time>2023-01-29T08:31:36.000Z</time>
      </trkpt>
      <trkpt lat="43.47614" lon="6.32095">
        <ele>133.7</ele>
        <time>2023-01-29T08:31:37.000Z</time>
      </trkpt>
      <trkpt lat="43.47614" lon="6.32095">
        <ele>133.5</ele>
        <time>2023-01-29T08:31:42.000Z</time>
      </trkpt>
      <trkpt lat="43.47614" lon="6.32095">
        <ele>133.6</ele>
        <time>2023-01-29T08:31:43.000Z</time>
      </trkpt>
      <trkpt lat="43.47614" lon="6.32095">
        <ele>133.7</ele>
        <time>2023-01-29T08:31:44.000Z</time>
      </trkpt>
      <trkpt lat="43.47614" lon="6.32095">
        <ele>133.7</ele>
        <time>2023-01-29T08:31:45.000Z</time>
      </trkpt>
      <trkpt lat="43.47614" lon="6.32095">
        <ele>133.7</ele>
        <time>2023-01-29T08:31:46.000Z</time>
      </trkpt>
      <trkpt lat="43.47614" lon="6.32095">
        <ele>133.8</ele>
        <time>2023-01-29T08:31:47.000Z</time>
      </trkpt>
      <trkpt lat="43.47614" lon="6.32095">
        <ele>133.8</ele>
        <time>2023-01-29T08:31:48.000Z</time>
      </trkpt>
      <trkpt lat="43.47614" lon="6.32095">
        <ele>133.8</ele>
        <time>2023-01-29T08:31:49.000Z</time>
      </trkpt>
      <trkpt lat="43.47614" lon="6.32094">
        <ele>133.8</ele>
        <time>2023-01-29T08:31:50.000Z</time>
      </trkpt>
      <trkpt lat="43.47615" lon="6.32095">
        <ele>133.7</ele>
        <time>2023-01-29T08:31:53.000Z</time>
      </trkpt>
      <trkpt lat="43.47615" lon="6.32095">
        <ele>133.6</ele>
        <time>2023-01-29T08:31:54.000Z</time>
      </trkpt>
      <trkpt lat="43.47615" lon="6.32095">
        <ele>133.6</ele>
        <time>2023-01-29T08:31:55.000Z</time>
      </trkpt>
      <trkpt lat="43.47615" lon="6.32095">
        <ele>133.7</ele>
        <time>2023-01-29T08:32:07.000Z</time>
      </trkpt>
      <trkpt lat="43.47615" lon="6.32095">
        <ele>133.6</ele>
        <time>2023-01-29T08:32:08.000Z</time>
      </trkpt>
      <trkpt lat="43.47615" lon="6.32094">
        <ele>133.6</ele>
        <time>2023-01-29T08:32:12.000Z</time>
      </trkpt>
      <trkpt lat="43.47615" lon="6.32094">
        <ele>133.5</ele>
        <time>2023-01-29T08:32:14.000Z</time>
      </trkpt>
      <trkpt lat="43.47615" lon="6.32094">
        <ele>133.9</ele>
        <time>2023-01-29T08:32:55.000Z</time>
      </trkpt>
      <trkpt lat="43.47614" lon="6.32094">
        <ele>133.8</ele>
        <time>2023-01-29T08:32:57.000Z</time>
      </trkpt>
      <trkpt lat="43.47614" lon="6.32093">
        <ele>133.9</ele>
        <time>2023-01-29T08:32:58.000Z</time>
      </trkpt>
      <trkpt lat="43.47614" lon="6.32093">
        <ele>133.9</ele>
        <time>2023-01-29T08:33:00.000Z</time>
      </trkpt>
      <trkpt lat="43.47614" lon="6.32092">
        <ele>134</ele>
        <time>2023-01-29T08:33:03.000Z</time>
      </trkpt>
      <trkpt lat="43.47614" lon="6.32091">
        <ele>133.9</ele>
        <time>2023-01-29T08:33:05.000Z</time>
      </trkpt>
      <trkpt lat="43.47614" lon="6.32091">
        <ele>133.9</ele>
        <time>2023-01-29T08:33:06.000Z</time>
      </trkpt>
      <trkpt lat="43.47615" lon="6.32094">
        <ele>134</ele>
        <time>2023-01-29T08:33:16.000Z</time>
      </trkpt>
      <trkpt lat="43.47614" lon="6.32094">
        <ele>133.9</ele>
        <time>2023-01-29T08:33:17.000Z</time>
      </trkpt>
      <trkpt lat="43.47614" lon="6.32094">
        <ele>133.9</ele>
        <time>2023-01-29T08:33:18.000Z</time>
      </trkpt>
      <trkpt lat="43.47614" lon="6.32095">
        <ele>134.1</ele>
        <time>2023-01-29T08:33:21.000Z</time>
      </trkpt>
      <trkpt lat="43.47605" lon="6.32095">
        <ele>134.4</ele>
        <time>2023-01-29T08:33:40.000Z</time>
      </trkpt>
      <trkpt lat="43.47604" lon="6.32095">
        <ele>134.6</ele>
        <time>2023-01-29T08:33:43.000Z</time>
      </trkpt>
      <trkpt lat="43.47604" lon="6.32095">
        <ele>134.6</ele>
        <time>2023-01-29T08:33:46.000Z</time>
      </trkpt>
      <trkpt lat="43.47594" lon="6.32095">
        <ele>135.7</ele>
        <time>2023-01-29T08:33:58.000Z</time>
      </trkpt>
      <trkpt lat="43.47591" lon="6.32107">
        <ele>136</ele>
        <time>2023-01-29T08:34:07.000Z</time>
      </trkpt>
      <trkpt lat="43.47587" lon="6.32119">
        <ele>136.7</ele>
        <time>2023-01-29T08:34:16.000Z</time>
      </trkpt>
      <trkpt lat="43.47583" lon="6.3213">
        <ele>137.2</ele>
        <time>2023-01-29T08:34:24.000Z</time>
      </trkpt>
      <trkpt lat="43.47581" lon="6.32143">
        <ele>138.4</ele>
        <time>2023-01-29T08:34:35.000Z</time>
      </trkpt>
      <trkpt lat="43.47578" lon="6.32155">
        <ele>139</ele>
        <time>2023-01-29T08:34:45.000Z</time>
      </trkpt>
      <trkpt lat="43.47574" lon="6.32167">
        <ele>139.6</ele>
        <time>2023-01-29T08:34:55.000Z</time>
      </trkpt>
      <trkpt lat="43.4757" lon="6.32179">
        <ele>139.9</ele>
        <time>2023-01-29T08:35:04.000Z</time>
      </trkpt>
      <trkpt lat="43.47568" lon="6.32192">
        <ele>140.9</ele>
        <time>2023-01-29T08:35:14.000Z</time>
      </trkpt>
      <trkpt lat="43.47563" lon="6.32203">
        <ele>140.8</ele>
        <time>2023-01-29T08:35:23.000Z</time>
      </trkpt>
      <trkpt lat="43.47556" lon="6.32211">
        <ele>141.7</ele>
        <time>2023-01-29T08:35:32.000Z</time>
      </trkpt>
      <trkpt lat="43.47549" lon="6.32219">
        <ele>142.9</ele>
        <time>2023-01-29T08:35:42.000Z</time>
      </trkpt>
      <trkpt lat="43.47542" lon="6.32229">
        <ele>144</ele>
        <time>2023-01-29T08:35:53.000Z</time>
      </trkpt>
      <trkpt lat="43.47534" lon="6.32236">
        <ele>145.3</ele>
        <time>2023-01-29T08:36:02.000Z</time>
      </trkpt>
      <trkpt lat="43.47527" lon="6.32244">
        <ele>146</ele>
        <time>2023-01-29T08:36:11.000Z</time>
      </trkpt>
      <trkpt lat="43.47521" lon="6.32255">
        <ele>146.6</ele>
        <time>2023-01-29T08:36:20.000Z</time>
      </trkpt>
      <trkpt lat="43.47519" lon="6.32267">
        <ele>146.4</ele>
        <time>2023-01-29T08:36:27.000Z</time>
      </trkpt>
      <trkpt lat="43.47523" lon="6.32279">
        <ele>146.2</ele>
        <time>2023-01-29T08:36:33.000Z</time>
      </trkpt>
      <trkpt lat="43.47527" lon="6.32292">
        <ele>146.2</ele>
        <time>2023-01-29T08:36:40.000Z</time>
      </trkpt>
      <trkpt lat="43.4753" lon="6.32305">
        <ele>146.4</ele>
        <time>2023-01-29T08:36:48.000Z</time>
      </trkpt>
      <trkpt lat="43.47534" lon="6.32306">
        <ele>146.5</ele>
        <time>2023-01-29T08:36:58.000Z</time>
      </trkpt>
      <trkpt lat="43.47535" lon="6.32306">
        <ele>146.5</ele>
        <time>2023-01-29T08:36:59.000Z</time>
      </trkpt>
      <trkpt lat="43.47534" lon="6.32306">
        <ele>146.8</ele>
        <time>2023-01-29T08:37:01.000Z</time>
      </trkpt>
      <trkpt lat="43.47535" lon="6.32307">
        <ele>147</ele>
        <time>2023-01-29T08:37:10.000Z</time>
      </trkpt>
      <trkpt lat="43.47535" lon="6.32308">
        <ele>146.7</ele>
        <time>2023-01-29T08:37:14.000Z</time>
      </trkpt>
      <trkpt lat="43.47535" lon="6.32308">
        <ele>146.7</ele>
        <time>2023-01-29T08:37:16.000Z</time>
      </trkpt>
      <trkpt lat="43.47535" lon="6.32309">
        <ele>146.7</ele>
        <time>2023-01-29T08:37:19.000Z</time>
      </trkpt>
      <trkpt lat="43.47535" lon="6.3231">
        <ele>146.8</ele>
        <time>2023-01-29T08:37:25.000Z</time>
      </trkpt>
      <trkpt lat="43.47533" lon="6.32322">
        <ele>147.3</ele>
        <time>2023-01-29T08:37:36.000Z</time>
      </trkpt>
      <trkpt lat="43.47524" lon="6.32325">
        <ele>147.5</ele>
        <time>2023-01-29T08:37:49.000Z</time>
      </trkpt>
      <trkpt lat="43.47515" lon="6.32323">
        <ele>147.3</ele>
        <time>2023-01-29T08:37:57.000Z</time>
      </trkpt>
      <trkpt lat="43.47505" lon="6.32322">
        <ele>147.5</ele>
        <time>2023-01-29T08:38:04.000Z</time>
      </trkpt>
      <trkpt lat="43.47496" lon="6.32324">
        <ele>148.3</ele>
        <time>2023-01-29T08:38:13.000Z</time>
      </trkpt>
      <trkpt lat="43.47487" lon="6.32326">
        <ele>148.9</ele>
        <time>2023-01-29T08:38:25.000Z</time>
      </trkpt>
      <trkpt lat="43.47479" lon="6.32334">
        <ele>149.9</ele>
        <time>2023-01-29T08:38:35.000Z</time>
      </trkpt>
      <trkpt lat="43.47474" lon="6.32346">
        <ele>150.5</ele>
        <time>2023-01-29T08:38:44.000Z</time>
      </trkpt>
      <trkpt lat="43.47468" lon="6.32356">
        <ele>150.8</ele>
        <time>2023-01-29T08:38:53.000Z</time>
      </trkpt>
      <trkpt lat="43.47461" lon="6.32365">
        <ele>151.1</ele>
        <time>2023-01-29T08:39:02.000Z</time>
      </trkpt>
      <trkpt lat="43.47452" lon="6.3237">
        <ele>150.7</ele>
        <time>2023-01-29T08:39:10.000Z</time>
      </trkpt>
      <trkpt lat="43.47445" lon="6.32379">
        <ele>150.2</ele>
        <time>2023-01-29T08:39:23.000Z</time>
      </trkpt>
      <trkpt lat="43.47437" lon="6.32385">
        <ele>149.5</ele>
        <time>2023-01-29T08:39:33.000Z</time>
      </trkpt>
      <trkpt lat="43.47428" lon="6.32392">
        <ele>148.8</ele>
        <time>2023-01-29T08:39:41.000Z</time>
      </trkpt>
      <trkpt lat="43.4742" lon="6.32399">
        <ele>147.8</ele>
        <time>2023-01-29T08:39:50.000Z</time>
      </trkpt>
      <trkpt lat="43.47412" lon="6.32406">
        <ele>146.7</ele>
        <time>2023-01-29T08:39:58.000Z</time>
      </trkpt>
      <trkpt lat="43.47403" lon="6.3241">
        <ele>144.8</ele>
        <time>2023-01-29T08:40:08.000Z</time>
      </trkpt>
      <trkpt lat="43.47394" lon="6.32413">
        <ele>143.5</ele>
        <time>2023-01-29T08:40:19.000Z</time>
      </trkpt>
      <trkpt lat="43.47385" lon="6.3241">
        <ele>142.1</ele>
        <time>2023-01-29T08:40:31.000Z</time>
      </trkpt>
      <trkpt lat="43.47376" lon="6.32408">
        <ele>140.6</ele>
        <time>2023-01-29T08:40:40.000Z</time>
      </trkpt>
      <trkpt lat="43.47366" lon="6.32404">
        <ele>140</ele>
        <time>2023-01-29T08:40:49.000Z</time>
      </trkpt>
      <trkpt lat="43.47357" lon="6.32404">
        <ele>139.1</ele>
        <time>2023-01-29T08:40:57.000Z</time>
      </trkpt>
      <trkpt lat="43.47348" lon="6.32404">
        <ele>137.9</ele>
        <time>2023-01-29T08:41:06.000Z</time>
      </trkpt>
      <trkpt lat="43.47338" lon="6.32406">
        <ele>136.8</ele>
        <time>2023-01-29T08:41:16.000Z</time>
      </trkpt>
      <trkpt lat="43.47329" lon="6.32406">
        <ele>135.2</ele>
        <time>2023-01-29T08:41:28.000Z</time>
      </trkpt>
      <trkpt lat="43.4732" lon="6.32401">
        <ele>133.4</ele>
        <time>2023-01-29T08:41:39.000Z</time>
      </trkpt>
      <trkpt lat="43.47312" lon="6.32395">
        <ele>132.8</ele>
        <time>2023-01-29T08:41:48.000Z</time>
      </trkpt>
      <trkpt lat="43.47305" lon="6.32404">
        <ele>132.4</ele>
        <time>2023-01-29T08:41:56.000Z</time>
      </trkpt>
      <trkpt lat="43.47303" lon="6.32407">
        <ele>132.4</ele>
        <time>2023-01-29T08:42:01.000Z</time>
      </trkpt>
      <trkpt lat="43.47303" lon="6.32407">
        <ele>132.3</ele>
        <time>2023-01-29T08:42:10.000Z</time>
      </trkpt>
      <trkpt lat="43.47303" lon="6.32407">
        <ele>132.4</ele>
        <time>2023-01-29T08:42:11.000Z</time>
      </trkpt>
      <trkpt lat="43.47303" lon="6.32408">
        <ele>132.5</ele>
        <time>2023-01-29T08:42:13.000Z</time>
      </trkpt>
      <trkpt lat="43.47301" lon="6.32414">
        <ele>132.5</ele>
        <time>2023-01-29T08:42:18.000Z</time>
      </trkpt>
      <trkpt lat="43.47301" lon="6.32414">
        <ele>132.5</ele>
        <time>2023-01-29T08:42:20.000Z</time>
      </trkpt>
      <trkpt lat="43.47292" lon="6.32419">
        <ele>134.2</ele>
        <time>2023-01-29T08:42:43.000Z</time>
      </trkpt>
      <trkpt lat="43.47284" lon="6.32426">
        <ele>135.7</ele>
        <time>2023-01-29T08:42:54.000Z</time>
      </trkpt>
      <trkpt lat="43.47275" lon="6.32431">
        <ele>137.7</ele>
        <time>2023-01-29T08:43:12.000Z</time>
      </trkpt>
      <trkpt lat="43.47272" lon="6.32427">
        <ele>139</ele>
        <time>2023-01-29T08:43:20.000Z</time>
      </trkpt>
      <trkpt lat="43.47272" lon="6.32426">
        <ele>139.2</ele>
        <time>2023-01-29T08:43:21.000Z</time>
      </trkpt>
      <trkpt lat="43.47263" lon="6.32425">
        <ele>141.2</ele>
        <time>2023-01-29T08:43:35.000Z</time>
      </trkpt>
      <trkpt lat="43.47258" lon="6.32436">
        <ele>141.4</ele>
        <time>2023-01-29T08:43:44.000Z</time>
      </trkpt>
      <trkpt lat="43.4725" lon="6.32443">
        <ele>142.3</ele>
        <time>2023-01-29T08:43:55.000Z</time>
      </trkpt>
      <trkpt lat="43.47241" lon="6.32441">
        <ele>144.4</ele>
        <time>2023-01-29T08:44:08.000Z</time>
      </trkpt>
      <trkpt lat="43.47234" lon="6.32449">
        <ele>146.1</ele>
        <time>2023-01-29T08:44:23.000Z</time>
      </trkpt>
      <trkpt lat="43.47228" lon="6.32459">
        <ele>147.1</ele>
        <time>2023-01-29T08:44:32.000Z</time>
      </trkpt>
      <trkpt lat="43.47218" lon="6.3246">
        <ele>148.8</ele>
        <time>2023-01-29T08:44:47.000Z</time>
      </trkpt>
      <trkpt lat="43.47214" lon="6.32471">
        <ele>148.9</ele>
        <time>2023-01-29T08:44:54.000Z</time>
      </trkpt>
      <trkpt lat="43.47213" lon="6.32485">
        <ele>149.2</ele>
        <time>2023-01-29T08:45:03.000Z</time>
      </trkpt>
      <trkpt lat="43.4721" lon="6.32497">
        <ele>149.3</ele>
        <time>2023-01-29T08:45:11.000Z</time>
      </trkpt>
      <trkpt lat="43.47209" lon="6.32504">
        <ele>149.6</ele>
        <time>2023-01-29T08:45:19.000Z</time>
      </trkpt>
      <trkpt lat="43.47209" lon="6.32504">
        <ele>149.5</ele>
        <time>2023-01-29T08:45:20.000Z</time>
      </trkpt>
      <trkpt lat="43.472" lon="6.325">
        <ele>150.5</ele>
        <time>2023-01-29T08:45:35.000Z</time>
      </trkpt>
      <trkpt lat="43.47194" lon="6.32489">
        <ele>151</ele>
        <time>2023-01-29T08:45:49.000Z</time>
      </trkpt>
      <trkpt lat="43.47187" lon="6.32482">
        <ele>150.1</ele>
        <time>2023-01-29T08:46:00.000Z</time>
      </trkpt>
      <trkpt lat="43.47177" lon="6.3248">
        <ele>150</ele>
        <time>2023-01-29T08:46:08.000Z</time>
      </trkpt>
      <trkpt lat="43.47169" lon="6.32476">
        <ele>149.4</ele>
        <time>2023-01-29T08:46:23.000Z</time>
      </trkpt>
      <trkpt lat="43.47168" lon="6.32463">
        <ele>148.7</ele>
        <time>2023-01-29T08:46:34.000Z</time>
      </trkpt>
      <trkpt lat="43.47159" lon="6.32457">
        <ele>147.4</ele>
        <time>2023-01-29T08:46:43.000Z</time>
      </trkpt>
      <trkpt lat="43.47149" lon="6.32454">
        <ele>146.8</ele>
        <time>2023-01-29T08:46:53.000Z</time>
      </trkpt>
      <trkpt lat="43.4714" lon="6.32453">
        <ele>145.8</ele>
        <time>2023-01-29T08:47:02.000Z</time>
      </trkpt>
      <trkpt lat="43.4713" lon="6.32457">
        <ele>144.7</ele>
        <time>2023-01-29T08:47:10.000Z</time>
      </trkpt>
      <trkpt lat="43.47122" lon="6.32462">
        <ele>144.2</ele>
        <time>2023-01-29T08:47:17.000Z</time>
      </trkpt>
      <trkpt lat="43.47113" lon="6.32467">
        <ele>143.1</ele>
        <time>2023-01-29T08:47:28.000Z</time>
      </trkpt>
      <trkpt lat="43.47103" lon="6.32471">
        <ele>142.1</ele>
        <time>2023-01-29T08:47:38.000Z</time>
      </trkpt>
      <trkpt lat="43.47094" lon="6.32472">
        <ele>140.8</ele>
        <time>2023-01-29T08:47:48.000Z</time>
      </trkpt>
      <trkpt lat="43.47085" lon="6.32471">
        <ele>138.9</ele>
        <time>2023-01-29T08:48:02.000Z</time>
      </trkpt>
      <trkpt lat="43.47075" lon="6.32471">
        <ele>137.4</ele>
        <time>2023-01-29T08:48:12.000Z</time>
      </trkpt>
      <trkpt lat="43.47066" lon="6.32476">
        <ele>135.7</ele>
        <time>2023-01-29T08:48:22.000Z</time>
      </trkpt>
      <trkpt lat="43.47057" lon="6.3248">
        <ele>134.6</ele>
        <time>2023-01-29T08:48:30.000Z</time>
      </trkpt>
      <trkpt lat="43.47048" lon="6.3248">
        <ele>132.3</ele>
        <time>2023-01-29T08:48:41.000Z</time>
      </trkpt>
      <trkpt lat="43.47038" lon="6.3248">
        <ele>131</ele>
        <time>2023-01-29T08:48:52.000Z</time>
      </trkpt>
      <trkpt lat="43.47029" lon="6.32481">
        <ele>130.7</ele>
        <time>2023-01-29T08:49:00.000Z</time>
      </trkpt>
      <trkpt lat="43.4702" lon="6.32483">
        <ele>129.5</ele>
        <time>2023-01-29T08:49:10.000Z</time>
      </trkpt>
      <trkpt lat="43.47012" lon="6.32475">
        <ele>126.9</ele>
        <time>2023-01-29T08:49:25.000Z</time>
      </trkpt>
      <trkpt lat="43.47004" lon="6.32469">
        <ele>125.9</ele>
        <time>2023-01-29T08:49:35.000Z</time>
      </trkpt>
      <trkpt lat="43.46996" lon="6.32461">
        <ele>124.7</ele>
        <time>2023-01-29T08:49:42.000Z</time>
      </trkpt>
      <trkpt lat="43.46989" lon="6.32454">
        <ele>123.6</ele>
        <time>2023-01-29T08:49:52.000Z</time>
      </trkpt>
      <trkpt lat="43.46981" lon="6.32448">
        <ele>122.5</ele>
        <time>2023-01-29T08:49:59.000Z</time>
      </trkpt>
      <trkpt lat="43.46972" lon="6.32444">
        <ele>121.6</ele>
        <time>2023-01-29T08:50:08.000Z</time>
      </trkpt>
      <trkpt lat="43.46963" lon="6.32439">
        <ele>120.2</ele>
        <time>2023-01-29T08:50:20.000Z</time>
      </trkpt>
      <trkpt lat="43.46961" lon="6.32437">
        <ele>120</ele>
        <time>2023-01-29T08:50:24.000Z</time>
      </trkpt>
      <trkpt lat="43.46961" lon="6.32437">
        <ele>119.9</ele>
        <time>2023-01-29T08:50:28.000Z</time>
      </trkpt>
      <trkpt lat="43.46952" lon="6.32435">
        <ele>118.8</ele>
        <time>2023-01-29T08:50:40.000Z</time>
      </trkpt>
      <trkpt lat="43.46944" lon="6.3243">
        <ele>118</ele>
        <time>2023-01-29T08:50:50.000Z</time>
      </trkpt>
      <trkpt lat="43.46943" lon="6.32429">
        <ele>117.9</ele>
        <time>2023-01-29T08:50:53.000Z</time>
      </trkpt>
      <trkpt lat="43.46943" lon="6.32429">
        <ele>117.9</ele>
        <time>2023-01-29T08:50:58.000Z</time>
      </trkpt>
      <trkpt lat="43.46942" lon="6.32428">
        <ele>117.9</ele>
        <time>2023-01-29T08:51:01.000Z</time>
      </trkpt>
      <trkpt lat="43.46942" lon="6.32428">
        <ele>117.9</ele>
        <time>2023-01-29T08:51:04.000Z</time>
      </trkpt>
      <trkpt lat="43.46942" lon="6.32429">
        <ele>117.8</ele>
        <time>2023-01-29T08:51:07.000Z</time>
      </trkpt>
      <trkpt lat="43.46942" lon="6.32429">
        <ele>117.8</ele>
        <time>2023-01-29T08:51:08.000Z</time>
      </trkpt>
      <trkpt lat="43.46942" lon="6.3243">
        <ele>117.8</ele>
        <time>2023-01-29T08:51:11.000Z</time>
      </trkpt>
      <trkpt lat="43.46942" lon="6.32431">
        <ele>117.8</ele>
        <time>2023-01-29T08:51:12.000Z</time>
      </trkpt>
      <trkpt lat="43.46942" lon="6.32432">
        <ele>117.9</ele>
        <time>2023-01-29T08:51:15.000Z</time>
      </trkpt>
      <trkpt lat="43.46942" lon="6.32432">
        <ele>118</ele>
        <time>2023-01-29T08:51:16.000Z</time>
      </trkpt>
      <trkpt lat="43.46942" lon="6.32432">
        <ele>117.9</ele>
        <time>2023-01-29T08:51:19.000Z</time>
      </trkpt>
      <trkpt lat="43.46942" lon="6.32432">
        <ele>117.6</ele>
        <time>2023-01-29T08:51:42.000Z</time>
      </trkpt>
      <trkpt lat="43.46942" lon="6.32432">
        <ele>117.5</ele>
        <time>2023-01-29T08:51:43.000Z</time>
      </trkpt>
      <trkpt lat="43.46942" lon="6.32432">
        <ele>117.9</ele>
        <time>2023-01-29T08:51:54.000Z</time>
      </trkpt>
      <trkpt lat="43.46942" lon="6.32432">
        <ele>117.7</ele>
        <time>2023-01-29T08:51:55.000Z</time>
      </trkpt>
      <trkpt lat="43.46942" lon="6.32432">
        <ele>117.6</ele>
        <time>2023-01-29T08:52:00.000Z</time>
      </trkpt>
      <trkpt lat="43.46942" lon="6.32432">
        <ele>117.5</ele>
        <time>2023-01-29T08:52:02.000Z</time>
      </trkpt>
      <trkpt lat="43.46942" lon="6.32432">
        <ele>117.5</ele>
        <time>2023-01-29T08:52:05.000Z</time>
      </trkpt>
      <trkpt lat="43.46942" lon="6.32432">
        <ele>117.6</ele>
        <time>2023-01-29T08:52:06.000Z</time>
      </trkpt>
      <trkpt lat="43.46942" lon="6.32432">
        <ele>117.8</ele>
        <time>2023-01-29T08:52:12.000Z</time>
      </trkpt>
      <trkpt lat="43.46942" lon="6.32432">
        <ele>117.7</ele>
        <time>2023-01-29T08:52:13.000Z</time>
      </trkpt>
      <trkpt lat="43.46943" lon="6.32432">
        <ele>117.8</ele>
        <time>2023-01-29T08:52:36.000Z</time>
      </trkpt>
      <trkpt lat="43.46943" lon="6.32433">
        <ele>117.7</ele>
        <time>2023-01-29T08:52:40.000Z</time>
      </trkpt>
      <trkpt lat="43.46943" lon="6.32434">
        <ele>117.8</ele>
        <time>2023-01-29T08:52:44.000Z</time>
      </trkpt>
      <trkpt lat="43.46943" lon="6.32434">
        <ele>117.8</ele>
        <time>2023-01-29T08:52:45.000Z</time>
      </trkpt>
      <trkpt lat="43.46943" lon="6.32434">
        <ele>117.9</ele>
        <time>2023-01-29T08:53:03.000Z</time>
      </trkpt>
      <trkpt lat="43.46945" lon="6.32435">
        <ele>117.9</ele>
        <time>2023-01-29T08:53:07.000Z</time>
      </trkpt>
      <trkpt lat="43.46945" lon="6.32434">
        <ele>117.8</ele>
        <time>2023-01-29T08:53:09.000Z</time>
      </trkpt>
      <trkpt lat="43.46945" lon="6.32434">
        <ele>117.9</ele>
        <time>2023-01-29T08:53:10.000Z</time>
      </trkpt>
      <trkpt lat="43.46945" lon="6.32434">
        <ele>117.9</ele>
        <time>2023-01-29T08:53:12.000Z</time>
      </trkpt>
      <trkpt lat="43.46945" lon="6.32434">
        <ele>117.8</ele>
        <time>2023-01-29T08:53:13.000Z</time>
      </trkpt>
      <trkpt lat="43.46945" lon="6.32434">
        <ele>117.9</ele>
        <time>2023-01-29T08:53:19.000Z</time>
      </trkpt>
      <trkpt lat="43.46945" lon="6.32434">
        <ele>117.8</ele>
        <time>2023-01-29T08:53:20.000Z</time>
      </trkpt>
      <trkpt lat="43.46945" lon="6.32434">
        <ele>117.4</ele>
        <time>2023-01-29T08:53:59.000Z</time>
      </trkpt>
      <trkpt lat="43.46945" lon="6.32434">
        <ele>117.6</ele>
        <time>2023-01-29T08:54:01.000Z</time>
      </trkpt>
      <trkpt lat="43.46945" lon="6.32433">
        <ele>117.6</ele>
        <time>2023-01-29T08:54:02.000Z</time>
      </trkpt>
      <trkpt lat="43.46945" lon="6.3243">
        <ele>117.4</ele>
        <time>2023-01-29T08:54:07.000Z</time>
      </trkpt>
      <trkpt lat="43.46946" lon="6.3243">
        <ele>117.5</ele>
        <time>2023-01-29T08:54:12.000Z</time>
      </trkpt>
      <trkpt lat="43.46942" lon="6.32432">
        <ele>117.5</ele>
        <time>2023-01-29T08:54:22.000Z</time>
      </trkpt>
      <trkpt lat="43.46942" lon="6.32432">
        <ele>117.3</ele>
        <time>2023-01-29T08:54:35.000Z</time>
      </trkpt>
      <trkpt lat="43.46933" lon="6.32432">
        <ele>117</ele>
        <time>2023-01-29T08:54:43.000Z</time>
      </trkpt>
      <trkpt lat="43.46928" lon="6.32432">
        <ele>117</ele>
        <time>2023-01-29T08:54:49.000Z</time>
      </trkpt>
      <trkpt lat="43.46928" lon="6.32432">
        <ele>116.9</ele>
        <time>2023-01-29T08:55:16.000Z</time>
      </trkpt>
      <trkpt lat="43.46928" lon="6.32432">
        <ele>117</ele>
        <time>2023-01-29T08:55:17.000Z</time>
      </trkpt>
      <trkpt lat="43.46928" lon="6.32432">
        <ele>117</ele>
        <time>2023-01-29T08:55:28.000Z</time>
      </trkpt>
      <trkpt lat="43.46928" lon="6.32432">
        <ele>116.9</ele>
        <time>2023-01-29T08:55:31.000Z</time>
      </trkpt>
      <trkpt lat="43.46927" lon="6.32432">
        <ele>116.9</ele>
        <time>2023-01-29T08:55:37.000Z</time>
      </trkpt>
      <trkpt lat="43.46927" lon="6.32432">
        <ele>116.9</ele>
        <time>2023-01-29T08:55:38.000Z</time>
      </trkpt>
      <trkpt lat="43.46927" lon="6.32433">
        <ele>116.9</ele>
        <time>2023-01-29T08:55:42.000Z</time>
      </trkpt>
      <trkpt lat="43.46927" lon="6.32433">
        <ele>116.9</ele>
        <time>2023-01-29T08:55:45.000Z</time>
      </trkpt>
      <trkpt lat="43.46927" lon="6.32433">
        <ele>116.6</ele>
        <time>2023-01-29T08:55:48.000Z</time>
      </trkpt>
      <trkpt lat="43.46927" lon="6.32433">
        <ele>116.7</ele>
        <time>2023-01-29T08:55:49.000Z</time>
      </trkpt>
      <trkpt lat="43.46927" lon="6.32432">
        <ele>116.7</ele>
        <time>2023-01-29T08:55:53.000Z</time>
      </trkpt>
      <trkpt lat="43.46927" lon="6.32432">
        <ele>116.7</ele>
        <time>2023-01-29T08:55:54.000Z</time>
      </trkpt>
      <trkpt lat="43.46927" lon="6.32433">
        <ele>116.8</ele>
        <time>2023-01-29T08:55:56.000Z</time>
      </trkpt>
      <trkpt lat="43.46927" lon="6.32433">
        <ele>116.7</ele>
        <time>2023-01-29T08:55:58.000Z</time>
      </trkpt>
      <trkpt lat="43.46927" lon="6.32433">
        <ele>116.8</ele>
        <time>2023-01-29T08:55:59.000Z</time>
      </trkpt>
      <trkpt lat="43.46927" lon="6.32434">
        <ele>116.8</ele>
        <time>2023-01-29T08:56:02.000Z</time>
      </trkpt>
      <trkpt lat="43.46927" lon="6.32434">
        <ele>116.9</ele>
        <time>2023-01-29T08:56:03.000Z</time>
      </trkpt>
      <trkpt lat="43.46927" lon="6.32434">
        <ele>116.9</ele>
        <time>2023-01-29T08:56:04.000Z</time>
      </trkpt>
      <trkpt lat="43.46927" lon="6.32434">
        <ele>116.9</ele>
        <time>2023-01-29T08:56:05.000Z</time>
      </trkpt>
      <trkpt lat="43.46927" lon="6.32434">
        <ele>116.9</ele>
        <time>2023-01-29T08:56:06.000Z</time>
      </trkpt>
      <trkpt lat="43.46927" lon="6.32435">
        <ele>117</ele>
        <time>2023-01-29T08:56:08.000Z</time>
      </trkpt>
      <trkpt lat="43.46927" lon="6.32435">
        <ele>116.9</ele>
        <time>2023-01-29T08:56:09.000Z</time>
      </trkpt>
      <trkpt lat="43.46927" lon="6.32435">
        <ele>116.8</ele>
        <time>2023-01-29T08:56:12.000Z</time>
      </trkpt>
      <trkpt lat="43.46927" lon="6.32435">
        <ele>116.8</ele>
        <time>2023-01-29T08:56:13.000Z</time>
      </trkpt>
      <trkpt lat="43.46928" lon="6.32435">
        <ele>116.8</ele>
        <time>2023-01-29T08:56:14.000Z</time>
      </trkpt>
      <trkpt lat="43.46928" lon="6.32435">
        <ele>116.9</ele>
        <time>2023-01-29T08:56:17.000Z</time>
      </trkpt>
      <trkpt lat="43.46929" lon="6.32435">
        <ele>116.8</ele>
        <time>2023-01-29T08:56:19.000Z</time>
      </trkpt>
      <trkpt lat="43.46928" lon="6.32427">
        <ele>117.2</ele>
        <time>2023-01-29T08:56:32.000Z</time>
      </trkpt>
      <trkpt lat="43.46927" lon="6.32427">
        <ele>117.2</ele>
        <time>2023-01-29T08:56:45.000Z</time>
      </trkpt>
      <trkpt lat="43.46927" lon="6.32426">
        <ele>117.4</ele>
        <time>2023-01-29T08:56:49.000Z</time>
      </trkpt>
      <trkpt lat="43.46927" lon="6.32427">
        <ele>117.3</ele>
        <time>2023-01-29T08:57:29.000Z</time>
      </trkpt>
      <trkpt lat="43.46927" lon="6.32427">
        <ele>117.2</ele>
        <time>2023-01-29T08:57:30.000Z</time>
      </trkpt>
      <trkpt lat="43.46927" lon="6.32426">
        <ele>117.3</ele>
        <time>2023-01-29T08:57:53.000Z</time>
      </trkpt>
      <trkpt lat="43.46927" lon="6.32426">
        <ele>117.1</ele>
        <time>2023-01-29T08:57:55.000Z</time>
      </trkpt>
      <trkpt lat="43.46926" lon="6.32426">
        <ele>117.1</ele>
        <time>2023-01-29T08:57:59.000Z</time>
      </trkpt>
      <trkpt lat="43.46926" lon="6.32425">
        <ele>117.2</ele>
        <time>2023-01-29T08:58:03.000Z</time>
      </trkpt>
      <trkpt lat="43.46926" lon="6.32426">
        <ele>117</ele>
        <time>2023-01-29T08:58:14.000Z</time>
      </trkpt>
      <trkpt lat="43.46926" lon="6.32426">
        <ele>117</ele>
        <time>2023-01-29T08:58:17.000Z</time>
      </trkpt>
      <trkpt lat="43.46926" lon="6.32425">
        <ele>117.1</ele>
        <time>2023-01-29T08:58:19.000Z</time>
      </trkpt>
      <trkpt lat="43.46927" lon="6.32425">
        <ele>117</ele>
        <time>2023-01-29T08:58:21.000Z</time>
      </trkpt>
      <trkpt lat="43.46927" lon="6.32425">
        <ele>117</ele>
        <time>2023-01-29T08:58:26.000Z</time>
      </trkpt>
      <trkpt lat="43.46927" lon="6.32423">
        <ele>117</ele>
        <time>2023-01-29T08:58:32.000Z</time>
      </trkpt>
      <trkpt lat="43.46928" lon="6.32423">
        <ele>117</ele>
        <time>2023-01-29T08:58:34.000Z</time>
      </trkpt>
      <trkpt lat="43.46928" lon="6.32423">
        <ele>116.9</ele>
        <time>2023-01-29T08:58:35.000Z</time>
      </trkpt>
      <trkpt lat="43.46928" lon="6.32423">
        <ele>117.1</ele>
        <time>2023-01-29T08:58:38.000Z</time>
      </trkpt>
      <trkpt lat="43.46928" lon="6.32423">
        <ele>117.1</ele>
        <time>2023-01-29T08:58:40.000Z</time>
      </trkpt>
      <trkpt lat="43.46929" lon="6.32423">
        <ele>117.1</ele>
        <time>2023-01-29T08:58:42.000Z</time>
      </trkpt>
      <trkpt lat="43.46929" lon="6.32423">
        <ele>117.2</ele>
        <time>2023-01-29T08:58:43.000Z</time>
      </trkpt>
      <trkpt lat="43.46928" lon="6.32423">
        <ele>117.2</ele>
        <time>2023-01-29T08:58:44.000Z</time>
      </trkpt>
      <trkpt lat="43.46928" lon="6.32423">
        <ele>117.3</ele>
        <time>2023-01-29T08:58:45.000Z</time>
      </trkpt>
      <trkpt lat="43.46929" lon="6.32423">
        <ele>117.4</ele>
        <time>2023-01-29T08:58:46.000Z</time>
      </trkpt>
      <trkpt lat="43.46929" lon="6.32421">
        <ele>117.5</ele>
        <time>2023-01-29T08:58:54.000Z</time>
      </trkpt>
      <trkpt lat="43.46929" lon="6.3242">
        <ele>117.5</ele>
        <time>2023-01-29T08:59:00.000Z</time>
      </trkpt>
      <trkpt lat="43.46924" lon="6.32409">
        <ele>118</ele>
        <time>2023-01-29T08:59:18.000Z</time>
      </trkpt>
      <trkpt lat="43.46922" lon="6.32403">
        <ele>118.5</ele>
        <time>2023-01-29T08:59:26.000Z</time>
      </trkpt>
      <trkpt lat="43.46922" lon="6.32402">
        <ele>118.4</ele>
        <time>2023-01-29T08:59:28.000Z</time>
      </trkpt>
      <trkpt lat="43.46916" lon="6.32398">
        <ele>119.4</ele>
        <time>2023-01-29T08:59:39.000Z</time>
      </trkpt>
      <trkpt lat="43.46916" lon="6.32398">
        <ele>119.4</ele>
        <time>2023-01-29T08:59:44.000Z</time>
      </trkpt>
      <trkpt lat="43.46914" lon="6.32397">
        <ele>119.5</ele>
        <time>2023-01-29T08:59:49.000Z</time>
      </trkpt>
      <trkpt lat="43.46914" lon="6.32397">
        <ele>119.5</ele>
        <time>2023-01-29T09:00:03.000Z</time>
      </trkpt>
      <trkpt lat="43.46914" lon="6.32396">
        <ele>119.6</ele>
        <time>2023-01-29T09:00:09.000Z</time>
      </trkpt>
      <trkpt lat="43.46914" lon="6.32395">
        <ele>119.4</ele>
        <time>2023-01-29T09:00:11.000Z</time>
      </trkpt>
      <trkpt lat="43.46914" lon="6.32395">
        <ele>119.5</ele>
        <time>2023-01-29T09:00:17.000Z</time>
      </trkpt>
      <trkpt lat="43.46913" lon="6.32395">
        <ele>119.8</ele>
        <time>2023-01-29T09:00:27.000Z</time>
      </trkpt>
      <trkpt lat="43.46914" lon="6.32393">
        <ele>119.6</ele>
        <time>2023-01-29T09:00:32.000Z</time>
      </trkpt>
      <trkpt lat="43.46914" lon="6.32393">
        <ele>119.6</ele>
        <time>2023-01-29T09:00:33.000Z</time>
      </trkpt>
      <trkpt lat="43.46914" lon="6.32391">
        <ele>119.6</ele>
        <time>2023-01-29T09:00:40.000Z</time>
      </trkpt>
      <trkpt lat="43.46914" lon="6.32391">
        <ele>119.6</ele>
        <time>2023-01-29T09:00:42.000Z</time>
      </trkpt>
      <trkpt lat="43.46913" lon="6.32391">
        <ele>119.6</ele>
        <time>2023-01-29T09:00:45.000Z</time>
      </trkpt>
      <trkpt lat="43.46913" lon="6.32391">
        <ele>119.9</ele>
        <time>2023-01-29T09:01:03.000Z</time>
      </trkpt>
      <trkpt lat="43.46913" lon="6.32391">
        <ele>119.8</ele>
        <time>2023-01-29T09:01:04.000Z</time>
      </trkpt>
      <trkpt lat="43.46914" lon="6.32391">
        <ele>119.9</ele>
        <time>2023-01-29T09:01:12.000Z</time>
      </trkpt>
      <trkpt lat="43.46914" lon="6.32391">
        <ele>119.9</ele>
        <time>2023-01-29T09:01:13.000Z</time>
      </trkpt>
      <trkpt lat="43.46914" lon="6.32391">
        <ele>119.9</ele>
        <time>2023-01-29T09:01:17.000Z</time>
      </trkpt>
      <trkpt lat="43.46913" lon="6.32392">
        <ele>120.3</ele>
        <time>2023-01-29T09:01:23.000Z</time>
      </trkpt>
      <trkpt lat="43.46912" lon="6.32392">
        <ele>120.4</ele>
        <time>2023-01-29T09:01:26.000Z</time>
      </trkpt>
      <trkpt lat="43.46912" lon="6.32391">
        <ele>120.2</ele>
        <time>2023-01-29T09:01:31.000Z</time>
      </trkpt>
      <trkpt lat="43.46912" lon="6.32391">
        <ele>120.1</ele>
        <time>2023-01-29T09:01:32.000Z</time>
      </trkpt>
      <trkpt lat="43.46911" lon="6.32392">
        <ele>120.1</ele>
        <time>2023-01-29T09:01:38.000Z</time>
      </trkpt>
      <trkpt lat="43.46911" lon="6.32392">
        <ele>120.1</ele>
        <time>2023-01-29T09:01:39.000Z</time>
      </trkpt>
      <trkpt lat="43.46911" lon="6.32392">
        <ele>120.2</ele>
        <time>2023-01-29T09:01:40.000Z</time>
      </trkpt>
      <trkpt lat="43.46911" lon="6.32392">
        <ele>120.2</ele>
        <time>2023-01-29T09:01:48.000Z</time>
      </trkpt>
      <trkpt lat="43.46911" lon="6.32392">
        <ele>120.3</ele>
        <time>2023-01-29T09:01:49.000Z</time>
      </trkpt>
      <trkpt lat="43.46911" lon="6.32393">
        <ele>120.2</ele>
        <time>2023-01-29T09:02:06.000Z</time>
      </trkpt>
      <trkpt lat="43.46911" lon="6.32393">
        <ele>120.3</ele>
        <time>2023-01-29T09:02:08.000Z</time>
      </trkpt>
      <trkpt lat="43.46911" lon="6.32393">
        <ele>120.4</ele>
        <time>2023-01-29T09:02:15.000Z</time>
      </trkpt>
      <trkpt lat="43.46911" lon="6.32393">
        <ele>120.4</ele>
        <time>2023-01-29T09:02:16.000Z</time>
      </trkpt>
      <trkpt lat="43.46911" lon="6.32393">
        <ele>120.6</ele>
        <time>2023-01-29T09:03:03.000Z</time>
      </trkpt>
      <trkpt lat="43.46911" lon="6.32393">
        <ele>120.6</ele>
        <time>2023-01-29T09:03:04.000Z</time>
      </trkpt>
      <trkpt lat="43.46912" lon="6.32394">
        <ele>121.4</ele>
        <time>2023-01-29T09:03:40.000Z</time>
      </trkpt>
      <trkpt lat="43.46912" lon="6.32394">
        <ele>121.4</ele>
        <time>2023-01-29T09:03:41.000Z</time>
      </trkpt>
      <trkpt lat="43.46912" lon="6.32394">
        <ele>121</ele>
        <time>2023-01-29T09:04:01.000Z</time>
      </trkpt>
      <trkpt lat="43.46912" lon="6.32394">
        <ele>121.1</ele>
        <time>2023-01-29T09:04:02.000Z</time>
      </trkpt>
      <trkpt lat="43.46912" lon="6.32394">
        <ele>121.4</ele>
        <time>2023-01-29T09:04:16.000Z</time>
      </trkpt>
      <trkpt lat="43.46912" lon="6.32394">
        <ele>121.6</ele>
        <time>2023-01-29T09:04:17.000Z</time>
      </trkpt>
      <trkpt lat="43.46912" lon="6.32394">
        <ele>121.6</ele>
        <time>2023-01-29T09:04:18.000Z</time>
      </trkpt>
      <trkpt lat="43.46912" lon="6.32394">
        <ele>121.5</ele>
        <time>2023-01-29T09:04:19.000Z</time>
      </trkpt>
      <trkpt lat="43.46912" lon="6.32394">
        <ele>121.7</ele>
        <time>2023-01-29T09:04:21.000Z</time>
      </trkpt>
      <trkpt lat="43.46913" lon="6.32396">
        <ele>121.9</ele>
        <time>2023-01-29T09:04:26.000Z</time>
      </trkpt>
      <trkpt lat="43.46913" lon="6.32396">
        <ele>121.8</ele>
        <time>2023-01-29T09:04:35.000Z</time>
      </trkpt>
      <trkpt lat="43.46913" lon="6.32396">
        <ele>121.8</ele>
        <time>2023-01-29T09:04:36.000Z</time>
      </trkpt>
      <trkpt lat="43.46913" lon="6.32397">
        <ele>122</ele>
        <time>2023-01-29T09:04:37.000Z</time>
      </trkpt>
      <trkpt lat="43.46916" lon="6.32404">
        <ele>122.2</ele>
        <time>2023-01-29T09:04:48.000Z</time>
      </trkpt>
      <trkpt lat="43.46916" lon="6.32404">
        <ele>122.2</ele>
        <time>2023-01-29T09:04:50.000Z</time>
      </trkpt>
      <trkpt lat="43.46917" lon="6.32408">
        <ele>121.6</ele>
        <time>2023-01-29T09:05:04.000Z</time>
      </trkpt>
      <trkpt lat="43.46917" lon="6.32408">
        <ele>121.5</ele>
        <time>2023-01-29T09:05:08.000Z</time>
      </trkpt>
      <trkpt lat="43.46919" lon="6.32407">
        <ele>120.6</ele>
        <time>2023-01-29T09:05:14.000Z</time>
      </trkpt>
      <trkpt lat="43.46919" lon="6.32407">
        <ele>120.8</ele>
        <time>2023-01-29T09:05:15.000Z</time>
      </trkpt>
      <trkpt lat="43.46919" lon="6.32407">
        <ele>120.9</ele>
        <time>2023-01-29T09:05:16.000Z</time>
      </trkpt>
      <trkpt lat="43.46919" lon="6.32407">
        <ele>121.2</ele>
        <time>2023-01-29T09:05:22.000Z</time>
      </trkpt>
      <trkpt lat="43.46919" lon="6.32407">
        <ele>121.2</ele>
        <time>2023-01-29T09:05:23.000Z</time>
      </trkpt>
      <trkpt lat="43.46919" lon="6.32406">
        <ele>121.3</ele>
        <time>2023-01-29T09:05:24.000Z</time>
      </trkpt>
      <trkpt lat="43.46925" lon="6.32416">
        <ele>121</ele>
        <time>2023-01-29T09:05:41.000Z</time>
      </trkpt>
      <trkpt lat="43.46928" lon="6.32427">
        <ele>120.2</ele>
        <time>2023-01-29T09:05:52.000Z</time>
      </trkpt>
      <trkpt lat="43.46934" lon="6.32437">
        <ele>120.4</ele>
        <time>2023-01-29T09:06:03.000Z</time>
      </trkpt>
      <trkpt lat="43.46943" lon="6.32433">
        <ele>121.4</ele>
        <time>2023-01-29T09:06:14.000Z</time>
      </trkpt>
      <trkpt lat="43.46946" lon="6.32433">
        <ele>122.1</ele>
        <time>2023-01-29T09:06:22.000Z</time>
      </trkpt>
      <trkpt lat="43.46947" lon="6.32433">
        <ele>121.7</ele>
        <time>2023-01-29T09:06:29.000Z</time>
      </trkpt>
      <trkpt lat="43.46947" lon="6.32432">
        <ele>121.7</ele>
        <time>2023-01-29T09:06:31.000Z</time>
      </trkpt>
      <trkpt lat="43.46947" lon="6.32432">
        <ele>122.2</ele>
        <time>2023-01-29T09:06:48.000Z</time>
      </trkpt>
      <trkpt lat="43.46947" lon="6.32432">
        <ele>122.1</ele>
        <time>2023-01-29T09:06:49.000Z</time>
      </trkpt>
      <trkpt lat="43.46948" lon="6.32431">
        <ele>122.2</ele>
        <time>2023-01-29T09:07:03.000Z</time>
      </trkpt>
      <trkpt lat="43.4695" lon="6.32418">
        <ele>123.9</ele>
        <time>2023-01-29T09:07:15.000Z</time>
      </trkpt>
      <trkpt lat="43.46959" lon="6.32413">
        <ele>124.9</ele>
        <time>2023-01-29T09:07:24.000Z</time>
      </trkpt>
      <trkpt lat="43.46967" lon="6.32407">
        <ele>126</ele>
        <time>2023-01-29T09:07:35.000Z</time>
      </trkpt>
      <trkpt lat="43.46967" lon="6.32407">
        <ele>125.9</ele>
        <time>2023-01-29T09:07:52.000Z</time>
      </trkpt>
      <trkpt lat="43.46967" lon="6.32407">
        <ele>125.9</ele>
        <time>2023-01-29T09:07:53.000Z</time>
      </trkpt>
      <trkpt lat="43.46967" lon="6.32406">
        <ele>126.3</ele>
        <time>2023-01-29T09:07:56.000Z</time>
      </trkpt>
      <trkpt lat="43.46967" lon="6.32404">
        <ele>126.4</ele>
        <time>2023-01-29T09:07:59.000Z</time>
      </trkpt>
      <trkpt lat="43.46967" lon="6.32405">
        <ele>126.3</ele>
        <time>2023-01-29T09:08:11.000Z</time>
      </trkpt>
      <trkpt lat="43.46968" lon="6.32402">
        <ele>126.9</ele>
        <time>2023-01-29T09:08:16.000Z</time>
      </trkpt>
      <trkpt lat="43.46968" lon="6.32402">
        <ele>126.7</ele>
        <time>2023-01-29T09:08:17.000Z</time>
      </trkpt>
      <trkpt lat="43.46968" lon="6.32402">
        <ele>126.6</ele>
        <time>2023-01-29T09:08:18.000Z</time>
      </trkpt>
      <trkpt lat="43.46968" lon="6.32402">
        <ele>126.8</ele>
        <time>2023-01-29T09:08:24.000Z</time>
      </trkpt>
      <trkpt lat="43.46968" lon="6.32402">
        <ele>126.8</ele>
        <time>2023-01-29T09:08:25.000Z</time>
      </trkpt>
      <trkpt lat="43.46968" lon="6.32402">
        <ele>126.8</ele>
        <time>2023-01-29T09:08:26.000Z</time>
      </trkpt>
      <trkpt lat="43.46968" lon="6.32402">
        <ele>126.7</ele>
        <time>2023-01-29T09:08:27.000Z</time>
      </trkpt>
      <trkpt lat="43.46968" lon="6.32401">
        <ele>126.8</ele>
        <time>2023-01-29T09:08:36.000Z</time>
      </trkpt>
      <trkpt lat="43.46968" lon="6.32401">
        <ele>126.8</ele>
        <time>2023-01-29T09:08:38.000Z</time>
      </trkpt>
      <trkpt lat="43.46968" lon="6.32401">
        <ele>127.2</ele>
        <time>2023-01-29T09:09:12.000Z</time>
      </trkpt>
      <trkpt lat="43.46967" lon="6.32401">
        <ele>127.1</ele>
        <time>2023-01-29T09:09:17.000Z</time>
      </trkpt>
      <trkpt lat="43.46967" lon="6.32401">
        <ele>127.1</ele>
        <time>2023-01-29T09:09:21.000Z</time>
      </trkpt>
      <trkpt lat="43.46967" lon="6.32401">
        <ele>127.3</ele>
        <time>2023-01-29T09:09:23.000Z</time>
      </trkpt>
      <trkpt lat="43.46967" lon="6.32401">
        <ele>127.3</ele>
        <time>2023-01-29T09:09:34.000Z</time>
      </trkpt>
      <trkpt lat="43.46966" lon="6.32402">
        <ele>127</ele>
        <time>2023-01-29T09:09:38.000Z</time>
      </trkpt>
      <trkpt lat="43.46966" lon="6.32402">
        <ele>127.6</ele>
        <time>2023-01-29T09:09:59.000Z</time>
      </trkpt>
      <trkpt lat="43.46966" lon="6.32402">
        <ele>127.7</ele>
        <time>2023-01-29T09:10:01.000Z</time>
      </trkpt>
      <trkpt lat="43.46966" lon="6.32402">
        <ele>127.5</ele>
        <time>2023-01-29T09:10:05.000Z</time>
      </trkpt>
      <trkpt lat="43.46966" lon="6.32402">
        <ele>127.4</ele>
        <time>2023-01-29T09:10:06.000Z</time>
      </trkpt>
      <trkpt lat="43.46966" lon="6.32402">
        <ele>127.6</ele>
        <time>2023-01-29T09:10:12.000Z</time>
      </trkpt>
      <trkpt lat="43.46966" lon="6.32402">
        <ele>127.6</ele>
        <time>2023-01-29T09:10:13.000Z</time>
      </trkpt>
      <trkpt lat="43.46966" lon="6.32402">
        <ele>127.7</ele>
        <time>2023-01-29T09:10:14.000Z</time>
      </trkpt>
      <trkpt lat="43.46966" lon="6.32402">
        <ele>127.7</ele>
        <time>2023-01-29T09:10:15.000Z</time>
      </trkpt>
      <trkpt lat="43.46967" lon="6.32401">
        <ele>127.7</ele>
        <time>2023-01-29T09:10:29.000Z</time>
      </trkpt>
      <trkpt lat="43.46967" lon="6.32401">
        <ele>127.7</ele>
        <time>2023-01-29T09:10:30.000Z</time>
      </trkpt>
      <trkpt lat="43.46966" lon="6.32401">
        <ele>127.7</ele>
        <time>2023-01-29T09:10:36.000Z</time>
      </trkpt>
      <trkpt lat="43.46966" lon="6.32401">
        <ele>127.7</ele>
        <time>2023-01-29T09:10:37.000Z</time>
      </trkpt>
      <trkpt lat="43.46967" lon="6.32401">
        <ele>127.8</ele>
        <time>2023-01-29T09:10:40.000Z</time>
      </trkpt>
      <trkpt lat="43.46967" lon="6.32401">
        <ele>127.7</ele>
        <time>2023-01-29T09:10:41.000Z</time>
      </trkpt>
      <trkpt lat="43.46966" lon="6.32401">
        <ele>127.7</ele>
        <time>2023-01-29T09:10:43.000Z</time>
      </trkpt>
      <trkpt lat="43.46966" lon="6.32401">
        <ele>127.7</ele>
        <time>2023-01-29T09:10:44.000Z</time>
      </trkpt>
      <trkpt lat="43.46967" lon="6.32401">
        <ele>127.8</ele>
        <time>2023-01-29T09:10:47.000Z</time>
      </trkpt>
      <trkpt lat="43.46967" lon="6.32401">
        <ele>127.8</ele>
        <time>2023-01-29T09:10:50.000Z</time>
      </trkpt>
      <trkpt lat="43.46967" lon="6.32401">
        <ele>127.8</ele>
        <time>2023-01-29T09:10:51.000Z</time>
      </trkpt>
      <trkpt lat="43.46967" lon="6.32401">
        <ele>127.8</ele>
        <time>2023-01-29T09:10:52.000Z</time>
      </trkpt>
      <trkpt lat="43.46967" lon="6.32401">
        <ele>128.9</ele>
        <time>2023-01-29T09:11:41.000Z</time>
      </trkpt>
      <trkpt lat="43.46968" lon="6.32402">
        <ele>128.8</ele>
        <time>2023-01-29T09:11:46.000Z</time>
      </trkpt>
      <trkpt lat="43.46968" lon="6.32403">
        <ele>129.1</ele>
        <time>2023-01-29T09:11:48.000Z</time>
      </trkpt>
      <trkpt lat="43.46969" lon="6.32404">
        <ele>129</ele>
        <time>2023-01-29T09:11:52.000Z</time>
      </trkpt>
      <trkpt lat="43.46969" lon="6.32404">
        <ele>128.9</ele>
        <time>2023-01-29T09:11:53.000Z</time>
      </trkpt>
      <trkpt lat="43.46969" lon="6.32404">
        <ele>128.9</ele>
        <time>2023-01-29T09:11:54.000Z</time>
      </trkpt>
      <trkpt lat="43.46969" lon="6.32404">
        <ele>129.2</ele>
        <time>2023-01-29T09:12:06.000Z</time>
      </trkpt>
      <trkpt lat="43.46969" lon="6.32404">
        <ele>129.2</ele>
        <time>2023-01-29T09:12:07.000Z</time>
      </trkpt>
      <trkpt lat="43.46969" lon="6.32403">
        <ele>129.4</ele>
        <time>2023-01-29T09:12:16.000Z</time>
      </trkpt>
      <trkpt lat="43.46972" lon="6.32401">
        <ele>129.4</ele>
        <time>2023-01-29T09:12:24.000Z</time>
      </trkpt>
      <trkpt lat="43.46971" lon="6.32402">
        <ele>129.4</ele>
        <time>2023-01-29T09:12:26.000Z</time>
      </trkpt>
      <trkpt lat="43.46971" lon="6.32402">
        <ele>129.3</ele>
        <time>2023-01-29T09:12:29.000Z</time>
      </trkpt>
      <trkpt lat="43.46971" lon="6.32401">
        <ele>129.5</ele>
        <time>2023-01-29T09:12:34.000Z</time>
      </trkpt>
      <trkpt lat="43.46972" lon="6.32402">
        <ele>129.6</ele>
        <time>2023-01-29T09:12:38.000Z</time>
      </trkpt>
      <trkpt lat="43.46972" lon="6.32402">
        <ele>129.5</ele>
        <time>2023-01-29T09:12:42.000Z</time>
      </trkpt>
      <trkpt lat="43.46972" lon="6.32402">
        <ele>129.5</ele>
        <time>2023-01-29T09:12:44.000Z</time>
      </trkpt>
      <trkpt lat="43.46972" lon="6.32401">
        <ele>129.7</ele>
        <time>2023-01-29T09:12:48.000Z</time>
      </trkpt>
      <trkpt lat="43.46972" lon="6.32401">
        <ele>129.5</ele>
        <time>2023-01-29T09:12:51.000Z</time>
      </trkpt>
      <trkpt lat="43.46972" lon="6.32401">
        <ele>129.8</ele>
        <time>2023-01-29T09:13:02.000Z</time>
      </trkpt>
      <trkpt lat="43.46972" lon="6.32401">
        <ele>129.8</ele>
        <time>2023-01-29T09:13:03.000Z</time>
      </trkpt>
      <trkpt lat="43.46972" lon="6.32401">
        <ele>129.8</ele>
        <time>2023-01-29T09:13:06.000Z</time>
      </trkpt>
      <trkpt lat="43.46973" lon="6.324">
        <ele>129.7</ele>
        <time>2023-01-29T09:13:12.000Z</time>
      </trkpt>
      <trkpt lat="43.46973" lon="6.324">
        <ele>129.7</ele>
        <time>2023-01-29T09:13:13.000Z</time>
      </trkpt>
      <trkpt lat="43.46973" lon="6.324">
        <ele>129.8</ele>
        <time>2023-01-29T09:13:14.000Z</time>
      </trkpt>
      <trkpt lat="43.46972" lon="6.324">
        <ele>129.8</ele>
        <time>2023-01-29T09:13:15.000Z</time>
      </trkpt>
      <trkpt lat="43.46968" lon="6.32401">
        <ele>130</ele>
        <time>2023-01-29T09:13:25.000Z</time>
      </trkpt>
      <trkpt lat="43.46968" lon="6.324">
        <ele>130</ele>
        <time>2023-01-29T09:13:29.000Z</time>
      </trkpt>
      <trkpt lat="43.46968" lon="6.324">
        <ele>130.2</ele>
        <time>2023-01-29T09:13:33.000Z</time>
      </trkpt>
      <trkpt lat="43.46968" lon="6.324">
        <ele>130.6</ele>
        <time>2023-01-29T09:13:42.000Z</time>
      </trkpt>
      <trkpt lat="43.46968" lon="6.324">
        <ele>130.5</ele>
        <time>2023-01-29T09:13:43.000Z</time>
      </trkpt>
      <trkpt lat="43.46968" lon="6.324">
        <ele>130.1</ele>
        <time>2023-01-29T09:13:46.000Z</time>
      </trkpt>
      <trkpt lat="43.46968" lon="6.32399">
        <ele>129.9</ele>
        <time>2023-01-29T09:13:54.000Z</time>
      </trkpt>
      <trkpt lat="43.46968" lon="6.32399">
        <ele>130</ele>
        <time>2023-01-29T09:14:01.000Z</time>
      </trkpt>
      <trkpt lat="43.46963" lon="6.32403">
        <ele>129.3</ele>
        <time>2023-01-29T09:14:09.000Z</time>
      </trkpt>
      <trkpt lat="43.46963" lon="6.32403">
        <ele>129.2</ele>
        <time>2023-01-29T09:14:11.000Z</time>
      </trkpt>
      <trkpt lat="43.46958" lon="6.32408">
        <ele>128.7</ele>
        <time>2023-01-29T09:14:18.000Z</time>
      </trkpt>
      <trkpt lat="43.46958" lon="6.32408">
        <ele>128.6</ele>
        <time>2023-01-29T09:14:19.000Z</time>
      </trkpt>
      <trkpt lat="43.46949" lon="6.32412">
        <ele>127.9</ele>
        <time>2023-01-29T09:14:28.000Z</time>
      </trkpt>
      <trkpt lat="43.46944" lon="6.32423">
        <ele>126.1</ele>
        <time>2023-01-29T09:14:38.000Z</time>
      </trkpt>
      <trkpt lat="43.46937" lon="6.32431">
        <ele>125.3</ele>
        <time>2023-01-29T09:14:46.000Z</time>
      </trkpt>
      <trkpt lat="43.46929" lon="6.32434">
        <ele>124.8</ele>
        <time>2023-01-29T09:14:57.000Z</time>
      </trkpt>
      <trkpt lat="43.4692" lon="6.32439">
        <ele>124</ele>
        <time>2023-01-29T09:15:05.000Z</time>
      </trkpt>
      <trkpt lat="43.46912" lon="6.32446">
        <ele>123.6</ele>
        <time>2023-01-29T09:15:14.000Z</time>
      </trkpt>
      <trkpt lat="43.46903" lon="6.32454">
        <ele>123.5</ele>
        <time>2023-01-29T09:15:26.000Z</time>
      </trkpt>
      <trkpt lat="43.46896" lon="6.32462">
        <ele>123.4</ele>
        <time>2023-01-29T09:15:34.000Z</time>
      </trkpt>
      <trkpt lat="43.46888" lon="6.3247">
        <ele>123.1</ele>
        <time>2023-01-29T09:15:42.000Z</time>
      </trkpt>
      <trkpt lat="43.46879" lon="6.32467">
        <ele>123.4</ele>
        <time>2023-01-29T09:15:54.000Z</time>
      </trkpt>
      <trkpt lat="43.46876" lon="6.32456">
        <ele>123.5</ele>
        <time>2023-01-29T09:16:12.000Z</time>
      </trkpt>
      <trkpt lat="43.46877" lon="6.32456">
        <ele>123.5</ele>
        <time>2023-01-29T09:16:13.000Z</time>
      </trkpt>
      <trkpt lat="43.46875" lon="6.32452">
        <ele>123.5</ele>
        <time>2023-01-29T09:16:21.000Z</time>
      </trkpt>
      <trkpt lat="43.46876" lon="6.32451">
        <ele>123.4</ele>
        <time>2023-01-29T09:16:23.000Z</time>
      </trkpt>
      <trkpt lat="43.46869" lon="6.32442">
        <ele>123.3</ele>
        <time>2023-01-29T09:16:36.000Z</time>
      </trkpt>
      <trkpt lat="43.46866" lon="6.32442">
        <ele>123.4</ele>
        <time>2023-01-29T09:16:42.000Z</time>
      </trkpt>
      <trkpt lat="43.46866" lon="6.32442">
        <ele>123.2</ele>
        <time>2023-01-29T09:16:47.000Z</time>
      </trkpt>
      <trkpt lat="43.46864" lon="6.32443">
        <ele>123.3</ele>
        <time>2023-01-29T09:16:55.000Z</time>
      </trkpt>
      <trkpt lat="43.46864" lon="6.32443">
        <ele>123.3</ele>
        <time>2023-01-29T09:16:56.000Z</time>
      </trkpt>
      <trkpt lat="43.46864" lon="6.32443">
        <ele>123.4</ele>
        <time>2023-01-29T09:16:59.000Z</time>
      </trkpt>
      <trkpt lat="43.46864" lon="6.32444">
        <ele>123.3</ele>
        <time>2023-01-29T09:17:01.000Z</time>
      </trkpt>
      <trkpt lat="43.46864" lon="6.32444">
        <ele>123.3</ele>
        <time>2023-01-29T09:17:02.000Z</time>
      </trkpt>
      <trkpt lat="43.46864" lon="6.32444">
        <ele>123.4</ele>
        <time>2023-01-29T09:17:03.000Z</time>
      </trkpt>
      <trkpt lat="43.46864" lon="6.32444">
        <ele>123.6</ele>
        <time>2023-01-29T09:17:04.000Z</time>
      </trkpt>
      <trkpt lat="43.46864" lon="6.32444">
        <ele>123.5</ele>
        <time>2023-01-29T09:17:13.000Z</time>
      </trkpt>
      <trkpt lat="43.46864" lon="6.32444">
        <ele>123.6</ele>
        <time>2023-01-29T09:17:14.000Z</time>
      </trkpt>
      <trkpt lat="43.46864" lon="6.32444">
        <ele>123.6</ele>
        <time>2023-01-29T09:17:16.000Z</time>
      </trkpt>
      <trkpt lat="43.46864" lon="6.32446">
        <ele>123.6</ele>
        <time>2023-01-29T09:17:25.000Z</time>
      </trkpt>
      <trkpt lat="43.46863" lon="6.32446">
        <ele>124.3</ele>
        <time>2023-01-29T09:18:24.000Z</time>
      </trkpt>
      <trkpt lat="43.46863" lon="6.32446">
        <ele>124.4</ele>
        <time>2023-01-29T09:18:25.000Z</time>
      </trkpt>
      <trkpt lat="43.46863" lon="6.32447">
        <ele>124.4</ele>
        <time>2023-01-29T09:18:27.000Z</time>
      </trkpt>
      <trkpt lat="43.46863" lon="6.32447">
        <ele>124.5</ele>
        <time>2023-01-29T09:18:30.000Z</time>
      </trkpt>
      <trkpt lat="43.46863" lon="6.32448">
        <ele>124.5</ele>
        <time>2023-01-29T09:18:32.000Z</time>
      </trkpt>
      <trkpt lat="43.46862" lon="6.32448">
        <ele>124.5</ele>
        <time>2023-01-29T09:18:34.000Z</time>
      </trkpt>
      <trkpt lat="43.46862" lon="6.32448">
        <ele>124.4</ele>
        <time>2023-01-29T09:18:39.000Z</time>
      </trkpt>
      <trkpt lat="43.46862" lon="6.32449">
        <ele>124.6</ele>
        <time>2023-01-29T09:18:45.000Z</time>
      </trkpt>
      <trkpt lat="43.46862" lon="6.32449">
        <ele>124.6</ele>
        <time>2023-01-29T09:18:46.000Z</time>
      </trkpt>
      <trkpt lat="43.46861" lon="6.32449">
        <ele>124.8</ele>
        <time>2023-01-29T09:18:49.000Z</time>
      </trkpt>
      <trkpt lat="43.46862" lon="6.3245">
        <ele>124.7</ele>
        <time>2023-01-29T09:18:53.000Z</time>
      </trkpt>
      <trkpt lat="43.46862" lon="6.3245">
        <ele>124.7</ele>
        <time>2023-01-29T09:18:54.000Z</time>
      </trkpt>
      <trkpt lat="43.46862" lon="6.3245">
        <ele>124.6</ele>
        <time>2023-01-29T09:18:55.000Z</time>
      </trkpt>
      <trkpt lat="43.46862" lon="6.3245">
        <ele>124.5</ele>
        <time>2023-01-29T09:18:59.000Z</time>
      </trkpt>
      <trkpt lat="43.46863" lon="6.3245">
        <ele>124.4</ele>
        <time>2023-01-29T09:19:00.000Z</time>
      </trkpt>
      <trkpt lat="43.46863" lon="6.3245">
        <ele>124.6</ele>
        <time>2023-01-29T09:19:03.000Z</time>
      </trkpt>
      <trkpt lat="43.46863" lon="6.3245">
        <ele>124.5</ele>
        <time>2023-01-29T09:19:05.000Z</time>
      </trkpt>
      <trkpt lat="43.46863" lon="6.32451">
        <ele>124.5</ele>
        <time>2023-01-29T09:19:07.000Z</time>
      </trkpt>
      <trkpt lat="43.46863" lon="6.3245">
        <ele>124.5</ele>
        <time>2023-01-29T09:19:08.000Z</time>
      </trkpt>
      <trkpt lat="43.46863" lon="6.3245">
        <ele>124.6</ele>
        <time>2023-01-29T09:19:09.000Z</time>
      </trkpt>
      <trkpt lat="43.46863" lon="6.3245">
        <ele>124.7</ele>
        <time>2023-01-29T09:19:11.000Z</time>
      </trkpt>
      <trkpt lat="43.46872" lon="6.32454">
        <ele>125</ele>
        <time>2023-01-29T09:19:30.000Z</time>
      </trkpt>
      <trkpt lat="43.46873" lon="6.32456">
        <ele>125</ele>
        <time>2023-01-29T09:19:40.000Z</time>
      </trkpt>
      <trkpt lat="43.46873" lon="6.32456">
        <ele>125.1</ele>
        <time>2023-01-29T09:19:41.000Z</time>
      </trkpt>
      <trkpt lat="43.46873" lon="6.32456">
        <ele>125.4</ele>
        <time>2023-01-29T09:19:44.000Z</time>
      </trkpt>
      <trkpt lat="43.46874" lon="6.32455">
        <ele>125.3</ele>
        <time>2023-01-29T09:19:48.000Z</time>
      </trkpt>
      <trkpt lat="43.46873" lon="6.32455">
        <ele>125.3</ele>
        <time>2023-01-29T09:19:50.000Z</time>
      </trkpt>
      <trkpt lat="43.46874" lon="6.32455">
        <ele>125.6</ele>
        <time>2023-01-29T09:20:01.000Z</time>
      </trkpt>
      <trkpt lat="43.46874" lon="6.32455">
        <ele>125.6</ele>
        <time>2023-01-29T09:20:02.000Z</time>
      </trkpt>
      <trkpt lat="43.46874" lon="6.32456">
        <ele>125.5</ele>
        <time>2023-01-29T09:20:04.000Z</time>
      </trkpt>
      <trkpt lat="43.46873" lon="6.32455">
        <ele>125.3</ele>
        <time>2023-01-29T09:20:08.000Z</time>
      </trkpt>
      <trkpt lat="43.46874" lon="6.32455">
        <ele>125.4</ele>
        <time>2023-01-29T09:20:10.000Z</time>
      </trkpt>
      <trkpt lat="43.46874" lon="6.32455">
        <ele>125.4</ele>
        <time>2023-01-29T09:20:11.000Z</time>
      </trkpt>
      <trkpt lat="43.46875" lon="6.32455">
        <ele>125.3</ele>
        <time>2023-01-29T09:20:16.000Z</time>
      </trkpt>
      <trkpt lat="43.46875" lon="6.32455">
        <ele>125.4</ele>
        <time>2023-01-29T09:20:17.000Z</time>
      </trkpt>
      <trkpt lat="43.46875" lon="6.32455">
        <ele>125.6</ele>
        <time>2023-01-29T09:20:31.000Z</time>
      </trkpt>
      <trkpt lat="43.46875" lon="6.32455">
        <ele>125.5</ele>
        <time>2023-01-29T09:20:32.000Z</time>
      </trkpt>
      <trkpt lat="43.46875" lon="6.32455">
        <ele>125.6</ele>
        <time>2023-01-29T09:20:46.000Z</time>
      </trkpt>
      <trkpt lat="43.46875" lon="6.32455">
        <ele>125.6</ele>
        <time>2023-01-29T09:20:47.000Z</time>
      </trkpt>
      <trkpt lat="43.46875" lon="6.32455">
        <ele>125.6</ele>
        <time>2023-01-29T09:20:50.000Z</time>
      </trkpt>
      <trkpt lat="43.46875" lon="6.32452">
        <ele>125.8</ele>
        <time>2023-01-29T09:20:57.000Z</time>
      </trkpt>
      <trkpt lat="43.46875" lon="6.32452">
        <ele>126.2</ele>
        <time>2023-01-29T09:21:00.000Z</time>
      </trkpt>
      <trkpt lat="43.46874" lon="6.32451">
        <ele>126.7</ele>
        <time>2023-01-29T09:21:06.000Z</time>
      </trkpt>
      <trkpt lat="43.46874" lon="6.3245">
        <ele>126.6</ele>
        <time>2023-01-29T09:21:09.000Z</time>
      </trkpt>
      <trkpt lat="43.46874" lon="6.3245">
        <ele>126.7</ele>
        <time>2023-01-29T09:21:12.000Z</time>
      </trkpt>
      <trkpt lat="43.46874" lon="6.3245">
        <ele>126.6</ele>
        <time>2023-01-29T09:21:18.000Z</time>
      </trkpt>
      <trkpt lat="43.46874" lon="6.3245">
        <ele>126.5</ele>
        <time>2023-01-29T09:21:19.000Z</time>
      </trkpt>
      <trkpt lat="43.46873" lon="6.3245">
        <ele>126.5</ele>
        <time>2023-01-29T09:21:43.000Z</time>
      </trkpt>
      <trkpt lat="43.46873" lon="6.3245">
        <ele>126.6</ele>
        <time>2023-01-29T09:21:44.000Z</time>
      </trkpt>
      <trkpt lat="43.46873" lon="6.3245">
        <ele>126.6</ele>
        <time>2023-01-29T09:21:49.000Z</time>
      </trkpt>
      <trkpt lat="43.46872" lon="6.3245">
        <ele>126.7</ele>
        <time>2023-01-29T09:21:54.000Z</time>
      </trkpt>
      <trkpt lat="43.46872" lon="6.3245">
        <ele>126.8</ele>
        <time>2023-01-29T09:21:55.000Z</time>
      </trkpt>
      <trkpt lat="43.46872" lon="6.3245">
        <ele>126.8</ele>
        <time>2023-01-29T09:21:56.000Z</time>
      </trkpt>
      <trkpt lat="43.46872" lon="6.32449">
        <ele>126.7</ele>
        <time>2023-01-29T09:22:03.000Z</time>
      </trkpt>
      <trkpt lat="43.46871" lon="6.32449">
        <ele>126.5</ele>
        <time>2023-01-29T09:22:05.000Z</time>
      </trkpt>
      <trkpt lat="43.46871" lon="6.32449">
        <ele>126.3</ele>
        <time>2023-01-29T09:22:11.000Z</time>
      </trkpt>
      <trkpt lat="43.46872" lon="6.32449">
        <ele>126.3</ele>
        <time>2023-01-29T09:22:13.000Z</time>
      </trkpt>
      <trkpt lat="43.46872" lon="6.3245">
        <ele>126</ele>
        <time>2023-01-29T09:22:16.000Z</time>
      </trkpt>
      <trkpt lat="43.46873" lon="6.32452">
        <ele>126</ele>
        <time>2023-01-29T09:22:21.000Z</time>
      </trkpt>
      <trkpt lat="43.46873" lon="6.32452">
        <ele>126</ele>
        <time>2023-01-29T09:22:24.000Z</time>
      </trkpt>
      <trkpt lat="43.46874" lon="6.32453">
        <ele>126.1</ele>
        <time>2023-01-29T09:22:28.000Z</time>
      </trkpt>
      <trkpt lat="43.46874" lon="6.32453">
        <ele>126</ele>
        <time>2023-01-29T09:22:30.000Z</time>
      </trkpt>
      <trkpt lat="43.46877" lon="6.32466">
        <ele>126.4</ele>
        <time>2023-01-29T09:22:41.000Z</time>
      </trkpt>
      <trkpt lat="43.46879" lon="6.32478">
        <ele>126.6</ele>
        <time>2023-01-29T09:22:55.000Z</time>
      </trkpt>
      <trkpt lat="43.46879" lon="6.32479">
        <ele>126.6</ele>
        <time>2023-01-29T09:22:58.000Z</time>
      </trkpt>
      <trkpt lat="43.46879" lon="6.32479">
        <ele>126.5</ele>
        <time>2023-01-29T09:23:25.000Z</time>
      </trkpt>
      <trkpt lat="43.46879" lon="6.32479">
        <ele>126.4</ele>
        <time>2023-01-29T09:23:26.000Z</time>
      </trkpt>
      <trkpt lat="43.46879" lon="6.32479">
        <ele>126.5</ele>
        <time>2023-01-29T09:23:27.000Z</time>
      </trkpt>
      <trkpt lat="43.46879" lon="6.32479">
        <ele>126.6</ele>
        <time>2023-01-29T09:23:28.000Z</time>
      </trkpt>
      <trkpt lat="43.46879" lon="6.3248">
        <ele>127.2</ele>
        <time>2023-01-29T09:23:33.000Z</time>
      </trkpt>
      <trkpt lat="43.46879" lon="6.3248">
        <ele>127.1</ele>
        <time>2023-01-29T09:23:34.000Z</time>
      </trkpt>
      <trkpt lat="43.46879" lon="6.3248">
        <ele>127.2</ele>
        <time>2023-01-29T09:23:56.000Z</time>
      </trkpt>
      <trkpt lat="43.4687" lon="6.32486">
        <ele>127.1</ele>
        <time>2023-01-29T09:24:05.000Z</time>
      </trkpt>
      <trkpt lat="43.46862" lon="6.32491">
        <ele>126.4</ele>
        <time>2023-01-29T09:24:14.000Z</time>
      </trkpt>
      <trkpt lat="43.46861" lon="6.32491">
        <ele>126.1</ele>
        <time>2023-01-29T09:24:16.000Z</time>
      </trkpt>
      <trkpt lat="43.46862" lon="6.32491">
        <ele>126.1</ele>
        <time>2023-01-29T09:24:17.000Z</time>
      </trkpt>
      <trkpt lat="43.46863" lon="6.32491">
        <ele>126.2</ele>
        <time>2023-01-29T09:24:22.000Z</time>
      </trkpt>
      <trkpt lat="43.46863" lon="6.32491">
        <ele>126.1</ele>
        <time>2023-01-29T09:24:24.000Z</time>
      </trkpt>
      <trkpt lat="43.46854" lon="6.32496">
        <ele>125.1</ele>
        <time>2023-01-29T09:24:38.000Z</time>
      </trkpt>
      <trkpt lat="43.46846" lon="6.32503">
        <ele>124.2</ele>
        <time>2023-01-29T09:24:45.000Z</time>
      </trkpt>
      <trkpt lat="43.46837" lon="6.3251">
        <ele>123.1</ele>
        <time>2023-01-29T09:24:53.000Z</time>
      </trkpt>
      <trkpt lat="43.46831" lon="6.32518">
        <ele>122.4</ele>
        <time>2023-01-29T09:24:59.000Z</time>
      </trkpt>
      <trkpt lat="43.46827" lon="6.3253">
        <ele>121.9</ele>
        <time>2023-01-29T09:25:06.000Z</time>
      </trkpt>
      <trkpt lat="43.46823" lon="6.32542">
        <ele>120.9</ele>
        <time>2023-01-29T09:25:13.000Z</time>
      </trkpt>
      <trkpt lat="43.46819" lon="6.32553">
        <ele>120.1</ele>
        <time>2023-01-29T09:25:20.000Z</time>
      </trkpt>
      <trkpt lat="43.46814" lon="6.32565">
        <ele>118.8</ele>
        <time>2023-01-29T09:25:28.000Z</time>
      </trkpt>
      <trkpt lat="43.46809" lon="6.32576">
        <ele>118.1</ele>
        <time>2023-01-29T09:25:36.000Z</time>
      </trkpt>
      <trkpt lat="43.46808" lon="6.32589">
        <ele>117.9</ele>
        <time>2023-01-29T09:25:45.000Z</time>
      </trkpt>
      <trkpt lat="43.468" lon="6.32596">
        <ele>116.6</ele>
        <time>2023-01-29T09:26:01.000Z</time>
      </trkpt>
      <trkpt lat="43.46794" lon="6.32586">
        <ele>116.2</ele>
        <time>2023-01-29T09:26:12.000Z</time>
      </trkpt>
      <trkpt lat="43.46785" lon="6.3259">
        <ele>115.5</ele>
        <time>2023-01-29T09:26:24.000Z</time>
      </trkpt>
      <trkpt lat="43.46777" lon="6.32583">
        <ele>115.1</ele>
        <time>2023-01-29T09:26:44.000Z</time>
      </trkpt>
      <trkpt lat="43.46771" lon="6.32573">
        <ele>115.2</ele>
        <time>2023-01-29T09:27:01.000Z</time>
      </trkpt>
      <trkpt lat="43.46768" lon="6.32571">
        <ele>115.9</ele>
        <time>2023-01-29T09:27:10.000Z</time>
      </trkpt>
      <trkpt lat="43.46768" lon="6.32571">
        <ele>115.7</ele>
        <time>2023-01-29T09:27:14.000Z</time>
      </trkpt>
      <trkpt lat="43.46768" lon="6.3257">
        <ele>115.7</ele>
        <time>2023-01-29T09:27:16.000Z</time>
      </trkpt>
      <trkpt lat="43.46768" lon="6.32571">
        <ele>115.7</ele>
        <time>2023-01-29T09:27:19.000Z</time>
      </trkpt>
      <trkpt lat="43.46769" lon="6.32574">
        <ele>115.9</ele>
        <time>2023-01-29T09:27:24.000Z</time>
      </trkpt>
      <trkpt lat="43.46769" lon="6.32574">
        <ele>115.8</ele>
        <time>2023-01-29T09:27:26.000Z</time>
      </trkpt>
      <trkpt lat="43.46769" lon="6.32574">
        <ele>115.8</ele>
        <time>2023-01-29T09:27:27.000Z</time>
      </trkpt>
      <trkpt lat="43.46769" lon="6.32573">
        <ele>115.8</ele>
        <time>2023-01-29T09:27:29.000Z</time>
      </trkpt>
      <trkpt lat="43.46769" lon="6.32572">
        <ele>115.7</ele>
        <time>2023-01-29T09:27:33.000Z</time>
      </trkpt>
      <trkpt lat="43.46769" lon="6.32571">
        <ele>115.9</ele>
        <time>2023-01-29T09:27:41.000Z</time>
      </trkpt>
      <trkpt lat="43.46769" lon="6.3257">
        <ele>115.8</ele>
        <time>2023-01-29T09:27:45.000Z</time>
      </trkpt>
      <trkpt lat="43.46769" lon="6.3257">
        <ele>115.8</ele>
        <time>2023-01-29T09:27:49.000Z</time>
      </trkpt>
      <trkpt lat="43.46769" lon="6.3257">
        <ele>115.9</ele>
        <time>2023-01-29T09:27:50.000Z</time>
      </trkpt>
      <trkpt lat="43.46769" lon="6.32569">
        <ele>116.2</ele>
        <time>2023-01-29T09:28:01.000Z</time>
      </trkpt>
      <trkpt lat="43.46769" lon="6.32568">
        <ele>116.2</ele>
        <time>2023-01-29T09:28:05.000Z</time>
      </trkpt>
      <trkpt lat="43.46769" lon="6.32567">
        <ele>116</ele>
        <time>2023-01-29T09:28:19.000Z</time>
      </trkpt>
      <trkpt lat="43.46764" lon="6.32556">
        <ele>116.4</ele>
        <time>2023-01-29T09:28:31.000Z</time>
      </trkpt>
      <trkpt lat="43.46758" lon="6.32547">
        <ele>117.3</ele>
        <time>2023-01-29T09:28:46.000Z</time>
      </trkpt>
      <trkpt lat="43.46754" lon="6.32536">
        <ele>117.5</ele>
        <time>2023-01-29T09:29:01.000Z</time>
      </trkpt>
      <trkpt lat="43.46753" lon="6.32536">
        <ele>117.6</ele>
        <time>2023-01-29T09:29:03.000Z</time>
      </trkpt>
      <trkpt lat="43.46752" lon="6.32534">
        <ele>117.6</ele>
        <time>2023-01-29T09:29:09.000Z</time>
      </trkpt>
      <trkpt lat="43.46752" lon="6.32533">
        <ele>117.7</ele>
        <time>2023-01-29T09:29:11.000Z</time>
      </trkpt>
      <trkpt lat="43.46751" lon="6.32532">
        <ele>117.4</ele>
        <time>2023-01-29T09:29:14.000Z</time>
      </trkpt>
      <trkpt lat="43.46751" lon="6.32531">
        <ele>117.4</ele>
        <time>2023-01-29T09:29:15.000Z</time>
      </trkpt>
      <trkpt lat="43.46751" lon="6.32525">
        <ele>117.8</ele>
        <time>2023-01-29T09:29:24.000Z</time>
      </trkpt>
      <trkpt lat="43.46752" lon="6.32525">
        <ele>117.9</ele>
        <time>2023-01-29T09:29:28.000Z</time>
      </trkpt>
      <trkpt lat="43.46751" lon="6.32513">
        <ele>117.7</ele>
        <time>2023-01-29T09:29:42.000Z</time>
      </trkpt>
      <trkpt lat="43.46745" lon="6.32503">
        <ele>116.8</ele>
        <time>2023-01-29T09:29:50.000Z</time>
      </trkpt>
      <trkpt lat="43.4674" lon="6.32492">
        <ele>115.4</ele>
        <time>2023-01-29T09:30:00.000Z</time>
      </trkpt>
      <trkpt lat="43.46736" lon="6.32481">
        <ele>114.3</ele>
        <time>2023-01-29T09:30:09.000Z</time>
      </trkpt>
      <trkpt lat="43.46726" lon="6.32481">
        <ele>112.4</ele>
        <time>2023-01-29T09:30:18.000Z</time>
      </trkpt>
      <trkpt lat="43.46721" lon="6.3249">
        <ele>111.9</ele>
        <time>2023-01-29T09:30:37.000Z</time>
      </trkpt>
      <trkpt lat="43.46721" lon="6.3249">
        <ele>111.7</ele>
        <time>2023-01-29T09:30:46.000Z</time>
      </trkpt>
      <trkpt lat="43.46721" lon="6.32492">
        <ele>111.7</ele>
        <time>2023-01-29T09:30:51.000Z</time>
      </trkpt>
      <trkpt lat="43.46721" lon="6.32492">
        <ele>111.6</ele>
        <time>2023-01-29T09:30:56.000Z</time>
      </trkpt>
      <trkpt lat="43.46721" lon="6.32492">
        <ele>111.5</ele>
        <time>2023-01-29T09:30:57.000Z</time>
      </trkpt>
      <trkpt lat="43.46721" lon="6.32493">
        <ele>111.5</ele>
        <time>2023-01-29T09:31:03.000Z</time>
      </trkpt>
      <trkpt lat="43.46721" lon="6.32493">
        <ele>111.5</ele>
        <time>2023-01-29T09:31:04.000Z</time>
      </trkpt>
      <trkpt lat="43.46721" lon="6.32492">
        <ele>111.8</ele>
        <time>2023-01-29T09:32:09.000Z</time>
      </trkpt>
      <trkpt lat="43.46721" lon="6.32492">
        <ele>111.7</ele>
        <time>2023-01-29T09:32:13.000Z</time>
      </trkpt>
      <trkpt lat="43.46721" lon="6.32492">
        <ele>112</ele>
        <time>2023-01-29T09:32:39.000Z</time>
      </trkpt>
      <trkpt lat="43.46721" lon="6.32492">
        <ele>112.1</ele>
        <time>2023-01-29T09:32:40.000Z</time>
      </trkpt>
      <trkpt lat="43.46721" lon="6.32492">
        <ele>111.8</ele>
        <time>2023-01-29T09:32:58.000Z</time>
      </trkpt>
      <trkpt lat="43.46721" lon="6.32492">
        <ele>111.8</ele>
        <time>2023-01-29T09:32:59.000Z</time>
      </trkpt>
      <trkpt lat="43.46722" lon="6.32492">
        <ele>111.9</ele>
        <time>2023-01-29T09:33:12.000Z</time>
      </trkpt>
      <trkpt lat="43.46722" lon="6.32492">
        <ele>112</ele>
        <time>2023-01-29T09:33:13.000Z</time>
      </trkpt>
      <trkpt lat="43.46722" lon="6.32492">
        <ele>112.2</ele>
        <time>2023-01-29T09:34:30.000Z</time>
      </trkpt>
      <trkpt lat="43.46722" lon="6.32492">
        <ele>112.2</ele>
        <time>2023-01-29T09:34:31.000Z</time>
      </trkpt>
      <trkpt lat="43.46722" lon="6.32492">
        <ele>112.5</ele>
        <time>2023-01-29T09:35:13.000Z</time>
      </trkpt>
      <trkpt lat="43.46722" lon="6.32492">
        <ele>112.4</ele>
        <time>2023-01-29T09:35:14.000Z</time>
      </trkpt>
      <trkpt lat="43.46722" lon="6.32492">
        <ele>112.3</ele>
        <time>2023-01-29T09:35:23.000Z</time>
      </trkpt>
      <trkpt lat="43.46722" lon="6.32492">
        <ele>112.5</ele>
        <time>2023-01-29T09:35:24.000Z</time>
      </trkpt>
      <trkpt lat="43.46722" lon="6.32492">
        <ele>112.5</ele>
        <time>2023-01-29T09:36:07.000Z</time>
      </trkpt>
      <trkpt lat="43.46723" lon="6.32492">
        <ele>112.6</ele>
        <time>2023-01-29T09:36:09.000Z</time>
      </trkpt>
      <trkpt lat="43.46723" lon="6.32492">
        <ele>112.7</ele>
        <time>2023-01-29T09:36:16.000Z</time>
      </trkpt>
      <trkpt lat="43.46723" lon="6.32492">
        <ele>112.7</ele>
        <time>2023-01-29T09:36:17.000Z</time>
      </trkpt>
      <trkpt lat="43.46723" lon="6.32492">
        <ele>112.7</ele>
        <time>2023-01-29T09:36:34.000Z</time>
      </trkpt>
      <trkpt lat="43.46723" lon="6.32492">
        <ele>112.5</ele>
        <time>2023-01-29T09:36:35.000Z</time>
      </trkpt>
      <trkpt lat="43.46723" lon="6.32492">
        <ele>112.4</ele>
        <time>2023-01-29T09:36:54.000Z</time>
      </trkpt>
      <trkpt lat="43.46724" lon="6.32492">
        <ele>112.9</ele>
        <time>2023-01-29T09:36:59.000Z</time>
      </trkpt>
      <trkpt lat="43.46724" lon="6.32492">
        <ele>113</ele>
        <time>2023-01-29T09:37:00.000Z</time>
      </trkpt>
      <trkpt lat="43.46725" lon="6.32493">
        <ele>112.9</ele>
        <time>2023-01-29T09:37:03.000Z</time>
      </trkpt>
      <trkpt lat="43.46725" lon="6.32492">
        <ele>112.7</ele>
        <time>2023-01-29T09:37:06.000Z</time>
      </trkpt>
      <trkpt lat="43.46725" lon="6.32492">
        <ele>112.9</ele>
        <time>2023-01-29T09:37:09.000Z</time>
      </trkpt>
      <trkpt lat="43.46725" lon="6.32491">
        <ele>112.9</ele>
        <time>2023-01-29T09:37:13.000Z</time>
      </trkpt>
      <trkpt lat="43.4672" lon="6.32488">
        <ele>112.1</ele>
        <time>2023-01-29T09:37:21.000Z</time>
      </trkpt>
      <trkpt lat="43.4672" lon="6.32488">
        <ele>112</ele>
        <time>2023-01-29T09:37:22.000Z</time>
      </trkpt>
      <trkpt lat="43.46717" lon="6.32486">
        <ele>112</ele>
        <time>2023-01-29T09:37:29.000Z</time>
      </trkpt>
      <trkpt lat="43.46718" lon="6.32486">
        <ele>112.2</ele>
        <time>2023-01-29T09:37:31.000Z</time>
      </trkpt>
      <trkpt lat="43.46721" lon="6.32491">
        <ele>112.2</ele>
        <time>2023-01-29T09:37:39.000Z</time>
      </trkpt>
      <trkpt lat="43.46721" lon="6.32491">
        <ele>112.3</ele>
        <time>2023-01-29T09:38:01.000Z</time>
      </trkpt>
      <trkpt lat="43.46721" lon="6.32494">
        <ele>112.3</ele>
        <time>2023-01-29T09:38:07.000Z</time>
      </trkpt>
      <trkpt lat="43.46721" lon="6.32494">
        <ele>112.3</ele>
        <time>2023-01-29T09:38:18.000Z</time>
      </trkpt>
      <trkpt lat="43.46722" lon="6.32494">
        <ele>112.3</ele>
        <time>2023-01-29T09:38:21.000Z</time>
      </trkpt>
      <trkpt lat="43.46722" lon="6.32494">
        <ele>112.1</ele>
        <time>2023-01-29T09:38:47.000Z</time>
      </trkpt>
      <trkpt lat="43.46721" lon="6.32493">
        <ele>111.9</ele>
        <time>2023-01-29T09:38:52.000Z</time>
      </trkpt>
      <trkpt lat="43.46721" lon="6.32493">
        <ele>112.2</ele>
        <time>2023-01-29T09:39:08.000Z</time>
      </trkpt>
      <trkpt lat="43.46722" lon="6.32493">
        <ele>112.2</ele>
        <time>2023-01-29T09:39:10.000Z</time>
      </trkpt>
      <trkpt lat="43.46722" lon="6.32493">
        <ele>112.4</ele>
        <time>2023-01-29T09:39:37.000Z</time>
      </trkpt>
      <trkpt lat="43.46722" lon="6.32493">
        <ele>112.4</ele>
        <time>2023-01-29T09:39:38.000Z</time>
      </trkpt>
      <trkpt lat="43.46722" lon="6.32492">
        <ele>112.2</ele>
        <time>2023-01-29T09:39:49.000Z</time>
      </trkpt>
      <trkpt lat="43.46721" lon="6.32492">
        <ele>112.2</ele>
        <time>2023-01-29T09:39:53.000Z</time>
      </trkpt>
      <trkpt lat="43.46721" lon="6.32492">
        <ele>112.3</ele>
        <time>2023-01-29T09:40:00.000Z</time>
      </trkpt>
      <trkpt lat="43.46715" lon="6.32482">
        <ele>111.2</ele>
        <time>2023-01-29T09:40:13.000Z</time>
      </trkpt>
      <trkpt lat="43.46706" lon="6.32482">
        <ele>110.7</ele>
        <time>2023-01-29T09:40:30.000Z</time>
      </trkpt>
      <trkpt lat="43.46697" lon="6.32484">
        <ele>110</ele>
        <time>2023-01-29T09:40:42.000Z</time>
      </trkpt>
      <trkpt lat="43.46691" lon="6.32486">
        <ele>109.9</ele>
        <time>2023-01-29T09:40:50.000Z</time>
      </trkpt>
      <trkpt lat="43.46691" lon="6.32485">
        <ele>109.8</ele>
        <time>2023-01-29T09:40:57.000Z</time>
      </trkpt>
      <trkpt lat="43.46691" lon="6.32485">
        <ele>109.7</ele>
        <time>2023-01-29T09:41:00.000Z</time>
      </trkpt>
      <trkpt lat="43.4669" lon="6.32485">
        <ele>109.8</ele>
        <time>2023-01-29T09:41:02.000Z</time>
      </trkpt>
      <trkpt lat="43.4668" lon="6.32488">
        <ele>109.6</ele>
        <time>2023-01-29T09:41:14.000Z</time>
      </trkpt>
      <trkpt lat="43.46675" lon="6.32492">
        <ele>109.1</ele>
        <time>2023-01-29T09:41:21.000Z</time>
      </trkpt>
      <trkpt lat="43.46675" lon="6.32492">
        <ele>109.2</ele>
        <time>2023-01-29T09:41:23.000Z</time>
      </trkpt>
      <trkpt lat="43.46675" lon="6.32492">
        <ele>109.2</ele>
        <time>2023-01-29T09:41:24.000Z</time>
      </trkpt>
      <trkpt lat="43.46675" lon="6.32492">
        <ele>109.5</ele>
        <time>2023-01-29T09:41:27.000Z</time>
      </trkpt>
      <trkpt lat="43.46668" lon="6.32501">
        <ele>109.1</ele>
        <time>2023-01-29T09:41:42.000Z</time>
      </trkpt>
      <trkpt lat="43.46659" lon="6.32496">
        <ele>108.7</ele>
        <time>2023-01-29T09:41:58.000Z</time>
      </trkpt>
      <trkpt lat="43.46655" lon="6.32496">
        <ele>109</ele>
        <time>2023-01-29T09:42:04.000Z</time>
      </trkpt>
      <trkpt lat="43.46655" lon="6.32496">
        <ele>109</ele>
        <time>2023-01-29T09:42:08.000Z</time>
      </trkpt>
      <trkpt lat="43.46654" lon="6.32496">
        <ele>108.8</ele>
        <time>2023-01-29T09:42:11.000Z</time>
      </trkpt>
      <trkpt lat="43.46654" lon="6.32496">
        <ele>109</ele>
        <time>2023-01-29T09:42:18.000Z</time>
      </trkpt>
      <trkpt lat="43.46654" lon="6.32496">
        <ele>109</ele>
        <time>2023-01-29T09:42:19.000Z</time>
      </trkpt>
      <trkpt lat="43.46654" lon="6.32497">
        <ele>109.3</ele>
        <time>2023-01-29T09:42:21.000Z</time>
      </trkpt>
      <trkpt lat="43.46655" lon="6.32499">
        <ele>109</ele>
        <time>2023-01-29T09:42:26.000Z</time>
      </trkpt>
      <trkpt lat="43.46655" lon="6.32499">
        <ele>109.1</ele>
        <time>2023-01-29T09:42:29.000Z</time>
      </trkpt>
      <trkpt lat="43.46655" lon="6.32499">
        <ele>109</ele>
        <time>2023-01-29T09:42:31.000Z</time>
      </trkpt>
      <trkpt lat="43.46655" lon="6.32499">
        <ele>108.9</ele>
        <time>2023-01-29T09:42:33.000Z</time>
      </trkpt>
      <trkpt lat="43.46655" lon="6.325">
        <ele>109.1</ele>
        <time>2023-01-29T09:42:35.000Z</time>
      </trkpt>
      <trkpt lat="43.46654" lon="6.32499">
        <ele>109.2</ele>
        <time>2023-01-29T09:42:39.000Z</time>
      </trkpt>
      <trkpt lat="43.46645" lon="6.325">
        <ele>109.5</ele>
        <time>2023-01-29T09:42:53.000Z</time>
      </trkpt>
      <trkpt lat="43.46636" lon="6.32501">
        <ele>109.7</ele>
        <time>2023-01-29T09:43:10.000Z</time>
      </trkpt>
      <trkpt lat="43.46627" lon="6.32502">
        <ele>109.9</ele>
        <time>2023-01-29T09:43:21.000Z</time>
      </trkpt>
      <trkpt lat="43.46618" lon="6.32503">
        <ele>110.1</ele>
        <time>2023-01-29T09:43:32.000Z</time>
      </trkpt>
      <trkpt lat="43.46608" lon="6.32505">
        <ele>110.2</ele>
        <time>2023-01-29T09:43:43.000Z</time>
      </trkpt>
      <trkpt lat="43.46599" lon="6.32507">
        <ele>109.9</ele>
        <time>2023-01-29T09:43:54.000Z</time>
      </trkpt>
      <trkpt lat="43.46591" lon="6.32513">
        <ele>109.9</ele>
        <time>2023-01-29T09:44:04.000Z</time>
      </trkpt>
      <trkpt lat="43.46585" lon="6.32524">
        <ele>109.1</ele>
        <time>2023-01-29T09:44:15.000Z</time>
      </trkpt>
      <trkpt lat="43.46579" lon="6.32534">
        <ele>107.6</ele>
        <time>2023-01-29T09:44:24.000Z</time>
      </trkpt>
      <trkpt lat="43.46571" lon="6.3254">
        <ele>106.6</ele>
        <time>2023-01-29T09:44:32.000Z</time>
      </trkpt>
      <trkpt lat="43.46562" lon="6.32544">
        <ele>105.5</ele>
        <time>2023-01-29T09:44:40.000Z</time>
      </trkpt>
      <trkpt lat="43.46553" lon="6.32547">
        <ele>104.3</ele>
        <time>2023-01-29T09:44:49.000Z</time>
      </trkpt>
      <trkpt lat="43.46543" lon="6.32549">
        <ele>103.6</ele>
        <time>2023-01-29T09:44:58.000Z</time>
      </trkpt>
      <trkpt lat="43.46534" lon="6.32549">
        <ele>103.4</ele>
        <time>2023-01-29T09:45:07.000Z</time>
      </trkpt>
      <trkpt lat="43.46525" lon="6.32545">
        <ele>102.8</ele>
        <time>2023-01-29T09:45:16.000Z</time>
      </trkpt>
      <trkpt lat="43.46525" lon="6.32545">
        <ele>102.8</ele>
        <time>2023-01-29T09:45:17.000Z</time>
      </trkpt>
      <trkpt lat="43.46525" lon="6.32545">
        <ele>102.7</ele>
        <time>2023-01-29T09:45:18.000Z</time>
      </trkpt>
      <trkpt lat="43.4652" lon="6.32548">
        <ele>102.5</ele>
        <time>2023-01-29T09:45:25.000Z</time>
      </trkpt>
      <trkpt lat="43.4652" lon="6.32548">
        <ele>102.6</ele>
        <time>2023-01-29T09:45:27.000Z</time>
      </trkpt>
      <trkpt lat="43.46512" lon="6.32543">
        <ele>101.6</ele>
        <time>2023-01-29T09:45:38.000Z</time>
      </trkpt>
      <trkpt lat="43.46503" lon="6.32539">
        <ele>100.6</ele>
        <time>2023-01-29T09:45:49.000Z</time>
      </trkpt>
      <trkpt lat="43.46503" lon="6.32535">
        <ele>99.8</ele>
        <time>2023-01-29T09:45:55.000Z</time>
      </trkpt>
      <trkpt lat="43.46504" lon="6.32535">
        <ele>99.9</ele>
        <time>2023-01-29T09:45:57.000Z</time>
      </trkpt>
      <trkpt lat="43.46504" lon="6.32535">
        <ele>99.8</ele>
        <time>2023-01-29T09:45:58.000Z</time>
      </trkpt>
      <trkpt lat="43.46504" lon="6.32535">
        <ele>99.7</ele>
        <time>2023-01-29T09:45:59.000Z</time>
      </trkpt>
      <trkpt lat="43.46504" lon="6.32534">
        <ele>100</ele>
        <time>2023-01-29T09:46:06.000Z</time>
      </trkpt>
      <trkpt lat="43.46503" lon="6.32535">
        <ele>100.1</ele>
        <time>2023-01-29T09:46:12.000Z</time>
      </trkpt>
      <trkpt lat="43.46494" lon="6.32533">
        <ele>99</ele>
        <time>2023-01-29T09:46:24.000Z</time>
      </trkpt>
      <trkpt lat="43.46484" lon="6.3253">
        <ele>98.1</ele>
        <time>2023-01-29T09:46:31.000Z</time>
      </trkpt>
      <trkpt lat="43.46476" lon="6.32524">
        <ele>97.2</ele>
        <time>2023-01-29T09:46:40.000Z</time>
      </trkpt>
      <trkpt lat="43.46482" lon="6.32513">
        <ele>96.9</ele>
        <time>2023-01-29T09:46:48.000Z</time>
      </trkpt>
      <trkpt lat="43.46479" lon="6.32501">
        <ele>96.5</ele>
        <time>2023-01-29T09:47:12.000Z</time>
      </trkpt>
      <trkpt lat="43.46478" lon="6.32502">
        <ele>96.3</ele>
        <time>2023-01-29T09:47:23.000Z</time>
      </trkpt>
      <trkpt lat="43.46478" lon="6.32502">
        <ele>96.3</ele>
        <time>2023-01-29T09:47:49.000Z</time>
      </trkpt>
      <trkpt lat="43.46477" lon="6.32504">
        <ele>96.4</ele>
        <time>2023-01-29T09:47:54.000Z</time>
      </trkpt>
      <trkpt lat="43.46477" lon="6.32504">
        <ele>96.3</ele>
        <time>2023-01-29T09:49:19.000Z</time>
      </trkpt>
      <trkpt lat="43.46477" lon="6.32504">
        <ele>96.2</ele>
        <time>2023-01-29T09:49:20.000Z</time>
      </trkpt>
      <trkpt lat="43.46477" lon="6.32504">
        <ele>96.1</ele>
        <time>2023-01-29T09:50:38.000Z</time>
      </trkpt>
      <trkpt lat="43.46476" lon="6.32505">
        <ele>96.1</ele>
        <time>2023-01-29T09:50:42.000Z</time>
      </trkpt>
      <trkpt lat="43.46476" lon="6.32505">
        <ele>96.1</ele>
        <time>2023-01-29T09:50:45.000Z</time>
      </trkpt>
      <trkpt lat="43.46473" lon="6.32509">
        <ele>96</ele>
        <time>2023-01-29T09:50:54.000Z</time>
      </trkpt>
      <trkpt lat="43.46474" lon="6.3251">
        <ele>96</ele>
        <time>2023-01-29T09:50:55.000Z</time>
      </trkpt>
      <trkpt lat="43.46474" lon="6.3251">
        <ele>96.1</ele>
        <time>2023-01-29T09:50:57.000Z</time>
      </trkpt>
      <trkpt lat="43.46474" lon="6.3251">
        <ele>95.9</ele>
        <time>2023-01-29T09:50:59.000Z</time>
      </trkpt>
      <trkpt lat="43.46476" lon="6.32503">
        <ele>96</ele>
        <time>2023-01-29T09:51:20.000Z</time>
      </trkpt>
      <trkpt lat="43.46476" lon="6.32503">
        <ele>95.9</ele>
        <time>2023-01-29T09:51:21.000Z</time>
      </trkpt>
      <trkpt lat="43.46476" lon="6.32503">
        <ele>95.7</ele>
        <time>2023-01-29T09:51:23.000Z</time>
      </trkpt>
      <trkpt lat="43.46476" lon="6.32503">
        <ele>96</ele>
        <time>2023-01-29T09:51:35.000Z</time>
      </trkpt>
      <trkpt lat="43.46476" lon="6.32503">
        <ele>96.1</ele>
        <time>2023-01-29T09:51:36.000Z</time>
      </trkpt>
      <trkpt lat="43.46476" lon="6.32503">
        <ele>95.9</ele>
        <time>2023-01-29T09:51:39.000Z</time>
      </trkpt>
      <trkpt lat="43.46477" lon="6.32504">
        <ele>96.1</ele>
        <time>2023-01-29T09:51:45.000Z</time>
      </trkpt>
      <trkpt lat="43.46477" lon="6.32505">
        <ele>95.9</ele>
        <time>2023-01-29T09:51:52.000Z</time>
      </trkpt>
      <trkpt lat="43.46478" lon="6.32505">
        <ele>96.1</ele>
        <time>2023-01-29T09:51:56.000Z</time>
      </trkpt>
      <trkpt lat="43.46478" lon="6.32505">
        <ele>95.9</ele>
        <time>2023-01-29T09:51:59.000Z</time>
      </trkpt>
      <trkpt lat="43.46487" lon="6.32503">
        <ele>95.9</ele>
        <time>2023-01-29T09:52:10.000Z</time>
      </trkpt>
      <trkpt lat="43.46488" lon="6.32498">
        <ele>95.8</ele>
        <time>2023-01-29T09:52:17.000Z</time>
      </trkpt>
      <trkpt lat="43.46489" lon="6.32497">
        <ele>95.7</ele>
        <time>2023-01-29T09:52:22.000Z</time>
      </trkpt>
      <trkpt lat="43.4649" lon="6.32497">
        <ele>95.4</ele>
        <time>2023-01-29T09:52:28.000Z</time>
      </trkpt>
      <trkpt lat="43.4649" lon="6.32496">
        <ele>95.6</ele>
        <time>2023-01-29T09:52:47.000Z</time>
      </trkpt>
      <trkpt lat="43.46492" lon="6.32493">
        <ele>95.4</ele>
        <time>2023-01-29T09:52:53.000Z</time>
      </trkpt>
      <trkpt lat="43.46492" lon="6.32492">
        <ele>95.3</ele>
        <time>2023-01-29T09:52:54.000Z</time>
      </trkpt>
      <trkpt lat="43.46492" lon="6.32489">
        <ele>95.2</ele>
        <time>2023-01-29T09:53:02.000Z</time>
      </trkpt>
      <trkpt lat="43.46492" lon="6.32488">
        <ele>95.2</ele>
        <time>2023-01-29T09:53:03.000Z</time>
      </trkpt>
      <trkpt lat="43.46492" lon="6.32488">
        <ele>95.1</ele>
        <time>2023-01-29T09:53:05.000Z</time>
      </trkpt>
      <trkpt lat="43.46493" lon="6.32487">
        <ele>95.2</ele>
        <time>2023-01-29T09:53:07.000Z</time>
      </trkpt>
      <trkpt lat="43.46494" lon="6.32484">
        <ele>95.1</ele>
        <time>2023-01-29T09:53:13.000Z</time>
      </trkpt>
      <trkpt lat="43.46495" lon="6.32484">
        <ele>95.2</ele>
        <time>2023-01-29T09:53:26.000Z</time>
      </trkpt>
      <trkpt lat="43.46498" lon="6.32471">
        <ele>95</ele>
        <time>2023-01-29T09:53:39.000Z</time>
      </trkpt>
      <trkpt lat="43.46498" lon="6.32467">
        <ele>95</ele>
        <time>2023-01-29T09:53:46.000Z</time>
      </trkpt>
      <trkpt lat="43.46498" lon="6.32467">
        <ele>94.7</ele>
        <time>2023-01-29T09:54:04.000Z</time>
      </trkpt>
      <trkpt lat="43.465" lon="6.32454">
        <ele>94.8</ele>
        <time>2023-01-29T09:54:19.000Z</time>
      </trkpt>
      <trkpt lat="43.46502" lon="6.32448">
        <ele>94.9</ele>
        <time>2023-01-29T09:54:28.000Z</time>
      </trkpt>
      <trkpt lat="43.46502" lon="6.32447">
        <ele>94.7</ele>
        <time>2023-01-29T09:54:32.000Z</time>
      </trkpt>
      <trkpt lat="43.46502" lon="6.32447">
        <ele>94.6</ele>
        <time>2023-01-29T09:54:33.000Z</time>
      </trkpt>
      <trkpt lat="43.46502" lon="6.32447">
        <ele>94.7</ele>
        <time>2023-01-29T09:54:34.000Z</time>
      </trkpt>
      <trkpt lat="43.46502" lon="6.32434">
        <ele>94.7</ele>
        <time>2023-01-29T09:54:44.000Z</time>
      </trkpt>
      <trkpt lat="43.46502" lon="6.32421">
        <ele>95</ele>
        <time>2023-01-29T09:54:53.000Z</time>
      </trkpt>
      <trkpt lat="43.46503" lon="6.32408">
        <ele>95</ele>
        <time>2023-01-29T09:55:05.000Z</time>
      </trkpt>
      <trkpt lat="43.46506" lon="6.32396">
        <ele>95.4</ele>
        <time>2023-01-29T09:55:14.000Z</time>
      </trkpt>
      <trkpt lat="43.46507" lon="6.32389">
        <ele>95.7</ele>
        <time>2023-01-29T09:55:22.000Z</time>
      </trkpt>
      <trkpt lat="43.46507" lon="6.32389">
        <ele>95.8</ele>
        <time>2023-01-29T09:55:23.000Z</time>
      </trkpt>
      <trkpt lat="43.46506" lon="6.32389">
        <ele>95.7</ele>
        <time>2023-01-29T09:55:25.000Z</time>
      </trkpt>
      <trkpt lat="43.46507" lon="6.32389">
        <ele>95.6</ele>
        <time>2023-01-29T09:55:31.000Z</time>
      </trkpt>
      <trkpt lat="43.46506" lon="6.32389">
        <ele>95.9</ele>
        <time>2023-01-29T09:55:33.000Z</time>
      </trkpt>
      <trkpt lat="43.46507" lon="6.32389">
        <ele>95.7</ele>
        <time>2023-01-29T09:55:35.000Z</time>
      </trkpt>
      <trkpt lat="43.46509" lon="6.32377">
        <ele>96.5</ele>
        <time>2023-01-29T09:55:44.000Z</time>
      </trkpt>
      <trkpt lat="43.46514" lon="6.32365">
        <ele>96.7</ele>
        <time>2023-01-29T09:55:53.000Z</time>
      </trkpt>
      <trkpt lat="43.46518" lon="6.32354">
        <ele>96.5</ele>
        <time>2023-01-29T09:56:02.000Z</time>
      </trkpt>
      <trkpt lat="43.46523" lon="6.32345">
        <ele>96.2</ele>
        <time>2023-01-29T09:56:14.000Z</time>
      </trkpt>
      <trkpt lat="43.46522" lon="6.32345">
        <ele>96.1</ele>
        <time>2023-01-29T09:56:27.000Z</time>
      </trkpt>
      <trkpt lat="43.46523" lon="6.32346">
        <ele>96.1</ele>
        <time>2023-01-29T09:56:29.000Z</time>
      </trkpt>
      <trkpt lat="43.46522" lon="6.32346">
        <ele>96.2</ele>
        <time>2023-01-29T09:56:59.000Z</time>
      </trkpt>
      <trkpt lat="43.46521" lon="6.32348">
        <ele>96.2</ele>
        <time>2023-01-29T09:57:04.000Z</time>
      </trkpt>
      <trkpt lat="43.46521" lon="6.32348">
        <ele>96.1</ele>
        <time>2023-01-29T09:57:13.000Z</time>
      </trkpt>
      <trkpt lat="43.46521" lon="6.32348">
        <ele>96.2</ele>
        <time>2023-01-29T09:57:14.000Z</time>
      </trkpt>
      <trkpt lat="43.46521" lon="6.32348">
        <ele>96.4</ele>
        <time>2023-01-29T09:57:31.000Z</time>
      </trkpt>
      <trkpt lat="43.46521" lon="6.32348">
        <ele>96.3</ele>
        <time>2023-01-29T09:57:32.000Z</time>
      </trkpt>
      <trkpt lat="43.4652" lon="6.32348">
        <ele>96.3</ele>
        <time>2023-01-29T09:57:36.000Z</time>
      </trkpt>
      <trkpt lat="43.46521" lon="6.32348">
        <ele>96</ele>
        <time>2023-01-29T09:57:40.000Z</time>
      </trkpt>
      <trkpt lat="43.4652" lon="6.32347">
        <ele>96.2</ele>
        <time>2023-01-29T09:57:54.000Z</time>
      </trkpt>
      <trkpt lat="43.4652" lon="6.32347">
        <ele>96.3</ele>
        <time>2023-01-29T09:57:56.000Z</time>
      </trkpt>
      <trkpt lat="43.4652" lon="6.32347">
        <ele>96.3</ele>
        <time>2023-01-29T09:58:03.000Z</time>
      </trkpt>
      <trkpt lat="43.4652" lon="6.32347">
        <ele>96.2</ele>
        <time>2023-01-29T09:58:04.000Z</time>
      </trkpt>
      <trkpt lat="43.4652" lon="6.32347">
        <ele>96.2</ele>
        <time>2023-01-29T09:58:52.000Z</time>
      </trkpt>
      <trkpt lat="43.4652" lon="6.32347">
        <ele>96.2</ele>
        <time>2023-01-29T09:58:53.000Z</time>
      </trkpt>
      <trkpt lat="43.4652" lon="6.32347">
        <ele>96</ele>
        <time>2023-01-29T09:59:07.000Z</time>
      </trkpt>
      <trkpt lat="43.4652" lon="6.32347">
        <ele>96</ele>
        <time>2023-01-29T09:59:08.000Z</time>
      </trkpt>
      <trkpt lat="43.4652" lon="6.32348">
        <ele>96.3</ele>
        <time>2023-01-29T10:00:17.000Z</time>
      </trkpt>
      <trkpt lat="43.4652" lon="6.32348">
        <ele>96.3</ele>
        <time>2023-01-29T10:00:18.000Z</time>
      </trkpt>
      <trkpt lat="43.4652" lon="6.32348">
        <ele>96.3</ele>
        <time>2023-01-29T10:00:25.000Z</time>
      </trkpt>
      <trkpt lat="43.46518" lon="6.32346">
        <ele>96.3</ele>
        <time>2023-01-29T10:00:30.000Z</time>
      </trkpt>
      <trkpt lat="43.46518" lon="6.32346">
        <ele>96.2</ele>
        <time>2023-01-29T10:00:31.000Z</time>
      </trkpt>
      <trkpt lat="43.46517" lon="6.32346">
        <ele>96.2</ele>
        <time>2023-01-29T10:00:33.000Z</time>
      </trkpt>
      <trkpt lat="43.46517" lon="6.32346">
        <ele>96.3</ele>
        <time>2023-01-29T10:00:35.000Z</time>
      </trkpt>
      <trkpt lat="43.46516" lon="6.32345">
        <ele>96.3</ele>
        <time>2023-01-29T10:00:38.000Z</time>
      </trkpt>
      <trkpt lat="43.46516" lon="6.32345">
        <ele>96.3</ele>
        <time>2023-01-29T10:00:39.000Z</time>
      </trkpt>
      <trkpt lat="43.46515" lon="6.32344">
        <ele>96.1</ele>
        <time>2023-01-29T10:00:42.000Z</time>
      </trkpt>
      <trkpt lat="43.46515" lon="6.32344">
        <ele>96.2</ele>
        <time>2023-01-29T10:00:44.000Z</time>
      </trkpt>
      <trkpt lat="43.46515" lon="6.32344">
        <ele>96.3</ele>
        <time>2023-01-29T10:00:45.000Z</time>
      </trkpt>
      <trkpt lat="43.46515" lon="6.32344">
        <ele>96.3</ele>
        <time>2023-01-29T10:00:46.000Z</time>
      </trkpt>
      <trkpt lat="43.46518" lon="6.32344">
        <ele>96.2</ele>
        <time>2023-01-29T10:00:57.000Z</time>
      </trkpt>
      <trkpt lat="43.46518" lon="6.32343">
        <ele>96.1</ele>
        <time>2023-01-29T10:01:06.000Z</time>
      </trkpt>
      <trkpt lat="43.46525" lon="6.32336">
        <ele>96.3</ele>
        <time>2023-01-29T10:01:24.000Z</time>
      </trkpt>
      <trkpt lat="43.46528" lon="6.32324">
        <ele>96.4</ele>
        <time>2023-01-29T10:01:32.000Z</time>
      </trkpt>
      <trkpt lat="43.46529" lon="6.32311">
        <ele>96.3</ele>
        <time>2023-01-29T10:01:40.000Z</time>
      </trkpt>
      <trkpt lat="43.46531" lon="6.32299">
        <ele>96.3</ele>
        <time>2023-01-29T10:01:48.000Z</time>
      </trkpt>
      <trkpt lat="43.46531" lon="6.32286">
        <ele>96.2</ele>
        <time>2023-01-29T10:01:57.000Z</time>
      </trkpt>
      <trkpt lat="43.46534" lon="6.32274">
        <ele>96.2</ele>
        <time>2023-01-29T10:02:04.000Z</time>
      </trkpt>
      <trkpt lat="43.46537" lon="6.3226">
        <ele>96.1</ele>
        <time>2023-01-29T10:02:12.000Z</time>
      </trkpt>
      <trkpt lat="43.46538" lon="6.32248">
        <ele>96.2</ele>
        <time>2023-01-29T10:02:22.000Z</time>
      </trkpt>
      <trkpt lat="43.46535" lon="6.32235">
        <ele>96.1</ele>
        <time>2023-01-29T10:02:31.000Z</time>
      </trkpt>
      <trkpt lat="43.46532" lon="6.32223">
        <ele>96</ele>
        <time>2023-01-29T10:02:41.000Z</time>
      </trkpt>
      <trkpt lat="43.46533" lon="6.32209">
        <ele>95.8</ele>
        <time>2023-01-29T10:02:52.000Z</time>
      </trkpt>
      <trkpt lat="43.46539" lon="6.32199">
        <ele>95.2</ele>
        <time>2023-01-29T10:03:00.000Z</time>
      </trkpt>
      <trkpt lat="43.46541" lon="6.32186">
        <ele>94.8</ele>
        <time>2023-01-29T10:03:09.000Z</time>
      </trkpt>
      <trkpt lat="43.46542" lon="6.32174">
        <ele>94.3</ele>
        <time>2023-01-29T10:03:19.000Z</time>
      </trkpt>
      <trkpt lat="43.46541" lon="6.32172">
        <ele>94.2</ele>
        <time>2023-01-29T10:03:22.000Z</time>
      </trkpt>
      <trkpt lat="43.4654" lon="6.32172">
        <ele>94.3</ele>
        <time>2023-01-29T10:03:25.000Z</time>
      </trkpt>
      <trkpt lat="43.46539" lon="6.32159">
        <ele>93.7</ele>
        <time>2023-01-29T10:03:33.000Z</time>
      </trkpt>
      <trkpt lat="43.46538" lon="6.32146">
        <ele>93.3</ele>
        <time>2023-01-29T10:03:42.000Z</time>
      </trkpt>
      <trkpt lat="43.46539" lon="6.32133">
        <ele>93.1</ele>
        <time>2023-01-29T10:03:52.000Z</time>
      </trkpt>
      <trkpt lat="43.46543" lon="6.32122">
        <ele>92.8</ele>
        <time>2023-01-29T10:04:01.000Z</time>
      </trkpt>
      <trkpt lat="43.46544" lon="6.32109">
        <ele>92.9</ele>
        <time>2023-01-29T10:04:10.000Z</time>
      </trkpt>
      <trkpt lat="43.46548" lon="6.32102">
        <ele>93</ele>
        <time>2023-01-29T10:04:20.000Z</time>
      </trkpt>
      <trkpt lat="43.46548" lon="6.32102">
        <ele>92.9</ele>
        <time>2023-01-29T10:04:25.000Z</time>
      </trkpt>
      <trkpt lat="43.46548" lon="6.32102">
        <ele>93</ele>
        <time>2023-01-29T10:04:26.000Z</time>
      </trkpt>
      <trkpt lat="43.46548" lon="6.32102">
        <ele>93.1</ele>
        <time>2023-01-29T10:04:28.000Z</time>
      </trkpt>
      <trkpt lat="43.46548" lon="6.32102">
        <ele>93</ele>
        <time>2023-01-29T10:04:29.000Z</time>
      </trkpt>
      <trkpt lat="43.46548" lon="6.32102">
        <ele>93</ele>
        <time>2023-01-29T10:04:30.000Z</time>
      </trkpt>
      <trkpt lat="43.46548" lon="6.32102">
        <ele>92.9</ele>
        <time>2023-01-29T10:04:31.000Z</time>
      </trkpt>
      <trkpt lat="43.46549" lon="6.32102">
        <ele>93.2</ele>
        <time>2023-01-29T10:04:39.000Z</time>
      </trkpt>
      <trkpt lat="43.46549" lon="6.32102">
        <ele>93.2</ele>
        <time>2023-01-29T10:04:40.000Z</time>
      </trkpt>
      <trkpt lat="43.46548" lon="6.32101">
        <ele>93</ele>
        <time>2023-01-29T10:04:49.000Z</time>
      </trkpt>
      <trkpt lat="43.46548" lon="6.32089">
        <ele>93.2</ele>
        <time>2023-01-29T10:05:04.000Z</time>
      </trkpt>
      <trkpt lat="43.46548" lon="6.32089">
        <ele>92.9</ele>
        <time>2023-01-29T10:05:05.000Z</time>
      </trkpt>
      <trkpt lat="43.46548" lon="6.32089">
        <ele>93</ele>
        <time>2023-01-29T10:05:07.000Z</time>
      </trkpt>
      <trkpt lat="43.46548" lon="6.32089">
        <ele>93.1</ele>
        <time>2023-01-29T10:05:10.000Z</time>
      </trkpt>
      <trkpt lat="43.46548" lon="6.32089">
        <ele>93</ele>
        <time>2023-01-29T10:05:12.000Z</time>
      </trkpt>
      <trkpt lat="43.46548" lon="6.32089">
        <ele>93.2</ele>
        <time>2023-01-29T10:05:16.000Z</time>
      </trkpt>
      <trkpt lat="43.46548" lon="6.32089">
        <ele>93.2</ele>
        <time>2023-01-29T10:05:17.000Z</time>
      </trkpt>
      <trkpt lat="43.46548" lon="6.32089">
        <ele>92.8</ele>
        <time>2023-01-29T10:05:24.000Z</time>
      </trkpt>
      <trkpt lat="43.46548" lon="6.32089">
        <ele>92.9</ele>
        <time>2023-01-29T10:05:25.000Z</time>
      </trkpt>
      <trkpt lat="43.46548" lon="6.32089">
        <ele>93</ele>
        <time>2023-01-29T10:05:27.000Z</time>
      </trkpt>
      <trkpt lat="43.46548" lon="6.32088">
        <ele>93.1</ele>
        <time>2023-01-29T10:05:30.000Z</time>
      </trkpt>
      <trkpt lat="43.46548" lon="6.32089">
        <ele>93</ele>
        <time>2023-01-29T10:05:34.000Z</time>
      </trkpt>
      <trkpt lat="43.46547" lon="6.32089">
        <ele>93.1</ele>
        <time>2023-01-29T10:05:37.000Z</time>
      </trkpt>
      <trkpt lat="43.46547" lon="6.32089">
        <ele>93.2</ele>
        <time>2023-01-29T10:05:55.000Z</time>
      </trkpt>
      <trkpt lat="43.46547" lon="6.32089">
        <ele>93.3</ele>
        <time>2023-01-29T10:05:56.000Z</time>
      </trkpt>
      <trkpt lat="43.46547" lon="6.32088">
        <ele>93.3</ele>
        <time>2023-01-29T10:05:57.000Z</time>
      </trkpt>
      <trkpt lat="43.46547" lon="6.32087">
        <ele>93.1</ele>
        <time>2023-01-29T10:06:01.000Z</time>
      </trkpt>
      <trkpt lat="43.46547" lon="6.32086">
        <ele>93.3</ele>
        <time>2023-01-29T10:06:03.000Z</time>
      </trkpt>
      <trkpt lat="43.46548" lon="6.32087">
        <ele>93.3</ele>
        <time>2023-01-29T10:06:10.000Z</time>
      </trkpt>
      <trkpt lat="43.46548" lon="6.32087">
        <ele>93.3</ele>
        <time>2023-01-29T10:06:24.000Z</time>
      </trkpt>
      <trkpt lat="43.46548" lon="6.32087">
        <ele>93.3</ele>
        <time>2023-01-29T10:06:25.000Z</time>
      </trkpt>
      <trkpt lat="43.46548" lon="6.32086">
        <ele>93.3</ele>
        <time>2023-01-29T10:06:32.000Z</time>
      </trkpt>
      <trkpt lat="43.46548" lon="6.32086">
        <ele>93.1</ele>
        <time>2023-01-29T10:06:35.000Z</time>
      </trkpt>
      <trkpt lat="43.46548" lon="6.32086">
        <ele>93.2</ele>
        <time>2023-01-29T10:06:36.000Z</time>
      </trkpt>
      <trkpt lat="43.46548" lon="6.32086">
        <ele>93.2</ele>
        <time>2023-01-29T10:06:37.000Z</time>
      </trkpt>
      <trkpt lat="43.46548" lon="6.32086">
        <ele>93.2</ele>
        <time>2023-01-29T10:06:42.000Z</time>
      </trkpt>
      <trkpt lat="43.46549" lon="6.32086">
        <ele>93.3</ele>
        <time>2023-01-29T10:06:46.000Z</time>
      </trkpt>
      <trkpt lat="43.46549" lon="6.32086">
        <ele>93.2</ele>
        <time>2023-01-29T10:06:52.000Z</time>
      </trkpt>
      <trkpt lat="43.46549" lon="6.32086">
        <ele>93.2</ele>
        <time>2023-01-29T10:06:54.000Z</time>
      </trkpt>
      <trkpt lat="43.46549" lon="6.32087">
        <ele>93.1</ele>
        <time>2023-01-29T10:07:34.000Z</time>
      </trkpt>
      <trkpt lat="43.46549" lon="6.32087">
        <ele>93.2</ele>
        <time>2023-01-29T10:07:35.000Z</time>
      </trkpt>
      <trkpt lat="43.46549" lon="6.32087">
        <ele>93.3</ele>
        <time>2023-01-29T10:07:38.000Z</time>
      </trkpt>
      <trkpt lat="43.46549" lon="6.32087">
        <ele>93.4</ele>
        <time>2023-01-29T10:07:39.000Z</time>
      </trkpt>
      <trkpt lat="43.46549" lon="6.32088">
        <ele>93.4</ele>
        <time>2023-01-29T10:07:40.000Z</time>
      </trkpt>
      <trkpt lat="43.46548" lon="6.32088">
        <ele>93.4</ele>
        <time>2023-01-29T10:07:42.000Z</time>
      </trkpt>
      <trkpt lat="43.46548" lon="6.32088">
        <ele>93.6</ele>
        <time>2023-01-29T10:07:46.000Z</time>
      </trkpt>
      <trkpt lat="43.46546" lon="6.32087">
        <ele>93.2</ele>
        <time>2023-01-29T10:08:00.000Z</time>
      </trkpt>
      <trkpt lat="43.46546" lon="6.32087">
        <ele>93.3</ele>
        <time>2023-01-29T10:08:06.000Z</time>
      </trkpt>
      <trkpt lat="43.46546" lon="6.32087">
        <ele>93.4</ele>
        <time>2023-01-29T10:08:07.000Z</time>
      </trkpt>
      <trkpt lat="43.46546" lon="6.32088">
        <ele>93.4</ele>
        <time>2023-01-29T10:08:22.000Z</time>
      </trkpt>
      <trkpt lat="43.46546" lon="6.32088">
        <ele>93.4</ele>
        <time>2023-01-29T10:08:23.000Z</time>
      </trkpt>
      <trkpt lat="43.46546" lon="6.32088">
        <ele>93.7</ele>
        <time>2023-01-29T10:08:47.000Z</time>
      </trkpt>
      <trkpt lat="43.46546" lon="6.32097">
        <ele>93.5</ele>
        <time>2023-01-29T10:08:57.000Z</time>
      </trkpt>
      <trkpt lat="43.46546" lon="6.32097">
        <ele>93.5</ele>
        <time>2023-01-29T10:08:58.000Z</time>
      </trkpt>
      <trkpt lat="43.46546" lon="6.32097">
        <ele>93.6</ele>
        <time>2023-01-29T10:09:00.000Z</time>
      </trkpt>
      <trkpt lat="43.46547" lon="6.32097">
        <ele>93.6</ele>
        <time>2023-01-29T10:09:01.000Z</time>
      </trkpt>
      <trkpt lat="43.46542" lon="6.32107">
        <ele>93.5</ele>
        <time>2023-01-29T10:09:14.000Z</time>
      </trkpt>
      <trkpt lat="43.46542" lon="6.32107">
        <ele>93.6</ele>
        <time>2023-01-29T10:09:18.000Z</time>
      </trkpt>
      <trkpt lat="43.46542" lon="6.32107">
        <ele>93.4</ele>
        <time>2023-01-29T10:09:24.000Z</time>
      </trkpt>
      <trkpt lat="43.46541" lon="6.32107">
        <ele>93.6</ele>
        <time>2023-01-29T10:09:26.000Z</time>
      </trkpt>
      <trkpt lat="43.46541" lon="6.32107">
        <ele>93.6</ele>
        <time>2023-01-29T10:09:28.000Z</time>
      </trkpt>
      <trkpt lat="43.4654" lon="6.32106">
        <ele>93.7</ele>
        <time>2023-01-29T10:09:31.000Z</time>
      </trkpt>
      <trkpt lat="43.4654" lon="6.32106">
        <ele>93.6</ele>
        <time>2023-01-29T10:09:33.000Z</time>
      </trkpt>
      <trkpt lat="43.4654" lon="6.32106">
        <ele>93.5</ele>
        <time>2023-01-29T10:09:34.000Z</time>
      </trkpt>
      <trkpt lat="43.46541" lon="6.32106">
        <ele>93.5</ele>
        <time>2023-01-29T10:09:37.000Z</time>
      </trkpt>
      <trkpt lat="43.46542" lon="6.32106">
        <ele>93.5</ele>
        <time>2023-01-29T10:09:40.000Z</time>
      </trkpt>
      <trkpt lat="43.46542" lon="6.32106">
        <ele>93.6</ele>
        <time>2023-01-29T10:09:45.000Z</time>
      </trkpt>
      <trkpt lat="43.46542" lon="6.32106">
        <ele>93.7</ele>
        <time>2023-01-29T10:09:47.000Z</time>
      </trkpt>
      <trkpt lat="43.46542" lon="6.32106">
        <ele>93.7</ele>
        <time>2023-01-29T10:11:00.000Z</time>
      </trkpt>
      <trkpt lat="43.46542" lon="6.32106">
        <ele>93.8</ele>
        <time>2023-01-29T10:11:01.000Z</time>
      </trkpt>
      <trkpt lat="43.46542" lon="6.32106">
        <ele>93.7</ele>
        <time>2023-01-29T10:11:22.000Z</time>
      </trkpt>
      <trkpt lat="43.46542" lon="6.32106">
        <ele>93.8</ele>
        <time>2023-01-29T10:11:24.000Z</time>
      </trkpt>
      <trkpt lat="43.46542" lon="6.32107">
        <ele>94</ele>
        <time>2023-01-29T10:11:26.000Z</time>
      </trkpt>
      <trkpt lat="43.4654" lon="6.32106">
        <ele>93.8</ele>
        <time>2023-01-29T10:11:34.000Z</time>
      </trkpt>
      <trkpt lat="43.4654" lon="6.32107">
        <ele>94</ele>
        <time>2023-01-29T10:11:36.000Z</time>
      </trkpt>
      <trkpt lat="43.46538" lon="6.32119">
        <ele>93.8</ele>
        <time>2023-01-29T10:11:45.000Z</time>
      </trkpt>
      <trkpt lat="43.46536" lon="6.32132">
        <ele>94</ele>
        <time>2023-01-29T10:11:54.000Z</time>
      </trkpt>
      <trkpt lat="43.46534" lon="6.32145">
        <ele>93.7</ele>
        <time>2023-01-29T10:12:03.000Z</time>
      </trkpt>
      <trkpt lat="43.46535" lon="6.32158">
        <ele>94.2</ele>
        <time>2023-01-29T10:12:13.000Z</time>
      </trkpt>
      <trkpt lat="43.46533" lon="6.32172">
        <ele>94.9</ele>
        <time>2023-01-29T10:12:23.000Z</time>
      </trkpt>
      <trkpt lat="43.4653" lon="6.32184">
        <ele>95.3</ele>
        <time>2023-01-29T10:12:32.000Z</time>
      </trkpt>
      <trkpt lat="43.4653" lon="6.3219">
        <ele>95.6</ele>
        <time>2023-01-29T10:12:38.000Z</time>
      </trkpt>
      <trkpt lat="43.4653" lon="6.3219">
        <ele>95.6</ele>
        <time>2023-01-29T10:12:39.000Z</time>
      </trkpt>
      <trkpt lat="43.46529" lon="6.32203">
        <ele>95.7</ele>
        <time>2023-01-29T10:12:48.000Z</time>
      </trkpt>
      <trkpt lat="43.46527" lon="6.32215">
        <ele>96</ele>
        <time>2023-01-29T10:12:57.000Z</time>
      </trkpt>
      <trkpt lat="43.46527" lon="6.32229">
        <ele>96.3</ele>
        <time>2023-01-29T10:13:05.000Z</time>
      </trkpt>
      <trkpt lat="43.4653" lon="6.32242">
        <ele>96.5</ele>
        <time>2023-01-29T10:13:14.000Z</time>
      </trkpt>
      <trkpt lat="43.4653" lon="6.32255">
        <ele>96.4</ele>
        <time>2023-01-29T10:13:23.000Z</time>
      </trkpt>
      <trkpt lat="43.46528" lon="6.32268">
        <ele>96.7</ele>
        <time>2023-01-29T10:13:31.000Z</time>
      </trkpt>
      <trkpt lat="43.46526" lon="6.3228">
        <ele>97</ele>
        <time>2023-01-29T10:13:40.000Z</time>
      </trkpt>
      <trkpt lat="43.46524" lon="6.32293">
        <ele>96.9</ele>
        <time>2023-01-29T10:13:48.000Z</time>
      </trkpt>
      <trkpt lat="43.46523" lon="6.32307">
        <ele>96.8</ele>
        <time>2023-01-29T10:13:58.000Z</time>
      </trkpt>
      <trkpt lat="43.46522" lon="6.32319">
        <ele>97.1</ele>
        <time>2023-01-29T10:14:06.000Z</time>
      </trkpt>
      <trkpt lat="43.46519" lon="6.32331">
        <ele>97</ele>
        <time>2023-01-29T10:14:15.000Z</time>
      </trkpt>
      <trkpt lat="43.46514" lon="6.32344">
        <ele>97.3</ele>
        <time>2023-01-29T10:14:25.000Z</time>
      </trkpt>
      <trkpt lat="43.4651" lon="6.32355">
        <ele>97.8</ele>
        <time>2023-01-29T10:14:34.000Z</time>
      </trkpt>
      <trkpt lat="43.46507" lon="6.32368">
        <ele>98.1</ele>
        <time>2023-01-29T10:14:43.000Z</time>
      </trkpt>
      <trkpt lat="43.46504" lon="6.32381">
        <ele>97.3</ele>
        <time>2023-01-29T10:14:51.000Z</time>
      </trkpt>
      <trkpt lat="43.46502" lon="6.32394">
        <ele>96.9</ele>
        <time>2023-01-29T10:14:59.000Z</time>
      </trkpt>
      <trkpt lat="43.46501" lon="6.32407">
        <ele>96.6</ele>
        <time>2023-01-29T10:15:07.000Z</time>
      </trkpt>
      <trkpt lat="43.465" lon="6.3242">
        <ele>96.4</ele>
        <time>2023-01-29T10:15:15.000Z</time>
      </trkpt>
      <trkpt lat="43.46499" lon="6.32433">
        <ele>96.2</ele>
        <time>2023-01-29T10:15:23.000Z</time>
      </trkpt>
      <trkpt lat="43.46496" lon="6.32446">
        <ele>95.7</ele>
        <time>2023-01-29T10:15:31.000Z</time>
      </trkpt>
      <trkpt lat="43.46494" lon="6.3246">
        <ele>95.9</ele>
        <time>2023-01-29T10:15:40.000Z</time>
      </trkpt>
      <trkpt lat="43.46492" lon="6.32473">
        <ele>96.1</ele>
        <time>2023-01-29T10:15:48.000Z</time>
      </trkpt>
      <trkpt lat="43.46489" lon="6.32486">
        <ele>96.4</ele>
        <time>2023-01-29T10:15:58.000Z</time>
      </trkpt>
      <trkpt lat="43.46485" lon="6.32498">
        <ele>96.7</ele>
        <time>2023-01-29T10:16:06.000Z</time>
      </trkpt>
      <trkpt lat="43.46479" lon="6.32506">
        <ele>97.6</ele>
        <time>2023-01-29T10:16:16.000Z</time>
      </trkpt>
      <trkpt lat="43.46475" lon="6.32519">
        <ele>97.5</ele>
        <time>2023-01-29T10:16:25.000Z</time>
      </trkpt>
      <trkpt lat="43.46479" lon="6.32531">
        <ele>97.8</ele>
        <time>2023-01-29T10:16:33.000Z</time>
      </trkpt>
      <trkpt lat="43.46487" lon="6.32535">
        <ele>98.8</ele>
        <time>2023-01-29T10:16:44.000Z</time>
      </trkpt>
      <trkpt lat="43.46496" lon="6.3254">
        <ele>100.2</ele>
        <time>2023-01-29T10:16:54.000Z</time>
      </trkpt>
      <trkpt lat="43.46505" lon="6.32544">
        <ele>101.2</ele>
        <time>2023-01-29T10:17:04.000Z</time>
      </trkpt>
      <trkpt lat="43.46514" lon="6.32547">
        <ele>102.6</ele>
        <time>2023-01-29T10:17:14.000Z</time>
      </trkpt>
      <trkpt lat="43.46524" lon="6.3255">
        <ele>103.1</ele>
        <time>2023-01-29T10:17:24.000Z</time>
      </trkpt>
      <trkpt lat="43.46533" lon="6.32554">
        <ele>104</ele>
        <time>2023-01-29T10:17:32.000Z</time>
      </trkpt>
      <trkpt lat="43.46542" lon="6.32555">
        <ele>104.5</ele>
        <time>2023-01-29T10:17:41.000Z</time>
      </trkpt>
      <trkpt lat="43.46551" lon="6.32554">
        <ele>104.8</ele>
        <time>2023-01-29T10:17:50.000Z</time>
      </trkpt>
      <trkpt lat="43.46561" lon="6.32552">
        <ele>105.1</ele>
        <time>2023-01-29T10:17:59.000Z</time>
      </trkpt>
      <trkpt lat="43.46571" lon="6.32551">
        <ele>105</ele>
        <time>2023-01-29T10:18:08.000Z</time>
      </trkpt>
      <trkpt lat="43.46581" lon="6.3255">
        <ele>104.8</ele>
        <time>2023-01-29T10:18:17.000Z</time>
      </trkpt>
      <trkpt lat="43.4659" lon="6.32548">
        <ele>104.8</ele>
        <time>2023-01-29T10:18:26.000Z</time>
      </trkpt>
      <trkpt lat="43.466" lon="6.32548">
        <ele>104.7</ele>
        <time>2023-01-29T10:18:34.000Z</time>
      </trkpt>
      <trkpt lat="43.46609" lon="6.32547">
        <ele>104.7</ele>
        <time>2023-01-29T10:18:42.000Z</time>
      </trkpt>
      <trkpt lat="43.46619" lon="6.32549">
        <ele>104.6</ele>
        <time>2023-01-29T10:18:51.000Z</time>
      </trkpt>
      <trkpt lat="43.46628" lon="6.32551">
        <ele>104.7</ele>
        <time>2023-01-29T10:19:00.000Z</time>
      </trkpt>
      <trkpt lat="43.46637" lon="6.32555">
        <ele>104.8</ele>
        <time>2023-01-29T10:19:11.000Z</time>
      </trkpt>
      <trkpt lat="43.46647" lon="6.3256">
        <ele>104.4</ele>
        <time>2023-01-29T10:19:20.000Z</time>
      </trkpt>
      <trkpt lat="43.46656" lon="6.32563">
        <ele>104.4</ele>
        <time>2023-01-29T10:19:29.000Z</time>
      </trkpt>
      <trkpt lat="43.46666" lon="6.32566">
        <ele>104.2</ele>
        <time>2023-01-29T10:19:37.000Z</time>
      </trkpt>
      <trkpt lat="43.46675" lon="6.32572">
        <ele>104</ele>
        <time>2023-01-29T10:19:45.000Z</time>
      </trkpt>
      <trkpt lat="43.46681" lon="6.32582">
        <ele>104.1</ele>
        <time>2023-01-29T10:19:54.000Z</time>
      </trkpt>
      <trkpt lat="43.46686" lon="6.32593">
        <ele>104.2</ele>
        <time>2023-01-29T10:20:03.000Z</time>
      </trkpt>
      <trkpt lat="43.46692" lon="6.32603">
        <ele>103.7</ele>
        <time>2023-01-29T10:20:12.000Z</time>
      </trkpt>
      <trkpt lat="43.46697" lon="6.32615">
        <ele>103.6</ele>
        <time>2023-01-29T10:20:21.000Z</time>
      </trkpt>
      <trkpt lat="43.46702" lon="6.32625">
        <ele>102.7</ele>
        <time>2023-01-29T10:20:29.000Z</time>
      </trkpt>
      <trkpt lat="43.46708" lon="6.32635">
        <ele>101.6</ele>
        <time>2023-01-29T10:20:38.000Z</time>
      </trkpt>
      <trkpt lat="43.46714" lon="6.32646">
        <ele>101</ele>
        <time>2023-01-29T10:20:47.000Z</time>
      </trkpt>
      <trkpt lat="43.46715" lon="6.3266">
        <ele>100.3</ele>
        <time>2023-01-29T10:20:57.000Z</time>
      </trkpt>
      <trkpt lat="43.46715" lon="6.32674">
        <ele>99.7</ele>
        <time>2023-01-29T10:21:06.000Z</time>
      </trkpt>
      <trkpt lat="43.46715" lon="6.32681">
        <ele>98.8</ele>
        <time>2023-01-29T10:21:12.000Z</time>
      </trkpt>
      <trkpt lat="43.46715" lon="6.32681">
        <ele>98.8</ele>
        <time>2023-01-29T10:21:13.000Z</time>
      </trkpt>
      <trkpt lat="43.46715" lon="6.32693">
        <ele>98.2</ele>
        <time>2023-01-29T10:21:22.000Z</time>
      </trkpt>
      <trkpt lat="43.46721" lon="6.32705">
        <ele>97.6</ele>
        <time>2023-01-29T10:21:30.000Z</time>
      </trkpt>
      <trkpt lat="43.46724" lon="6.32717">
        <ele>97</ele>
        <time>2023-01-29T10:21:38.000Z</time>
      </trkpt>
      <trkpt lat="43.46729" lon="6.32728">
        <ele>96.9</ele>
        <time>2023-01-29T10:21:45.000Z</time>
      </trkpt>
      <trkpt lat="43.46735" lon="6.32737">
        <ele>96.6</ele>
        <time>2023-01-29T10:21:52.000Z</time>
      </trkpt>
      <trkpt lat="43.46739" lon="6.32743">
        <ele>96.6</ele>
        <time>2023-01-29T10:22:03.000Z</time>
      </trkpt>
      <trkpt lat="43.4674" lon="6.32743">
        <ele>96.7</ele>
        <time>2023-01-29T10:22:08.000Z</time>
      </trkpt>
      <trkpt lat="43.4674" lon="6.32743">
        <ele>96.8</ele>
        <time>2023-01-29T10:22:09.000Z</time>
      </trkpt>
      <trkpt lat="43.4674" lon="6.32743">
        <ele>96.5</ele>
        <time>2023-01-29T10:22:18.000Z</time>
      </trkpt>
      <trkpt lat="43.4674" lon="6.32744">
        <ele>96.6</ele>
        <time>2023-01-29T10:22:21.000Z</time>
      </trkpt>
      <trkpt lat="43.4674" lon="6.32744">
        <ele>96.7</ele>
        <time>2023-01-29T10:22:29.000Z</time>
      </trkpt>
      <trkpt lat="43.4674" lon="6.32744">
        <ele>96.6</ele>
        <time>2023-01-29T10:22:30.000Z</time>
      </trkpt>
      <trkpt lat="43.4674" lon="6.32744">
        <ele>96.4</ele>
        <time>2023-01-29T10:23:03.000Z</time>
      </trkpt>
      <trkpt lat="43.4674" lon="6.32744">
        <ele>96.4</ele>
        <time>2023-01-29T10:23:04.000Z</time>
      </trkpt>
      <trkpt lat="43.4674" lon="6.32743">
        <ele>96.4</ele>
        <time>2023-01-29T10:23:10.000Z</time>
      </trkpt>
      <trkpt lat="43.4674" lon="6.32743">
        <ele>96.3</ele>
        <time>2023-01-29T10:23:12.000Z</time>
      </trkpt>
      <trkpt lat="43.4674" lon="6.32743">
        <ele>96.1</ele>
        <time>2023-01-29T10:23:34.000Z</time>
      </trkpt>
      <trkpt lat="43.4674" lon="6.32743">
        <ele>96.2</ele>
        <time>2023-01-29T10:23:35.000Z</time>
      </trkpt>
      <trkpt lat="43.4674" lon="6.32743">
        <ele>96.2</ele>
        <time>2023-01-29T10:23:45.000Z</time>
      </trkpt>
      <trkpt lat="43.4674" lon="6.32743">
        <ele>96.4</ele>
        <time>2023-01-29T10:23:48.000Z</time>
      </trkpt>
      <trkpt lat="43.4674" lon="6.32743">
        <ele>96.4</ele>
        <time>2023-01-29T10:24:03.000Z</time>
      </trkpt>
      <trkpt lat="43.4674" lon="6.32742">
        <ele>96.5</ele>
        <time>2023-01-29T10:24:04.000Z</time>
      </trkpt>
      <trkpt lat="43.4674" lon="6.32742">
        <ele>96.5</ele>
        <time>2023-01-29T10:24:05.000Z</time>
      </trkpt>
      <trkpt lat="43.4674" lon="6.32742">
        <ele>96.5</ele>
        <time>2023-01-29T10:24:06.000Z</time>
      </trkpt>
      <trkpt lat="43.4674" lon="6.32742">
        <ele>96.5</ele>
        <time>2023-01-29T10:24:07.000Z</time>
      </trkpt>
      <trkpt lat="43.4674" lon="6.32742">
        <ele>96.6</ele>
        <time>2023-01-29T10:24:08.000Z</time>
      </trkpt>
      <trkpt lat="43.4674" lon="6.32742">
        <ele>96.3</ele>
        <time>2023-01-29T10:24:18.000Z</time>
      </trkpt>
      <trkpt lat="43.4674" lon="6.32742">
        <ele>96.3</ele>
        <time>2023-01-29T10:24:19.000Z</time>
      </trkpt>
      <trkpt lat="43.4674" lon="6.32742">
        <ele>96.3</ele>
        <time>2023-01-29T10:24:20.000Z</time>
      </trkpt>
      <trkpt lat="43.4674" lon="6.32742">
        <ele>96.3</ele>
        <time>2023-01-29T10:24:21.000Z</time>
      </trkpt>
      <trkpt lat="43.4674" lon="6.32743">
        <ele>96.5</ele>
        <time>2023-01-29T10:24:24.000Z</time>
      </trkpt>
      <trkpt lat="43.46748" lon="6.32738">
        <ele>96.4</ele>
        <time>2023-01-29T10:24:37.000Z</time>
      </trkpt>
      <trkpt lat="43.46748" lon="6.32737">
        <ele>96.6</ele>
        <time>2023-01-29T10:24:39.000Z</time>
      </trkpt>
      <trkpt lat="43.46748" lon="6.32737">
        <ele>96.4</ele>
        <time>2023-01-29T10:24:40.000Z</time>
      </trkpt>
      <trkpt lat="43.46748" lon="6.32737">
        <ele>96.5</ele>
        <time>2023-01-29T10:24:44.000Z</time>
      </trkpt>
      <trkpt lat="43.46749" lon="6.32738">
        <ele>96.3</ele>
        <time>2023-01-29T10:24:46.000Z</time>
      </trkpt>
      <trkpt lat="43.46748" lon="6.32738">
        <ele>96.4</ele>
        <time>2023-01-29T10:24:59.000Z</time>
      </trkpt>
      <trkpt lat="43.46747" lon="6.3274">
        <ele>96.1</ele>
        <time>2023-01-29T10:25:04.000Z</time>
      </trkpt>
      <trkpt lat="43.46747" lon="6.3274">
        <ele>96.2</ele>
        <time>2023-01-29T10:25:09.000Z</time>
      </trkpt>
      <trkpt lat="43.46747" lon="6.3274">
        <ele>96.2</ele>
        <time>2023-01-29T10:25:10.000Z</time>
      </trkpt>
      <trkpt lat="43.46747" lon="6.3274">
        <ele>96.1</ele>
        <time>2023-01-29T10:25:13.000Z</time>
      </trkpt>
      <trkpt lat="43.46747" lon="6.3274">
        <ele>96.1</ele>
        <time>2023-01-29T10:25:14.000Z</time>
      </trkpt>
      <trkpt lat="43.46747" lon="6.3274">
        <ele>96.2</ele>
        <time>2023-01-29T10:25:21.000Z</time>
      </trkpt>
      <trkpt lat="43.46747" lon="6.3274">
        <ele>96.1</ele>
        <time>2023-01-29T10:25:22.000Z</time>
      </trkpt>
      <trkpt lat="43.46747" lon="6.32739">
        <ele>96.1</ele>
        <time>2023-01-29T10:25:41.000Z</time>
      </trkpt>
      <trkpt lat="43.46747" lon="6.32738">
        <ele>96.1</ele>
        <time>2023-01-29T10:25:45.000Z</time>
      </trkpt>
      <trkpt lat="43.46747" lon="6.32738">
        <ele>96.5</ele>
        <time>2023-01-29T10:26:02.000Z</time>
      </trkpt>
      <trkpt lat="43.46747" lon="6.32738">
        <ele>96.4</ele>
        <time>2023-01-29T10:26:03.000Z</time>
      </trkpt>
      <trkpt lat="43.46747" lon="6.32739">
        <ele>96.3</ele>
        <time>2023-01-29T10:26:04.000Z</time>
      </trkpt>
      <trkpt lat="43.46757" lon="6.32743">
        <ele>96.2</ele>
        <time>2023-01-29T10:26:13.000Z</time>
      </trkpt>
      <trkpt lat="43.46765" lon="6.32737">
        <ele>96.1</ele>
        <time>2023-01-29T10:26:23.000Z</time>
      </trkpt>
      <trkpt lat="43.46773" lon="6.32728">
        <ele>96</ele>
        <time>2023-01-29T10:26:31.000Z</time>
      </trkpt>
      <trkpt lat="43.46779" lon="6.32718">
        <ele>96</ele>
        <time>2023-01-29T10:26:39.000Z</time>
      </trkpt>
      <trkpt lat="43.46783" lon="6.32706">
        <ele>97</ele>
        <time>2023-01-29T10:26:48.000Z</time>
      </trkpt>
      <trkpt lat="43.46788" lon="6.32696">
        <ele>97.6</ele>
        <time>2023-01-29T10:26:58.000Z</time>
      </trkpt>
      <trkpt lat="43.46797" lon="6.32693">
        <ele>97.9</ele>
        <time>2023-01-29T10:27:10.000Z</time>
      </trkpt>
      <trkpt lat="43.46806" lon="6.32688">
        <ele>97.7</ele>
        <time>2023-01-29T10:27:19.000Z</time>
      </trkpt>
      <trkpt lat="43.46813" lon="6.3268">
        <ele>97.7</ele>
        <time>2023-01-29T10:27:28.000Z</time>
      </trkpt>
      <trkpt lat="43.46821" lon="6.32674">
        <ele>97.8</ele>
        <time>2023-01-29T10:27:39.000Z</time>
      </trkpt>
      <trkpt lat="43.46823" lon="6.32675">
        <ele>97.7</ele>
        <time>2023-01-29T10:27:44.000Z</time>
      </trkpt>
      <trkpt lat="43.46823" lon="6.32674">
        <ele>97.8</ele>
        <time>2023-01-29T10:27:45.000Z</time>
      </trkpt>
      <trkpt lat="43.46822" lon="6.32673">
        <ele>97.9</ele>
        <time>2023-01-29T10:27:48.000Z</time>
      </trkpt>
      <trkpt lat="43.46822" lon="6.32673">
        <ele>98</ele>
        <time>2023-01-29T10:27:51.000Z</time>
      </trkpt>
      <trkpt lat="43.46831" lon="6.32666">
        <ele>98.5</ele>
        <time>2023-01-29T10:27:59.000Z</time>
      </trkpt>
      <trkpt lat="43.46838" lon="6.32659">
        <ele>98.9</ele>
        <time>2023-01-29T10:28:06.000Z</time>
      </trkpt>
      <trkpt lat="43.46845" lon="6.32652">
        <ele>99.3</ele>
        <time>2023-01-29T10:28:13.000Z</time>
      </trkpt>
      <trkpt lat="43.46853" lon="6.32645">
        <ele>99.5</ele>
        <time>2023-01-29T10:28:22.000Z</time>
      </trkpt>
      <trkpt lat="43.46862" lon="6.32652">
        <ele>99.2</ele>
        <time>2023-01-29T10:28:30.000Z</time>
      </trkpt>
      <trkpt lat="43.46868" lon="6.32658">
        <ele>99.3</ele>
        <time>2023-01-29T10:28:38.000Z</time>
      </trkpt>
      <trkpt lat="43.46868" lon="6.32659">
        <ele>99.6</ele>
        <time>2023-01-29T10:28:40.000Z</time>
      </trkpt>
      <trkpt lat="43.46876" lon="6.32666">
        <ele>98.9</ele>
        <time>2023-01-29T10:28:51.000Z</time>
      </trkpt>
      <trkpt lat="43.46883" lon="6.32675">
        <ele>99</ele>
        <time>2023-01-29T10:28:59.000Z</time>
      </trkpt>
      <trkpt lat="43.46889" lon="6.32683">
        <ele>98.6</ele>
        <time>2023-01-29T10:29:07.000Z</time>
      </trkpt>
      <trkpt lat="43.46898" lon="6.32691">
        <ele>98.9</ele>
        <time>2023-01-29T10:29:15.000Z</time>
      </trkpt>
      <trkpt lat="43.46904" lon="6.327">
        <ele>98.6</ele>
        <time>2023-01-29T10:29:22.000Z</time>
      </trkpt>
      <trkpt lat="43.46912" lon="6.32708">
        <ele>99</ele>
        <time>2023-01-29T10:29:30.000Z</time>
      </trkpt>
      <trkpt lat="43.46918" lon="6.32717">
        <ele>98.7</ele>
        <time>2023-01-29T10:29:38.000Z</time>
      </trkpt>
      <trkpt lat="43.46926" lon="6.32725">
        <ele>98.9</ele>
        <time>2023-01-29T10:29:48.000Z</time>
      </trkpt>
      <trkpt lat="43.46934" lon="6.32732">
        <ele>98.9</ele>
        <time>2023-01-29T10:29:59.000Z</time>
      </trkpt>
      <trkpt lat="43.46941" lon="6.32741">
        <ele>99.3</ele>
        <time>2023-01-29T10:30:10.000Z</time>
      </trkpt>
      <trkpt lat="43.46949" lon="6.3275">
        <ele>99.5</ele>
        <time>2023-01-29T10:30:20.000Z</time>
      </trkpt>
      <trkpt lat="43.46951" lon="6.32762">
        <ele>99.6</ele>
        <time>2023-01-29T10:30:29.000Z</time>
      </trkpt>
      <trkpt lat="43.46955" lon="6.32774">
        <ele>99.8</ele>
        <time>2023-01-29T10:30:37.000Z</time>
      </trkpt>
      <trkpt lat="43.46955" lon="6.32787">
        <ele>99.2</ele>
        <time>2023-01-29T10:30:47.000Z</time>
      </trkpt>
      <trkpt lat="43.46952" lon="6.328">
        <ele>98.5</ele>
        <time>2023-01-29T10:30:55.000Z</time>
      </trkpt>
      <trkpt lat="43.4695" lon="6.32812">
        <ele>97.2</ele>
        <time>2023-01-29T10:31:05.000Z</time>
      </trkpt>
      <trkpt lat="43.46944" lon="6.32818">
        <ele>96.1</ele>
        <time>2023-01-29T10:31:21.000Z</time>
      </trkpt>
      <trkpt lat="43.46943" lon="6.32817">
        <ele>96</ele>
        <time>2023-01-29T10:31:22.000Z</time>
      </trkpt>
      <trkpt lat="43.46941" lon="6.32805">
        <ele>95.8</ele>
        <time>2023-01-29T10:31:34.000Z</time>
      </trkpt>
      <trkpt lat="43.46937" lon="6.32792">
        <ele>95.7</ele>
        <time>2023-01-29T10:31:43.000Z</time>
      </trkpt>
      <trkpt lat="43.46931" lon="6.32782">
        <ele>95.7</ele>
        <time>2023-01-29T10:31:51.000Z</time>
      </trkpt>
      <trkpt lat="43.46924" lon="6.32772">
        <ele>95.8</ele>
        <time>2023-01-29T10:32:01.000Z</time>
      </trkpt>
      <trkpt lat="43.46919" lon="6.32762">
        <ele>96.1</ele>
        <time>2023-01-29T10:32:08.000Z</time>
      </trkpt>
      <trkpt lat="43.46912" lon="6.32755">
        <ele>96.2</ele>
        <time>2023-01-29T10:32:15.000Z</time>
      </trkpt>
      <trkpt lat="43.46904" lon="6.32748">
        <ele>96.6</ele>
        <time>2023-01-29T10:32:24.000Z</time>
      </trkpt>
      <trkpt lat="43.46895" lon="6.3274">
        <ele>97</ele>
        <time>2023-01-29T10:32:31.000Z</time>
      </trkpt>
      <trkpt lat="43.46892" lon="6.32742">
        <ele>96.5</ele>
        <time>2023-01-29T10:32:38.000Z</time>
      </trkpt>
      <trkpt lat="43.46892" lon="6.32743">
        <ele>96.5</ele>
        <time>2023-01-29T10:32:39.000Z</time>
      </trkpt>
      <trkpt lat="43.46892" lon="6.32743">
        <ele>96.6</ele>
        <time>2023-01-29T10:32:41.000Z</time>
      </trkpt>
      <trkpt lat="43.46892" lon="6.32743">
        <ele>96.6</ele>
        <time>2023-01-29T10:32:42.000Z</time>
      </trkpt>
      <trkpt lat="43.4689" lon="6.32743">
        <ele>96.8</ele>
        <time>2023-01-29T10:32:46.000Z</time>
      </trkpt>
      <trkpt lat="43.46889" lon="6.32743">
        <ele>97</ele>
        <time>2023-01-29T10:32:57.000Z</time>
      </trkpt>
      <trkpt lat="43.46882" lon="6.32735">
        <ele>97.1</ele>
        <time>2023-01-29T10:33:10.000Z</time>
      </trkpt>
      <trkpt lat="43.46873" lon="6.32729">
        <ele>97.6</ele>
        <time>2023-01-29T10:33:18.000Z</time>
      </trkpt>
      <trkpt lat="43.46863" lon="6.32727">
        <ele>98.1</ele>
        <time>2023-01-29T10:33:27.000Z</time>
      </trkpt>
      <trkpt lat="43.46854" lon="6.32728">
        <ele>98.3</ele>
        <time>2023-01-29T10:33:37.000Z</time>
      </trkpt>
      <trkpt lat="43.46846" lon="6.32721">
        <ele>98.7</ele>
        <time>2023-01-29T10:33:47.000Z</time>
      </trkpt>
      <trkpt lat="43.46845" lon="6.32721">
        <ele>98.8</ele>
        <time>2023-01-29T10:33:51.000Z</time>
      </trkpt>
      <trkpt lat="43.46845" lon="6.32721">
        <ele>98.8</ele>
        <time>2023-01-29T10:34:01.000Z</time>
      </trkpt>
      <trkpt lat="43.46845" lon="6.32721">
        <ele>98.9</ele>
        <time>2023-01-29T10:34:02.000Z</time>
      </trkpt>
      <trkpt lat="43.46844" lon="6.32721">
        <ele>98.9</ele>
        <time>2023-01-29T10:34:12.000Z</time>
      </trkpt>
      <trkpt lat="43.46844" lon="6.32721">
        <ele>98.9</ele>
        <time>2023-01-29T10:34:13.000Z</time>
      </trkpt>
      <trkpt lat="43.46844" lon="6.32721">
        <ele>98.9</ele>
        <time>2023-01-29T10:34:19.000Z</time>
      </trkpt>
      <trkpt lat="43.46845" lon="6.32722">
        <ele>98.9</ele>
        <time>2023-01-29T10:34:22.000Z</time>
      </trkpt>
      <trkpt lat="43.46845" lon="6.32722">
        <ele>99.1</ele>
        <time>2023-01-29T10:34:25.000Z</time>
      </trkpt>
      <trkpt lat="43.46845" lon="6.32722">
        <ele>99.1</ele>
        <time>2023-01-29T10:34:26.000Z</time>
      </trkpt>
      <trkpt lat="43.46845" lon="6.32723">
        <ele>99</ele>
        <time>2023-01-29T10:34:27.000Z</time>
      </trkpt>
      <trkpt lat="43.46845" lon="6.32723">
        <ele>99</ele>
        <time>2023-01-29T10:34:28.000Z</time>
      </trkpt>
      <trkpt lat="43.46845" lon="6.32723">
        <ele>98.9</ele>
        <time>2023-01-29T10:34:29.000Z</time>
      </trkpt>
      <trkpt lat="43.46845" lon="6.32723">
        <ele>99</ele>
        <time>2023-01-29T10:34:30.000Z</time>
      </trkpt>
      <trkpt lat="43.46846" lon="6.32723">
        <ele>98.9</ele>
        <time>2023-01-29T10:34:35.000Z</time>
      </trkpt>
      <trkpt lat="43.46848" lon="6.3273">
        <ele>98.8</ele>
        <time>2023-01-29T10:34:43.000Z</time>
      </trkpt>
      <trkpt lat="43.46848" lon="6.3273">
        <ele>98.9</ele>
        <time>2023-01-29T10:34:50.000Z</time>
      </trkpt>
      <trkpt lat="43.46848" lon="6.3273">
        <ele>99</ele>
        <time>2023-01-29T10:34:54.000Z</time>
      </trkpt>
      <trkpt lat="43.46848" lon="6.32729">
        <ele>99.2</ele>
        <time>2023-01-29T10:35:57.000Z</time>
      </trkpt>
      <trkpt lat="43.46848" lon="6.32729">
        <ele>99.3</ele>
        <time>2023-01-29T10:35:59.000Z</time>
      </trkpt>
      <trkpt lat="43.46847" lon="6.32728">
        <ele>99.5</ele>
        <time>2023-01-29T10:36:31.000Z</time>
      </trkpt>
      <trkpt lat="43.46847" lon="6.32728">
        <ele>99.2</ele>
        <time>2023-01-29T10:36:34.000Z</time>
      </trkpt>
      <trkpt lat="43.46847" lon="6.32728">
        <ele>99.2</ele>
        <time>2023-01-29T10:36:36.000Z</time>
      </trkpt>
      <trkpt lat="43.46847" lon="6.32728">
        <ele>99.3</ele>
        <time>2023-01-29T10:36:37.000Z</time>
      </trkpt>
      <trkpt lat="43.46847" lon="6.32728">
        <ele>99.3</ele>
        <time>2023-01-29T10:36:38.000Z</time>
      </trkpt>
      <trkpt lat="43.46846" lon="6.32729">
        <ele>99.4</ele>
        <time>2023-01-29T10:36:41.000Z</time>
      </trkpt>
      <trkpt lat="43.46846" lon="6.32729">
        <ele>99.6</ele>
        <time>2023-01-29T10:36:46.000Z</time>
      </trkpt>
      <trkpt lat="43.46838" lon="6.32736">
        <ele>99.5</ele>
        <time>2023-01-29T10:36:55.000Z</time>
      </trkpt>
      <trkpt lat="43.46831" lon="6.32744">
        <ele>99.6</ele>
        <time>2023-01-29T10:37:04.000Z</time>
      </trkpt>
      <trkpt lat="43.46827" lon="6.32755">
        <ele>99.4</ele>
        <time>2023-01-29T10:37:12.000Z</time>
      </trkpt>
      <trkpt lat="43.46823" lon="6.32767">
        <ele>99.3</ele>
        <time>2023-01-29T10:37:21.000Z</time>
      </trkpt>
      <trkpt lat="43.46822" lon="6.3278">
        <ele>99</ele>
        <time>2023-01-29T10:37:30.000Z</time>
      </trkpt>
      <trkpt lat="43.46822" lon="6.32789">
        <ele>98.9</ele>
        <time>2023-01-29T10:37:40.000Z</time>
      </trkpt>
      <trkpt lat="43.46823" lon="6.32789">
        <ele>98.9</ele>
        <time>2023-01-29T10:37:42.000Z</time>
      </trkpt>
      <trkpt lat="43.46822" lon="6.32803">
        <ele>98.7</ele>
        <time>2023-01-29T10:37:53.000Z</time>
      </trkpt>
      <trkpt lat="43.4682" lon="6.32816">
        <ele>98.5</ele>
        <time>2023-01-29T10:38:01.000Z</time>
      </trkpt>
      <trkpt lat="43.46821" lon="6.32829">
        <ele>98.3</ele>
        <time>2023-01-29T10:38:08.000Z</time>
      </trkpt>
      <trkpt lat="43.46822" lon="6.32842">
        <ele>98.3</ele>
        <time>2023-01-29T10:38:16.000Z</time>
      </trkpt>
      <trkpt lat="43.4682" lon="6.32855">
        <ele>98.3</ele>
        <time>2023-01-29T10:38:25.000Z</time>
      </trkpt>
      <trkpt lat="43.46821" lon="6.32868">
        <ele>98.4</ele>
        <time>2023-01-29T10:38:33.000Z</time>
      </trkpt>
      <trkpt lat="43.46821" lon="6.32881">
        <ele>98.3</ele>
        <time>2023-01-29T10:38:41.000Z</time>
      </trkpt>
      <trkpt lat="43.4682" lon="6.32893">
        <ele>98.5</ele>
        <time>2023-01-29T10:38:49.000Z</time>
      </trkpt>
      <trkpt lat="43.46817" lon="6.32906">
        <ele>98.3</ele>
        <time>2023-01-29T10:38:58.000Z</time>
      </trkpt>
      <trkpt lat="43.46813" lon="6.32917">
        <ele>98.4</ele>
        <time>2023-01-29T10:39:06.000Z</time>
      </trkpt>
      <trkpt lat="43.4681" lon="6.3293">
        <ele>98.6</ele>
        <time>2023-01-29T10:39:14.000Z</time>
      </trkpt>
      <trkpt lat="43.46806" lon="6.32942">
        <ele>98.5</ele>
        <time>2023-01-29T10:39:22.000Z</time>
      </trkpt>
      <trkpt lat="43.46801" lon="6.32953">
        <ele>98.4</ele>
        <time>2023-01-29T10:39:31.000Z</time>
      </trkpt>
      <trkpt lat="43.46795" lon="6.32963">
        <ele>98.6</ele>
        <time>2023-01-29T10:39:39.000Z</time>
      </trkpt>
      <trkpt lat="43.46789" lon="6.32974">
        <ele>98.9</ele>
        <time>2023-01-29T10:39:48.000Z</time>
      </trkpt>
      <trkpt lat="43.46783" lon="6.32984">
        <ele>99.2</ele>
        <time>2023-01-29T10:39:55.000Z</time>
      </trkpt>
      <trkpt lat="43.46775" lon="6.32993">
        <ele>99.6</ele>
        <time>2023-01-29T10:40:03.000Z</time>
      </trkpt>
      <trkpt lat="43.46769" lon="6.33003">
        <ele>99.5</ele>
        <time>2023-01-29T10:40:12.000Z</time>
      </trkpt>
      <trkpt lat="43.46761" lon="6.3301">
        <ele>99.6</ele>
        <time>2023-01-29T10:40:20.000Z</time>
      </trkpt>
      <trkpt lat="43.46755" lon="6.33019">
        <ele>99.5</ele>
        <time>2023-01-29T10:40:28.000Z</time>
      </trkpt>
      <trkpt lat="43.46748" lon="6.33029">
        <ele>99.7</ele>
        <time>2023-01-29T10:40:37.000Z</time>
      </trkpt>
      <trkpt lat="43.46742" lon="6.33038">
        <ele>99.8</ele>
        <time>2023-01-29T10:40:45.000Z</time>
      </trkpt>
      <trkpt lat="43.46733" lon="6.33044">
        <ele>99.7</ele>
        <time>2023-01-29T10:40:53.000Z</time>
      </trkpt>
      <trkpt lat="43.46726" lon="6.33052">
        <ele>99.5</ele>
        <time>2023-01-29T10:41:01.000Z</time>
      </trkpt>
      <trkpt lat="43.46718" lon="6.33059">
        <ele>99.7</ele>
        <time>2023-01-29T10:41:10.000Z</time>
      </trkpt>
      <trkpt lat="43.4671" lon="6.33068">
        <ele>99.4</ele>
        <time>2023-01-29T10:41:19.000Z</time>
      </trkpt>
      <trkpt lat="43.46709" lon="6.33079">
        <ele>100.2</ele>
        <time>2023-01-29T10:41:29.000Z</time>
      </trkpt>
      <trkpt lat="43.46709" lon="6.33079">
        <ele>100.1</ele>
        <time>2023-01-29T10:41:41.000Z</time>
      </trkpt>
      <trkpt lat="43.46709" lon="6.33079">
        <ele>100.2</ele>
        <time>2023-01-29T10:41:42.000Z</time>
      </trkpt>
      <trkpt lat="43.46709" lon="6.33079">
        <ele>100.2</ele>
        <time>2023-01-29T10:41:52.000Z</time>
      </trkpt>
      <trkpt lat="43.46704" lon="6.3309">
        <ele>101.8</ele>
        <time>2023-01-29T10:42:03.000Z</time>
      </trkpt>
      <trkpt lat="43.467" lon="6.33102">
        <ele>102.9</ele>
        <time>2023-01-29T10:42:12.000Z</time>
      </trkpt>
      <trkpt lat="43.46696" lon="6.33114">
        <ele>104.5</ele>
        <time>2023-01-29T10:42:22.000Z</time>
      </trkpt>
      <trkpt lat="43.46691" lon="6.33125">
        <ele>106</ele>
        <time>2023-01-29T10:42:34.000Z</time>
      </trkpt>
      <trkpt lat="43.46688" lon="6.33137">
        <ele>106.9</ele>
        <time>2023-01-29T10:42:44.000Z</time>
      </trkpt>
      <trkpt lat="43.46684" lon="6.33149">
        <ele>108.4</ele>
        <time>2023-01-29T10:42:55.000Z</time>
      </trkpt>
      <trkpt lat="43.4668" lon="6.33161">
        <ele>109</ele>
        <time>2023-01-29T10:43:06.000Z</time>
      </trkpt>
      <trkpt lat="43.46676" lon="6.33173">
        <ele>110.4</ele>
        <time>2023-01-29T10:43:17.000Z</time>
      </trkpt>
      <trkpt lat="43.46674" lon="6.33186">
        <ele>111.3</ele>
        <time>2023-01-29T10:43:28.000Z</time>
      </trkpt>
      <trkpt lat="43.46671" lon="6.33198">
        <ele>112.3</ele>
        <time>2023-01-29T10:43:38.000Z</time>
      </trkpt>
      <trkpt lat="43.46666" lon="6.33209">
        <ele>112.9</ele>
        <time>2023-01-29T10:43:47.000Z</time>
      </trkpt>
      <trkpt lat="43.46663" lon="6.33221">
        <ele>114.3</ele>
        <time>2023-01-29T10:43:58.000Z</time>
      </trkpt>
      <trkpt lat="43.46659" lon="6.33232">
        <ele>115.6</ele>
        <time>2023-01-29T10:44:10.000Z</time>
      </trkpt>
      <trkpt lat="43.46654" lon="6.33243">
        <ele>117.1</ele>
        <time>2023-01-29T10:44:23.000Z</time>
      </trkpt>
      <trkpt lat="43.4665" lon="6.33255">
        <ele>118.4</ele>
        <time>2023-01-29T10:44:36.000Z</time>
      </trkpt>
      <trkpt lat="43.46646" lon="6.33267">
        <ele>119.8</ele>
        <time>2023-01-29T10:44:48.000Z</time>
      </trkpt>
      <trkpt lat="43.46642" lon="6.3328">
        <ele>121.3</ele>
        <time>2023-01-29T10:45:01.000Z</time>
      </trkpt>
      <trkpt lat="43.46638" lon="6.33291">
        <ele>122.7</ele>
        <time>2023-01-29T10:45:11.000Z</time>
      </trkpt>
      <trkpt lat="43.46636" lon="6.33295">
        <ele>122.6</ele>
        <time>2023-01-29T10:45:16.000Z</time>
      </trkpt>
      <trkpt lat="43.46637" lon="6.33295">
        <ele>122.7</ele>
        <time>2023-01-29T10:45:17.000Z</time>
      </trkpt>
      <trkpt lat="43.46637" lon="6.33295">
        <ele>122.6</ele>
        <time>2023-01-29T10:45:18.000Z</time>
      </trkpt>
      <trkpt lat="43.46637" lon="6.33295">
        <ele>122.5</ele>
        <time>2023-01-29T10:45:21.000Z</time>
      </trkpt>
      <trkpt lat="43.46629" lon="6.33303">
        <ele>121.8</ele>
        <time>2023-01-29T10:45:30.000Z</time>
      </trkpt>
      <trkpt lat="43.46621" lon="6.3331">
        <ele>120.8</ele>
        <time>2023-01-29T10:45:37.000Z</time>
      </trkpt>
      <trkpt lat="43.46613" lon="6.33316">
        <ele>120.4</ele>
        <time>2023-01-29T10:45:43.000Z</time>
      </trkpt>
      <trkpt lat="43.46604" lon="6.33322">
        <ele>120.4</ele>
        <time>2023-01-29T10:45:52.000Z</time>
      </trkpt>
      <trkpt lat="43.46594" lon="6.33327">
        <ele>120.7</ele>
        <time>2023-01-29T10:46:02.000Z</time>
      </trkpt>
      <trkpt lat="43.46586" lon="6.3333">
        <ele>121.1</ele>
        <time>2023-01-29T10:46:10.000Z</time>
      </trkpt>
      <trkpt lat="43.46576" lon="6.33334">
        <ele>121.5</ele>
        <time>2023-01-29T10:46:18.000Z</time>
      </trkpt>
      <trkpt lat="43.46567" lon="6.33338">
        <ele>121.7</ele>
        <time>2023-01-29T10:46:27.000Z</time>
      </trkpt>
      <trkpt lat="43.46558" lon="6.33342">
        <ele>121.3</ele>
        <time>2023-01-29T10:46:36.000Z</time>
      </trkpt>
      <trkpt lat="43.46551" lon="6.33345">
        <ele>120.8</ele>
        <time>2023-01-29T10:46:44.000Z</time>
      </trkpt>
      <trkpt lat="43.46551" lon="6.33346">
        <ele>120.4</ele>
        <time>2023-01-29T10:47:29.000Z</time>
      </trkpt>
      <trkpt lat="43.46551" lon="6.33347">
        <ele>120.5</ele>
        <time>2023-01-29T10:47:32.000Z</time>
      </trkpt>
      <trkpt lat="43.46551" lon="6.33347">
        <ele>120.3</ele>
        <time>2023-01-29T10:47:52.000Z</time>
      </trkpt>
      <trkpt lat="43.46551" lon="6.33347">
        <ele>120.5</ele>
        <time>2023-01-29T10:47:53.000Z</time>
      </trkpt>
      <trkpt lat="43.46551" lon="6.33347">
        <ele>120.3</ele>
        <time>2023-01-29T10:47:57.000Z</time>
      </trkpt>
      <trkpt lat="43.46551" lon="6.33347">
        <ele>120.3</ele>
        <time>2023-01-29T10:47:58.000Z</time>
      </trkpt>
      <trkpt lat="43.4655" lon="6.33347">
        <ele>120.4</ele>
        <time>2023-01-29T10:48:13.000Z</time>
      </trkpt>
      <trkpt lat="43.4655" lon="6.33347">
        <ele>120.3</ele>
        <time>2023-01-29T10:48:14.000Z</time>
      </trkpt>
      <trkpt lat="43.4655" lon="6.33347">
        <ele>120.4</ele>
        <time>2023-01-29T10:48:31.000Z</time>
      </trkpt>
      <trkpt lat="43.4655" lon="6.33347">
        <ele>120.4</ele>
        <time>2023-01-29T10:48:32.000Z</time>
      </trkpt>
      <trkpt lat="43.4655" lon="6.33348">
        <ele>120.6</ele>
        <time>2023-01-29T10:48:51.000Z</time>
      </trkpt>
      <trkpt lat="43.46543" lon="6.33356">
        <ele>120.4</ele>
        <time>2023-01-29T10:49:04.000Z</time>
      </trkpt>
      <trkpt lat="43.46536" lon="6.33364">
        <ele>121.3</ele>
        <time>2023-01-29T10:49:16.000Z</time>
      </trkpt>
      <trkpt lat="43.46527" lon="6.3337">
        <ele>122.6</ele>
        <time>2023-01-29T10:49:27.000Z</time>
      </trkpt>
      <trkpt lat="43.4652" lon="6.33379">
        <ele>123.7</ele>
        <time>2023-01-29T10:49:36.000Z</time>
      </trkpt>
      <trkpt lat="43.46518" lon="6.33391">
        <ele>124.5</ele>
        <time>2023-01-29T10:49:44.000Z</time>
      </trkpt>
      <trkpt lat="43.46519" lon="6.33405">
        <ele>125.6</ele>
        <time>2023-01-29T10:49:53.000Z</time>
      </trkpt>
      <trkpt lat="43.4652" lon="6.33418">
        <ele>126.4</ele>
        <time>2023-01-29T10:50:02.000Z</time>
      </trkpt>
      <trkpt lat="43.46523" lon="6.33431">
        <ele>127</ele>
        <time>2023-01-29T10:50:13.000Z</time>
      </trkpt>
      <trkpt lat="43.46528" lon="6.33436">
        <ele>127.5</ele>
        <time>2023-01-29T10:50:20.000Z</time>
      </trkpt>
      <trkpt lat="43.46527" lon="6.33436">
        <ele>127.5</ele>
        <time>2023-01-29T10:50:21.000Z</time>
      </trkpt>
      <trkpt lat="43.46536" lon="6.33444">
        <ele>128.1</ele>
        <time>2023-01-29T10:50:34.000Z</time>
      </trkpt>
      <trkpt lat="43.46544" lon="6.33451">
        <ele>128.3</ele>
        <time>2023-01-29T10:50:42.000Z</time>
      </trkpt>
      <trkpt lat="43.46546" lon="6.33451">
        <ele>128.5</ele>
        <time>2023-01-29T10:50:46.000Z</time>
      </trkpt>
      <trkpt lat="43.46547" lon="6.33452">
        <ele>128.6</ele>
        <time>2023-01-29T10:50:47.000Z</time>
      </trkpt>
      <trkpt lat="43.46555" lon="6.33454">
        <ele>129.3</ele>
        <time>2023-01-29T10:50:55.000Z</time>
      </trkpt>
      <trkpt lat="43.46565" lon="6.33458">
        <ele>130.3</ele>
        <time>2023-01-29T10:51:04.000Z</time>
      </trkpt>
      <trkpt lat="43.46574" lon="6.33461">
        <ele>130.5</ele>
        <time>2023-01-29T10:51:12.000Z</time>
      </trkpt>
      <trkpt lat="43.46583" lon="6.33463">
        <ele>130.3</ele>
        <time>2023-01-29T10:51:21.000Z</time>
      </trkpt>
      <trkpt lat="43.46592" lon="6.33466">
        <ele>130.7</ele>
        <time>2023-01-29T10:51:32.000Z</time>
      </trkpt>
      <trkpt lat="43.46592" lon="6.33466">
        <ele>130.6</ele>
        <time>2023-01-29T10:51:33.000Z</time>
      </trkpt>
      <trkpt lat="43.46592" lon="6.33466">
        <ele>130.4</ele>
        <time>2023-01-29T10:51:34.000Z</time>
      </trkpt>
      <trkpt lat="43.46602" lon="6.33467">
        <ele>131</ele>
        <time>2023-01-29T10:51:42.000Z</time>
      </trkpt>
      <trkpt lat="43.46603" lon="6.33468">
        <ele>131</ele>
        <time>2023-01-29T10:51:46.000Z</time>
      </trkpt>
      <trkpt lat="43.46603" lon="6.33469">
        <ele>131.1</ele>
        <time>2023-01-29T10:51:47.000Z</time>
      </trkpt>
      <trkpt lat="43.46603" lon="6.33469">
        <ele>131</ele>
        <time>2023-01-29T10:51:48.000Z</time>
      </trkpt>
      <trkpt lat="43.46603" lon="6.33469">
        <ele>131</ele>
        <time>2023-01-29T10:51:50.000Z</time>
      </trkpt>
      <trkpt lat="43.46603" lon="6.33469">
        <ele>130.9</ele>
        <time>2023-01-29T10:51:52.000Z</time>
      </trkpt>
      <trkpt lat="43.46603" lon="6.33469">
        <ele>131</ele>
        <time>2023-01-29T10:52:33.000Z</time>
      </trkpt>
      <trkpt lat="43.46603" lon="6.33469">
        <ele>131</ele>
        <time>2023-01-29T10:52:34.000Z</time>
      </trkpt>
      <trkpt lat="43.46603" lon="6.33469">
        <ele>130.8</ele>
        <time>2023-01-29T10:52:39.000Z</time>
      </trkpt>
      <trkpt lat="43.46604" lon="6.3347">
        <ele>131.1</ele>
        <time>2023-01-29T10:52:44.000Z</time>
      </trkpt>
      <trkpt lat="43.46604" lon="6.3347">
        <ele>130.9</ele>
        <time>2023-01-29T10:53:00.000Z</time>
      </trkpt>
      <trkpt lat="43.46604" lon="6.3347">
        <ele>130.9</ele>
        <time>2023-01-29T10:53:01.000Z</time>
      </trkpt>
      <trkpt lat="43.46604" lon="6.3347">
        <ele>131.2</ele>
        <time>2023-01-29T10:53:14.000Z</time>
      </trkpt>
      <trkpt lat="43.46613" lon="6.33473">
        <ele>131.4</ele>
        <time>2023-01-29T10:53:26.000Z</time>
      </trkpt>
      <trkpt lat="43.46621" lon="6.33479">
        <ele>131.7</ele>
        <time>2023-01-29T10:53:37.000Z</time>
      </trkpt>
      <trkpt lat="43.46629" lon="6.33486">
        <ele>131.8</ele>
        <time>2023-01-29T10:53:46.000Z</time>
      </trkpt>
      <trkpt lat="43.46638" lon="6.33491">
        <ele>131.9</ele>
        <time>2023-01-29T10:53:56.000Z</time>
      </trkpt>
      <trkpt lat="43.46643" lon="6.33494">
        <ele>132</ele>
        <time>2023-01-29T10:54:05.000Z</time>
      </trkpt>
      <trkpt lat="43.46643" lon="6.33494">
        <ele>132</ele>
        <time>2023-01-29T10:54:07.000Z</time>
      </trkpt>
      <trkpt lat="43.46643" lon="6.33494">
        <ele>131.8</ele>
        <time>2023-01-29T10:54:08.000Z</time>
      </trkpt>
      <trkpt lat="43.46643" lon="6.33494">
        <ele>131.6</ele>
        <time>2023-01-29T10:54:21.000Z</time>
      </trkpt>
      <trkpt lat="43.46643" lon="6.33494">
        <ele>131.6</ele>
        <time>2023-01-29T10:54:22.000Z</time>
      </trkpt>
      <trkpt lat="43.46643" lon="6.33493">
        <ele>131.8</ele>
        <time>2023-01-29T10:54:39.000Z</time>
      </trkpt>
      <trkpt lat="43.46643" lon="6.33493">
        <ele>131.9</ele>
        <time>2023-01-29T10:54:40.000Z</time>
      </trkpt>
      <trkpt lat="43.46643" lon="6.33494">
        <ele>132</ele>
        <time>2023-01-29T10:54:46.000Z</time>
      </trkpt>
      <trkpt lat="43.46644" lon="6.33498">
        <ele>131.6</ele>
        <time>2023-01-29T10:54:53.000Z</time>
      </trkpt>
      <trkpt lat="43.46644" lon="6.33498">
        <ele>131.6</ele>
        <time>2023-01-29T10:54:54.000Z</time>
      </trkpt>
      <trkpt lat="43.46646" lon="6.33492">
        <ele>132</ele>
        <time>2023-01-29T10:55:03.000Z</time>
      </trkpt>
      <trkpt lat="43.46646" lon="6.33492">
        <ele>132</ele>
        <time>2023-01-29T10:55:04.000Z</time>
      </trkpt>
      <trkpt lat="43.46646" lon="6.33492">
        <ele>132</ele>
        <time>2023-01-29T10:55:05.000Z</time>
      </trkpt>
      <trkpt lat="43.46646" lon="6.33492">
        <ele>132</ele>
        <time>2023-01-29T10:55:07.000Z</time>
      </trkpt>
      <trkpt lat="43.46647" lon="6.33492">
        <ele>131.9</ele>
        <time>2023-01-29T10:55:10.000Z</time>
      </trkpt>
      <trkpt lat="43.46647" lon="6.33492">
        <ele>131.8</ele>
        <time>2023-01-29T10:55:12.000Z</time>
      </trkpt>
      <trkpt lat="43.46648" lon="6.33491">
        <ele>132</ele>
        <time>2023-01-29T10:55:16.000Z</time>
      </trkpt>
      <trkpt lat="43.46648" lon="6.3349">
        <ele>132</ele>
        <time>2023-01-29T10:55:22.000Z</time>
      </trkpt>
      <trkpt lat="43.46648" lon="6.33489">
        <ele>131.9</ele>
        <time>2023-01-29T10:55:25.000Z</time>
      </trkpt>
      <trkpt lat="43.46647" lon="6.33488">
        <ele>131.8</ele>
        <time>2023-01-29T10:55:26.000Z</time>
      </trkpt>
      <trkpt lat="43.46647" lon="6.33488">
        <ele>131.9</ele>
        <time>2023-01-29T10:55:28.000Z</time>
      </trkpt>
      <trkpt lat="43.46647" lon="6.33489">
        <ele>131.7</ele>
        <time>2023-01-29T10:55:53.000Z</time>
      </trkpt>
      <trkpt lat="43.46647" lon="6.33488">
        <ele>131.7</ele>
        <time>2023-01-29T10:55:55.000Z</time>
      </trkpt>
      <trkpt lat="43.46647" lon="6.33488">
        <ele>131.7</ele>
        <time>2023-01-29T10:55:56.000Z</time>
      </trkpt>
      <trkpt lat="43.46646" lon="6.33488">
        <ele>131.7</ele>
        <time>2023-01-29T10:55:58.000Z</time>
      </trkpt>
      <trkpt lat="43.46646" lon="6.33488">
        <ele>131.7</ele>
        <time>2023-01-29T10:55:59.000Z</time>
      </trkpt>
      <trkpt lat="43.46646" lon="6.33488">
        <ele>131.8</ele>
        <time>2023-01-29T10:56:00.000Z</time>
      </trkpt>
      <trkpt lat="43.46646" lon="6.33488">
        <ele>131.9</ele>
        <time>2023-01-29T10:56:04.000Z</time>
      </trkpt>
      <trkpt lat="43.46646" lon="6.33488">
        <ele>131.8</ele>
        <time>2023-01-29T10:56:05.000Z</time>
      </trkpt>
      <trkpt lat="43.46646" lon="6.33488">
        <ele>132</ele>
        <time>2023-01-29T10:56:36.000Z</time>
      </trkpt>
      <trkpt lat="43.46646" lon="6.33488">
        <ele>131.9</ele>
        <time>2023-01-29T10:56:37.000Z</time>
      </trkpt>
      <trkpt lat="43.46646" lon="6.33488">
        <ele>132.2</ele>
        <time>2023-01-29T10:56:40.000Z</time>
      </trkpt>
      <trkpt lat="43.46645" lon="6.33487">
        <ele>132.1</ele>
        <time>2023-01-29T10:56:42.000Z</time>
      </trkpt>
      <trkpt lat="43.46645" lon="6.33487">
        <ele>132</ele>
        <time>2023-01-29T10:56:51.000Z</time>
      </trkpt>
      <trkpt lat="43.46644" lon="6.33487">
        <ele>132</ele>
        <time>2023-01-29T10:56:57.000Z</time>
      </trkpt>
      <trkpt lat="43.46644" lon="6.33487">
        <ele>132.1</ele>
        <time>2023-01-29T10:57:00.000Z</time>
      </trkpt>
      <trkpt lat="43.46648" lon="6.3349">
        <ele>132.2</ele>
        <time>2023-01-29T10:57:07.000Z</time>
      </trkpt>
      <trkpt lat="43.46648" lon="6.33491">
        <ele>132.1</ele>
        <time>2023-01-29T10:57:08.000Z</time>
      </trkpt>
      <trkpt lat="43.46648" lon="6.33491">
        <ele>132.2</ele>
        <time>2023-01-29T10:57:09.000Z</time>
      </trkpt>
      <trkpt lat="43.46648" lon="6.33492">
        <ele>131.9</ele>
        <time>2023-01-29T10:57:12.000Z</time>
      </trkpt>
      <trkpt lat="43.46648" lon="6.33492">
        <ele>132</ele>
        <time>2023-01-29T10:57:13.000Z</time>
      </trkpt>
      <trkpt lat="43.46647" lon="6.33493">
        <ele>131.9</ele>
        <time>2023-01-29T10:57:15.000Z</time>
      </trkpt>
      <trkpt lat="43.46647" lon="6.33493">
        <ele>131.9</ele>
        <time>2023-01-29T10:57:17.000Z</time>
      </trkpt>
      <trkpt lat="43.46648" lon="6.33494">
        <ele>132</ele>
        <time>2023-01-29T10:57:23.000Z</time>
      </trkpt>
      <trkpt lat="43.46653" lon="6.33506">
        <ele>131.1</ele>
        <time>2023-01-29T10:57:32.000Z</time>
      </trkpt>
      <trkpt lat="43.46659" lon="6.33516">
        <ele>130.1</ele>
        <time>2023-01-29T10:57:41.000Z</time>
      </trkpt>
      <trkpt lat="43.46664" lon="6.33528">
        <ele>128.6</ele>
        <time>2023-01-29T10:57:51.000Z</time>
      </trkpt>
      <trkpt lat="43.46661" lon="6.33541">
        <ele>127.7</ele>
        <time>2023-01-29T10:58:00.000Z</time>
      </trkpt>
      <trkpt lat="43.46655" lon="6.33551">
        <ele>125.7</ele>
        <time>2023-01-29T10:58:11.000Z</time>
      </trkpt>
      <trkpt lat="43.46649" lon="6.33561">
        <ele>124.7</ele>
        <time>2023-01-29T10:58:20.000Z</time>
      </trkpt>
      <trkpt lat="43.46641" lon="6.33567">
        <ele>123</ele>
        <time>2023-01-29T10:58:29.000Z</time>
      </trkpt>
      <trkpt lat="43.46632" lon="6.3357">
        <ele>121.8</ele>
        <time>2023-01-29T10:58:38.000Z</time>
      </trkpt>
      <trkpt lat="43.46622" lon="6.3357">
        <ele>120.7</ele>
        <time>2023-01-29T10:58:46.000Z</time>
      </trkpt>
      <trkpt lat="43.46612" lon="6.3357">
        <ele>120.1</ele>
        <time>2023-01-29T10:58:54.000Z</time>
      </trkpt>
      <trkpt lat="43.46603" lon="6.33569">
        <ele>119.3</ele>
        <time>2023-01-29T10:59:03.000Z</time>
      </trkpt>
      <trkpt lat="43.46594" lon="6.3357">
        <ele>118.5</ele>
        <time>2023-01-29T10:59:12.000Z</time>
      </trkpt>
      <trkpt lat="43.46584" lon="6.3357">
        <ele>118.2</ele>
        <time>2023-01-29T10:59:21.000Z</time>
      </trkpt>
      <trkpt lat="43.46574" lon="6.33571">
        <ele>117.4</ele>
        <time>2023-01-29T10:59:29.000Z</time>
      </trkpt>
      <trkpt lat="43.46566" lon="6.33578">
        <ele>117</ele>
        <time>2023-01-29T10:59:36.000Z</time>
      </trkpt>
      <trkpt lat="43.46564" lon="6.33581">
        <ele>117</ele>
        <time>2023-01-29T10:59:43.000Z</time>
      </trkpt>
      <trkpt lat="43.46564" lon="6.33582">
        <ele>116.9</ele>
        <time>2023-01-29T10:59:45.000Z</time>
      </trkpt>
      <trkpt lat="43.46563" lon="6.33582">
        <ele>116.8</ele>
        <time>2023-01-29T10:59:47.000Z</time>
      </trkpt>
      <trkpt lat="43.46563" lon="6.33582">
        <ele>116.9</ele>
        <time>2023-01-29T10:59:49.000Z</time>
      </trkpt>
      <trkpt lat="43.46553" lon="6.33584">
        <ele>115.9</ele>
        <time>2023-01-29T10:59:59.000Z</time>
      </trkpt>
      <trkpt lat="43.46544" lon="6.33579">
        <ele>115.5</ele>
        <time>2023-01-29T11:00:07.000Z</time>
      </trkpt>
      <trkpt lat="43.46535" lon="6.33577">
        <ele>114.7</ele>
        <time>2023-01-29T11:00:18.000Z</time>
      </trkpt>
      <trkpt lat="43.46525" lon="6.33576">
        <ele>113.9</ele>
        <time>2023-01-29T11:00:27.000Z</time>
      </trkpt>
      <trkpt lat="43.46515" lon="6.33574">
        <ele>112.1</ele>
        <time>2023-01-29T11:00:36.000Z</time>
      </trkpt>
      <trkpt lat="43.46505" lon="6.33575">
        <ele>111.2</ele>
        <time>2023-01-29T11:00:45.000Z</time>
      </trkpt>
      <trkpt lat="43.46496" lon="6.33576">
        <ele>110.8</ele>
        <time>2023-01-29T11:00:53.000Z</time>
      </trkpt>
      <trkpt lat="43.46487" lon="6.33574">
        <ele>110.1</ele>
        <time>2023-01-29T11:01:01.000Z</time>
      </trkpt>
      <trkpt lat="43.46477" lon="6.33569">
        <ele>109.8</ele>
        <time>2023-01-29T11:01:08.000Z</time>
      </trkpt>
      <trkpt lat="43.4647" lon="6.3356">
        <ele>109.5</ele>
        <time>2023-01-29T11:01:16.000Z</time>
      </trkpt>
      <trkpt lat="43.46461" lon="6.33554">
        <ele>109.6</ele>
        <time>2023-01-29T11:01:25.000Z</time>
      </trkpt>
      <trkpt lat="43.46453" lon="6.33548">
        <ele>109.2</ele>
        <time>2023-01-29T11:01:33.000Z</time>
      </trkpt>
      <trkpt lat="43.46443" lon="6.33544">
        <ele>108.2</ele>
        <time>2023-01-29T11:01:42.000Z</time>
      </trkpt>
      <trkpt lat="43.46434" lon="6.33539">
        <ele>107.1</ele>
        <time>2023-01-29T11:01:52.000Z</time>
      </trkpt>
      <trkpt lat="43.46426" lon="6.33535">
        <ele>106.6</ele>
        <time>2023-01-29T11:02:00.000Z</time>
      </trkpt>
      <trkpt lat="43.46422" lon="6.33532">
        <ele>106.4</ele>
        <time>2023-01-29T11:02:06.000Z</time>
      </trkpt>
      <trkpt lat="43.46422" lon="6.33532">
        <ele>106.3</ele>
        <time>2023-01-29T11:02:11.000Z</time>
      </trkpt>
      <trkpt lat="43.46422" lon="6.33532">
        <ele>106.4</ele>
        <time>2023-01-29T11:02:12.000Z</time>
      </trkpt>
      <trkpt lat="43.46422" lon="6.33532">
        <ele>106.3</ele>
        <time>2023-01-29T11:02:13.000Z</time>
      </trkpt>
      <trkpt lat="43.46422" lon="6.33534">
        <ele>106.5</ele>
        <time>2023-01-29T11:02:16.000Z</time>
      </trkpt>
      <trkpt lat="43.46422" lon="6.33534">
        <ele>106.4</ele>
        <time>2023-01-29T11:02:17.000Z</time>
      </trkpt>
      <trkpt lat="43.46422" lon="6.33534">
        <ele>106.3</ele>
        <time>2023-01-29T11:02:21.000Z</time>
      </trkpt>
      <trkpt lat="43.46422" lon="6.33535">
        <ele>106.5</ele>
        <time>2023-01-29T11:02:33.000Z</time>
      </trkpt>
      <trkpt lat="43.46422" lon="6.33537">
        <ele>106.2</ele>
        <time>2023-01-29T11:02:37.000Z</time>
      </trkpt>
      <trkpt lat="43.46423" lon="6.33537">
        <ele>106.3</ele>
        <time>2023-01-29T11:02:40.000Z</time>
      </trkpt>
      <trkpt lat="43.46423" lon="6.33537">
        <ele>106.4</ele>
        <time>2023-01-29T11:02:41.000Z</time>
      </trkpt>
      <trkpt lat="43.46423" lon="6.33536">
        <ele>106.8</ele>
        <time>2023-01-29T11:03:31.000Z</time>
      </trkpt>
      <trkpt lat="43.46423" lon="6.33536">
        <ele>106.9</ele>
        <time>2023-01-29T11:03:32.000Z</time>
      </trkpt>
      <trkpt lat="43.46423" lon="6.33536">
        <ele>106.7</ele>
        <time>2023-01-29T11:03:37.000Z</time>
      </trkpt>
      <trkpt lat="43.46423" lon="6.33537">
        <ele>106.6</ele>
        <time>2023-01-29T11:03:40.000Z</time>
      </trkpt>
      <trkpt lat="43.46423" lon="6.33537">
        <ele>106.6</ele>
        <time>2023-01-29T11:03:41.000Z</time>
      </trkpt>
      <trkpt lat="43.46423" lon="6.33537">
        <ele>106.5</ele>
        <time>2023-01-29T11:03:42.000Z</time>
      </trkpt>
      <trkpt lat="43.46422" lon="6.33536">
        <ele>106.5</ele>
        <time>2023-01-29T11:04:06.000Z</time>
      </trkpt>
      <trkpt lat="43.46414" lon="6.33529">
        <ele>106.6</ele>
        <time>2023-01-29T11:04:18.000Z</time>
      </trkpt>
      <trkpt lat="43.46411" lon="6.33517">
        <ele>106.5</ele>
        <time>2023-01-29T11:04:29.000Z</time>
      </trkpt>
      <trkpt lat="43.4641" lon="6.33504">
        <ele>107.1</ele>
        <time>2023-01-29T11:04:40.000Z</time>
      </trkpt>
      <trkpt lat="43.46413" lon="6.33491">
        <ele>107.6</ele>
        <time>2023-01-29T11:04:52.000Z</time>
      </trkpt>
      <trkpt lat="43.46414" lon="6.33478">
        <ele>107.6</ele>
        <time>2023-01-29T11:05:00.000Z</time>
      </trkpt>
      <trkpt lat="43.46418" lon="6.33465">
        <ele>107.1</ele>
        <time>2023-01-29T11:05:09.000Z</time>
      </trkpt>
      <trkpt lat="43.46423" lon="6.33453">
        <ele>106.9</ele>
        <time>2023-01-29T11:05:18.000Z</time>
      </trkpt>
      <trkpt lat="43.46429" lon="6.33443">
        <ele>106.1</ele>
        <time>2023-01-29T11:05:27.000Z</time>
      </trkpt>
      <trkpt lat="43.46434" lon="6.33432">
        <ele>105.8</ele>
        <time>2023-01-29T11:05:35.000Z</time>
      </trkpt>
      <trkpt lat="43.46437" lon="6.33421">
        <ele>104.9</ele>
        <time>2023-01-29T11:05:43.000Z</time>
      </trkpt>
      <trkpt lat="43.46441" lon="6.33409">
        <ele>104.5</ele>
        <time>2023-01-29T11:05:51.000Z</time>
      </trkpt>
      <trkpt lat="43.46443" lon="6.33395">
        <ele>104.3</ele>
        <time>2023-01-29T11:06:00.000Z</time>
      </trkpt>
      <trkpt lat="43.46447" lon="6.33383">
        <ele>104.5</ele>
        <time>2023-01-29T11:06:08.000Z</time>
      </trkpt>
      <trkpt lat="43.46446" lon="6.3337">
        <ele>104.9</ele>
        <time>2023-01-29T11:06:17.000Z</time>
      </trkpt>
      <trkpt lat="43.46442" lon="6.33358">
        <ele>103.8</ele>
        <time>2023-01-29T11:06:26.000Z</time>
      </trkpt>
      <trkpt lat="43.46438" lon="6.33347">
        <ele>103.1</ele>
        <time>2023-01-29T11:06:34.000Z</time>
      </trkpt>
      <trkpt lat="43.46435" lon="6.33335">
        <ele>102.5</ele>
        <time>2023-01-29T11:06:48.000Z</time>
      </trkpt>
      <trkpt lat="43.46432" lon="6.33323">
        <ele>101.7</ele>
        <time>2023-01-29T11:06:56.000Z</time>
      </trkpt>
      <trkpt lat="43.46431" lon="6.33312">
        <ele>101.6</ele>
        <time>2023-01-29T11:07:10.000Z</time>
      </trkpt>
      <trkpt lat="43.46431" lon="6.33312">
        <ele>101.5</ele>
        <time>2023-01-29T11:07:11.000Z</time>
      </trkpt>
      <trkpt lat="43.46432" lon="6.33311">
        <ele>101.4</ele>
        <time>2023-01-29T11:07:19.000Z</time>
      </trkpt>
      <trkpt lat="43.46432" lon="6.3331">
        <ele>101.6</ele>
        <time>2023-01-29T11:07:21.000Z</time>
      </trkpt>
      <trkpt lat="43.46432" lon="6.3331">
        <ele>101.8</ele>
        <time>2023-01-29T11:07:23.000Z</time>
      </trkpt>
      <trkpt lat="43.46433" lon="6.3331">
        <ele>101.4</ele>
        <time>2023-01-29T11:07:26.000Z</time>
      </trkpt>
      <trkpt lat="43.46433" lon="6.3331">
        <ele>101.6</ele>
        <time>2023-01-29T11:07:30.000Z</time>
      </trkpt>
      <trkpt lat="43.46434" lon="6.3331">
        <ele>101.5</ele>
        <time>2023-01-29T11:07:31.000Z</time>
      </trkpt>
      <trkpt lat="43.46433" lon="6.33311">
        <ele>101.4</ele>
        <time>2023-01-29T11:07:36.000Z</time>
      </trkpt>
      <trkpt lat="43.46433" lon="6.33312">
        <ele>101.6</ele>
        <time>2023-01-29T11:07:39.000Z</time>
      </trkpt>
      <trkpt lat="43.4643" lon="6.3331">
        <ele>101.6</ele>
        <time>2023-01-29T11:07:53.000Z</time>
      </trkpt>
      <trkpt lat="43.4643" lon="6.3331">
        <ele>101.6</ele>
        <time>2023-01-29T11:08:00.000Z</time>
      </trkpt>
      <trkpt lat="43.4643" lon="6.3331">
        <ele>101.7</ele>
        <time>2023-01-29T11:08:01.000Z</time>
      </trkpt>
      <trkpt lat="43.4643" lon="6.3331">
        <ele>101.8</ele>
        <time>2023-01-29T11:08:05.000Z</time>
      </trkpt>
      <trkpt lat="43.4643" lon="6.3331">
        <ele>101.7</ele>
        <time>2023-01-29T11:08:06.000Z</time>
      </trkpt>
      <trkpt lat="43.4643" lon="6.3331">
        <ele>101.7</ele>
        <time>2023-01-29T11:08:07.000Z</time>
      </trkpt>
      <trkpt lat="43.46429" lon="6.33309">
        <ele>101.7</ele>
        <time>2023-01-29T11:08:14.000Z</time>
      </trkpt>
      <trkpt lat="43.46429" lon="6.33308">
        <ele>101.8</ele>
        <time>2023-01-29T11:08:15.000Z</time>
      </trkpt>
      <trkpt lat="43.46429" lon="6.33307">
        <ele>101.8</ele>
        <time>2023-01-29T11:08:17.000Z</time>
      </trkpt>
      <trkpt lat="43.46429" lon="6.33307">
        <ele>101.8</ele>
        <time>2023-01-29T11:08:18.000Z</time>
      </trkpt>
      <trkpt lat="43.46426" lon="6.3331">
        <ele>101.7</ele>
        <time>2023-01-29T11:08:26.000Z</time>
      </trkpt>
      <trkpt lat="43.46426" lon="6.3331">
        <ele>101.7</ele>
        <time>2023-01-29T11:08:27.000Z</time>
      </trkpt>
      <trkpt lat="43.46426" lon="6.33311">
        <ele>101.8</ele>
        <time>2023-01-29T11:08:29.000Z</time>
      </trkpt>
      <trkpt lat="43.46426" lon="6.33311">
        <ele>101.6</ele>
        <time>2023-01-29T11:08:33.000Z</time>
      </trkpt>
      <trkpt lat="43.46427" lon="6.33312">
        <ele>101.5</ele>
        <time>2023-01-29T11:08:38.000Z</time>
      </trkpt>
      <trkpt lat="43.46427" lon="6.33312">
        <ele>101.8</ele>
        <time>2023-01-29T11:08:44.000Z</time>
      </trkpt>
      <trkpt lat="43.46427" lon="6.33312">
        <ele>101.7</ele>
        <time>2023-01-29T11:08:45.000Z</time>
      </trkpt>
      <trkpt lat="43.46428" lon="6.33312">
        <ele>101.7</ele>
        <time>2023-01-29T11:08:47.000Z</time>
      </trkpt>
      <trkpt lat="43.46428" lon="6.33312">
        <ele>101.6</ele>
        <time>2023-01-29T11:08:50.000Z</time>
      </trkpt>
      <trkpt lat="43.46428" lon="6.33312">
        <ele>101.5</ele>
        <time>2023-01-29T11:08:51.000Z</time>
      </trkpt>
      <trkpt lat="43.46428" lon="6.33313">
        <ele>101.6</ele>
        <time>2023-01-29T11:08:52.000Z</time>
      </trkpt>
      <trkpt lat="43.46428" lon="6.33313">
        <ele>101.7</ele>
        <time>2023-01-29T11:08:55.000Z</time>
      </trkpt>
      <trkpt lat="43.46428" lon="6.33314">
        <ele>101.8</ele>
        <time>2023-01-29T11:09:05.000Z</time>
      </trkpt>
      <trkpt lat="43.46429" lon="6.33314">
        <ele>101.8</ele>
        <time>2023-01-29T11:09:21.000Z</time>
      </trkpt>
      <trkpt lat="43.46429" lon="6.33314">
        <ele>101.8</ele>
        <time>2023-01-29T11:09:22.000Z</time>
      </trkpt>
      <trkpt lat="43.46429" lon="6.33313">
        <ele>101.8</ele>
        <time>2023-01-29T11:09:25.000Z</time>
      </trkpt>
      <trkpt lat="43.46433" lon="6.33314">
        <ele>101.8</ele>
        <time>2023-01-29T11:09:34.000Z</time>
      </trkpt>
      <trkpt lat="43.46434" lon="6.33315">
        <ele>102</ele>
        <time>2023-01-29T11:09:57.000Z</time>
      </trkpt>
      <trkpt lat="43.46434" lon="6.33315">
        <ele>101.9</ele>
        <time>2023-01-29T11:09:58.000Z</time>
      </trkpt>
      <trkpt lat="43.46434" lon="6.33315">
        <ele>101.8</ele>
        <time>2023-01-29T11:10:05.000Z</time>
      </trkpt>
      <trkpt lat="43.46434" lon="6.33315">
        <ele>101.8</ele>
        <time>2023-01-29T11:10:07.000Z</time>
      </trkpt>
      <trkpt lat="43.46434" lon="6.33315">
        <ele>101.9</ele>
        <time>2023-01-29T11:10:08.000Z</time>
      </trkpt>
      <trkpt lat="43.46435" lon="6.33316">
        <ele>102</ele>
        <time>2023-01-29T11:10:10.000Z</time>
      </trkpt>
      <trkpt lat="43.46435" lon="6.33316">
        <ele>101.8</ele>
        <time>2023-01-29T11:10:13.000Z</time>
      </trkpt>
      <trkpt lat="43.46437" lon="6.33316">
        <ele>102.1</ele>
        <time>2023-01-29T11:10:16.000Z</time>
      </trkpt>
      <trkpt lat="43.46436" lon="6.33317">
        <ele>101.7</ele>
        <time>2023-01-29T11:10:20.000Z</time>
      </trkpt>
      <trkpt lat="43.46435" lon="6.33321">
        <ele>101.8</ele>
        <time>2023-01-29T11:10:29.000Z</time>
      </trkpt>
      <trkpt lat="43.46435" lon="6.33321">
        <ele>101.9</ele>
        <time>2023-01-29T11:10:34.000Z</time>
      </trkpt>
      <trkpt lat="43.46434" lon="6.33322">
        <ele>102.1</ele>
        <time>2023-01-29T11:10:37.000Z</time>
      </trkpt>
      <trkpt lat="43.46435" lon="6.33322">
        <ele>102.2</ele>
        <time>2023-01-29T11:10:42.000Z</time>
      </trkpt>
      <trkpt lat="43.46434" lon="6.33336">
        <ele>103.1</ele>
        <time>2023-01-29T11:10:55.000Z</time>
      </trkpt>
      <trkpt lat="43.46436" lon="6.33349">
        <ele>103.5</ele>
        <time>2023-01-29T11:11:05.000Z</time>
      </trkpt>
      <trkpt lat="43.46441" lon="6.3336">
        <ele>104.3</ele>
        <time>2023-01-29T11:11:15.000Z</time>
      </trkpt>
      <trkpt lat="43.46443" lon="6.33373">
        <ele>105.2</ele>
        <time>2023-01-29T11:11:25.000Z</time>
      </trkpt>
      <trkpt lat="43.46441" lon="6.33385">
        <ele>104.9</ele>
        <time>2023-01-29T11:11:33.000Z</time>
      </trkpt>
      <trkpt lat="43.4644" lon="6.33399">
        <ele>105</ele>
        <time>2023-01-29T11:11:41.000Z</time>
      </trkpt>
      <trkpt lat="43.46438" lon="6.33412">
        <ele>105.1</ele>
        <time>2023-01-29T11:11:49.000Z</time>
      </trkpt>
      <trkpt lat="43.46432" lon="6.33423">
        <ele>105.9</ele>
        <time>2023-01-29T11:11:58.000Z</time>
      </trkpt>
      <trkpt lat="43.46427" lon="6.33434">
        <ele>106.4</ele>
        <time>2023-01-29T11:12:09.000Z</time>
      </trkpt>
      <trkpt lat="43.46423" lon="6.33446">
        <ele>107</ele>
        <time>2023-01-29T11:12:18.000Z</time>
      </trkpt>
      <trkpt lat="43.46418" lon="6.33456">
        <ele>107.6</ele>
        <time>2023-01-29T11:12:25.000Z</time>
      </trkpt>
      <trkpt lat="43.46413" lon="6.33467">
        <ele>107.9</ele>
        <time>2023-01-29T11:12:33.000Z</time>
      </trkpt>
      <trkpt lat="43.46409" lon="6.33479">
        <ele>108.3</ele>
        <time>2023-01-29T11:12:42.000Z</time>
      </trkpt>
      <trkpt lat="43.46406" lon="6.33492">
        <ele>108.4</ele>
        <time>2023-01-29T11:12:50.000Z</time>
      </trkpt>
      <trkpt lat="43.46407" lon="6.33505">
        <ele>107.8</ele>
        <time>2023-01-29T11:12:58.000Z</time>
      </trkpt>
      <trkpt lat="43.46409" lon="6.33518">
        <ele>107.3</ele>
        <time>2023-01-29T11:13:07.000Z</time>
      </trkpt>
      <trkpt lat="43.46411" lon="6.33531">
        <ele>107.2</ele>
        <time>2023-01-29T11:13:14.000Z</time>
      </trkpt>
      <trkpt lat="43.46418" lon="6.33542">
        <ele>107.1</ele>
        <time>2023-01-29T11:13:24.000Z</time>
      </trkpt>
      <trkpt lat="43.46426" lon="6.33548">
        <ele>107.5</ele>
        <time>2023-01-29T11:13:47.000Z</time>
      </trkpt>
      <trkpt lat="43.46435" lon="6.33555">
        <ele>108.1</ele>
        <time>2023-01-29T11:13:56.000Z</time>
      </trkpt>
      <trkpt lat="43.46442" lon="6.33563">
        <ele>109.1</ele>
        <time>2023-01-29T11:14:06.000Z</time>
      </trkpt>
      <trkpt lat="43.46451" lon="6.3357">
        <ele>110.3</ele>
        <time>2023-01-29T11:14:17.000Z</time>
      </trkpt>
      <trkpt lat="43.4646" lon="6.33569">
        <ele>111</ele>
        <time>2023-01-29T11:14:27.000Z</time>
      </trkpt>
      <trkpt lat="43.46465" lon="6.33572">
        <ele>110.8</ele>
        <time>2023-01-29T11:14:35.000Z</time>
      </trkpt>
      <trkpt lat="43.46466" lon="6.33571">
        <ele>110.7</ele>
        <time>2023-01-29T11:14:37.000Z</time>
      </trkpt>
      <trkpt lat="43.46474" lon="6.33581">
        <ele>110.7</ele>
        <time>2023-01-29T11:14:46.000Z</time>
      </trkpt>
      <trkpt lat="43.46482" lon="6.33587">
        <ele>110.9</ele>
        <time>2023-01-29T11:14:54.000Z</time>
      </trkpt>
      <trkpt lat="43.46491" lon="6.33589">
        <ele>111.7</ele>
        <time>2023-01-29T11:15:01.000Z</time>
      </trkpt>
      <trkpt lat="43.46501" lon="6.33588">
        <ele>112.3</ele>
        <time>2023-01-29T11:15:11.000Z</time>
      </trkpt>
      <trkpt lat="43.4651" lon="6.33587">
        <ele>112.9</ele>
        <time>2023-01-29T11:15:19.000Z</time>
      </trkpt>
      <trkpt lat="43.4652" lon="6.33587">
        <ele>114.2</ele>
        <time>2023-01-29T11:15:30.000Z</time>
      </trkpt>
      <trkpt lat="43.46529" lon="6.33589">
        <ele>116</ele>
        <time>2023-01-29T11:15:42.000Z</time>
      </trkpt>
      <trkpt lat="43.46539" lon="6.33592">
        <ele>116.7</ele>
        <time>2023-01-29T11:15:51.000Z</time>
      </trkpt>
      <trkpt lat="43.46549" lon="6.33594">
        <ele>117.3</ele>
        <time>2023-01-29T11:16:00.000Z</time>
      </trkpt>
      <trkpt lat="43.46558" lon="6.33597">
        <ele>117.8</ele>
        <time>2023-01-29T11:16:08.000Z</time>
      </trkpt>
      <trkpt lat="43.46567" lon="6.33597">
        <ele>119.1</ele>
        <time>2023-01-29T11:16:19.000Z</time>
      </trkpt>
      <trkpt lat="43.46573" lon="6.33608">
        <ele>120.8</ele>
        <time>2023-01-29T11:16:33.000Z</time>
      </trkpt>
      <trkpt lat="43.46577" lon="6.3362">
        <ele>122.7</ele>
        <time>2023-01-29T11:16:46.000Z</time>
      </trkpt>
      <trkpt lat="43.46577" lon="6.33633">
        <ele>123.5</ele>
        <time>2023-01-29T11:16:58.000Z</time>
      </trkpt>
      <trkpt lat="43.46581" lon="6.33645">
        <ele>124.1</ele>
        <time>2023-01-29T11:17:07.000Z</time>
      </trkpt>
      <trkpt lat="43.46585" lon="6.33657">
        <ele>124.9</ele>
        <time>2023-01-29T11:17:16.000Z</time>
      </trkpt>
      <trkpt lat="43.4659" lon="6.33667">
        <ele>126.5</ele>
        <time>2023-01-29T11:17:26.000Z</time>
      </trkpt>
      <trkpt lat="43.46599" lon="6.33674">
        <ele>127.7</ele>
        <time>2023-01-29T11:17:36.000Z</time>
      </trkpt>
      <trkpt lat="43.46607" lon="6.33681">
        <ele>129.2</ele>
        <time>2023-01-29T11:17:48.000Z</time>
      </trkpt>
      <trkpt lat="43.46612" lon="6.33693">
        <ele>129.8</ele>
        <time>2023-01-29T11:18:01.000Z</time>
      </trkpt>
      <trkpt lat="43.46617" lon="6.33703">
        <ele>130.4</ele>
        <time>2023-01-29T11:18:11.000Z</time>
      </trkpt>
      <trkpt lat="43.46623" lon="6.33713">
        <ele>131</ele>
        <time>2023-01-29T11:18:20.000Z</time>
      </trkpt>
      <trkpt lat="43.46628" lon="6.33725">
        <ele>131.1</ele>
        <time>2023-01-29T11:18:29.000Z</time>
      </trkpt>
      <trkpt lat="43.46634" lon="6.33734">
        <ele>131.5</ele>
        <time>2023-01-29T11:18:37.000Z</time>
      </trkpt>
      <trkpt lat="43.46641" lon="6.33743">
        <ele>131.9</ele>
        <time>2023-01-29T11:18:46.000Z</time>
      </trkpt>
      <trkpt lat="43.46647" lon="6.33753">
        <ele>132.4</ele>
        <time>2023-01-29T11:18:56.000Z</time>
      </trkpt>
      <trkpt lat="43.46653" lon="6.33762">
        <ele>132.6</ele>
        <time>2023-01-29T11:19:06.000Z</time>
      </trkpt>
      <trkpt lat="43.4666" lon="6.33771">
        <ele>133.1</ele>
        <time>2023-01-29T11:19:14.000Z</time>
      </trkpt>
      <trkpt lat="43.46668" lon="6.33779">
        <ele>133.1</ele>
        <time>2023-01-29T11:19:24.000Z</time>
      </trkpt>
      <trkpt lat="43.46676" lon="6.33786">
        <ele>133</ele>
        <time>2023-01-29T11:19:34.000Z</time>
      </trkpt>
      <trkpt lat="43.4668" lon="6.33798">
        <ele>133</ele>
        <time>2023-01-29T11:19:44.000Z</time>
      </trkpt>
      <trkpt lat="43.46687" lon="6.33806">
        <ele>133.3</ele>
        <time>2023-01-29T11:19:54.000Z</time>
      </trkpt>
      <trkpt lat="43.46695" lon="6.33813">
        <ele>133.6</ele>
        <time>2023-01-29T11:20:04.000Z</time>
      </trkpt>
      <trkpt lat="43.46703" lon="6.33821">
        <ele>134</ele>
        <time>2023-01-29T11:20:14.000Z</time>
      </trkpt>
      <trkpt lat="43.46709" lon="6.33831">
        <ele>134.6</ele>
        <time>2023-01-29T11:20:25.000Z</time>
      </trkpt>
      <trkpt lat="43.46716" lon="6.33838">
        <ele>135.3</ele>
        <time>2023-01-29T11:20:36.000Z</time>
      </trkpt>
      <trkpt lat="43.46723" lon="6.33848">
        <ele>136.2</ele>
        <time>2023-01-29T11:20:47.000Z</time>
      </trkpt>
      <trkpt lat="43.46729" lon="6.33858">
        <ele>136.3</ele>
        <time>2023-01-29T11:20:58.000Z</time>
      </trkpt>
      <trkpt lat="43.46734" lon="6.33869">
        <ele>137</ele>
        <time>2023-01-29T11:21:08.000Z</time>
      </trkpt>
      <trkpt lat="43.46742" lon="6.33877">
        <ele>138.2</ele>
        <time>2023-01-29T11:21:22.000Z</time>
      </trkpt>
      <trkpt lat="43.4675" lon="6.33884">
        <ele>138.7</ele>
        <time>2023-01-29T11:21:34.000Z</time>
      </trkpt>
      <trkpt lat="43.46756" lon="6.33894">
        <ele>139.7</ele>
        <time>2023-01-29T11:21:46.000Z</time>
      </trkpt>
      <trkpt lat="43.46762" lon="6.33904">
        <ele>140</ele>
        <time>2023-01-29T11:21:57.000Z</time>
      </trkpt>
      <trkpt lat="43.46767" lon="6.33916">
        <ele>140.8</ele>
        <time>2023-01-29T11:22:09.000Z</time>
      </trkpt>
      <trkpt lat="43.46772" lon="6.33926">
        <ele>141.2</ele>
        <time>2023-01-29T11:22:20.000Z</time>
      </trkpt>
      <trkpt lat="43.46777" lon="6.33938">
        <ele>142.2</ele>
        <time>2023-01-29T11:22:31.000Z</time>
      </trkpt>
      <trkpt lat="43.46783" lon="6.33948">
        <ele>143.1</ele>
        <time>2023-01-29T11:22:43.000Z</time>
      </trkpt>
      <trkpt lat="43.4679" lon="6.33956">
        <ele>143.5</ele>
        <time>2023-01-29T11:22:55.000Z</time>
      </trkpt>
      <trkpt lat="43.46796" lon="6.33966">
        <ele>144.1</ele>
        <time>2023-01-29T11:23:06.000Z</time>
      </trkpt>
      <trkpt lat="43.46801" lon="6.33977">
        <ele>144.7</ele>
        <time>2023-01-29T11:23:17.000Z</time>
      </trkpt>
      <trkpt lat="43.46805" lon="6.33988">
        <ele>146</ele>
        <time>2023-01-29T11:23:30.000Z</time>
      </trkpt>
      <trkpt lat="43.46811" lon="6.33998">
        <ele>146.8</ele>
        <time>2023-01-29T11:23:42.000Z</time>
      </trkpt>
      <trkpt lat="43.46816" lon="6.3401">
        <ele>147.5</ele>
        <time>2023-01-29T11:23:53.000Z</time>
      </trkpt>
      <trkpt lat="43.46819" lon="6.34017">
        <ele>147.8</ele>
        <time>2023-01-29T11:24:02.000Z</time>
      </trkpt>
      <trkpt lat="43.46819" lon="6.34017">
        <ele>147.7</ele>
        <time>2023-01-29T11:24:05.000Z</time>
      </trkpt>
      <trkpt lat="43.46821" lon="6.3402">
        <ele>148.3</ele>
        <time>2023-01-29T11:24:10.000Z</time>
      </trkpt>
      <trkpt lat="43.46821" lon="6.3402">
        <ele>148.1</ele>
        <time>2023-01-29T11:24:17.000Z</time>
      </trkpt>
      <trkpt lat="43.46826" lon="6.34031">
        <ele>149</ele>
        <time>2023-01-29T11:24:32.000Z</time>
      </trkpt>
      <trkpt lat="43.46834" lon="6.34039">
        <ele>150.9</ele>
        <time>2023-01-29T11:24:46.000Z</time>
      </trkpt>
      <trkpt lat="43.4684" lon="6.34049">
        <ele>152.2</ele>
        <time>2023-01-29T11:24:59.000Z</time>
      </trkpt>
      <trkpt lat="43.46846" lon="6.34057">
        <ele>153.3</ele>
        <time>2023-01-29T11:25:11.000Z</time>
      </trkpt>
      <trkpt lat="43.46853" lon="6.34067">
        <ele>154.2</ele>
        <time>2023-01-29T11:25:24.000Z</time>
      </trkpt>
      <trkpt lat="43.46859" lon="6.34076">
        <ele>155.1</ele>
        <time>2023-01-29T11:25:35.000Z</time>
      </trkpt>
      <trkpt lat="43.46863" lon="6.34088">
        <ele>155.7</ele>
        <time>2023-01-29T11:25:46.000Z</time>
      </trkpt>
      <trkpt lat="43.46869" lon="6.34098">
        <ele>156.7</ele>
        <time>2023-01-29T11:25:58.000Z</time>
      </trkpt>
      <trkpt lat="43.46875" lon="6.34108">
        <ele>157.6</ele>
        <time>2023-01-29T11:26:10.000Z</time>
      </trkpt>
      <trkpt lat="43.4688" lon="6.34119">
        <ele>158.5</ele>
        <time>2023-01-29T11:26:22.000Z</time>
      </trkpt>
      <trkpt lat="43.46884" lon="6.34131">
        <ele>158.8</ele>
        <time>2023-01-29T11:26:31.000Z</time>
      </trkpt>
      <trkpt lat="43.46886" lon="6.34143">
        <ele>159.5</ele>
        <time>2023-01-29T11:26:41.000Z</time>
      </trkpt>
      <trkpt lat="43.4689" lon="6.34155">
        <ele>160.2</ele>
        <time>2023-01-29T11:26:52.000Z</time>
      </trkpt>
      <trkpt lat="43.46896" lon="6.34165">
        <ele>160.6</ele>
        <time>2023-01-29T11:27:03.000Z</time>
      </trkpt>
      <trkpt lat="43.46901" lon="6.34176">
        <ele>161.7</ele>
        <time>2023-01-29T11:27:14.000Z</time>
      </trkpt>
      <trkpt lat="43.46905" lon="6.34187">
        <ele>162.9</ele>
        <time>2023-01-29T11:27:26.000Z</time>
      </trkpt>
      <trkpt lat="43.46909" lon="6.34199">
        <ele>164</ele>
        <time>2023-01-29T11:27:38.000Z</time>
      </trkpt>
      <trkpt lat="43.46914" lon="6.3421">
        <ele>164.7</ele>
        <time>2023-01-29T11:27:50.000Z</time>
      </trkpt>
      <trkpt lat="43.46919" lon="6.34222">
        <ele>165.2</ele>
        <time>2023-01-29T11:28:01.000Z</time>
      </trkpt>
      <trkpt lat="43.46922" lon="6.3423">
        <ele>165</ele>
        <time>2023-01-29T11:28:13.000Z</time>
      </trkpt>
      <trkpt lat="43.46922" lon="6.3423">
        <ele>165.2</ele>
        <time>2023-01-29T11:28:15.000Z</time>
      </trkpt>
      <trkpt lat="43.46927" lon="6.34242">
        <ele>165.6</ele>
        <time>2023-01-29T11:28:24.000Z</time>
      </trkpt>
      <trkpt lat="43.46931" lon="6.34253">
        <ele>165.7</ele>
        <time>2023-01-29T11:28:34.000Z</time>
      </trkpt>
      <trkpt lat="43.46933" lon="6.34266">
        <ele>166</ele>
        <time>2023-01-29T11:28:44.000Z</time>
      </trkpt>
      <trkpt lat="43.46936" lon="6.34277">
        <ele>166.6</ele>
        <time>2023-01-29T11:28:53.000Z</time>
      </trkpt>
      <trkpt lat="43.46936" lon="6.34278">
        <ele>166.6</ele>
        <time>2023-01-29T11:28:55.000Z</time>
      </trkpt>
      <trkpt lat="43.46936" lon="6.34278">
        <ele>166.7</ele>
        <time>2023-01-29T11:29:00.000Z</time>
      </trkpt>
      <trkpt lat="43.4694" lon="6.3429">
        <ele>167.4</ele>
        <time>2023-01-29T11:29:13.000Z</time>
      </trkpt>
      <trkpt lat="43.4694" lon="6.3429">
        <ele>167.3</ele>
        <time>2023-01-29T11:29:14.000Z</time>
      </trkpt>
      <trkpt lat="43.4694" lon="6.3429">
        <ele>167.5</ele>
        <time>2023-01-29T11:29:17.000Z</time>
      </trkpt>
      <trkpt lat="43.46942" lon="6.34303">
        <ele>168</ele>
        <time>2023-01-29T11:29:28.000Z</time>
      </trkpt>
      <trkpt lat="43.46943" lon="6.34316">
        <ele>168.4</ele>
        <time>2023-01-29T11:29:38.000Z</time>
      </trkpt>
      <trkpt lat="43.46944" lon="6.34329">
        <ele>169.4</ele>
        <time>2023-01-29T11:29:49.000Z</time>
      </trkpt>
      <trkpt lat="43.46946" lon="6.34341">
        <ele>170.3</ele>
        <time>2023-01-29T11:30:03.000Z</time>
      </trkpt>
      <trkpt lat="43.46947" lon="6.34355">
        <ele>171.5</ele>
        <time>2023-01-29T11:30:13.000Z</time>
      </trkpt>
      <trkpt lat="43.46946" lon="6.34367">
        <ele>172.4</ele>
        <time>2023-01-29T11:30:23.000Z</time>
      </trkpt>
      <trkpt lat="43.46949" lon="6.34379">
        <ele>173.4</ele>
        <time>2023-01-29T11:30:35.000Z</time>
      </trkpt>
      <trkpt lat="43.46952" lon="6.34391">
        <ele>175</ele>
        <time>2023-01-29T11:30:48.000Z</time>
      </trkpt>
      <trkpt lat="43.46954" lon="6.344">
        <ele>175.7</ele>
        <time>2023-01-29T11:30:58.000Z</time>
      </trkpt>
      <trkpt lat="43.46954" lon="6.344">
        <ele>176</ele>
        <time>2023-01-29T11:31:02.000Z</time>
      </trkpt>
      <trkpt lat="43.46954" lon="6.344">
        <ele>176</ele>
        <time>2023-01-29T11:31:03.000Z</time>
      </trkpt>
      <trkpt lat="43.46954" lon="6.344">
        <ele>175.8</ele>
        <time>2023-01-29T11:31:04.000Z</time>
      </trkpt>
      <trkpt lat="43.46954" lon="6.344">
        <ele>175.7</ele>
        <time>2023-01-29T11:31:05.000Z</time>
      </trkpt>
      <trkpt lat="43.46954" lon="6.34401">
        <ele>176</ele>
        <time>2023-01-29T11:31:07.000Z</time>
      </trkpt>
      <trkpt lat="43.4696" lon="6.34412">
        <ele>177.1</ele>
        <time>2023-01-29T11:31:19.000Z</time>
      </trkpt>
      <trkpt lat="43.46965" lon="6.34423">
        <ele>178.7</ele>
        <time>2023-01-29T11:31:30.000Z</time>
      </trkpt>
      <trkpt lat="43.46969" lon="6.34428">
        <ele>179.4</ele>
        <time>2023-01-29T11:31:37.000Z</time>
      </trkpt>
      <trkpt lat="43.46969" lon="6.34428">
        <ele>179.4</ele>
        <time>2023-01-29T11:31:41.000Z</time>
      </trkpt>
      <trkpt lat="43.46975" lon="6.34437">
        <ele>181.1</ele>
        <time>2023-01-29T11:31:56.000Z</time>
      </trkpt>
      <trkpt lat="43.4698" lon="6.34449">
        <ele>182.3</ele>
        <time>2023-01-29T11:32:07.000Z</time>
      </trkpt>
      <trkpt lat="43.46984" lon="6.34459">
        <ele>183</ele>
        <time>2023-01-29T11:32:17.000Z</time>
      </trkpt>
      <trkpt lat="43.46987" lon="6.34471">
        <ele>184.3</ele>
        <time>2023-01-29T11:32:27.000Z</time>
      </trkpt>
      <trkpt lat="43.4699" lon="6.3448">
        <ele>185.2</ele>
        <time>2023-01-29T11:32:37.000Z</time>
      </trkpt>
      <trkpt lat="43.4699" lon="6.34481">
        <ele>184.9</ele>
        <time>2023-01-29T11:32:40.000Z</time>
      </trkpt>
      <trkpt lat="43.46994" lon="6.34494">
        <ele>185.1</ele>
        <time>2023-01-29T11:32:50.000Z</time>
      </trkpt>
      <trkpt lat="43.46999" lon="6.34506">
        <ele>185.2</ele>
        <time>2023-01-29T11:32:59.000Z</time>
      </trkpt>
      <trkpt lat="43.47003" lon="6.34517">
        <ele>185.4</ele>
        <time>2023-01-29T11:33:08.000Z</time>
      </trkpt>
      <trkpt lat="43.47007" lon="6.34528">
        <ele>185.1</ele>
        <time>2023-01-29T11:33:18.000Z</time>
      </trkpt>
      <trkpt lat="43.47005" lon="6.34529">
        <ele>185.5</ele>
        <time>2023-01-29T11:33:29.000Z</time>
      </trkpt>
      <trkpt lat="43.47004" lon="6.34529">
        <ele>185.2</ele>
        <time>2023-01-29T11:33:31.000Z</time>
      </trkpt>
      <trkpt lat="43.46999" lon="6.34535">
        <ele>184.5</ele>
        <time>2023-01-29T11:33:46.000Z</time>
      </trkpt>
      <trkpt lat="43.47" lon="6.34536">
        <ele>184.6</ele>
        <time>2023-01-29T11:33:48.000Z</time>
      </trkpt>
      <trkpt lat="43.47" lon="6.34538">
        <ele>184.4</ele>
        <time>2023-01-29T11:33:52.000Z</time>
      </trkpt>
      <trkpt lat="43.47" lon="6.34538">
        <ele>184.5</ele>
        <time>2023-01-29T11:33:54.000Z</time>
      </trkpt>
      <trkpt lat="43.47" lon="6.34538">
        <ele>184.5</ele>
        <time>2023-01-29T11:33:55.000Z</time>
      </trkpt>
      <trkpt lat="43.47" lon="6.34538">
        <ele>184.2</ele>
        <time>2023-01-29T11:33:59.000Z</time>
      </trkpt>
      <trkpt lat="43.47" lon="6.34537">
        <ele>184</ele>
        <time>2023-01-29T11:34:01.000Z</time>
      </trkpt>
      <trkpt lat="43.47" lon="6.34538">
        <ele>184</ele>
        <time>2023-01-29T11:34:02.000Z</time>
      </trkpt>
      <trkpt lat="43.47" lon="6.34538">
        <ele>184</ele>
        <time>2023-01-29T11:34:04.000Z</time>
      </trkpt>
      <trkpt lat="43.47" lon="6.34538">
        <ele>183.9</ele>
        <time>2023-01-29T11:34:06.000Z</time>
      </trkpt>
      <trkpt lat="43.47" lon="6.34538">
        <ele>183.9</ele>
        <time>2023-01-29T11:34:07.000Z</time>
      </trkpt>
      <trkpt lat="43.47001" lon="6.34537">
        <ele>184.1</ele>
        <time>2023-01-29T11:34:12.000Z</time>
      </trkpt>
      <trkpt lat="43.46999" lon="6.34526">
        <ele>184.4</ele>
        <time>2023-01-29T11:34:26.000Z</time>
      </trkpt>
      <trkpt lat="43.46999" lon="6.34527">
        <ele>184.1</ele>
        <time>2023-01-29T11:35:08.000Z</time>
      </trkpt>
      <trkpt lat="43.46999" lon="6.34527">
        <ele>184</ele>
        <time>2023-01-29T11:35:09.000Z</time>
      </trkpt>
      <trkpt lat="43.46999" lon="6.34527">
        <ele>183.9</ele>
        <time>2023-01-29T11:35:11.000Z</time>
      </trkpt>
      <trkpt lat="43.46999" lon="6.34527">
        <ele>184.1</ele>
        <time>2023-01-29T11:35:14.000Z</time>
      </trkpt>
      <trkpt lat="43.46999" lon="6.34527">
        <ele>184.1</ele>
        <time>2023-01-29T11:35:17.000Z</time>
      </trkpt>
      <trkpt lat="43.46999" lon="6.34527">
        <ele>184.2</ele>
        <time>2023-01-29T11:35:18.000Z</time>
      </trkpt>
      <trkpt lat="43.46999" lon="6.34527">
        <ele>183.9</ele>
        <time>2023-01-29T11:35:36.000Z</time>
      </trkpt>
      <trkpt lat="43.46999" lon="6.34527">
        <ele>183.9</ele>
        <time>2023-01-29T11:35:37.000Z</time>
      </trkpt>
      <trkpt lat="43.46999" lon="6.34529">
        <ele>183.5</ele>
        <time>2023-01-29T11:37:03.000Z</time>
      </trkpt>
      <trkpt lat="43.46999" lon="6.34529">
        <ele>183.5</ele>
        <time>2023-01-29T11:37:04.000Z</time>
      </trkpt>
      <trkpt lat="43.46999" lon="6.34529">
        <ele>183.5</ele>
        <time>2023-01-29T11:37:26.000Z</time>
      </trkpt>
      <trkpt lat="43.46998" lon="6.34529">
        <ele>183.4</ele>
        <time>2023-01-29T11:37:28.000Z</time>
      </trkpt>
      <trkpt lat="43.46999" lon="6.3453">
        <ele>183.3</ele>
        <time>2023-01-29T11:38:32.000Z</time>
      </trkpt>
      <trkpt lat="43.46999" lon="6.3453">
        <ele>183.1</ele>
        <time>2023-01-29T11:38:33.000Z</time>
      </trkpt>
      <trkpt lat="43.46998" lon="6.3453">
        <ele>183</ele>
        <time>2023-01-29T11:38:35.000Z</time>
      </trkpt>
      <trkpt lat="43.46998" lon="6.34529">
        <ele>183</ele>
        <time>2023-01-29T11:38:37.000Z</time>
      </trkpt>
      <trkpt lat="43.46998" lon="6.34529">
        <ele>183</ele>
        <time>2023-01-29T11:38:39.000Z</time>
      </trkpt>
      <trkpt lat="43.46998" lon="6.34529">
        <ele>183</ele>
        <time>2023-01-29T11:38:40.000Z</time>
      </trkpt>
      <trkpt lat="43.46998" lon="6.34529">
        <ele>182.8</ele>
        <time>2023-01-29T11:38:50.000Z</time>
      </trkpt>
      <trkpt lat="43.46998" lon="6.34529">
        <ele>182.7</ele>
        <time>2023-01-29T11:38:51.000Z</time>
      </trkpt>
      <trkpt lat="43.46998" lon="6.34529">
        <ele>183</ele>
        <time>2023-01-29T11:41:00.000Z</time>
      </trkpt>
      <trkpt lat="43.46998" lon="6.34529">
        <ele>182.9</ele>
        <time>2023-01-29T11:41:02.000Z</time>
      </trkpt>
      <trkpt lat="43.46997" lon="6.34529">
        <ele>183.4</ele>
        <time>2023-01-29T11:41:19.000Z</time>
      </trkpt>
      <trkpt lat="43.46997" lon="6.34529">
        <ele>183.3</ele>
        <time>2023-01-29T11:41:20.000Z</time>
      </trkpt>
      <trkpt lat="43.46997" lon="6.34529">
        <ele>183.3</ele>
        <time>2023-01-29T11:41:21.000Z</time>
      </trkpt>
      <trkpt lat="43.46997" lon="6.34529">
        <ele>183.2</ele>
        <time>2023-01-29T11:41:22.000Z</time>
      </trkpt>
      <trkpt lat="43.46997" lon="6.34529">
        <ele>183.4</ele>
        <time>2023-01-29T11:41:46.000Z</time>
      </trkpt>
      <trkpt lat="43.46997" lon="6.34529">
        <ele>183.5</ele>
        <time>2023-01-29T11:41:47.000Z</time>
      </trkpt>
      <trkpt lat="43.46997" lon="6.34529">
        <ele>183.5</ele>
        <time>2023-01-29T11:41:48.000Z</time>
      </trkpt>
      <trkpt lat="43.46989" lon="6.34535">
        <ele>183.2</ele>
        <time>2023-01-29T11:41:59.000Z</time>
      </trkpt>
      <trkpt lat="43.46987" lon="6.34543">
        <ele>182.6</ele>
        <time>2023-01-29T11:42:11.000Z</time>
      </trkpt>
      <trkpt lat="43.46987" lon="6.34543">
        <ele>182.5</ele>
        <time>2023-01-29T11:42:15.000Z</time>
      </trkpt>
      <trkpt lat="43.46996" lon="6.3454">
        <ele>182.7</ele>
        <time>2023-01-29T11:42:26.000Z</time>
      </trkpt>
      <trkpt lat="43.47" lon="6.34531">
        <ele>183.1</ele>
        <time>2023-01-29T11:42:42.000Z</time>
      </trkpt>
      <trkpt lat="43.47" lon="6.34531">
        <ele>182.9</ele>
        <time>2023-01-29T11:42:43.000Z</time>
      </trkpt>
      <trkpt lat="43.47" lon="6.34531">
        <ele>182.9</ele>
        <time>2023-01-29T11:42:44.000Z</time>
      </trkpt>
      <trkpt lat="43.47" lon="6.34531">
        <ele>182.8</ele>
        <time>2023-01-29T11:42:45.000Z</time>
      </trkpt>
      <trkpt lat="43.47" lon="6.34531">
        <ele>182.6</ele>
        <time>2023-01-29T11:42:46.000Z</time>
      </trkpt>
      <trkpt lat="43.47" lon="6.34531">
        <ele>182.9</ele>
        <time>2023-01-29T11:42:48.000Z</time>
      </trkpt>
      <trkpt lat="43.47" lon="6.34531">
        <ele>183</ele>
        <time>2023-01-29T11:42:49.000Z</time>
      </trkpt>
      <trkpt lat="43.46999" lon="6.34531">
        <ele>182.8</ele>
        <time>2023-01-29T11:42:57.000Z</time>
      </trkpt>
      <trkpt lat="43.46999" lon="6.34531">
        <ele>182.8</ele>
        <time>2023-01-29T11:42:58.000Z</time>
      </trkpt>
      <trkpt lat="43.46999" lon="6.34531">
        <ele>183</ele>
        <time>2023-01-29T11:42:59.000Z</time>
      </trkpt>
      <trkpt lat="43.46999" lon="6.34531">
        <ele>183.2</ele>
        <time>2023-01-29T11:43:00.000Z</time>
      </trkpt>
      <trkpt lat="43.46999" lon="6.34531">
        <ele>182.7</ele>
        <time>2023-01-29T11:43:25.000Z</time>
      </trkpt>
      <trkpt lat="43.46999" lon="6.34531">
        <ele>182.8</ele>
        <time>2023-01-29T11:43:26.000Z</time>
      </trkpt>
      <trkpt lat="43.46999" lon="6.34531">
        <ele>182.7</ele>
        <time>2023-01-29T11:43:56.000Z</time>
      </trkpt>
      <trkpt lat="43.46997" lon="6.34531">
        <ele>182.6</ele>
        <time>2023-01-29T11:44:02.000Z</time>
      </trkpt>
      <trkpt lat="43.46997" lon="6.34531">
        <ele>182.4</ele>
        <time>2023-01-29T11:44:42.000Z</time>
      </trkpt>
      <trkpt lat="43.46997" lon="6.34531">
        <ele>182.3</ele>
        <time>2023-01-29T11:44:43.000Z</time>
      </trkpt>
      <trkpt lat="43.46997" lon="6.34531">
        <ele>182.3</ele>
        <time>2023-01-29T11:45:25.000Z</time>
      </trkpt>
      <trkpt lat="43.46997" lon="6.34531">
        <ele>182.3</ele>
        <time>2023-01-29T11:45:26.000Z</time>
      </trkpt>
      <trkpt lat="43.46997" lon="6.34532">
        <ele>182.1</ele>
        <time>2023-01-29T11:47:18.000Z</time>
      </trkpt>
      <trkpt lat="43.46997" lon="6.34532">
        <ele>182.2</ele>
        <time>2023-01-29T11:47:19.000Z</time>
      </trkpt>
      <trkpt lat="43.46997" lon="6.34532">
        <ele>181.7</ele>
        <time>2023-01-29T11:49:06.000Z</time>
      </trkpt>
      <trkpt lat="43.46998" lon="6.34532">
        <ele>181.5</ele>
        <time>2023-01-29T11:49:10.000Z</time>
      </trkpt>
      <trkpt lat="43.46998" lon="6.34532">
        <ele>181.7</ele>
        <time>2023-01-29T11:49:11.000Z</time>
      </trkpt>
      <trkpt lat="43.46998" lon="6.34532">
        <ele>181.7</ele>
        <time>2023-01-29T11:49:12.000Z</time>
      </trkpt>
      <trkpt lat="43.46998" lon="6.34532">
        <ele>181.1</ele>
        <time>2023-01-29T11:49:32.000Z</time>
      </trkpt>
      <trkpt lat="43.46998" lon="6.34532">
        <ele>181.1</ele>
        <time>2023-01-29T11:49:33.000Z</time>
      </trkpt>
      <trkpt lat="43.46998" lon="6.34532">
        <ele>180.9</ele>
        <time>2023-01-29T11:49:44.000Z</time>
      </trkpt>
      <trkpt lat="43.46998" lon="6.34532">
        <ele>181.1</ele>
        <time>2023-01-29T11:49:45.000Z</time>
      </trkpt>
      <trkpt lat="43.46998" lon="6.34532">
        <ele>181</ele>
        <time>2023-01-29T11:50:19.000Z</time>
      </trkpt>
      <trkpt lat="43.46998" lon="6.34531">
        <ele>180.7</ele>
        <time>2023-01-29T11:50:20.000Z</time>
      </trkpt>
      <trkpt lat="43.46998" lon="6.34531">
        <ele>180.7</ele>
        <time>2023-01-29T11:50:24.000Z</time>
      </trkpt>
      <trkpt lat="43.46997" lon="6.34531">
        <ele>181</ele>
        <time>2023-01-29T11:50:28.000Z</time>
      </trkpt>
      <trkpt lat="43.46997" lon="6.34531">
        <ele>180.7</ele>
        <time>2023-01-29T11:50:59.000Z</time>
      </trkpt>
      <trkpt lat="43.46997" lon="6.34531">
        <ele>180.9</ele>
        <time>2023-01-29T11:51:00.000Z</time>
      </trkpt>
      <trkpt lat="43.46997" lon="6.34531">
        <ele>180.7</ele>
        <time>2023-01-29T11:51:30.000Z</time>
      </trkpt>
      <trkpt lat="43.46997" lon="6.34531">
        <ele>180.6</ele>
        <time>2023-01-29T11:51:32.000Z</time>
      </trkpt>
      <trkpt lat="43.46997" lon="6.34531">
        <ele>180.2</ele>
        <time>2023-01-29T11:51:44.000Z</time>
      </trkpt>
      <trkpt lat="43.46997" lon="6.34531">
        <ele>180.4</ele>
        <time>2023-01-29T11:51:45.000Z</time>
      </trkpt>
      <trkpt lat="43.46997" lon="6.34531">
        <ele>180.8</ele>
        <time>2023-01-29T11:52:13.000Z</time>
      </trkpt>
      <trkpt lat="43.46997" lon="6.34531">
        <ele>180.7</ele>
        <time>2023-01-29T11:52:14.000Z</time>
      </trkpt>
      <trkpt lat="43.46997" lon="6.34531">
        <ele>180.8</ele>
        <time>2023-01-29T11:52:17.000Z</time>
      </trkpt>
      <trkpt lat="43.46993" lon="6.34531">
        <ele>180.8</ele>
        <time>2023-01-29T11:52:25.000Z</time>
      </trkpt>
      <trkpt lat="43.46994" lon="6.34531">
        <ele>181</ele>
        <time>2023-01-29T11:53:54.000Z</time>
      </trkpt>
      <trkpt lat="43.46994" lon="6.34531">
        <ele>181.1</ele>
        <time>2023-01-29T11:53:55.000Z</time>
      </trkpt>
      <trkpt lat="43.46993" lon="6.34531">
        <ele>181.2</ele>
        <time>2023-01-29T11:54:10.000Z</time>
      </trkpt>
      <trkpt lat="43.46993" lon="6.34531">
        <ele>181.1</ele>
        <time>2023-01-29T11:54:11.000Z</time>
      </trkpt>
      <trkpt lat="43.46994" lon="6.34532">
        <ele>179.9</ele>
        <time>2023-01-29T11:55:37.000Z</time>
      </trkpt>
      <trkpt lat="43.46994" lon="6.34532">
        <ele>179.9</ele>
        <time>2023-01-29T11:55:38.000Z</time>
      </trkpt>
      <trkpt lat="43.46994" lon="6.34532">
        <ele>180.3</ele>
        <time>2023-01-29T11:57:28.000Z</time>
      </trkpt>
      <trkpt lat="43.46999" lon="6.34533">
        <ele>180.5</ele>
        <time>2023-01-29T11:57:39.000Z</time>
      </trkpt>
      <trkpt lat="43.46999" lon="6.34533">
        <ele>180.5</ele>
        <time>2023-01-29T11:57:40.000Z</time>
      </trkpt>
      <trkpt lat="43.46999" lon="6.34533">
        <ele>180.5</ele>
        <time>2023-01-29T11:57:41.000Z</time>
      </trkpt>
      <trkpt lat="43.46999" lon="6.34533">
        <ele>180.5</ele>
        <time>2023-01-29T11:58:05.000Z</time>
      </trkpt>
      <trkpt lat="43.46999" lon="6.34533">
        <ele>180.6</ele>
        <time>2023-01-29T11:58:06.000Z</time>
      </trkpt>
      <trkpt lat="43.46999" lon="6.34534">
        <ele>180.5</ele>
        <time>2023-01-29T11:58:15.000Z</time>
      </trkpt>
      <trkpt lat="43.46999" lon="6.34533">
        <ele>180.4</ele>
        <time>2023-01-29T11:58:18.000Z</time>
      </trkpt>
      <trkpt lat="43.46999" lon="6.34533">
        <ele>180.3</ele>
        <time>2023-01-29T11:58:22.000Z</time>
      </trkpt>
      <trkpt lat="43.46998" lon="6.34532">
        <ele>180.2</ele>
        <time>2023-01-29T11:58:25.000Z</time>
      </trkpt>
      <trkpt lat="43.46998" lon="6.34532">
        <ele>180.6</ele>
        <time>2023-01-29T11:59:06.000Z</time>
      </trkpt>
      <trkpt lat="43.46998" lon="6.34532">
        <ele>180.6</ele>
        <time>2023-01-29T11:59:07.000Z</time>
      </trkpt>
      <trkpt lat="43.46998" lon="6.34531">
        <ele>180.7</ele>
        <time>2023-01-29T12:00:04.000Z</time>
      </trkpt>
      <trkpt lat="43.46998" lon="6.34531">
        <ele>180.8</ele>
        <time>2023-01-29T12:00:05.000Z</time>
      </trkpt>
      <trkpt lat="43.46998" lon="6.34531">
        <ele>180.7</ele>
        <time>2023-01-29T12:00:06.000Z</time>
      </trkpt>
      <trkpt lat="43.46998" lon="6.3453">
        <ele>180.8</ele>
        <time>2023-01-29T12:00:09.000Z</time>
      </trkpt>
      <trkpt lat="43.46998" lon="6.34531">
        <ele>180.8</ele>
        <time>2023-01-29T12:00:10.000Z</time>
      </trkpt>
      <trkpt lat="43.46998" lon="6.3453">
        <ele>180.7</ele>
        <time>2023-01-29T12:00:14.000Z</time>
      </trkpt>
      <trkpt lat="43.46998" lon="6.3453">
        <ele>180.4</ele>
        <time>2023-01-29T12:00:51.000Z</time>
      </trkpt>
      <trkpt lat="43.46998" lon="6.3453">
        <ele>180.4</ele>
        <time>2023-01-29T12:00:52.000Z</time>
      </trkpt>
      <trkpt lat="43.46998" lon="6.3453">
        <ele>180.4</ele>
        <time>2023-01-29T12:01:03.000Z</time>
      </trkpt>
      <trkpt lat="43.46998" lon="6.3453">
        <ele>180.5</ele>
        <time>2023-01-29T12:01:04.000Z</time>
      </trkpt>
      <trkpt lat="43.46998" lon="6.3453">
        <ele>181.2</ele>
        <time>2023-01-29T12:04:32.000Z</time>
      </trkpt>
      <trkpt lat="43.46998" lon="6.3453">
        <ele>181.4</ele>
        <time>2023-01-29T12:04:33.000Z</time>
      </trkpt>
      <trkpt lat="43.46998" lon="6.3453">
        <ele>181.3</ele>
        <time>2023-01-29T12:04:44.000Z</time>
      </trkpt>
      <trkpt lat="43.46998" lon="6.3453">
        <ele>181.3</ele>
        <time>2023-01-29T12:04:45.000Z</time>
      </trkpt>
      <trkpt lat="43.46998" lon="6.3453">
        <ele>181.2</ele>
        <time>2023-01-29T12:04:52.000Z</time>
      </trkpt>
      <trkpt lat="43.46998" lon="6.3453">
        <ele>181.1</ele>
        <time>2023-01-29T12:04:53.000Z</time>
      </trkpt>
      <trkpt lat="43.46998" lon="6.34529">
        <ele>181.6</ele>
        <time>2023-01-29T12:05:53.000Z</time>
      </trkpt>
      <trkpt lat="43.46998" lon="6.34529">
        <ele>181.6</ele>
        <time>2023-01-29T12:05:54.000Z</time>
      </trkpt>
      <trkpt lat="43.46998" lon="6.34529">
        <ele>181.5</ele>
        <time>2023-01-29T12:05:58.000Z</time>
      </trkpt>
      <trkpt lat="43.46998" lon="6.34529">
        <ele>181.6</ele>
        <time>2023-01-29T12:05:59.000Z</time>
      </trkpt>
      <trkpt lat="43.46998" lon="6.34529">
        <ele>181.7</ele>
        <time>2023-01-29T12:06:43.000Z</time>
      </trkpt>
      <trkpt lat="43.46998" lon="6.34529">
        <ele>181.8</ele>
        <time>2023-01-29T12:06:44.000Z</time>
      </trkpt>
      <trkpt lat="43.46998" lon="6.34529">
        <ele>182.4</ele>
        <time>2023-01-29T12:07:26.000Z</time>
      </trkpt>
      <trkpt lat="43.47002" lon="6.34541">
        <ele>182</ele>
        <time>2023-01-29T12:07:38.000Z</time>
      </trkpt>
      <trkpt lat="43.47007" lon="6.34541">
        <ele>182.3</ele>
        <time>2023-01-29T12:07:43.000Z</time>
      </trkpt>
      <trkpt lat="43.47007" lon="6.3454">
        <ele>182.4</ele>
        <time>2023-01-29T12:07:48.000Z</time>
      </trkpt>
      <trkpt lat="43.47007" lon="6.3454">
        <ele>182.3</ele>
        <time>2023-01-29T12:07:49.000Z</time>
      </trkpt>
      <trkpt lat="43.47007" lon="6.3454">
        <ele>182.4</ele>
        <time>2023-01-29T12:07:59.000Z</time>
      </trkpt>
      <trkpt lat="43.47007" lon="6.3454">
        <ele>182.3</ele>
        <time>2023-01-29T12:08:00.000Z</time>
      </trkpt>
      <trkpt lat="43.47007" lon="6.34539">
        <ele>182.3</ele>
        <time>2023-01-29T12:08:02.000Z</time>
      </trkpt>
      <trkpt lat="43.47007" lon="6.34539">
        <ele>182.3</ele>
        <time>2023-01-29T12:08:03.000Z</time>
      </trkpt>
      <trkpt lat="43.47007" lon="6.34539">
        <ele>182.4</ele>
        <time>2023-01-29T12:08:40.000Z</time>
      </trkpt>
      <trkpt lat="43.47007" lon="6.34539">
        <ele>182.4</ele>
        <time>2023-01-29T12:08:41.000Z</time>
      </trkpt>
      <trkpt lat="43.47006" lon="6.34539">
        <ele>182.2</ele>
        <time>2023-01-29T12:09:45.000Z</time>
      </trkpt>
      <trkpt lat="43.47006" lon="6.34539">
        <ele>182.2</ele>
        <time>2023-01-29T12:09:46.000Z</time>
      </trkpt>
      <trkpt lat="43.47006" lon="6.34539">
        <ele>182.4</ele>
        <time>2023-01-29T12:10:44.000Z</time>
      </trkpt>
      <trkpt lat="43.47006" lon="6.34539">
        <ele>182.5</ele>
        <time>2023-01-29T12:10:45.000Z</time>
      </trkpt>
      <trkpt lat="43.47006" lon="6.34538">
        <ele>182.3</ele>
        <time>2023-01-29T12:11:16.000Z</time>
      </trkpt>
      <trkpt lat="43.47006" lon="6.34538">
        <ele>182.3</ele>
        <time>2023-01-29T12:11:17.000Z</time>
      </trkpt>
      <trkpt lat="43.47006" lon="6.34538">
        <ele>182.1</ele>
        <time>2023-01-29T12:12:15.000Z</time>
      </trkpt>
      <trkpt lat="43.47006" lon="6.34538">
        <ele>182</ele>
        <time>2023-01-29T12:12:16.000Z</time>
      </trkpt>
      <trkpt lat="43.47006" lon="6.34538">
        <ele>182.4</ele>
        <time>2023-01-29T12:12:43.000Z</time>
      </trkpt>
      <trkpt lat="43.47006" lon="6.34538">
        <ele>182.3</ele>
        <time>2023-01-29T12:12:44.000Z</time>
      </trkpt>
      <trkpt lat="43.47006" lon="6.34537">
        <ele>182.3</ele>
        <time>2023-01-29T12:13:55.000Z</time>
      </trkpt>
      <trkpt lat="43.47006" lon="6.34537">
        <ele>182.2</ele>
        <time>2023-01-29T12:13:56.000Z</time>
      </trkpt>
      <trkpt lat="43.47006" lon="6.34537">
        <ele>182.6</ele>
        <time>2023-01-29T12:15:07.000Z</time>
      </trkpt>
      <trkpt lat="43.47006" lon="6.34537">
        <ele>182.3</ele>
        <time>2023-01-29T12:15:10.000Z</time>
      </trkpt>
      <trkpt lat="43.47006" lon="6.34536">
        <ele>182.4</ele>
        <time>2023-01-29T12:15:13.000Z</time>
      </trkpt>
      <trkpt lat="43.47006" lon="6.34535">
        <ele>182.4</ele>
        <time>2023-01-29T12:15:15.000Z</time>
      </trkpt>
      <trkpt lat="43.47005" lon="6.34535">
        <ele>182.8</ele>
        <time>2023-01-29T12:16:22.000Z</time>
      </trkpt>
      <trkpt lat="43.47005" lon="6.34535">
        <ele>182.8</ele>
        <time>2023-01-29T12:16:24.000Z</time>
      </trkpt>
      <trkpt lat="43.47005" lon="6.34535">
        <ele>182.8</ele>
        <time>2023-01-29T12:16:50.000Z</time>
      </trkpt>
      <trkpt lat="43.47005" lon="6.34535">
        <ele>182.9</ele>
        <time>2023-01-29T12:16:52.000Z</time>
      </trkpt>
      <trkpt lat="43.47005" lon="6.34535">
        <ele>182.9</ele>
        <time>2023-01-29T12:17:07.000Z</time>
      </trkpt>
      <trkpt lat="43.47005" lon="6.34535">
        <ele>182.9</ele>
        <time>2023-01-29T12:17:08.000Z</time>
      </trkpt>
      <trkpt lat="43.47005" lon="6.34535">
        <ele>183.2</ele>
        <time>2023-01-29T12:18:23.000Z</time>
      </trkpt>
      <trkpt lat="43.47005" lon="6.34535">
        <ele>183.3</ele>
        <time>2023-01-29T12:18:24.000Z</time>
      </trkpt>
      <trkpt lat="43.47005" lon="6.34535">
        <ele>183.1</ele>
        <time>2023-01-29T12:18:47.000Z</time>
      </trkpt>
      <trkpt lat="43.47005" lon="6.34535">
        <ele>183.2</ele>
        <time>2023-01-29T12:18:48.000Z</time>
      </trkpt>
      <trkpt lat="43.47006" lon="6.34535">
        <ele>183.5</ele>
        <time>2023-01-29T12:19:05.000Z</time>
      </trkpt>
      <trkpt lat="43.47006" lon="6.34535">
        <ele>183.2</ele>
        <time>2023-01-29T12:19:08.000Z</time>
      </trkpt>
      <trkpt lat="43.47006" lon="6.34535">
        <ele>183.3</ele>
        <time>2023-01-29T12:19:11.000Z</time>
      </trkpt>
      <trkpt lat="43.47006" lon="6.34535">
        <ele>183.4</ele>
        <time>2023-01-29T12:19:12.000Z</time>
      </trkpt>
      <trkpt lat="43.47006" lon="6.34535">
        <ele>183.6</ele>
        <time>2023-01-29T12:20:06.000Z</time>
      </trkpt>
      <trkpt lat="43.47006" lon="6.34535">
        <ele>183.6</ele>
        <time>2023-01-29T12:20:07.000Z</time>
      </trkpt>
      <trkpt lat="43.47005" lon="6.34535">
        <ele>183.6</ele>
        <time>2023-01-29T12:21:09.000Z</time>
      </trkpt>
      <trkpt lat="43.47005" lon="6.34535">
        <ele>183.7</ele>
        <time>2023-01-29T12:21:10.000Z</time>
      </trkpt>
      <trkpt lat="43.47005" lon="6.34535">
        <ele>183.9</ele>
        <time>2023-01-29T12:21:55.000Z</time>
      </trkpt>
      <trkpt lat="43.47005" lon="6.34535">
        <ele>183.8</ele>
        <time>2023-01-29T12:21:56.000Z</time>
      </trkpt>
      <trkpt lat="43.47005" lon="6.34535">
        <ele>183.8</ele>
        <time>2023-01-29T12:22:43.000Z</time>
      </trkpt>
      <trkpt lat="43.47005" lon="6.34535">
        <ele>183.8</ele>
        <time>2023-01-29T12:22:44.000Z</time>
      </trkpt>
      <trkpt lat="43.47005" lon="6.34536">
        <ele>183.9</ele>
        <time>2023-01-29T12:22:45.000Z</time>
      </trkpt>
      <trkpt lat="43.47005" lon="6.34536">
        <ele>184</ele>
        <time>2023-01-29T12:22:46.000Z</time>
      </trkpt>
      <trkpt lat="43.47005" lon="6.34536">
        <ele>183.9</ele>
        <time>2023-01-29T12:23:05.000Z</time>
      </trkpt>
      <trkpt lat="43.47005" lon="6.34536">
        <ele>184.1</ele>
        <time>2023-01-29T12:23:07.000Z</time>
      </trkpt>
      <trkpt lat="43.47005" lon="6.34536">
        <ele>183.9</ele>
        <time>2023-01-29T12:23:17.000Z</time>
      </trkpt>
      <trkpt lat="43.47005" lon="6.34536">
        <ele>183.9</ele>
        <time>2023-01-29T12:23:18.000Z</time>
      </trkpt>
      <trkpt lat="43.47005" lon="6.34536">
        <ele>183.9</ele>
        <time>2023-01-29T12:23:19.000Z</time>
      </trkpt>
      <trkpt lat="43.47005" lon="6.34536">
        <ele>183.9</ele>
        <time>2023-01-29T12:23:20.000Z</time>
      </trkpt>
      <trkpt lat="43.47005" lon="6.34537">
        <ele>184.1</ele>
        <time>2023-01-29T12:24:13.000Z</time>
      </trkpt>
      <trkpt lat="43.47004" lon="6.34536">
        <ele>184.1</ele>
        <time>2023-01-29T12:24:15.000Z</time>
      </trkpt>
      <trkpt lat="43.47005" lon="6.34537">
        <ele>184.1</ele>
        <time>2023-01-29T12:24:21.000Z</time>
      </trkpt>
      <trkpt lat="43.47005" lon="6.34537">
        <ele>184.1</ele>
        <time>2023-01-29T12:24:25.000Z</time>
      </trkpt>
      <trkpt lat="43.47005" lon="6.34537">
        <ele>184</ele>
        <time>2023-01-29T12:24:26.000Z</time>
      </trkpt>
      <trkpt lat="43.47005" lon="6.34537">
        <ele>183.9</ele>
        <time>2023-01-29T12:24:28.000Z</time>
      </trkpt>
      <trkpt lat="43.47005" lon="6.34537">
        <ele>184.1</ele>
        <time>2023-01-29T12:25:22.000Z</time>
      </trkpt>
      <trkpt lat="43.47002" lon="6.34538">
        <ele>183.8</ele>
        <time>2023-01-29T12:25:30.000Z</time>
      </trkpt>
      <trkpt lat="43.47003" lon="6.34538">
        <ele>184.1</ele>
        <time>2023-01-29T12:25:43.000Z</time>
      </trkpt>
      <trkpt lat="43.47002" lon="6.34539">
        <ele>184.3</ele>
        <time>2023-01-29T12:25:45.000Z</time>
      </trkpt>
      <trkpt lat="43.47003" lon="6.34539">
        <ele>184.2</ele>
        <time>2023-01-29T12:25:46.000Z</time>
      </trkpt>
      <trkpt lat="43.47003" lon="6.34539">
        <ele>184.1</ele>
        <time>2023-01-29T12:25:47.000Z</time>
      </trkpt>
      <trkpt lat="43.47003" lon="6.34539">
        <ele>184.2</ele>
        <time>2023-01-29T12:26:17.000Z</time>
      </trkpt>
      <trkpt lat="43.47003" lon="6.34539">
        <ele>184.3</ele>
        <time>2023-01-29T12:26:18.000Z</time>
      </trkpt>
      <trkpt lat="43.47003" lon="6.34539">
        <ele>184.4</ele>
        <time>2023-01-29T12:26:28.000Z</time>
      </trkpt>
      <trkpt lat="43.47003" lon="6.34539">
        <ele>184.4</ele>
        <time>2023-01-29T12:26:29.000Z</time>
      </trkpt>
      <trkpt lat="43.47003" lon="6.34539">
        <ele>184.3</ele>
        <time>2023-01-29T12:26:30.000Z</time>
      </trkpt>
      <trkpt lat="43.47003" lon="6.34539">
        <ele>184.4</ele>
        <time>2023-01-29T12:26:32.000Z</time>
      </trkpt>
      <trkpt lat="43.47003" lon="6.34539">
        <ele>184.4</ele>
        <time>2023-01-29T12:26:51.000Z</time>
      </trkpt>
      <trkpt lat="43.47003" lon="6.34539">
        <ele>184.4</ele>
        <time>2023-01-29T12:26:52.000Z</time>
      </trkpt>
      <trkpt lat="43.47003" lon="6.34539">
        <ele>184.7</ele>
        <time>2023-01-29T12:26:56.000Z</time>
      </trkpt>
      <trkpt lat="43.47001" lon="6.34526">
        <ele>185</ele>
        <time>2023-01-29T12:27:06.000Z</time>
      </trkpt>
      <trkpt lat="43.47001" lon="6.34527">
        <ele>185.1</ele>
        <time>2023-01-29T12:27:07.000Z</time>
      </trkpt>
      <trkpt lat="43.47" lon="6.34527">
        <ele>185.1</ele>
        <time>2023-01-29T12:27:11.000Z</time>
      </trkpt>
      <trkpt lat="43.47" lon="6.34526">
        <ele>185.1</ele>
        <time>2023-01-29T12:27:13.000Z</time>
      </trkpt>
      <trkpt lat="43.47" lon="6.34526">
        <ele>185</ele>
        <time>2023-01-29T12:27:53.000Z</time>
      </trkpt>
      <trkpt lat="43.47" lon="6.34526">
        <ele>185.1</ele>
        <time>2023-01-29T12:27:54.000Z</time>
      </trkpt>
      <trkpt lat="43.47" lon="6.34526">
        <ele>184.9</ele>
        <time>2023-01-29T12:27:59.000Z</time>
      </trkpt>
      <trkpt lat="43.47" lon="6.34526">
        <ele>184.9</ele>
        <time>2023-01-29T12:28:00.000Z</time>
      </trkpt>
      <trkpt lat="43.47" lon="6.34526">
        <ele>184.9</ele>
        <time>2023-01-29T12:28:02.000Z</time>
      </trkpt>
      <trkpt lat="43.46999" lon="6.34526">
        <ele>185.1</ele>
        <time>2023-01-29T12:28:04.000Z</time>
      </trkpt>
      <trkpt lat="43.46999" lon="6.34526">
        <ele>185.1</ele>
        <time>2023-01-29T12:28:05.000Z</time>
      </trkpt>
      <trkpt lat="43.46999" lon="6.34526">
        <ele>185.1</ele>
        <time>2023-01-29T12:28:06.000Z</time>
      </trkpt>
      <trkpt lat="43.46999" lon="6.34525">
        <ele>185</ele>
        <time>2023-01-29T12:28:07.000Z</time>
      </trkpt>
      <trkpt lat="43.46999" lon="6.34526">
        <ele>184.9</ele>
        <time>2023-01-29T12:28:08.000Z</time>
      </trkpt>
      <trkpt lat="43.46998" lon="6.34525">
        <ele>185</ele>
        <time>2023-01-29T12:28:11.000Z</time>
      </trkpt>
      <trkpt lat="43.46998" lon="6.34525">
        <ele>184.9</ele>
        <time>2023-01-29T12:28:12.000Z</time>
      </trkpt>
      <trkpt lat="43.46998" lon="6.34526">
        <ele>185.4</ele>
        <time>2023-01-29T12:28:29.000Z</time>
      </trkpt>
      <trkpt lat="43.46998" lon="6.34528">
        <ele>184.8</ele>
        <time>2023-01-29T12:28:36.000Z</time>
      </trkpt>
      <trkpt lat="43.46998" lon="6.34528">
        <ele>184.8</ele>
        <time>2023-01-29T12:28:37.000Z</time>
      </trkpt>
      <trkpt lat="43.46996" lon="6.34529">
        <ele>185.1</ele>
        <time>2023-01-29T12:28:44.000Z</time>
      </trkpt>
      <trkpt lat="43.46997" lon="6.3453">
        <ele>185.2</ele>
        <time>2023-01-29T12:28:46.000Z</time>
      </trkpt>
      <trkpt lat="43.46992" lon="6.34539">
        <ele>184.9</ele>
        <time>2023-01-29T12:29:01.000Z</time>
      </trkpt>
      <trkpt lat="43.46992" lon="6.34539">
        <ele>184.8</ele>
        <time>2023-01-29T12:29:05.000Z</time>
      </trkpt>
      <trkpt lat="43.46992" lon="6.34539">
        <ele>184.7</ele>
        <time>2023-01-29T12:29:06.000Z</time>
      </trkpt>
      <trkpt lat="43.46992" lon="6.34539">
        <ele>184.8</ele>
        <time>2023-01-29T12:29:15.000Z</time>
      </trkpt>
      <trkpt lat="43.46992" lon="6.34539">
        <ele>184.8</ele>
        <time>2023-01-29T12:29:16.000Z</time>
      </trkpt>
      <trkpt lat="43.46992" lon="6.34539">
        <ele>184.7</ele>
        <time>2023-01-29T12:29:25.000Z</time>
      </trkpt>
      <trkpt lat="43.46992" lon="6.34539">
        <ele>184.7</ele>
        <time>2023-01-29T12:29:26.000Z</time>
      </trkpt>
      <trkpt lat="43.46992" lon="6.3454">
        <ele>184.7</ele>
        <time>2023-01-29T12:30:02.000Z</time>
      </trkpt>
      <trkpt lat="43.46992" lon="6.3454">
        <ele>184.8</ele>
        <time>2023-01-29T12:30:03.000Z</time>
      </trkpt>
      <trkpt lat="43.46992" lon="6.34541">
        <ele>185</ele>
        <time>2023-01-29T12:30:40.000Z</time>
      </trkpt>
      <trkpt lat="43.46992" lon="6.34544">
        <ele>184.9</ele>
        <time>2023-01-29T12:30:50.000Z</time>
      </trkpt>
      <trkpt lat="43.46992" lon="6.34544">
        <ele>185.6</ele>
        <time>2023-01-29T12:31:09.000Z</time>
      </trkpt>
      <trkpt lat="43.46992" lon="6.34544">
        <ele>185.5</ele>
        <time>2023-01-29T12:31:10.000Z</time>
      </trkpt>
      <trkpt lat="43.46993" lon="6.34543">
        <ele>185.4</ele>
        <time>2023-01-29T12:31:37.000Z</time>
      </trkpt>
      <trkpt lat="43.46993" lon="6.34543">
        <ele>185.5</ele>
        <time>2023-01-29T12:31:38.000Z</time>
      </trkpt>
      <trkpt lat="43.46993" lon="6.34543">
        <ele>185.5</ele>
        <time>2023-01-29T12:31:43.000Z</time>
      </trkpt>
      <trkpt lat="43.46993" lon="6.34543">
        <ele>185.5</ele>
        <time>2023-01-29T12:31:44.000Z</time>
      </trkpt>
      <trkpt lat="43.46993" lon="6.34543">
        <ele>185.7</ele>
        <time>2023-01-29T12:31:45.000Z</time>
      </trkpt>
      <trkpt lat="43.46996" lon="6.34542">
        <ele>185.4</ele>
        <time>2023-01-29T12:31:52.000Z</time>
      </trkpt>
      <trkpt lat="43.46996" lon="6.34542">
        <ele>185.9</ele>
        <time>2023-01-29T12:31:56.000Z</time>
      </trkpt>
      <trkpt lat="43.47005" lon="6.34545">
        <ele>185.8</ele>
        <time>2023-01-29T12:32:12.000Z</time>
      </trkpt>
      <trkpt lat="43.47009" lon="6.34557">
        <ele>184.6</ele>
        <time>2023-01-29T12:32:27.000Z</time>
      </trkpt>
      <trkpt lat="43.47008" lon="6.34562">
        <ele>184.2</ele>
        <time>2023-01-29T12:32:34.000Z</time>
      </trkpt>
      <trkpt lat="43.47008" lon="6.34561">
        <ele>184.4</ele>
        <time>2023-01-29T12:32:36.000Z</time>
      </trkpt>
      <trkpt lat="43.47008" lon="6.34561">
        <ele>184.5</ele>
        <time>2023-01-29T12:32:37.000Z</time>
      </trkpt>
      <trkpt lat="43.47009" lon="6.34561">
        <ele>184.4</ele>
        <time>2023-01-29T12:32:42.000Z</time>
      </trkpt>
      <trkpt lat="43.47009" lon="6.34561">
        <ele>184.2</ele>
        <time>2023-01-29T12:32:46.000Z</time>
      </trkpt>
      <trkpt lat="43.47008" lon="6.34562">
        <ele>184.2</ele>
        <time>2023-01-29T12:32:51.000Z</time>
      </trkpt>
      <trkpt lat="43.47013" lon="6.34573">
        <ele>184.2</ele>
        <time>2023-01-29T12:33:00.000Z</time>
      </trkpt>
      <trkpt lat="43.47021" lon="6.34581">
        <ele>184.4</ele>
        <time>2023-01-29T12:33:08.000Z</time>
      </trkpt>
      <trkpt lat="43.47027" lon="6.34592">
        <ele>184.1</ele>
        <time>2023-01-29T12:33:19.000Z</time>
      </trkpt>
      <trkpt lat="43.47032" lon="6.34602">
        <ele>185</ele>
        <time>2023-01-29T12:33:30.000Z</time>
      </trkpt>
      <trkpt lat="43.47035" lon="6.34615">
        <ele>185.1</ele>
        <time>2023-01-29T12:33:40.000Z</time>
      </trkpt>
      <trkpt lat="43.47038" lon="6.34627">
        <ele>184.8</ele>
        <time>2023-01-29T12:33:50.000Z</time>
      </trkpt>
      <trkpt lat="43.47042" lon="6.34638">
        <ele>185.1</ele>
        <time>2023-01-29T12:33:58.000Z</time>
      </trkpt>
      <trkpt lat="43.47043" lon="6.3464">
        <ele>185.6</ele>
        <time>2023-01-29T12:34:03.000Z</time>
      </trkpt>
      <trkpt lat="43.47043" lon="6.34639">
        <ele>185.5</ele>
        <time>2023-01-29T12:34:04.000Z</time>
      </trkpt>
      <trkpt lat="43.47046" lon="6.34652">
        <ele>185.9</ele>
        <time>2023-01-29T12:34:13.000Z</time>
      </trkpt>
      <trkpt lat="43.47047" lon="6.34659">
        <ele>186.3</ele>
        <time>2023-01-29T12:34:22.000Z</time>
      </trkpt>
      <trkpt lat="43.47047" lon="6.34659">
        <ele>186.4</ele>
        <time>2023-01-29T12:34:24.000Z</time>
      </trkpt>
      <trkpt lat="43.47052" lon="6.3467">
        <ele>187.2</ele>
        <time>2023-01-29T12:34:35.000Z</time>
      </trkpt>
      <trkpt lat="43.47053" lon="6.34684">
        <ele>186.9</ele>
        <time>2023-01-29T12:34:46.000Z</time>
      </trkpt>
      <trkpt lat="43.47056" lon="6.34696">
        <ele>187</ele>
        <time>2023-01-29T12:34:54.000Z</time>
      </trkpt>
      <trkpt lat="43.47061" lon="6.34708">
        <ele>187.3</ele>
        <time>2023-01-29T12:35:04.000Z</time>
      </trkpt>
      <trkpt lat="43.47062" lon="6.3472">
        <ele>187.5</ele>
        <time>2023-01-29T12:35:12.000Z</time>
      </trkpt>
      <trkpt lat="43.47065" lon="6.34733">
        <ele>187.6</ele>
        <time>2023-01-29T12:35:20.000Z</time>
      </trkpt>
      <trkpt lat="43.47067" lon="6.34745">
        <ele>187.7</ele>
        <time>2023-01-29T12:35:27.000Z</time>
      </trkpt>
      <trkpt lat="43.4707" lon="6.34758">
        <ele>187.6</ele>
        <time>2023-01-29T12:35:36.000Z</time>
      </trkpt>
      <trkpt lat="43.47073" lon="6.34771">
        <ele>187.7</ele>
        <time>2023-01-29T12:35:46.000Z</time>
      </trkpt>
      <trkpt lat="43.47076" lon="6.34782">
        <ele>187.6</ele>
        <time>2023-01-29T12:35:54.000Z</time>
      </trkpt>
      <trkpt lat="43.47079" lon="6.34795">
        <ele>187.7</ele>
        <time>2023-01-29T12:36:02.000Z</time>
      </trkpt>
      <trkpt lat="43.47088" lon="6.34789">
        <ele>187</ele>
        <time>2023-01-29T12:36:10.000Z</time>
      </trkpt>
      <trkpt lat="43.47094" lon="6.34779">
        <ele>187</ele>
        <time>2023-01-29T12:36:16.000Z</time>
      </trkpt>
      <trkpt lat="43.47101" lon="6.34771">
        <ele>186.8</ele>
        <time>2023-01-29T12:36:27.000Z</time>
      </trkpt>
      <trkpt lat="43.47108" lon="6.34761">
        <ele>186.8</ele>
        <time>2023-01-29T12:36:36.000Z</time>
      </trkpt>
      <trkpt lat="43.47115" lon="6.34751">
        <ele>186.9</ele>
        <time>2023-01-29T12:36:46.000Z</time>
      </trkpt>
      <trkpt lat="43.47123" lon="6.34742">
        <ele>187</ele>
        <time>2023-01-29T12:36:54.000Z</time>
      </trkpt>
      <trkpt lat="43.4713" lon="6.34734">
        <ele>187.4</ele>
        <time>2023-01-29T12:37:04.000Z</time>
      </trkpt>
      <trkpt lat="43.47138" lon="6.34727">
        <ele>187.9</ele>
        <time>2023-01-29T12:37:12.000Z</time>
      </trkpt>
      <trkpt lat="43.47143" lon="6.34716">
        <ele>188.1</ele>
        <time>2023-01-29T12:37:20.000Z</time>
      </trkpt>
      <trkpt lat="43.47144" lon="6.34703">
        <ele>188</ele>
        <time>2023-01-29T12:37:29.000Z</time>
      </trkpt>
      <trkpt lat="43.47147" lon="6.3469">
        <ele>188.1</ele>
        <time>2023-01-29T12:37:37.000Z</time>
      </trkpt>
      <trkpt lat="43.4715" lon="6.34678">
        <ele>188.1</ele>
        <time>2023-01-29T12:37:44.000Z</time>
      </trkpt>
      <trkpt lat="43.47153" lon="6.34666">
        <ele>187.9</ele>
        <time>2023-01-29T12:37:52.000Z</time>
      </trkpt>
      <trkpt lat="43.47155" lon="6.34653">
        <ele>187.7</ele>
        <time>2023-01-29T12:38:00.000Z</time>
      </trkpt>
      <trkpt lat="43.47157" lon="6.34641">
        <ele>187.5</ele>
        <time>2023-01-29T12:38:08.000Z</time>
      </trkpt>
      <trkpt lat="43.47159" lon="6.34629">
        <ele>187.4</ele>
        <time>2023-01-29T12:38:16.000Z</time>
      </trkpt>
      <trkpt lat="43.47162" lon="6.34616">
        <ele>187.5</ele>
        <time>2023-01-29T12:38:24.000Z</time>
      </trkpt>
      <trkpt lat="43.47164" lon="6.34603">
        <ele>187.2</ele>
        <time>2023-01-29T12:38:32.000Z</time>
      </trkpt>
      <trkpt lat="43.47167" lon="6.34591">
        <ele>187.7</ele>
        <time>2023-01-29T12:38:40.000Z</time>
      </trkpt>
      <trkpt lat="43.4717" lon="6.34577">
        <ele>188.5</ele>
        <time>2023-01-29T12:38:49.000Z</time>
      </trkpt>
      <trkpt lat="43.47172" lon="6.34564">
        <ele>188.5</ele>
        <time>2023-01-29T12:38:57.000Z</time>
      </trkpt>
      <trkpt lat="43.47172" lon="6.34552">
        <ele>188.7</ele>
        <time>2023-01-29T12:39:06.000Z</time>
      </trkpt>
      <trkpt lat="43.47174" lon="6.34539">
        <ele>188.7</ele>
        <time>2023-01-29T12:39:15.000Z</time>
      </trkpt>
      <trkpt lat="43.47177" lon="6.34525">
        <ele>189.2</ele>
        <time>2023-01-29T12:39:24.000Z</time>
      </trkpt>
      <trkpt lat="43.47182" lon="6.34514">
        <ele>189.6</ele>
        <time>2023-01-29T12:39:31.000Z</time>
      </trkpt>
      <trkpt lat="43.47186" lon="6.34502">
        <ele>189.7</ele>
        <time>2023-01-29T12:39:40.000Z</time>
      </trkpt>
      <trkpt lat="43.47191" lon="6.34491">
        <ele>190.3</ele>
        <time>2023-01-29T12:39:52.000Z</time>
      </trkpt>
      <trkpt lat="43.472" lon="6.34489">
        <ele>190.9</ele>
        <time>2023-01-29T12:40:01.000Z</time>
      </trkpt>
      <trkpt lat="43.4721" lon="6.34489">
        <ele>190.6</ele>
        <time>2023-01-29T12:40:12.000Z</time>
      </trkpt>
      <trkpt lat="43.47219" lon="6.34491">
        <ele>191.2</ele>
        <time>2023-01-29T12:40:21.000Z</time>
      </trkpt>
      <trkpt lat="43.47228" lon="6.34486">
        <ele>191.6</ele>
        <time>2023-01-29T12:40:28.000Z</time>
      </trkpt>
      <trkpt lat="43.47234" lon="6.34475">
        <ele>191.7</ele>
        <time>2023-01-29T12:40:36.000Z</time>
      </trkpt>
      <trkpt lat="43.47238" lon="6.34463">
        <ele>192.3</ele>
        <time>2023-01-29T12:40:44.000Z</time>
      </trkpt>
      <trkpt lat="43.47241" lon="6.3445">
        <ele>192.8</ele>
        <time>2023-01-29T12:40:52.000Z</time>
      </trkpt>
      <trkpt lat="43.47245" lon="6.34438">
        <ele>193.1</ele>
        <time>2023-01-29T12:41:00.000Z</time>
      </trkpt>
      <trkpt lat="43.47249" lon="6.34426">
        <ele>192.9</ele>
        <time>2023-01-29T12:41:09.000Z</time>
      </trkpt>
      <trkpt lat="43.47251" lon="6.34413">
        <ele>192.9</ele>
        <time>2023-01-29T12:41:18.000Z</time>
      </trkpt>
      <trkpt lat="43.47252" lon="6.344">
        <ele>192.2</ele>
        <time>2023-01-29T12:41:27.000Z</time>
      </trkpt>
      <trkpt lat="43.47255" lon="6.34388">
        <ele>192.2</ele>
        <time>2023-01-29T12:41:36.000Z</time>
      </trkpt>
      <trkpt lat="43.47258" lon="6.34376">
        <ele>191.6</ele>
        <time>2023-01-29T12:41:45.000Z</time>
      </trkpt>
      <trkpt lat="43.47262" lon="6.34363">
        <ele>191.4</ele>
        <time>2023-01-29T12:41:53.000Z</time>
      </trkpt>
      <trkpt lat="43.47266" lon="6.34351">
        <ele>190.8</ele>
        <time>2023-01-29T12:42:02.000Z</time>
      </trkpt>
      <trkpt lat="43.47274" lon="6.34342">
        <ele>190.3</ele>
        <time>2023-01-29T12:42:08.000Z</time>
      </trkpt>
      <trkpt lat="43.4728" lon="6.34331">
        <ele>189.8</ele>
        <time>2023-01-29T12:42:16.000Z</time>
      </trkpt>
      <trkpt lat="43.47283" lon="6.34319">
        <ele>189.1</ele>
        <time>2023-01-29T12:42:24.000Z</time>
      </trkpt>
      <trkpt lat="43.47283" lon="6.34306">
        <ele>188.2</ele>
        <time>2023-01-29T12:42:33.000Z</time>
      </trkpt>
      <trkpt lat="43.47286" lon="6.34293">
        <ele>187.3</ele>
        <time>2023-01-29T12:42:42.000Z</time>
      </trkpt>
      <trkpt lat="43.4729" lon="6.34281">
        <ele>186.9</ele>
        <time>2023-01-29T12:42:49.000Z</time>
      </trkpt>
      <trkpt lat="43.47293" lon="6.34268">
        <ele>186.8</ele>
        <time>2023-01-29T12:42:57.000Z</time>
      </trkpt>
      <trkpt lat="43.47292" lon="6.34258">
        <ele>186.5</ele>
        <time>2023-01-29T12:43:05.000Z</time>
      </trkpt>
      <trkpt lat="43.47291" lon="6.34258">
        <ele>186.5</ele>
        <time>2023-01-29T12:43:12.000Z</time>
      </trkpt>
      <trkpt lat="43.47284" lon="6.34249">
        <ele>185.8</ele>
        <time>2023-01-29T12:43:20.000Z</time>
      </trkpt>
      <trkpt lat="43.47275" lon="6.34245">
        <ele>185.5</ele>
        <time>2023-01-29T12:43:27.000Z</time>
      </trkpt>
      <trkpt lat="43.47267" lon="6.34237">
        <ele>184.7</ele>
        <time>2023-01-29T12:43:35.000Z</time>
      </trkpt>
      <trkpt lat="43.4726" lon="6.34227">
        <ele>184.2</ele>
        <time>2023-01-29T12:43:43.000Z</time>
      </trkpt>
      <trkpt lat="43.47256" lon="6.34214">
        <ele>184</ele>
        <time>2023-01-29T12:43:53.000Z</time>
      </trkpt>
      <trkpt lat="43.47253" lon="6.34202">
        <ele>184.2</ele>
        <time>2023-01-29T12:44:01.000Z</time>
      </trkpt>
      <trkpt lat="43.47248" lon="6.34191">
        <ele>184.5</ele>
        <time>2023-01-29T12:44:10.000Z</time>
      </trkpt>
      <trkpt lat="43.47242" lon="6.3418">
        <ele>184.4</ele>
        <time>2023-01-29T12:44:18.000Z</time>
      </trkpt>
      <trkpt lat="43.47234" lon="6.34174">
        <ele>184.1</ele>
        <time>2023-01-29T12:44:25.000Z</time>
      </trkpt>
      <trkpt lat="43.47225" lon="6.34169">
        <ele>183.7</ele>
        <time>2023-01-29T12:44:33.000Z</time>
      </trkpt>
      <trkpt lat="43.47223" lon="6.34168">
        <ele>183.6</ele>
        <time>2023-01-29T12:44:38.000Z</time>
      </trkpt>
      <trkpt lat="43.47223" lon="6.34168">
        <ele>183.7</ele>
        <time>2023-01-29T12:44:40.000Z</time>
      </trkpt>
      <trkpt lat="43.47223" lon="6.34167">
        <ele>183.8</ele>
        <time>2023-01-29T12:44:47.000Z</time>
      </trkpt>
      <trkpt lat="43.47222" lon="6.34167">
        <ele>184</ele>
        <time>2023-01-29T12:44:51.000Z</time>
      </trkpt>
      <trkpt lat="43.47222" lon="6.34167">
        <ele>184.1</ele>
        <time>2023-01-29T12:44:52.000Z</time>
      </trkpt>
      <trkpt lat="43.47222" lon="6.34167">
        <ele>184</ele>
        <time>2023-01-29T12:44:55.000Z</time>
      </trkpt>
      <trkpt lat="43.47222" lon="6.34167">
        <ele>184</ele>
        <time>2023-01-29T12:44:56.000Z</time>
      </trkpt>
      <trkpt lat="43.47222" lon="6.34167">
        <ele>183.9</ele>
        <time>2023-01-29T12:44:58.000Z</time>
      </trkpt>
      <trkpt lat="43.47213" lon="6.34169">
        <ele>183.9</ele>
        <time>2023-01-29T12:45:09.000Z</time>
      </trkpt>
      <trkpt lat="43.47208" lon="6.34169">
        <ele>183.7</ele>
        <time>2023-01-29T12:45:17.000Z</time>
      </trkpt>
      <trkpt lat="43.47207" lon="6.34169">
        <ele>183.7</ele>
        <time>2023-01-29T12:45:19.000Z</time>
      </trkpt>
      <trkpt lat="43.47198" lon="6.3417">
        <ele>183.2</ele>
        <time>2023-01-29T12:45:26.000Z</time>
      </trkpt>
      <trkpt lat="43.47189" lon="6.34172">
        <ele>183.5</ele>
        <time>2023-01-29T12:45:33.000Z</time>
      </trkpt>
      <trkpt lat="43.47179" lon="6.34171">
        <ele>183.4</ele>
        <time>2023-01-29T12:45:42.000Z</time>
      </trkpt>
      <trkpt lat="43.4717" lon="6.34167">
        <ele>183.7</ele>
        <time>2023-01-29T12:45:49.000Z</time>
      </trkpt>
      <trkpt lat="43.47161" lon="6.34165">
        <ele>183.9</ele>
        <time>2023-01-29T12:45:56.000Z</time>
      </trkpt>
      <trkpt lat="43.47152" lon="6.3416">
        <ele>183.4</ele>
        <time>2023-01-29T12:46:05.000Z</time>
      </trkpt>
      <trkpt lat="43.4715" lon="6.34158">
        <ele>183.3</ele>
        <time>2023-01-29T12:46:09.000Z</time>
      </trkpt>
      <trkpt lat="43.4715" lon="6.34158">
        <ele>183.3</ele>
        <time>2023-01-29T12:46:10.000Z</time>
      </trkpt>
      <trkpt lat="43.47142" lon="6.34151">
        <ele>183.5</ele>
        <time>2023-01-29T12:46:18.000Z</time>
      </trkpt>
      <trkpt lat="43.47134" lon="6.34142">
        <ele>183.2</ele>
        <time>2023-01-29T12:46:28.000Z</time>
      </trkpt>
      <trkpt lat="43.47132" lon="6.3414">
        <ele>183.6</ele>
        <time>2023-01-29T12:46:33.000Z</time>
      </trkpt>
      <trkpt lat="43.47132" lon="6.34139">
        <ele>183.5</ele>
        <time>2023-01-29T12:46:39.000Z</time>
      </trkpt>
      <trkpt lat="43.4713" lon="6.34136">
        <ele>183.7</ele>
        <time>2023-01-29T12:46:50.000Z</time>
      </trkpt>
      <trkpt lat="43.4713" lon="6.34136">
        <ele>183.9</ele>
        <time>2023-01-29T12:47:02.000Z</time>
      </trkpt>
      <trkpt lat="43.4713" lon="6.34136">
        <ele>183.9</ele>
        <time>2023-01-29T12:47:03.000Z</time>
      </trkpt>
      <trkpt lat="43.47129" lon="6.34136">
        <ele>183.7</ele>
        <time>2023-01-29T12:47:23.000Z</time>
      </trkpt>
      <trkpt lat="43.47129" lon="6.34136">
        <ele>183.8</ele>
        <time>2023-01-29T12:47:24.000Z</time>
      </trkpt>
      <trkpt lat="43.47129" lon="6.34136">
        <ele>183.7</ele>
        <time>2023-01-29T12:47:30.000Z</time>
      </trkpt>
      <trkpt lat="43.47129" lon="6.34137">
        <ele>183.9</ele>
        <time>2023-01-29T12:47:33.000Z</time>
      </trkpt>
      <trkpt lat="43.47129" lon="6.34137">
        <ele>183.9</ele>
        <time>2023-01-29T12:47:39.000Z</time>
      </trkpt>
      <trkpt lat="43.47129" lon="6.34137">
        <ele>184</ele>
        <time>2023-01-29T12:47:40.000Z</time>
      </trkpt>
      <trkpt lat="43.47129" lon="6.34137">
        <ele>183.9</ele>
        <time>2023-01-29T12:47:43.000Z</time>
      </trkpt>
      <trkpt lat="43.47129" lon="6.34137">
        <ele>184</ele>
        <time>2023-01-29T12:47:44.000Z</time>
      </trkpt>
      <trkpt lat="43.47129" lon="6.34137">
        <ele>184</ele>
        <time>2023-01-29T12:47:48.000Z</time>
      </trkpt>
      <trkpt lat="43.47128" lon="6.34138">
        <ele>184.2</ele>
        <time>2023-01-29T12:47:51.000Z</time>
      </trkpt>
      <trkpt lat="43.47128" lon="6.34138">
        <ele>183.8</ele>
        <time>2023-01-29T12:47:59.000Z</time>
      </trkpt>
      <trkpt lat="43.47119" lon="6.34131">
        <ele>183.3</ele>
        <time>2023-01-29T12:48:18.000Z</time>
      </trkpt>
      <trkpt lat="43.47115" lon="6.34124">
        <ele>183.3</ele>
        <time>2023-01-29T12:48:32.000Z</time>
      </trkpt>
      <trkpt lat="43.47115" lon="6.34124">
        <ele>183.3</ele>
        <time>2023-01-29T12:48:33.000Z</time>
      </trkpt>
      <trkpt lat="43.47115" lon="6.34124">
        <ele>183.2</ele>
        <time>2023-01-29T12:48:34.000Z</time>
      </trkpt>
      <trkpt lat="43.47116" lon="6.34124">
        <ele>183.3</ele>
        <time>2023-01-29T12:48:35.000Z</time>
      </trkpt>
      <trkpt lat="43.47116" lon="6.34124">
        <ele>183.3</ele>
        <time>2023-01-29T12:48:36.000Z</time>
      </trkpt>
      <trkpt lat="43.47116" lon="6.34124">
        <ele>183.3</ele>
        <time>2023-01-29T12:48:39.000Z</time>
      </trkpt>
      <trkpt lat="43.4711" lon="6.34114">
        <ele>183.5</ele>
        <time>2023-01-29T12:48:49.000Z</time>
      </trkpt>
      <trkpt lat="43.47109" lon="6.34113">
        <ele>183.5</ele>
        <time>2023-01-29T12:48:52.000Z</time>
      </trkpt>
      <trkpt lat="43.47108" lon="6.34112">
        <ele>183.4</ele>
        <time>2023-01-29T12:48:57.000Z</time>
      </trkpt>
      <trkpt lat="43.47105" lon="6.34109">
        <ele>183.6</ele>
        <time>2023-01-29T12:49:02.000Z</time>
      </trkpt>
      <trkpt lat="43.47105" lon="6.34109">
        <ele>183.6</ele>
        <time>2023-01-29T12:49:03.000Z</time>
      </trkpt>
      <trkpt lat="43.47103" lon="6.34108">
        <ele>183.5</ele>
        <time>2023-01-29T12:49:07.000Z</time>
      </trkpt>
      <trkpt lat="43.47103" lon="6.34108">
        <ele>183.6</ele>
        <time>2023-01-29T12:49:08.000Z</time>
      </trkpt>
      <trkpt lat="43.47102" lon="6.34107">
        <ele>183.6</ele>
        <time>2023-01-29T12:49:10.000Z</time>
      </trkpt>
      <trkpt lat="43.47101" lon="6.34107">
        <ele>183.5</ele>
        <time>2023-01-29T12:49:11.000Z</time>
      </trkpt>
      <trkpt lat="43.47096" lon="6.34097">
        <ele>184</ele>
        <time>2023-01-29T12:49:22.000Z</time>
      </trkpt>
      <trkpt lat="43.47091" lon="6.34086">
        <ele>184.2</ele>
        <time>2023-01-29T12:49:31.000Z</time>
      </trkpt>
      <trkpt lat="43.47085" lon="6.34082">
        <ele>184</ele>
        <time>2023-01-29T12:49:39.000Z</time>
      </trkpt>
      <trkpt lat="43.47085" lon="6.34082">
        <ele>184</ele>
        <time>2023-01-29T12:49:40.000Z</time>
      </trkpt>
      <trkpt lat="43.47085" lon="6.34082">
        <ele>183.9</ele>
        <time>2023-01-29T12:49:41.000Z</time>
      </trkpt>
      <trkpt lat="43.47084" lon="6.34082">
        <ele>184.1</ele>
        <time>2023-01-29T12:49:43.000Z</time>
      </trkpt>
      <trkpt lat="43.47084" lon="6.34082">
        <ele>184.2</ele>
        <time>2023-01-29T12:49:44.000Z</time>
      </trkpt>
      <trkpt lat="43.47084" lon="6.34082">
        <ele>184.1</ele>
        <time>2023-01-29T12:49:45.000Z</time>
      </trkpt>
      <trkpt lat="43.47083" lon="6.34068">
        <ele>184.1</ele>
        <time>2023-01-29T12:49:54.000Z</time>
      </trkpt>
      <trkpt lat="43.4708" lon="6.34056">
        <ele>183.8</ele>
        <time>2023-01-29T12:50:03.000Z</time>
      </trkpt>
      <trkpt lat="43.47073" lon="6.34046">
        <ele>183.2</ele>
        <time>2023-01-29T12:50:11.000Z</time>
      </trkpt>
      <trkpt lat="43.47066" lon="6.34038">
        <ele>182.1</ele>
        <time>2023-01-29T12:50:18.000Z</time>
      </trkpt>
      <trkpt lat="43.47063" lon="6.34026">
        <ele>181.7</ele>
        <time>2023-01-29T12:50:27.000Z</time>
      </trkpt>
      <trkpt lat="43.47067" lon="6.34015">
        <ele>183.5</ele>
        <time>2023-01-29T12:50:41.000Z</time>
      </trkpt>
      <trkpt lat="43.47074" lon="6.34005">
        <ele>184.2</ele>
        <time>2023-01-29T12:50:50.000Z</time>
      </trkpt>
      <trkpt lat="43.47078" lon="6.33993">
        <ele>185.1</ele>
        <time>2023-01-29T12:51:00.000Z</time>
      </trkpt>
      <trkpt lat="43.47084" lon="6.33983">
        <ele>185.4</ele>
        <time>2023-01-29T12:51:07.000Z</time>
      </trkpt>
      <trkpt lat="43.47089" lon="6.33971">
        <ele>185.8</ele>
        <time>2023-01-29T12:51:15.000Z</time>
      </trkpt>
      <trkpt lat="43.47092" lon="6.33958">
        <ele>185.9</ele>
        <time>2023-01-29T12:51:22.000Z</time>
      </trkpt>
      <trkpt lat="43.47097" lon="6.33947">
        <ele>186.2</ele>
        <time>2023-01-29T12:51:32.000Z</time>
      </trkpt>
      <trkpt lat="43.47106" lon="6.33941">
        <ele>186.2</ele>
        <time>2023-01-29T12:51:40.000Z</time>
      </trkpt>
      <trkpt lat="43.47112" lon="6.3393">
        <ele>186.2</ele>
        <time>2023-01-29T12:51:46.000Z</time>
      </trkpt>
      <trkpt lat="43.47109" lon="6.33923">
        <ele>185.8</ele>
        <time>2023-01-29T12:51:58.000Z</time>
      </trkpt>
      <trkpt lat="43.47109" lon="6.33924">
        <ele>185.8</ele>
        <time>2023-01-29T12:52:03.000Z</time>
      </trkpt>
      <trkpt lat="43.47108" lon="6.33924">
        <ele>185.8</ele>
        <time>2023-01-29T12:52:05.000Z</time>
      </trkpt>
      <trkpt lat="43.47108" lon="6.33925">
        <ele>186.1</ele>
        <time>2023-01-29T12:52:08.000Z</time>
      </trkpt>
      <trkpt lat="43.47108" lon="6.33925">
        <ele>186</ele>
        <time>2023-01-29T12:52:09.000Z</time>
      </trkpt>
      <trkpt lat="43.47107" lon="6.33925">
        <ele>185.9</ele>
        <time>2023-01-29T12:52:12.000Z</time>
      </trkpt>
      <trkpt lat="43.47115" lon="6.33919">
        <ele>185.2</ele>
        <time>2023-01-29T12:52:23.000Z</time>
      </trkpt>
      <trkpt lat="43.47122" lon="6.33909">
        <ele>185</ele>
        <time>2023-01-29T12:52:30.000Z</time>
      </trkpt>
      <trkpt lat="43.47122" lon="6.33895">
        <ele>184.2</ele>
        <time>2023-01-29T12:52:38.000Z</time>
      </trkpt>
      <trkpt lat="43.47117" lon="6.33883">
        <ele>183.8</ele>
        <time>2023-01-29T12:52:49.000Z</time>
      </trkpt>
      <trkpt lat="43.47114" lon="6.3387">
        <ele>183.3</ele>
        <time>2023-01-29T12:52:57.000Z</time>
      </trkpt>
      <trkpt lat="43.47118" lon="6.33858">
        <ele>182.7</ele>
        <time>2023-01-29T12:53:06.000Z</time>
      </trkpt>
      <trkpt lat="43.47126" lon="6.33849">
        <ele>181.9</ele>
        <time>2023-01-29T12:53:18.000Z</time>
      </trkpt>
      <trkpt lat="43.4713" lon="6.33838">
        <ele>181.2</ele>
        <time>2023-01-29T12:53:25.000Z</time>
      </trkpt>
      <trkpt lat="43.47135" lon="6.33829">
        <ele>180.9</ele>
        <time>2023-01-29T12:53:34.000Z</time>
      </trkpt>
      <trkpt lat="43.47135" lon="6.33828">
        <ele>181</ele>
        <time>2023-01-29T12:53:35.000Z</time>
      </trkpt>
      <trkpt lat="43.47135" lon="6.33815">
        <ele>180.7</ele>
        <time>2023-01-29T12:53:50.000Z</time>
      </trkpt>
      <trkpt lat="43.47137" lon="6.33801">
        <ele>181</ele>
        <time>2023-01-29T12:54:09.000Z</time>
      </trkpt>
      <trkpt lat="43.47141" lon="6.3379">
        <ele>181.5</ele>
        <time>2023-01-29T12:54:18.000Z</time>
      </trkpt>
      <trkpt lat="43.47142" lon="6.33777">
        <ele>181.8</ele>
        <time>2023-01-29T12:54:28.000Z</time>
      </trkpt>
      <trkpt lat="43.47143" lon="6.33764">
        <ele>182</ele>
        <time>2023-01-29T12:54:37.000Z</time>
      </trkpt>
      <trkpt lat="43.47146" lon="6.33752">
        <ele>182.1</ele>
        <time>2023-01-29T12:54:49.000Z</time>
      </trkpt>
      <trkpt lat="43.47147" lon="6.3375">
        <ele>182</ele>
        <time>2023-01-29T12:54:54.000Z</time>
      </trkpt>
      <trkpt lat="43.47147" lon="6.3375">
        <ele>181.9</ele>
        <time>2023-01-29T12:54:56.000Z</time>
      </trkpt>
      <trkpt lat="43.47152" lon="6.33739">
        <ele>181.6</ele>
        <time>2023-01-29T12:55:06.000Z</time>
      </trkpt>
      <trkpt lat="43.47159" lon="6.33729">
        <ele>181.2</ele>
        <time>2023-01-29T12:55:14.000Z</time>
      </trkpt>
      <trkpt lat="43.47162" lon="6.33717">
        <ele>180.9</ele>
        <time>2023-01-29T12:55:22.000Z</time>
      </trkpt>
      <trkpt lat="43.47168" lon="6.33706">
        <ele>180.8</ele>
        <time>2023-01-29T12:55:32.000Z</time>
      </trkpt>
      <trkpt lat="43.4717" lon="6.33694">
        <ele>179.8</ele>
        <time>2023-01-29T12:55:43.000Z</time>
      </trkpt>
      <trkpt lat="43.47172" lon="6.33682">
        <ele>179.5</ele>
        <time>2023-01-29T12:55:50.000Z</time>
      </trkpt>
      <trkpt lat="43.47173" lon="6.33669">
        <ele>178.9</ele>
        <time>2023-01-29T12:55:58.000Z</time>
      </trkpt>
      <trkpt lat="43.47178" lon="6.33656">
        <ele>178.8</ele>
        <time>2023-01-29T12:56:08.000Z</time>
      </trkpt>
      <trkpt lat="43.47181" lon="6.33644">
        <ele>178.4</ele>
        <time>2023-01-29T12:56:17.000Z</time>
      </trkpt>
      <trkpt lat="43.47187" lon="6.33632">
        <ele>178.1</ele>
        <time>2023-01-29T12:56:27.000Z</time>
      </trkpt>
      <trkpt lat="43.4719" lon="6.3362">
        <ele>177.5</ele>
        <time>2023-01-29T12:56:34.000Z</time>
      </trkpt>
      <trkpt lat="43.47192" lon="6.33608">
        <ele>177.7</ele>
        <time>2023-01-29T12:56:43.000Z</time>
      </trkpt>
      <trkpt lat="43.47196" lon="6.33596">
        <ele>177.4</ele>
        <time>2023-01-29T12:56:50.000Z</time>
      </trkpt>
      <trkpt lat="43.47201" lon="6.33584">
        <ele>177.3</ele>
        <time>2023-01-29T12:56:58.000Z</time>
      </trkpt>
      <trkpt lat="43.47203" lon="6.33572">
        <ele>176.4</ele>
        <time>2023-01-29T12:57:11.000Z</time>
      </trkpt>
      <trkpt lat="43.47208" lon="6.3356">
        <ele>176.3</ele>
        <time>2023-01-29T12:57:17.000Z</time>
      </trkpt>
      <trkpt lat="43.47207" lon="6.33551">
        <ele>176.1</ele>
        <time>2023-01-29T12:57:31.000Z</time>
      </trkpt>
      <trkpt lat="43.47207" lon="6.33551">
        <ele>176.3</ele>
        <time>2023-01-29T12:57:32.000Z</time>
      </trkpt>
      <trkpt lat="43.47207" lon="6.33551">
        <ele>176.3</ele>
        <time>2023-01-29T12:57:33.000Z</time>
      </trkpt>
      <trkpt lat="43.47207" lon="6.33551">
        <ele>176.2</ele>
        <time>2023-01-29T12:57:34.000Z</time>
      </trkpt>
      <trkpt lat="43.47211" lon="6.3354">
        <ele>175.9</ele>
        <time>2023-01-29T12:57:49.000Z</time>
      </trkpt>
      <trkpt lat="43.47216" lon="6.33529">
        <ele>175.7</ele>
        <time>2023-01-29T12:57:56.000Z</time>
      </trkpt>
      <trkpt lat="43.47221" lon="6.33517">
        <ele>175.1</ele>
        <time>2023-01-29T12:58:03.000Z</time>
      </trkpt>
      <trkpt lat="43.47225" lon="6.33505">
        <ele>175.2</ele>
        <time>2023-01-29T12:58:11.000Z</time>
      </trkpt>
      <trkpt lat="43.47229" lon="6.33494">
        <ele>174.7</ele>
        <time>2023-01-29T12:58:18.000Z</time>
      </trkpt>
      <trkpt lat="43.47233" lon="6.33482">
        <ele>174.5</ele>
        <time>2023-01-29T12:58:26.000Z</time>
      </trkpt>
      <trkpt lat="43.47238" lon="6.33472">
        <ele>174.6</ele>
        <time>2023-01-29T12:58:34.000Z</time>
      </trkpt>
      <trkpt lat="43.47242" lon="6.3346">
        <ele>174.5</ele>
        <time>2023-01-29T12:58:43.000Z</time>
      </trkpt>
      <trkpt lat="43.47243" lon="6.3346">
        <ele>174.3</ele>
        <time>2023-01-29T12:58:46.000Z</time>
      </trkpt>
      <trkpt lat="43.47243" lon="6.3346">
        <ele>174.3</ele>
        <time>2023-01-29T12:58:48.000Z</time>
      </trkpt>
      <trkpt lat="43.47243" lon="6.3346">
        <ele>174.3</ele>
        <time>2023-01-29T12:58:49.000Z</time>
      </trkpt>
      <trkpt lat="43.47243" lon="6.3346">
        <ele>174.5</ele>
        <time>2023-01-29T12:59:04.000Z</time>
      </trkpt>
      <trkpt lat="43.47243" lon="6.3346">
        <ele>174.5</ele>
        <time>2023-01-29T12:59:05.000Z</time>
      </trkpt>
      <trkpt lat="43.47243" lon="6.3346">
        <ele>174.6</ele>
        <time>2023-01-29T12:59:07.000Z</time>
      </trkpt>
      <trkpt lat="43.47244" lon="6.3346">
        <ele>174.8</ele>
        <time>2023-01-29T12:59:09.000Z</time>
      </trkpt>
      <trkpt lat="43.47243" lon="6.3346">
        <ele>174.9</ele>
        <time>2023-01-29T12:59:12.000Z</time>
      </trkpt>
      <trkpt lat="43.47244" lon="6.3346">
        <ele>175.1</ele>
        <time>2023-01-29T12:59:14.000Z</time>
      </trkpt>
      <trkpt lat="43.47243" lon="6.3346">
        <ele>175</ele>
        <time>2023-01-29T12:59:34.000Z</time>
      </trkpt>
      <trkpt lat="43.47243" lon="6.33462">
        <ele>174.6</ele>
        <time>2023-01-29T12:59:43.000Z</time>
      </trkpt>
      <trkpt lat="43.47243" lon="6.33462">
        <ele>174.1</ele>
        <time>2023-01-29T12:59:48.000Z</time>
      </trkpt>
      <trkpt lat="43.47243" lon="6.33462">
        <ele>174.2</ele>
        <time>2023-01-29T12:59:49.000Z</time>
      </trkpt>
      <trkpt lat="43.47244" lon="6.33462">
        <ele>174.3</ele>
        <time>2023-01-29T13:00:01.000Z</time>
      </trkpt>
      <trkpt lat="43.47244" lon="6.33462">
        <ele>174.3</ele>
        <time>2023-01-29T13:00:02.000Z</time>
      </trkpt>
      <trkpt lat="43.47243" lon="6.33461">
        <ele>174.5</ele>
        <time>2023-01-29T13:00:09.000Z</time>
      </trkpt>
      <trkpt lat="43.47243" lon="6.3346">
        <ele>174.4</ele>
        <time>2023-01-29T13:00:13.000Z</time>
      </trkpt>
      <trkpt lat="43.47243" lon="6.3346">
        <ele>174.5</ele>
        <time>2023-01-29T13:00:28.000Z</time>
      </trkpt>
      <trkpt lat="43.47243" lon="6.3346">
        <ele>174.4</ele>
        <time>2023-01-29T13:00:29.000Z</time>
      </trkpt>
      <trkpt lat="43.47243" lon="6.3346">
        <ele>174.5</ele>
        <time>2023-01-29T13:00:34.000Z</time>
      </trkpt>
      <trkpt lat="43.47243" lon="6.3346">
        <ele>174.6</ele>
        <time>2023-01-29T13:00:35.000Z</time>
      </trkpt>
      <trkpt lat="43.47243" lon="6.33459">
        <ele>174.6</ele>
        <time>2023-01-29T13:01:28.000Z</time>
      </trkpt>
      <trkpt lat="43.47243" lon="6.33459">
        <ele>174.7</ele>
        <time>2023-01-29T13:01:29.000Z</time>
      </trkpt>
      <trkpt lat="43.47243" lon="6.33459">
        <ele>174.5</ele>
        <time>2023-01-29T13:01:48.000Z</time>
      </trkpt>
      <trkpt lat="43.47243" lon="6.33459">
        <ele>174.5</ele>
        <time>2023-01-29T13:01:49.000Z</time>
      </trkpt>
      <trkpt lat="43.47244" lon="6.33458">
        <ele>174.3</ele>
        <time>2023-01-29T13:01:59.000Z</time>
      </trkpt>
      <trkpt lat="43.47246" lon="6.33454">
        <ele>174.6</ele>
        <time>2023-01-29T13:02:06.000Z</time>
      </trkpt>
      <trkpt lat="43.47246" lon="6.33454">
        <ele>174.5</ele>
        <time>2023-01-29T13:02:07.000Z</time>
      </trkpt>
      <trkpt lat="43.47247" lon="6.33454">
        <ele>174.5</ele>
        <time>2023-01-29T13:02:09.000Z</time>
      </trkpt>
      <trkpt lat="43.47246" lon="6.33454">
        <ele>174.8</ele>
        <time>2023-01-29T13:02:54.000Z</time>
      </trkpt>
      <trkpt lat="43.47246" lon="6.33454">
        <ele>174.8</ele>
        <time>2023-01-29T13:02:56.000Z</time>
      </trkpt>
      <trkpt lat="43.47246" lon="6.33454">
        <ele>174.7</ele>
        <time>2023-01-29T13:02:59.000Z</time>
      </trkpt>
      <trkpt lat="43.47245" lon="6.33454">
        <ele>174.6</ele>
        <time>2023-01-29T13:03:01.000Z</time>
      </trkpt>
      <trkpt lat="43.47246" lon="6.33454">
        <ele>174.7</ele>
        <time>2023-01-29T13:03:05.000Z</time>
      </trkpt>
      <trkpt lat="43.47247" lon="6.33441">
        <ele>175.1</ele>
        <time>2023-01-29T13:03:14.000Z</time>
      </trkpt>
      <trkpt lat="43.47245" lon="6.33429">
        <ele>175.2</ele>
        <time>2023-01-29T13:03:24.000Z</time>
      </trkpt>
      <trkpt lat="43.4724" lon="6.33418">
        <ele>175.6</ele>
        <time>2023-01-29T13:03:33.000Z</time>
      </trkpt>
      <trkpt lat="43.47231" lon="6.33412">
        <ele>175.1</ele>
        <time>2023-01-29T13:03:41.000Z</time>
      </trkpt>
      <trkpt lat="43.47222" lon="6.33407">
        <ele>174.4</ele>
        <time>2023-01-29T13:03:52.000Z</time>
      </trkpt>
      <trkpt lat="43.47213" lon="6.33406">
        <ele>173.6</ele>
        <time>2023-01-29T13:04:02.000Z</time>
      </trkpt>
      <trkpt lat="43.47203" lon="6.33402">
        <ele>172.4</ele>
        <time>2023-01-29T13:04:10.000Z</time>
      </trkpt>
      <trkpt lat="43.472" lon="6.33401">
        <ele>172.3</ele>
        <time>2023-01-29T13:04:15.000Z</time>
      </trkpt>
      <trkpt lat="43.472" lon="6.33401">
        <ele>172.4</ele>
        <time>2023-01-29T13:04:16.000Z</time>
      </trkpt>
      <trkpt lat="43.47191" lon="6.33395">
        <ele>171.5</ele>
        <time>2023-01-29T13:04:26.000Z</time>
      </trkpt>
      <trkpt lat="43.47182" lon="6.33388">
        <ele>170.8</ele>
        <time>2023-01-29T13:04:38.000Z</time>
      </trkpt>
      <trkpt lat="43.47176" lon="6.33379">
        <ele>169.9</ele>
        <time>2023-01-29T13:04:47.000Z</time>
      </trkpt>
      <trkpt lat="43.47169" lon="6.3337">
        <ele>168.9</ele>
        <time>2023-01-29T13:04:56.000Z</time>
      </trkpt>
      <trkpt lat="43.47164" lon="6.3336">
        <ele>167.1</ele>
        <time>2023-01-29T13:05:08.000Z</time>
      </trkpt>
      <trkpt lat="43.47158" lon="6.33349">
        <ele>165.6</ele>
        <time>2023-01-29T13:05:19.000Z</time>
      </trkpt>
      <trkpt lat="43.47154" lon="6.33338">
        <ele>163.9</ele>
        <time>2023-01-29T13:05:31.000Z</time>
      </trkpt>
      <trkpt lat="43.4715" lon="6.33327">
        <ele>162.7</ele>
        <time>2023-01-29T13:05:44.000Z</time>
      </trkpt>
      <trkpt lat="43.47148" lon="6.33314">
        <ele>160.9</ele>
        <time>2023-01-29T13:05:55.000Z</time>
      </trkpt>
      <trkpt lat="43.47147" lon="6.33301">
        <ele>159.8</ele>
        <time>2023-01-29T13:06:05.000Z</time>
      </trkpt>
      <trkpt lat="43.47147" lon="6.33287">
        <ele>158.7</ele>
        <time>2023-01-29T13:06:15.000Z</time>
      </trkpt>
      <trkpt lat="43.4714" lon="6.33278">
        <ele>157.7</ele>
        <time>2023-01-29T13:06:25.000Z</time>
      </trkpt>
      <trkpt lat="43.47138" lon="6.33265">
        <ele>156.5</ele>
        <time>2023-01-29T13:06:35.000Z</time>
      </trkpt>
      <trkpt lat="43.47134" lon="6.33252">
        <ele>155.7</ele>
        <time>2023-01-29T13:06:44.000Z</time>
      </trkpt>
      <trkpt lat="43.47138" lon="6.3324">
        <ele>154.9</ele>
        <time>2023-01-29T13:06:53.000Z</time>
      </trkpt>
      <trkpt lat="43.47141" lon="6.33228">
        <ele>153.8</ele>
        <time>2023-01-29T13:07:06.000Z</time>
      </trkpt>
      <trkpt lat="43.47146" lon="6.33216">
        <ele>152.3</ele>
        <time>2023-01-29T13:07:15.000Z</time>
      </trkpt>
      <trkpt lat="43.47147" lon="6.33204">
        <ele>150.9</ele>
        <time>2023-01-29T13:07:26.000Z</time>
      </trkpt>
      <trkpt lat="43.47148" lon="6.33191">
        <ele>149</ele>
        <time>2023-01-29T13:07:36.000Z</time>
      </trkpt>
      <trkpt lat="43.47148" lon="6.33178">
        <ele>147.4</ele>
        <time>2023-01-29T13:07:46.000Z</time>
      </trkpt>
      <trkpt lat="43.47151" lon="6.33165">
        <ele>146.5</ele>
        <time>2023-01-29T13:07:54.000Z</time>
      </trkpt>
      <trkpt lat="43.47158" lon="6.33156">
        <ele>145.4</ele>
        <time>2023-01-29T13:08:02.000Z</time>
      </trkpt>
      <trkpt lat="43.47161" lon="6.33145">
        <ele>144.3</ele>
        <time>2023-01-29T13:08:13.000Z</time>
      </trkpt>
      <trkpt lat="43.47164" lon="6.33133">
        <ele>143.4</ele>
        <time>2023-01-29T13:08:23.000Z</time>
      </trkpt>
      <trkpt lat="43.47163" lon="6.3312">
        <ele>142</ele>
        <time>2023-01-29T13:08:34.000Z</time>
      </trkpt>
      <trkpt lat="43.47158" lon="6.33108">
        <ele>141.6</ele>
        <time>2023-01-29T13:08:43.000Z</time>
      </trkpt>
      <trkpt lat="43.47153" lon="6.33096">
        <ele>140.9</ele>
        <time>2023-01-29T13:08:54.000Z</time>
      </trkpt>
      <trkpt lat="43.47147" lon="6.33085">
        <ele>140.4</ele>
        <time>2023-01-29T13:09:05.000Z</time>
      </trkpt>
      <trkpt lat="43.47142" lon="6.33075">
        <ele>139.2</ele>
        <time>2023-01-29T13:09:14.000Z</time>
      </trkpt>
      <trkpt lat="43.47135" lon="6.33066">
        <ele>138</ele>
        <time>2023-01-29T13:09:24.000Z</time>
      </trkpt>
      <trkpt lat="43.47128" lon="6.33056">
        <ele>137.4</ele>
        <time>2023-01-29T13:09:33.000Z</time>
      </trkpt>
      <trkpt lat="43.4712" lon="6.33049">
        <ele>136.5</ele>
        <time>2023-01-29T13:09:42.000Z</time>
      </trkpt>
      <trkpt lat="43.47113" lon="6.33041">
        <ele>135.2</ele>
        <time>2023-01-29T13:09:52.000Z</time>
      </trkpt>
      <trkpt lat="43.47105" lon="6.33034">
        <ele>134.7</ele>
        <time>2023-01-29T13:10:00.000Z</time>
      </trkpt>
      <trkpt lat="43.47097" lon="6.33027">
        <ele>133.5</ele>
        <time>2023-01-29T13:10:10.000Z</time>
      </trkpt>
      <trkpt lat="43.47091" lon="6.33017">
        <ele>132.8</ele>
        <time>2023-01-29T13:10:19.000Z</time>
      </trkpt>
      <trkpt lat="43.47083" lon="6.3301">
        <ele>131.8</ele>
        <time>2023-01-29T13:10:32.000Z</time>
      </trkpt>
      <trkpt lat="43.47075" lon="6.33002">
        <ele>131.3</ele>
        <time>2023-01-29T13:10:41.000Z</time>
      </trkpt>
      <trkpt lat="43.47068" lon="6.32994">
        <ele>130.5</ele>
        <time>2023-01-29T13:10:51.000Z</time>
      </trkpt>
      <trkpt lat="43.47068" lon="6.32995">
        <ele>130.4</ele>
        <time>2023-01-29T13:10:52.000Z</time>
      </trkpt>
      <trkpt lat="43.47067" lon="6.32994">
        <ele>130.6</ele>
        <time>2023-01-29T13:10:55.000Z</time>
      </trkpt>
      <trkpt lat="43.47058" lon="6.3299">
        <ele>129.2</ele>
        <time>2023-01-29T13:11:06.000Z</time>
      </trkpt>
      <trkpt lat="43.47048" lon="6.3299">
        <ele>127.7</ele>
        <time>2023-01-29T13:11:17.000Z</time>
      </trkpt>
      <trkpt lat="43.4704" lon="6.32987">
        <ele>127.2</ele>
        <time>2023-01-29T13:11:26.000Z</time>
      </trkpt>
      <trkpt lat="43.4703" lon="6.32986">
        <ele>126.4</ele>
        <time>2023-01-29T13:11:37.000Z</time>
      </trkpt>
      <trkpt lat="43.47021" lon="6.32978">
        <ele>125.6</ele>
        <time>2023-01-29T13:11:46.000Z</time>
      </trkpt>
      <trkpt lat="43.47013" lon="6.32972">
        <ele>124.5</ele>
        <time>2023-01-29T13:11:55.000Z</time>
      </trkpt>
      <trkpt lat="43.47004" lon="6.32966">
        <ele>123</ele>
        <time>2023-01-29T13:12:08.000Z</time>
      </trkpt>
      <trkpt lat="43.46997" lon="6.32959">
        <ele>121.5</ele>
        <time>2023-01-29T13:12:26.000Z</time>
      </trkpt>
      <trkpt lat="43.46991" lon="6.32949">
        <ele>120.2</ele>
        <time>2023-01-29T13:12:38.000Z</time>
      </trkpt>
      <trkpt lat="43.46989" lon="6.32936">
        <ele>119.4</ele>
        <time>2023-01-29T13:12:50.000Z</time>
      </trkpt>
      <trkpt lat="43.46985" lon="6.32925">
        <ele>117.9</ele>
        <time>2023-01-29T13:13:00.000Z</time>
      </trkpt>
      <trkpt lat="43.4698" lon="6.32914">
        <ele>116.7</ele>
        <time>2023-01-29T13:13:08.000Z</time>
      </trkpt>
      <trkpt lat="43.46976" lon="6.32903">
        <ele>114.7</ele>
        <time>2023-01-29T13:13:19.000Z</time>
      </trkpt>
      <trkpt lat="43.46972" lon="6.3289">
        <ele>113.2</ele>
        <time>2023-01-29T13:13:28.000Z</time>
      </trkpt>
      <trkpt lat="43.46967" lon="6.32878">
        <ele>111.3</ele>
        <time>2023-01-29T13:13:39.000Z</time>
      </trkpt>
      <trkpt lat="43.46963" lon="6.32866">
        <ele>109.9</ele>
        <time>2023-01-29T13:13:48.000Z</time>
      </trkpt>
      <trkpt lat="43.46959" lon="6.32855">
        <ele>108.1</ele>
        <time>2023-01-29T13:13:59.000Z</time>
      </trkpt>
      <trkpt lat="43.46955" lon="6.32843">
        <ele>106.8</ele>
        <time>2023-01-29T13:14:09.000Z</time>
      </trkpt>
      <trkpt lat="43.46951" lon="6.32831">
        <ele>104.1</ele>
        <time>2023-01-29T13:14:26.000Z</time>
      </trkpt>
      <trkpt lat="43.46957" lon="6.32824">
        <ele>103</ele>
        <time>2023-01-29T13:14:39.000Z</time>
      </trkpt>
      <trkpt lat="43.46957" lon="6.32823">
        <ele>102.8</ele>
        <time>2023-01-29T13:14:40.000Z</time>
      </trkpt>
      <trkpt lat="43.46958" lon="6.3282">
        <ele>102.6</ele>
        <time>2023-01-29T13:14:52.000Z</time>
      </trkpt>
      <trkpt lat="43.46958" lon="6.3282">
        <ele>102.9</ele>
        <time>2023-01-29T13:15:05.000Z</time>
      </trkpt>
      <trkpt lat="43.46958" lon="6.3282">
        <ele>102.9</ele>
        <time>2023-01-29T13:15:06.000Z</time>
      </trkpt>
      <trkpt lat="43.46958" lon="6.32821">
        <ele>103</ele>
        <time>2023-01-29T13:15:07.000Z</time>
      </trkpt>
      <trkpt lat="43.46958" lon="6.32821">
        <ele>103</ele>
        <time>2023-01-29T13:15:09.000Z</time>
      </trkpt>
      <trkpt lat="43.46958" lon="6.3282">
        <ele>102.9</ele>
        <time>2023-01-29T13:15:44.000Z</time>
      </trkpt>
      <trkpt lat="43.4696" lon="6.3282">
        <ele>103</ele>
        <time>2023-01-29T13:15:50.000Z</time>
      </trkpt>
      <trkpt lat="43.4696" lon="6.3282">
        <ele>103</ele>
        <time>2023-01-29T13:15:55.000Z</time>
      </trkpt>
      <trkpt lat="43.4696" lon="6.3282">
        <ele>102.9</ele>
        <time>2023-01-29T13:15:56.000Z</time>
      </trkpt>
      <trkpt lat="43.4696" lon="6.32821">
        <ele>102.9</ele>
        <time>2023-01-29T13:15:57.000Z</time>
      </trkpt>
      <trkpt lat="43.46958" lon="6.32822">
        <ele>103.4</ele>
        <time>2023-01-29T13:16:01.000Z</time>
      </trkpt>
      <trkpt lat="43.46958" lon="6.32822">
        <ele>103.2</ele>
        <time>2023-01-29T13:16:03.000Z</time>
      </trkpt>
      <trkpt lat="43.46955" lon="6.32835">
        <ele>103.1</ele>
        <time>2023-01-29T13:16:21.000Z</time>
      </trkpt>
      <trkpt lat="43.46961" lon="6.32844">
        <ele>103.5</ele>
        <time>2023-01-29T13:16:30.000Z</time>
      </trkpt>
      <trkpt lat="43.46967" lon="6.32854">
        <ele>103.7</ele>
        <time>2023-01-29T13:16:37.000Z</time>
      </trkpt>
      <trkpt lat="43.46974" lon="6.32865">
        <ele>103.7</ele>
        <time>2023-01-29T13:16:46.000Z</time>
      </trkpt>
      <trkpt lat="43.46978" lon="6.32876">
        <ele>104.1</ele>
        <time>2023-01-29T13:16:54.000Z</time>
      </trkpt>
      <trkpt lat="43.46985" lon="6.32886">
        <ele>104.7</ele>
        <time>2023-01-29T13:17:04.000Z</time>
      </trkpt>
      <trkpt lat="43.46991" lon="6.32896">
        <ele>105.1</ele>
        <time>2023-01-29T13:17:12.000Z</time>
      </trkpt>
      <trkpt lat="43.46996" lon="6.32907">
        <ele>105.7</ele>
        <time>2023-01-29T13:17:21.000Z</time>
      </trkpt>
      <trkpt lat="43.47001" lon="6.32918">
        <ele>105.7</ele>
        <time>2023-01-29T13:17:30.000Z</time>
      </trkpt>
      <trkpt lat="43.47008" lon="6.32928">
        <ele>105.3</ele>
        <time>2023-01-29T13:17:38.000Z</time>
      </trkpt>
      <trkpt lat="43.47016" lon="6.32936">
        <ele>105.5</ele>
        <time>2023-01-29T13:17:48.000Z</time>
      </trkpt>
      <trkpt lat="43.47023" lon="6.32944">
        <ele>105.5</ele>
        <time>2023-01-29T13:17:57.000Z</time>
      </trkpt>
      <trkpt lat="43.47033" lon="6.32947">
        <ele>105.7</ele>
        <time>2023-01-29T13:18:04.000Z</time>
      </trkpt>
      <trkpt lat="43.47042" lon="6.32951">
        <ele>105.8</ele>
        <time>2023-01-29T13:18:12.000Z</time>
      </trkpt>
      <trkpt lat="43.47051" lon="6.32951">
        <ele>106.4</ele>
        <time>2023-01-29T13:18:19.000Z</time>
      </trkpt>
      <trkpt lat="43.47061" lon="6.32947">
        <ele>106.8</ele>
        <time>2023-01-29T13:18:28.000Z</time>
      </trkpt>
      <trkpt lat="43.47071" lon="6.32943">
        <ele>106.9</ele>
        <time>2023-01-29T13:18:37.000Z</time>
      </trkpt>
      <trkpt lat="43.4708" lon="6.32942">
        <ele>106.9</ele>
        <time>2023-01-29T13:18:42.000Z</time>
      </trkpt>
      <trkpt lat="43.47089" lon="6.32937">
        <ele>106.9</ele>
        <time>2023-01-29T13:18:50.000Z</time>
      </trkpt>
      <trkpt lat="43.47097" lon="6.32929">
        <ele>106.6</ele>
        <time>2023-01-29T13:19:00.000Z</time>
      </trkpt>
      <trkpt lat="43.47103" lon="6.32919">
        <ele>106.5</ele>
        <time>2023-01-29T13:19:09.000Z</time>
      </trkpt>
      <trkpt lat="43.47109" lon="6.32908">
        <ele>106.7</ele>
        <time>2023-01-29T13:19:17.000Z</time>
      </trkpt>
      <trkpt lat="43.47116" lon="6.32899">
        <ele>106.9</ele>
        <time>2023-01-29T13:19:25.000Z</time>
      </trkpt>
      <trkpt lat="43.47122" lon="6.32888">
        <ele>107</ele>
        <time>2023-01-29T13:19:32.000Z</time>
      </trkpt>
      <trkpt lat="43.47129" lon="6.32879">
        <ele>106.9</ele>
        <time>2023-01-29T13:19:39.000Z</time>
      </trkpt>
      <trkpt lat="43.47136" lon="6.32868">
        <ele>106.9</ele>
        <time>2023-01-29T13:19:48.000Z</time>
      </trkpt>
      <trkpt lat="43.47141" lon="6.32857">
        <ele>107</ele>
        <time>2023-01-29T13:19:56.000Z</time>
      </trkpt>
      <trkpt lat="43.47148" lon="6.32848">
        <ele>107.2</ele>
        <time>2023-01-29T13:20:02.000Z</time>
      </trkpt>
      <trkpt lat="43.47151" lon="6.32836">
        <ele>107.3</ele>
        <time>2023-01-29T13:20:11.000Z</time>
      </trkpt>
      <trkpt lat="43.47157" lon="6.32825">
        <ele>107.6</ele>
        <time>2023-01-29T13:20:22.000Z</time>
      </trkpt>
      <trkpt lat="43.47164" lon="6.32816">
        <ele>107.5</ele>
        <time>2023-01-29T13:20:30.000Z</time>
      </trkpt>
      <trkpt lat="43.47171" lon="6.32808">
        <ele>107.4</ele>
        <time>2023-01-29T13:20:40.000Z</time>
      </trkpt>
      <trkpt lat="43.4718" lon="6.328">
        <ele>107.5</ele>
        <time>2023-01-29T13:20:50.000Z</time>
      </trkpt>
      <trkpt lat="43.47188" lon="6.32794">
        <ele>107.4</ele>
        <time>2023-01-29T13:21:01.000Z</time>
      </trkpt>
      <trkpt lat="43.47197" lon="6.32789">
        <ele>107.7</ele>
        <time>2023-01-29T13:21:12.000Z</time>
      </trkpt>
      <trkpt lat="43.47206" lon="6.32784">
        <ele>108</ele>
        <time>2023-01-29T13:21:21.000Z</time>
      </trkpt>
      <trkpt lat="43.47216" lon="6.32784">
        <ele>108.1</ele>
        <time>2023-01-29T13:21:29.000Z</time>
      </trkpt>
      <trkpt lat="43.47225" lon="6.32784">
        <ele>108.3</ele>
        <time>2023-01-29T13:21:37.000Z</time>
      </trkpt>
      <trkpt lat="43.47234" lon="6.32782">
        <ele>108.9</ele>
        <time>2023-01-29T13:21:48.000Z</time>
      </trkpt>
      <trkpt lat="43.47243" lon="6.32779">
        <ele>109.3</ele>
        <time>2023-01-29T13:21:58.000Z</time>
      </trkpt>
      <trkpt lat="43.47253" lon="6.32778">
        <ele>109.5</ele>
        <time>2023-01-29T13:22:07.000Z</time>
      </trkpt>
      <trkpt lat="43.47262" lon="6.32779">
        <ele>110.2</ele>
        <time>2023-01-29T13:22:15.000Z</time>
      </trkpt>
      <trkpt lat="43.47272" lon="6.32782">
        <ele>110</ele>
        <time>2023-01-29T13:22:23.000Z</time>
      </trkpt>
      <trkpt lat="43.47281" lon="6.32786">
        <ele>109.9</ele>
        <time>2023-01-29T13:22:32.000Z</time>
      </trkpt>
      <trkpt lat="43.47289" lon="6.32794">
        <ele>110.1</ele>
        <time>2023-01-29T13:22:42.000Z</time>
      </trkpt>
      <trkpt lat="43.47297" lon="6.328">
        <ele>110.2</ele>
        <time>2023-01-29T13:22:50.000Z</time>
      </trkpt>
      <trkpt lat="43.47305" lon="6.3281">
        <ele>110.1</ele>
        <time>2023-01-29T13:22:59.000Z</time>
      </trkpt>
      <trkpt lat="43.47313" lon="6.32817">
        <ele>110.5</ele>
        <time>2023-01-29T13:23:08.000Z</time>
      </trkpt>
      <trkpt lat="43.47321" lon="6.32824">
        <ele>110.9</ele>
        <time>2023-01-29T13:23:18.000Z</time>
      </trkpt>
      <trkpt lat="43.47329" lon="6.32832">
        <ele>111.2</ele>
        <time>2023-01-29T13:23:27.000Z</time>
      </trkpt>
      <trkpt lat="43.47335" lon="6.32842">
        <ele>111.5</ele>
        <time>2023-01-29T13:23:35.000Z</time>
      </trkpt>
      <trkpt lat="43.47345" lon="6.3285">
        <ele>111.5</ele>
        <time>2023-01-29T13:23:44.000Z</time>
      </trkpt>
      <trkpt lat="43.47351" lon="6.32861">
        <ele>111.6</ele>
        <time>2023-01-29T13:23:52.000Z</time>
      </trkpt>
      <trkpt lat="43.47356" lon="6.32873">
        <ele>111.7</ele>
        <time>2023-01-29T13:24:01.000Z</time>
      </trkpt>
      <trkpt lat="43.47362" lon="6.32883">
        <ele>112.2</ele>
        <time>2023-01-29T13:24:10.000Z</time>
      </trkpt>
      <trkpt lat="43.47365" lon="6.32895">
        <ele>112.5</ele>
        <time>2023-01-29T13:24:20.000Z</time>
      </trkpt>
      <trkpt lat="43.47369" lon="6.32908">
        <ele>113.1</ele>
        <time>2023-01-29T13:24:31.000Z</time>
      </trkpt>
      <trkpt lat="43.47374" lon="6.32919">
        <ele>113</ele>
        <time>2023-01-29T13:24:39.000Z</time>
      </trkpt>
      <trkpt lat="43.47381" lon="6.32929">
        <ele>112.9</ele>
        <time>2023-01-29T13:24:46.000Z</time>
      </trkpt>
      <trkpt lat="43.47389" lon="6.32936">
        <ele>113</ele>
        <time>2023-01-29T13:24:52.000Z</time>
      </trkpt>
      <trkpt lat="43.47398" lon="6.32934">
        <ele>113</ele>
        <time>2023-01-29T13:24:59.000Z</time>
      </trkpt>
      <trkpt lat="43.47406" lon="6.3293">
        <ele>112.8</ele>
        <time>2023-01-29T13:25:07.000Z</time>
      </trkpt>
      <trkpt lat="43.47415" lon="6.32926">
        <ele>112.9</ele>
        <time>2023-01-29T13:25:15.000Z</time>
      </trkpt>
      <trkpt lat="43.47424" lon="6.32918">
        <ele>113.2</ele>
        <time>2023-01-29T13:25:23.000Z</time>
      </trkpt>
      <trkpt lat="43.47433" lon="6.32912">
        <ele>113.3</ele>
        <time>2023-01-29T13:25:30.000Z</time>
      </trkpt>
      <trkpt lat="43.4744" lon="6.32904">
        <ele>113.7</ele>
        <time>2023-01-29T13:25:38.000Z</time>
      </trkpt>
      <trkpt lat="43.47447" lon="6.32896">
        <ele>113.9</ele>
        <time>2023-01-29T13:25:47.000Z</time>
      </trkpt>
      <trkpt lat="43.47455" lon="6.32886">
        <ele>114.1</ele>
        <time>2023-01-29T13:25:57.000Z</time>
      </trkpt>
      <trkpt lat="43.47461" lon="6.32876">
        <ele>114.2</ele>
        <time>2023-01-29T13:26:06.000Z</time>
      </trkpt>
      <trkpt lat="43.47469" lon="6.32868">
        <ele>114.4</ele>
        <time>2023-01-29T13:26:15.000Z</time>
      </trkpt>
      <trkpt lat="43.47477" lon="6.32861">
        <ele>115.1</ele>
        <time>2023-01-29T13:26:24.000Z</time>
      </trkpt>
      <trkpt lat="43.47486" lon="6.32853">
        <ele>115</ele>
        <time>2023-01-29T13:26:32.000Z</time>
      </trkpt>
      <trkpt lat="43.47494" lon="6.32846">
        <ele>115.3</ele>
        <time>2023-01-29T13:26:40.000Z</time>
      </trkpt>
      <trkpt lat="43.47502" lon="6.32838">
        <ele>115.9</ele>
        <time>2023-01-29T13:26:49.000Z</time>
      </trkpt>
      <trkpt lat="43.4751" lon="6.32831">
        <ele>116</ele>
        <time>2023-01-29T13:26:57.000Z</time>
      </trkpt>
      <trkpt lat="43.47517" lon="6.32822">
        <ele>116.1</ele>
        <time>2023-01-29T13:27:06.000Z</time>
      </trkpt>
      <trkpt lat="43.47525" lon="6.32814">
        <ele>116.4</ele>
        <time>2023-01-29T13:27:14.000Z</time>
      </trkpt>
      <trkpt lat="43.47533" lon="6.32809">
        <ele>116.5</ele>
        <time>2023-01-29T13:27:24.000Z</time>
      </trkpt>
      <trkpt lat="43.47541" lon="6.32811">
        <ele>117.2</ele>
        <time>2023-01-29T13:27:34.000Z</time>
      </trkpt>
      <trkpt lat="43.47542" lon="6.32811">
        <ele>117.3</ele>
        <time>2023-01-29T13:27:35.000Z</time>
      </trkpt>
      <trkpt lat="43.4755" lon="6.32815">
        <ele>118</ele>
        <time>2023-01-29T13:27:44.000Z</time>
      </trkpt>
      <trkpt lat="43.4756" lon="6.32818">
        <ele>118.2</ele>
        <time>2023-01-29T13:27:53.000Z</time>
      </trkpt>
      <trkpt lat="43.47569" lon="6.32824">
        <ele>118.6</ele>
        <time>2023-01-29T13:28:03.000Z</time>
      </trkpt>
      <trkpt lat="43.47576" lon="6.32834">
        <ele>118.3</ele>
        <time>2023-01-29T13:28:11.000Z</time>
      </trkpt>
      <trkpt lat="43.4758" lon="6.32845">
        <ele>118.3</ele>
        <time>2023-01-29T13:28:21.000Z</time>
      </trkpt>
      <trkpt lat="43.47582" lon="6.32858">
        <ele>118.3</ele>
        <time>2023-01-29T13:28:32.000Z</time>
      </trkpt>
      <trkpt lat="43.47586" lon="6.3287">
        <ele>118.5</ele>
        <time>2023-01-29T13:28:41.000Z</time>
      </trkpt>
      <trkpt lat="43.47588" lon="6.32883">
        <ele>118.4</ele>
        <time>2023-01-29T13:28:48.000Z</time>
      </trkpt>
      <trkpt lat="43.4759" lon="6.32896">
        <ele>119</ele>
        <time>2023-01-29T13:28:58.000Z</time>
      </trkpt>
      <trkpt lat="43.47594" lon="6.32908">
        <ele>119.2</ele>
        <time>2023-01-29T13:29:06.000Z</time>
      </trkpt>
      <trkpt lat="43.47599" lon="6.32919">
        <ele>119.6</ele>
        <time>2023-01-29T13:29:13.000Z</time>
      </trkpt>
      <trkpt lat="43.47602" lon="6.3293">
        <ele>119.4</ele>
        <time>2023-01-29T13:29:21.000Z</time>
      </trkpt>
      <trkpt lat="43.47607" lon="6.32941">
        <ele>119.9</ele>
        <time>2023-01-29T13:29:33.000Z</time>
      </trkpt>
      <trkpt lat="43.47612" lon="6.32952">
        <ele>120</ele>
        <time>2023-01-29T13:29:41.000Z</time>
      </trkpt>
      <trkpt lat="43.47618" lon="6.32962">
        <ele>119.8</ele>
        <time>2023-01-29T13:29:48.000Z</time>
      </trkpt>
      <trkpt lat="43.47621" lon="6.32974">
        <ele>120.1</ele>
        <time>2023-01-29T13:29:58.000Z</time>
      </trkpt>
      <trkpt lat="43.47629" lon="6.32982">
        <ele>120.4</ele>
        <time>2023-01-29T13:30:05.000Z</time>
      </trkpt>
      <trkpt lat="43.47635" lon="6.32993">
        <ele>120.5</ele>
        <time>2023-01-29T13:30:13.000Z</time>
      </trkpt>
      <trkpt lat="43.47639" lon="6.33005">
        <ele>120.4</ele>
        <time>2023-01-29T13:30:22.000Z</time>
      </trkpt>
      <trkpt lat="43.47644" lon="6.33016">
        <ele>120.6</ele>
        <time>2023-01-29T13:30:30.000Z</time>
      </trkpt>
      <trkpt lat="43.47648" lon="6.3303">
        <ele>120.8</ele>
        <time>2023-01-29T13:30:41.000Z</time>
      </trkpt>
      <trkpt lat="43.47651" lon="6.33042">
        <ele>120.9</ele>
        <time>2023-01-29T13:30:50.000Z</time>
      </trkpt>
      <trkpt lat="43.47652" lon="6.33054">
        <ele>121</ele>
        <time>2023-01-29T13:30:58.000Z</time>
      </trkpt>
      <trkpt lat="43.47657" lon="6.33066">
        <ele>121.2</ele>
        <time>2023-01-29T13:31:09.000Z</time>
      </trkpt>
      <trkpt lat="43.47662" lon="6.33076">
        <ele>121.6</ele>
        <time>2023-01-29T13:31:17.000Z</time>
      </trkpt>
      <trkpt lat="43.47667" lon="6.33086">
        <ele>121.5</ele>
        <time>2023-01-29T13:31:25.000Z</time>
      </trkpt>
      <trkpt lat="43.47673" lon="6.33096">
        <ele>121.6</ele>
        <time>2023-01-29T13:31:34.000Z</time>
      </trkpt>
      <trkpt lat="43.47679" lon="6.33107">
        <ele>121.5</ele>
        <time>2023-01-29T13:31:42.000Z</time>
      </trkpt>
      <trkpt lat="43.47686" lon="6.33114">
        <ele>121.6</ele>
        <time>2023-01-29T13:31:51.000Z</time>
      </trkpt>
      <trkpt lat="43.47694" lon="6.33123">
        <ele>121.8</ele>
        <time>2023-01-29T13:32:00.000Z</time>
      </trkpt>
      <trkpt lat="43.47702" lon="6.33131">
        <ele>122</ele>
        <time>2023-01-29T13:32:08.000Z</time>
      </trkpt>
      <trkpt lat="43.47709" lon="6.33139">
        <ele>122.1</ele>
        <time>2023-01-29T13:32:16.000Z</time>
      </trkpt>
      <trkpt lat="43.47717" lon="6.33148">
        <ele>122.3</ele>
        <time>2023-01-29T13:32:24.000Z</time>
      </trkpt>
      <trkpt lat="43.47723" lon="6.33159">
        <ele>122.6</ele>
        <time>2023-01-29T13:32:33.000Z</time>
      </trkpt>
      <trkpt lat="43.47729" lon="6.33169">
        <ele>123.2</ele>
        <time>2023-01-29T13:32:42.000Z</time>
      </trkpt>
      <trkpt lat="43.47735" lon="6.33179">
        <ele>123.4</ele>
        <time>2023-01-29T13:32:51.000Z</time>
      </trkpt>
      <trkpt lat="43.47741" lon="6.33189">
        <ele>123.3</ele>
        <time>2023-01-29T13:32:59.000Z</time>
      </trkpt>
      <trkpt lat="43.47747" lon="6.332">
        <ele>123.4</ele>
        <time>2023-01-29T13:33:07.000Z</time>
      </trkpt>
      <trkpt lat="43.47751" lon="6.33211">
        <ele>124</ele>
        <time>2023-01-29T13:33:16.000Z</time>
      </trkpt>
      <trkpt lat="43.47754" lon="6.33224">
        <ele>124.3</ele>
        <time>2023-01-29T13:33:25.000Z</time>
      </trkpt>
      <trkpt lat="43.47758" lon="6.33237">
        <ele>124.9</ele>
        <time>2023-01-29T13:33:35.000Z</time>
      </trkpt>
      <trkpt lat="43.47762" lon="6.33249">
        <ele>125.3</ele>
        <time>2023-01-29T13:33:44.000Z</time>
      </trkpt>
      <trkpt lat="43.47767" lon="6.33261">
        <ele>125.4</ele>
        <time>2023-01-29T13:33:52.000Z</time>
      </trkpt>
      <trkpt lat="43.47771" lon="6.33273">
        <ele>125.8</ele>
        <time>2023-01-29T13:34:00.000Z</time>
      </trkpt>
      <trkpt lat="43.47773" lon="6.33285">
        <ele>125.4</ele>
        <time>2023-01-29T13:34:08.000Z</time>
      </trkpt>
      <trkpt lat="43.47776" lon="6.33297">
        <ele>125.4</ele>
        <time>2023-01-29T13:34:16.000Z</time>
      </trkpt>
      <trkpt lat="43.47778" lon="6.3331">
        <ele>125.2</ele>
        <time>2023-01-29T13:34:25.000Z</time>
      </trkpt>
      <trkpt lat="43.47778" lon="6.33323">
        <ele>125.2</ele>
        <time>2023-01-29T13:34:33.000Z</time>
      </trkpt>
      <trkpt lat="43.47782" lon="6.33335">
        <ele>125.1</ele>
        <time>2023-01-29T13:34:41.000Z</time>
      </trkpt>
      <trkpt lat="43.47787" lon="6.33348">
        <ele>125.5</ele>
        <time>2023-01-29T13:34:49.000Z</time>
      </trkpt>
      <trkpt lat="43.47791" lon="6.33359">
        <ele>125.7</ele>
        <time>2023-01-29T13:34:56.000Z</time>
      </trkpt>
      <trkpt lat="43.47796" lon="6.33371">
        <ele>126</ele>
        <time>2023-01-29T13:35:04.000Z</time>
      </trkpt>
      <trkpt lat="43.47804" lon="6.3338">
        <ele>125.9</ele>
        <time>2023-01-29T13:35:12.000Z</time>
      </trkpt>
      <trkpt lat="43.47812" lon="6.33387">
        <ele>126.2</ele>
        <time>2023-01-29T13:35:20.000Z</time>
      </trkpt>
      <trkpt lat="43.47814" lon="6.33399">
        <ele>126.5</ele>
        <time>2023-01-29T13:35:31.000Z</time>
      </trkpt>
      <trkpt lat="43.47814" lon="6.33412">
        <ele>126.5</ele>
        <time>2023-01-29T13:35:40.000Z</time>
      </trkpt>
      <trkpt lat="43.47817" lon="6.33424">
        <ele>126.7</ele>
        <time>2023-01-29T13:35:48.000Z</time>
      </trkpt>
      <trkpt lat="43.47823" lon="6.33436">
        <ele>127</ele>
        <time>2023-01-29T13:35:56.000Z</time>
      </trkpt>
      <trkpt lat="43.47826" lon="6.33448">
        <ele>127.1</ele>
        <time>2023-01-29T13:36:04.000Z</time>
      </trkpt>
      <trkpt lat="43.4783" lon="6.33459">
        <ele>127.3</ele>
        <time>2023-01-29T13:36:13.000Z</time>
      </trkpt>
      <trkpt lat="43.47833" lon="6.33471">
        <ele>127.5</ele>
        <time>2023-01-29T13:36:22.000Z</time>
      </trkpt>
      <trkpt lat="43.47839" lon="6.33483">
        <ele>127.4</ele>
        <time>2023-01-29T13:36:30.000Z</time>
      </trkpt>
      <trkpt lat="43.47844" lon="6.33494">
        <ele>127.8</ele>
        <time>2023-01-29T13:36:37.000Z</time>
      </trkpt>
      <trkpt lat="43.47849" lon="6.33506">
        <ele>127.7</ele>
        <time>2023-01-29T13:36:46.000Z</time>
      </trkpt>
      <trkpt lat="43.47854" lon="6.33516">
        <ele>127.9</ele>
        <time>2023-01-29T13:36:53.000Z</time>
      </trkpt>
      <trkpt lat="43.4786" lon="6.33526">
        <ele>127.9</ele>
        <time>2023-01-29T13:37:01.000Z</time>
      </trkpt>
      <trkpt lat="43.47868" lon="6.33534">
        <ele>128.3</ele>
        <time>2023-01-29T13:37:08.000Z</time>
      </trkpt>
      <trkpt lat="43.47876" lon="6.33541">
        <ele>128.5</ele>
        <time>2023-01-29T13:37:15.000Z</time>
      </trkpt>
      <trkpt lat="43.47885" lon="6.33547">
        <ele>129.1</ele>
        <time>2023-01-29T13:37:21.000Z</time>
      </trkpt>
      <trkpt lat="43.47894" lon="6.33551">
        <ele>129.2</ele>
        <time>2023-01-29T13:37:30.000Z</time>
      </trkpt>
      <trkpt lat="43.47903" lon="6.33555">
        <ele>129.3</ele>
        <time>2023-01-29T13:37:36.000Z</time>
      </trkpt>
      <trkpt lat="43.47912" lon="6.33558">
        <ele>129.5</ele>
        <time>2023-01-29T13:37:42.000Z</time>
      </trkpt>
      <trkpt lat="43.4792" lon="6.33564">
        <ele>129.5</ele>
        <time>2023-01-29T13:37:48.000Z</time>
      </trkpt>
      <trkpt lat="43.4793" lon="6.33565">
        <ele>129.6</ele>
        <time>2023-01-29T13:37:55.000Z</time>
      </trkpt>
      <trkpt lat="43.47939" lon="6.3357">
        <ele>129.8</ele>
        <time>2023-01-29T13:38:03.000Z</time>
      </trkpt>
      <trkpt lat="43.47946" lon="6.33579">
        <ele>130.2</ele>
        <time>2023-01-29T13:38:11.000Z</time>
      </trkpt>
      <trkpt lat="43.47954" lon="6.33585">
        <ele>130.1</ele>
        <time>2023-01-29T13:38:20.000Z</time>
      </trkpt>
      <trkpt lat="43.47963" lon="6.33591">
        <ele>130.3</ele>
        <time>2023-01-29T13:38:29.000Z</time>
      </trkpt>
      <trkpt lat="43.47971" lon="6.33598">
        <ele>130.6</ele>
        <time>2023-01-29T13:38:38.000Z</time>
      </trkpt>
      <trkpt lat="43.47978" lon="6.33607">
        <ele>130.8</ele>
        <time>2023-01-29T13:38:46.000Z</time>
      </trkpt>
      <trkpt lat="43.47986" lon="6.33614">
        <ele>130.8</ele>
        <time>2023-01-29T13:38:53.000Z</time>
      </trkpt>
      <trkpt lat="43.47992" lon="6.33624">
        <ele>131.4</ele>
        <time>2023-01-29T13:39:01.000Z</time>
      </trkpt>
      <trkpt lat="43.47999" lon="6.33632">
        <ele>131.4</ele>
        <time>2023-01-29T13:39:08.000Z</time>
      </trkpt>
      <trkpt lat="43.48006" lon="6.33642">
        <ele>131.5</ele>
        <time>2023-01-29T13:39:15.000Z</time>
      </trkpt>
      <trkpt lat="43.48014" lon="6.3365">
        <ele>131.8</ele>
        <time>2023-01-29T13:39:23.000Z</time>
      </trkpt>
      <trkpt lat="43.48022" lon="6.33658">
        <ele>131.7</ele>
        <time>2023-01-29T13:39:30.000Z</time>
      </trkpt>
      <trkpt lat="43.48029" lon="6.33666">
        <ele>132.4</ele>
        <time>2023-01-29T13:39:38.000Z</time>
      </trkpt>
      <trkpt lat="43.48037" lon="6.33673">
        <ele>132.8</ele>
        <time>2023-01-29T13:39:47.000Z</time>
      </trkpt>
      <trkpt lat="43.48044" lon="6.33682">
        <ele>133.2</ele>
        <time>2023-01-29T13:39:54.000Z</time>
      </trkpt>
      <trkpt lat="43.48051" lon="6.3369">
        <ele>133.4</ele>
        <time>2023-01-29T13:40:02.000Z</time>
      </trkpt>
      <trkpt lat="43.48058" lon="6.33699">
        <ele>133.6</ele>
        <time>2023-01-29T13:40:11.000Z</time>
      </trkpt>
      <trkpt lat="43.48066" lon="6.33708">
        <ele>133.7</ele>
        <time>2023-01-29T13:40:19.000Z</time>
      </trkpt>
      <trkpt lat="43.48072" lon="6.33717">
        <ele>133.5</ele>
        <time>2023-01-29T13:40:28.000Z</time>
      </trkpt>
      <trkpt lat="43.48082" lon="6.33721">
        <ele>133.5</ele>
        <time>2023-01-29T13:40:36.000Z</time>
      </trkpt>
      <trkpt lat="43.4809" lon="6.33724">
        <ele>133.9</ele>
        <time>2023-01-29T13:40:41.000Z</time>
      </trkpt>
      <trkpt lat="43.48099" lon="6.33731">
        <ele>133.8</ele>
        <time>2023-01-29T13:40:48.000Z</time>
      </trkpt>
      <trkpt lat="43.48108" lon="6.33737">
        <ele>134.1</ele>
        <time>2023-01-29T13:40:56.000Z</time>
      </trkpt>
      <trkpt lat="43.48117" lon="6.33742">
        <ele>134</ele>
        <time>2023-01-29T13:41:04.000Z</time>
      </trkpt>
      <trkpt lat="43.48126" lon="6.33745">
        <ele>134.2</ele>
        <time>2023-01-29T13:41:10.000Z</time>
      </trkpt>
      <trkpt lat="43.48135" lon="6.33744">
        <ele>134.6</ele>
        <time>2023-01-29T13:41:17.000Z</time>
      </trkpt>
      <trkpt lat="43.48144" lon="6.3374">
        <ele>134.6</ele>
        <time>2023-01-29T13:41:25.000Z</time>
      </trkpt>
      <trkpt lat="43.48153" lon="6.33735">
        <ele>134.9</ele>
        <time>2023-01-29T13:41:31.000Z</time>
      </trkpt>
      <trkpt lat="43.48161" lon="6.33728">
        <ele>135.2</ele>
        <time>2023-01-29T13:41:39.000Z</time>
      </trkpt>
      <trkpt lat="43.48168" lon="6.33719">
        <ele>134.9</ele>
        <time>2023-01-29T13:41:48.000Z</time>
      </trkpt>
      <trkpt lat="43.48172" lon="6.33715">
        <ele>135.1</ele>
        <time>2023-01-29T13:41:55.000Z</time>
      </trkpt>
      <trkpt lat="43.48172" lon="6.33715">
        <ele>135</ele>
        <time>2023-01-29T13:42:00.000Z</time>
      </trkpt>
      <trkpt lat="43.48169" lon="6.33714">
        <ele>134</ele>
        <time>2023-01-29T13:42:14.000Z</time>
      </trkpt>
      <trkpt lat="43.48168" lon="6.33714">
        <ele>134.2</ele>
        <time>2023-01-29T13:42:15.000Z</time>
      </trkpt>
      <trkpt lat="43.48168" lon="6.33713">
        <ele>135.1</ele>
        <time>2023-01-29T13:42:18.000Z</time>
      </trkpt>
      <trkpt lat="43.48168" lon="6.33713">
        <ele>135</ele>
        <time>2023-01-29T13:42:21.000Z</time>
      </trkpt>
      <trkpt lat="43.48168" lon="6.33712">
        <ele>134.8</ele>
        <time>2023-01-29T13:42:27.000Z</time>
      </trkpt>
      <trkpt lat="43.48167" lon="6.33712">
        <ele>135.1</ele>
        <time>2023-01-29T13:42:29.000Z</time>
      </trkpt>
      <trkpt lat="43.48167" lon="6.33712">
        <ele>135.3</ele>
        <time>2023-01-29T13:42:32.000Z</time>
      </trkpt>
      <trkpt lat="43.48168" lon="6.33712">
        <ele>135.2</ele>
        <time>2023-01-29T13:42:33.000Z</time>
      </trkpt>
      <trkpt lat="43.48169" lon="6.33711">
        <ele>134.9</ele>
        <time>2023-01-29T13:42:41.000Z</time>
      </trkpt>
      <trkpt lat="43.48168" lon="6.33711">
        <ele>135.1</ele>
        <time>2023-01-29T13:42:48.000Z</time>
      </trkpt>
      <trkpt lat="43.48168" lon="6.33711">
        <ele>135.1</ele>
        <time>2023-01-29T13:42:49.000Z</time>
      </trkpt>
      <trkpt lat="43.48168" lon="6.33711">
        <ele>134.7</ele>
        <time>2023-01-29T13:42:55.000Z</time>
      </trkpt>
      <trkpt lat="43.48168" lon="6.33711">
        <ele>134.6</ele>
        <time>2023-01-29T13:42:56.000Z</time>
      </trkpt>
      <trkpt lat="43.48168" lon="6.33711">
        <ele>134.7</ele>
        <time>2023-01-29T13:43:00.000Z</time>
      </trkpt>
      <trkpt lat="43.48168" lon="6.33711">
        <ele>134.5</ele>
        <time>2023-01-29T13:43:06.000Z</time>
      </trkpt>
      <trkpt lat="43.48168" lon="6.33711">
        <ele>134.8</ele>
        <time>2023-01-29T13:43:31.000Z</time>
      </trkpt>
      <trkpt lat="43.48168" lon="6.33711">
        <ele>134.3</ele>
        <time>2023-01-29T13:43:42.000Z</time>
      </trkpt>
      <trkpt lat="43.48168" lon="6.33711">
        <ele>135.1</ele>
        <time>2023-01-29T13:43:44.000Z</time>
      </trkpt>
      <trkpt lat="43.48169" lon="6.33714">
        <ele>134.7</ele>
        <time>2023-01-29T13:43:57.000Z</time>
      </trkpt>
      <trkpt lat="43.48169" lon="6.33714">
        <ele>134.6</ele>
        <time>2023-01-29T13:44:01.000Z</time>
      </trkpt>
      <trkpt lat="43.48169" lon="6.33713">
        <ele>134.6</ele>
        <time>2023-01-29T13:44:04.000Z</time>
      </trkpt>
      <trkpt lat="43.4817" lon="6.33713">
        <ele>134.6</ele>
        <time>2023-01-29T13:44:05.000Z</time>
      </trkpt>
      <trkpt lat="43.4817" lon="6.33713">
        <ele>134.6</ele>
        <time>2023-01-29T13:44:06.000Z</time>
      </trkpt>
      <trkpt lat="43.48169" lon="6.33713">
        <ele>134.7</ele>
        <time>2023-01-29T13:44:07.000Z</time>
      </trkpt>
      <trkpt lat="43.48169" lon="6.33713">
        <ele>134.7</ele>
        <time>2023-01-29T13:44:08.000Z</time>
      </trkpt>
      <trkpt lat="43.48169" lon="6.33713">
        <ele>134.4</ele>
        <time>2023-01-29T13:44:09.000Z</time>
      </trkpt>
      <trkpt lat="43.48169" lon="6.33713">
        <ele>134.5</ele>
        <time>2023-01-29T13:44:10.000Z</time>
      </trkpt>
      <trkpt lat="43.48169" lon="6.33713">
        <ele>135</ele>
        <time>2023-01-29T13:44:11.000Z</time>
      </trkpt>
      <trkpt lat="43.48169" lon="6.33713">
        <ele>135</ele>
        <time>2023-01-29T13:44:12.000Z</time>
      </trkpt>
      <trkpt lat="43.48169" lon="6.33713">
        <ele>134.9</ele>
        <time>2023-01-29T13:44:14.000Z</time>
      </trkpt>
      <trkpt lat="43.48172" lon="6.33709">
        <ele>135</ele>
        <time>2023-01-29T13:44:22.000Z</time>
      </trkpt>
      <trkpt lat="43.48172" lon="6.33709">
        <ele>134.9</ele>
        <time>2023-01-29T13:44:23.000Z</time>
      </trkpt>
      <trkpt lat="43.48172" lon="6.33709">
        <ele>134.9</ele>
        <time>2023-01-29T13:44:24.000Z</time>
      </trkpt>
      <trkpt lat="43.48173" lon="6.33709">
        <ele>134.9</ele>
        <time>2023-01-29T13:44:27.000Z</time>
      </trkpt>
      <trkpt lat="43.48179" lon="6.33699">
        <ele>135.4</ele>
        <time>2023-01-29T13:44:38.000Z</time>
      </trkpt>
      <trkpt lat="43.48187" lon="6.3369">
        <ele>135.4</ele>
        <time>2023-01-29T13:44:48.000Z</time>
      </trkpt>
      <trkpt lat="43.48194" lon="6.33683">
        <ele>135.8</ele>
        <time>2023-01-29T13:44:55.000Z</time>
      </trkpt>
      <trkpt lat="43.48202" lon="6.33674">
        <ele>136</ele>
        <time>2023-01-29T13:45:02.000Z</time>
      </trkpt>
      <trkpt lat="43.48208" lon="6.33664">
        <ele>135.9</ele>
        <time>2023-01-29T13:45:11.000Z</time>
      </trkpt>
      <trkpt lat="43.48212" lon="6.33653">
        <ele>136.2</ele>
        <time>2023-01-29T13:45:19.000Z</time>
      </trkpt>
      <trkpt lat="43.48217" lon="6.33641">
        <ele>136.2</ele>
        <time>2023-01-29T13:45:27.000Z</time>
      </trkpt>
      <trkpt lat="43.48223" lon="6.33631">
        <ele>136.3</ele>
        <time>2023-01-29T13:45:36.000Z</time>
      </trkpt>
      <trkpt lat="43.48229" lon="6.33619">
        <ele>136.6</ele>
        <time>2023-01-29T13:45:45.000Z</time>
      </trkpt>
      <trkpt lat="43.48236" lon="6.3361">
        <ele>137</ele>
        <time>2023-01-29T13:45:55.000Z</time>
      </trkpt>
      <trkpt lat="43.48243" lon="6.33603">
        <ele>137.5</ele>
        <time>2023-01-29T13:46:23.000Z</time>
      </trkpt>
      <trkpt lat="43.48245" lon="6.33615">
        <ele>137.4</ele>
        <time>2023-01-29T13:46:45.000Z</time>
      </trkpt>
      <trkpt lat="43.48254" lon="6.3361">
        <ele>137.4</ele>
        <time>2023-01-29T13:47:12.000Z</time>
      </trkpt>
      <trkpt lat="43.48261" lon="6.33601">
        <ele>137.4</ele>
        <time>2023-01-29T13:47:24.000Z</time>
      </trkpt>
      <trkpt lat="43.48253" lon="6.33592">
        <ele>137.6</ele>
        <time>2023-01-29T13:47:31.000Z</time>
      </trkpt>
      <trkpt lat="43.4825" lon="6.33591">
        <ele>137.1</ele>
        <time>2023-01-29T13:47:35.000Z</time>
      </trkpt>
      <trkpt lat="43.48249" lon="6.33591">
        <ele>137.1</ele>
        <time>2023-01-29T13:47:36.000Z</time>
      </trkpt>
      <trkpt lat="43.48244" lon="6.33589">
        <ele>137.2</ele>
        <time>2023-01-29T13:47:43.000Z</time>
      </trkpt>
      <trkpt lat="43.48244" lon="6.33589">
        <ele>137</ele>
        <time>2023-01-29T13:47:46.000Z</time>
      </trkpt>
      <trkpt lat="43.48242" lon="6.33594">
        <ele>137.1</ele>
        <time>2023-01-29T13:47:51.000Z</time>
      </trkpt>
      <trkpt lat="43.48242" lon="6.33595">
        <ele>137</ele>
        <time>2023-01-29T13:47:54.000Z</time>
      </trkpt>
      <trkpt lat="43.48241" lon="6.336">
        <ele>137.1</ele>
        <time>2023-01-29T13:48:01.000Z</time>
      </trkpt>
      <trkpt lat="43.48241" lon="6.336">
        <ele>137.1</ele>
        <time>2023-01-29T13:48:04.000Z</time>
      </trkpt>
      <trkpt lat="43.48241" lon="6.336">
        <ele>137</ele>
        <time>2023-01-29T13:48:06.000Z</time>
      </trkpt>
      <trkpt lat="43.4824" lon="6.336">
        <ele>137.1</ele>
        <time>2023-01-29T13:48:07.000Z</time>
      </trkpt>
      <trkpt lat="43.4824" lon="6.336">
        <ele>137.2</ele>
        <time>2023-01-29T13:48:08.000Z</time>
      </trkpt>
      <trkpt lat="43.48241" lon="6.336">
        <ele>136.8</ele>
        <time>2023-01-29T13:48:12.000Z</time>
      </trkpt>
      <trkpt lat="43.48241" lon="6.336">
        <ele>137.1</ele>
        <time>2023-01-29T13:48:14.000Z</time>
      </trkpt>
      <trkpt lat="43.48241" lon="6.336">
        <ele>137.2</ele>
        <time>2023-01-29T13:48:16.000Z</time>
      </trkpt>
      <trkpt lat="43.48241" lon="6.336">
        <ele>137.1</ele>
        <time>2023-01-29T13:48:17.000Z</time>
      </trkpt>
      <trkpt lat="43.48241" lon="6.33601">
        <ele>137.2</ele>
        <time>2023-01-29T13:48:26.000Z</time>
      </trkpt>
      <trkpt lat="43.48241" lon="6.33601">
        <ele>137.1</ele>
        <time>2023-01-29T13:48:27.000Z</time>
      </trkpt>
      <trkpt lat="43.48241" lon="6.33601">
        <ele>137.2</ele>
        <time>2023-01-29T13:48:43.000Z</time>
      </trkpt>
      <trkpt lat="43.48244" lon="6.33608">
        <ele>137.9</ele>
        <time>2023-01-29T13:48:52.000Z</time>
      </trkpt>
      <trkpt lat="43.48245" lon="6.33607">
        <ele>138</ele>
        <time>2023-01-29T13:48:55.000Z</time>
      </trkpt>
      <trkpt lat="43.48245" lon="6.33608">
        <ele>137.9</ele>
        <time>2023-01-29T13:48:56.000Z</time>
      </trkpt>
      <trkpt lat="43.48245" lon="6.33608">
        <ele>138.1</ele>
        <time>2023-01-29T13:48:58.000Z</time>
      </trkpt>
      <trkpt lat="43.48247" lon="6.33611">
        <ele>139.5</ele>
        <time>2023-01-29T13:49:07.000Z</time>
      </trkpt>
      <trkpt lat="43.48247" lon="6.33611">
        <ele>139.6</ele>
        <time>2023-01-29T13:49:09.000Z</time>
      </trkpt>
      <trkpt lat="43.48251" lon="6.33611">
        <ele>141</ele>
        <time>2023-01-29T13:49:17.000Z</time>
      </trkpt>
      <trkpt lat="43.48251" lon="6.33611">
        <ele>141.2</ele>
        <time>2023-01-29T13:49:18.000Z</time>
      </trkpt>
      <trkpt lat="43.48252" lon="6.33611">
        <ele>141.7</ele>
        <time>2023-01-29T13:49:20.000Z</time>
      </trkpt>
      <trkpt lat="43.48252" lon="6.33611">
        <ele>141.8</ele>
        <time>2023-01-29T13:49:21.000Z</time>
      </trkpt>
      <trkpt lat="43.48252" lon="6.33611">
        <ele>141.8</ele>
        <time>2023-01-29T13:49:22.000Z</time>
      </trkpt>
      <trkpt lat="43.48252" lon="6.33611">
        <ele>142</ele>
        <time>2023-01-29T13:49:24.000Z</time>
      </trkpt>
      <trkpt lat="43.48251" lon="6.33611">
        <ele>142.1</ele>
        <time>2023-01-29T13:49:27.000Z</time>
      </trkpt>
      <trkpt lat="43.48251" lon="6.33611">
        <ele>141.9</ele>
        <time>2023-01-29T13:49:31.000Z</time>
      </trkpt>
      <trkpt lat="43.48253" lon="6.3361">
        <ele>142.4</ele>
        <time>2023-01-29T13:49:37.000Z</time>
      </trkpt>
      <trkpt lat="43.48253" lon="6.3361">
        <ele>142.4</ele>
        <time>2023-01-29T13:49:38.000Z</time>
      </trkpt>
      <trkpt lat="43.48254" lon="6.3361">
        <ele>142.4</ele>
        <time>2023-01-29T13:49:40.000Z</time>
      </trkpt>
      <trkpt lat="43.48254" lon="6.3361">
        <ele>142.4</ele>
        <time>2023-01-29T13:49:48.000Z</time>
      </trkpt>
      <trkpt lat="43.48254" lon="6.33611">
        <ele>142.4</ele>
        <time>2023-01-29T13:49:52.000Z</time>
      </trkpt>
      <trkpt lat="43.48254" lon="6.33611">
        <ele>142.2</ele>
        <time>2023-01-29T13:49:53.000Z</time>
      </trkpt>
      <trkpt lat="43.48245" lon="6.3361">
        <ele>141.5</ele>
        <time>2023-01-29T13:50:10.000Z</time>
      </trkpt>
      <trkpt lat="43.48243" lon="6.33614">
        <ele>141.8</ele>
        <time>2023-01-29T13:50:21.000Z</time>
      </trkpt>
      <trkpt lat="43.48243" lon="6.33615">
        <ele>141.8</ele>
        <time>2023-01-29T13:50:25.000Z</time>
      </trkpt>
      <trkpt lat="43.48241" lon="6.3362">
        <ele>141.8</ele>
        <time>2023-01-29T13:50:36.000Z</time>
      </trkpt>
      <trkpt lat="43.48241" lon="6.33621">
        <ele>141.7</ele>
        <time>2023-01-29T13:50:38.000Z</time>
      </trkpt>
      <trkpt lat="43.48237" lon="6.33625">
        <ele>142</ele>
        <time>2023-01-29T13:50:55.000Z</time>
      </trkpt>
      <trkpt lat="43.48237" lon="6.33625">
        <ele>142.2</ele>
        <time>2023-01-29T13:51:00.000Z</time>
      </trkpt>
      <trkpt lat="43.48243" lon="6.33627">
        <ele>142.1</ele>
        <time>2023-01-29T13:51:11.000Z</time>
      </trkpt>
      <trkpt lat="43.48243" lon="6.33627">
        <ele>142.2</ele>
        <time>2023-01-29T13:51:16.000Z</time>
      </trkpt>
      <trkpt lat="43.48243" lon="6.33627">
        <ele>142.1</ele>
        <time>2023-01-29T13:51:18.000Z</time>
      </trkpt>
      <trkpt lat="43.48243" lon="6.33626">
        <ele>142.1</ele>
        <time>2023-01-29T13:51:23.000Z</time>
      </trkpt>
      <trkpt lat="43.48244" lon="6.3363">
        <ele>142.7</ele>
        <time>2023-01-29T13:51:32.000Z</time>
      </trkpt>
      <trkpt lat="43.48244" lon="6.33631">
        <ele>142.9</ele>
        <time>2023-01-29T13:51:34.000Z</time>
      </trkpt>
      <trkpt lat="43.48246" lon="6.33632">
        <ele>143.6</ele>
        <time>2023-01-29T13:51:40.000Z</time>
      </trkpt>
      <trkpt lat="43.48246" lon="6.33633">
        <ele>144</ele>
        <time>2023-01-29T13:51:49.000Z</time>
      </trkpt>
      <trkpt lat="43.48246" lon="6.33633">
        <ele>144</ele>
        <time>2023-01-29T13:51:50.000Z</time>
      </trkpt>
      <trkpt lat="43.48246" lon="6.33633">
        <ele>144</ele>
        <time>2023-01-29T13:51:52.000Z</time>
      </trkpt>
      <trkpt lat="43.48247" lon="6.33633">
        <ele>145.1</ele>
        <time>2023-01-29T13:52:00.000Z</time>
      </trkpt>
      <trkpt lat="43.48247" lon="6.33633">
        <ele>145</ele>
        <time>2023-01-29T13:52:01.000Z</time>
      </trkpt>
      <trkpt lat="43.48246" lon="6.33633">
        <ele>145.1</ele>
        <time>2023-01-29T13:52:03.000Z</time>
      </trkpt>
      <trkpt lat="43.48246" lon="6.33633">
        <ele>145.2</ele>
        <time>2023-01-29T13:52:13.000Z</time>
      </trkpt>
      <trkpt lat="43.48249" lon="6.33634">
        <ele>146.9</ele>
        <time>2023-01-29T13:52:25.000Z</time>
      </trkpt>
      <trkpt lat="43.48249" lon="6.33634">
        <ele>147</ele>
        <time>2023-01-29T13:52:26.000Z</time>
      </trkpt>
      <trkpt lat="43.48249" lon="6.33634">
        <ele>147</ele>
        <time>2023-01-29T13:52:28.000Z</time>
      </trkpt>
      <trkpt lat="43.48249" lon="6.33633">
        <ele>147.1</ele>
        <time>2023-01-29T13:52:35.000Z</time>
      </trkpt>
      <trkpt lat="43.4825" lon="6.33632">
        <ele>147</ele>
        <time>2023-01-29T13:52:44.000Z</time>
      </trkpt>
      <trkpt lat="43.4825" lon="6.33633">
        <ele>147.8</ele>
        <time>2023-01-29T13:52:51.000Z</time>
      </trkpt>
      <trkpt lat="43.48251" lon="6.33635">
        <ele>148.3</ele>
        <time>2023-01-29T13:52:56.000Z</time>
      </trkpt>
      <trkpt lat="43.48251" lon="6.33635">
        <ele>148.5</ele>
        <time>2023-01-29T13:52:57.000Z</time>
      </trkpt>
      <trkpt lat="43.48254" lon="6.33641">
        <ele>149.3</ele>
        <time>2023-01-29T13:53:16.000Z</time>
      </trkpt>
      <trkpt lat="43.48254" lon="6.33641">
        <ele>149.5</ele>
        <time>2023-01-29T13:53:18.000Z</time>
      </trkpt>
      <trkpt lat="43.48255" lon="6.33641">
        <ele>150.4</ele>
        <time>2023-01-29T13:53:20.000Z</time>
      </trkpt>
      <trkpt lat="43.48255" lon="6.33641">
        <ele>150.4</ele>
        <time>2023-01-29T13:53:21.000Z</time>
      </trkpt>
      <trkpt lat="43.48258" lon="6.33643">
        <ele>151.8</ele>
        <time>2023-01-29T13:53:36.000Z</time>
      </trkpt>
      <trkpt lat="43.48258" lon="6.33642">
        <ele>151.9</ele>
        <time>2023-01-29T13:53:37.000Z</time>
      </trkpt>
      <trkpt lat="43.48258" lon="6.33642">
        <ele>151.9</ele>
        <time>2023-01-29T13:53:39.000Z</time>
      </trkpt>
      <trkpt lat="43.48258" lon="6.33643">
        <ele>152.6</ele>
        <time>2023-01-29T13:53:40.000Z</time>
      </trkpt>
      <trkpt lat="43.48256" lon="6.33654">
        <ele>153.6</ele>
        <time>2023-01-29T13:54:03.000Z</time>
      </trkpt>
      <trkpt lat="43.48256" lon="6.33655">
        <ele>153.9</ele>
        <time>2023-01-29T13:54:06.000Z</time>
      </trkpt>
      <trkpt lat="43.48256" lon="6.33657">
        <ele>153.9</ele>
        <time>2023-01-29T13:54:09.000Z</time>
      </trkpt>
      <trkpt lat="43.48257" lon="6.33657">
        <ele>154.3</ele>
        <time>2023-01-29T13:54:10.000Z</time>
      </trkpt>
      <trkpt lat="43.48265" lon="6.33664">
        <ele>155.9</ele>
        <time>2023-01-29T13:54:26.000Z</time>
      </trkpt>
      <trkpt lat="43.48266" lon="6.33663">
        <ele>156.4</ele>
        <time>2023-01-29T13:54:30.000Z</time>
      </trkpt>
      <trkpt lat="43.48266" lon="6.33664">
        <ele>156.7</ele>
        <time>2023-01-29T13:54:33.000Z</time>
      </trkpt>
      <trkpt lat="43.48273" lon="6.33667">
        <ele>158.7</ele>
        <time>2023-01-29T13:54:57.000Z</time>
      </trkpt>
      <trkpt lat="43.48273" lon="6.33667">
        <ele>158.8</ele>
        <time>2023-01-29T13:54:58.000Z</time>
      </trkpt>
      <trkpt lat="43.48276" lon="6.33662">
        <ele>160.3</ele>
        <time>2023-01-29T13:55:19.000Z</time>
      </trkpt>
      <trkpt lat="43.48276" lon="6.33662">
        <ele>160.6</ele>
        <time>2023-01-29T13:55:21.000Z</time>
      </trkpt>
      <trkpt lat="43.48276" lon="6.33662">
        <ele>160.7</ele>
        <time>2023-01-29T13:55:23.000Z</time>
      </trkpt>
      <trkpt lat="43.48276" lon="6.33662">
        <ele>160.9</ele>
        <time>2023-01-29T13:55:26.000Z</time>
      </trkpt>
      <trkpt lat="43.48279" lon="6.33667">
        <ele>162.3</ele>
        <time>2023-01-29T13:55:43.000Z</time>
      </trkpt>
      <trkpt lat="43.48279" lon="6.33667">
        <ele>162.5</ele>
        <time>2023-01-29T13:55:45.000Z</time>
      </trkpt>
      <trkpt lat="43.48279" lon="6.33667">
        <ele>162.6</ele>
        <time>2023-01-29T13:55:46.000Z</time>
      </trkpt>
      <trkpt lat="43.48279" lon="6.33667">
        <ele>162.5</ele>
        <time>2023-01-29T13:55:51.000Z</time>
      </trkpt>
      <trkpt lat="43.48279" lon="6.33667">
        <ele>162.8</ele>
        <time>2023-01-29T13:55:52.000Z</time>
      </trkpt>
      <trkpt lat="43.48279" lon="6.33667">
        <ele>163.1</ele>
        <time>2023-01-29T13:55:55.000Z</time>
      </trkpt>
      <trkpt lat="43.48279" lon="6.33667">
        <ele>163.1</ele>
        <time>2023-01-29T13:55:56.000Z</time>
      </trkpt>
      <trkpt lat="43.4828" lon="6.33667">
        <ele>163</ele>
        <time>2023-01-29T13:56:01.000Z</time>
      </trkpt>
      <trkpt lat="43.4828" lon="6.33667">
        <ele>163.2</ele>
        <time>2023-01-29T13:56:03.000Z</time>
      </trkpt>
      <trkpt lat="43.4828" lon="6.33667">
        <ele>163.4</ele>
        <time>2023-01-29T13:56:05.000Z</time>
      </trkpt>
      <trkpt lat="43.48288" lon="6.33668">
        <ele>164.9</ele>
        <time>2023-01-29T13:56:26.000Z</time>
      </trkpt>
      <trkpt lat="43.48288" lon="6.33668">
        <ele>164.9</ele>
        <time>2023-01-29T13:56:27.000Z</time>
      </trkpt>
      <trkpt lat="43.48288" lon="6.33668">
        <ele>165</ele>
        <time>2023-01-29T13:56:28.000Z</time>
      </trkpt>
      <trkpt lat="43.48288" lon="6.33668">
        <ele>165.2</ele>
        <time>2023-01-29T13:56:29.000Z</time>
      </trkpt>
      <trkpt lat="43.48293" lon="6.33672">
        <ele>167.4</ele>
        <time>2023-01-29T13:56:50.000Z</time>
      </trkpt>
      <trkpt lat="43.48292" lon="6.33672">
        <ele>167.5</ele>
        <time>2023-01-29T13:56:51.000Z</time>
      </trkpt>
      <trkpt lat="43.48293" lon="6.33674">
        <ele>167.4</ele>
        <time>2023-01-29T13:56:56.000Z</time>
      </trkpt>
      <trkpt lat="43.48293" lon="6.33674">
        <ele>167.3</ele>
        <time>2023-01-29T13:56:57.000Z</time>
      </trkpt>
      <trkpt lat="43.48297" lon="6.33685">
        <ele>167.9</ele>
        <time>2023-01-29T13:57:13.000Z</time>
      </trkpt>
      <trkpt lat="43.48303" lon="6.3369">
        <ele>169</ele>
        <time>2023-01-29T13:57:26.000Z</time>
      </trkpt>
      <trkpt lat="43.48304" lon="6.3369">
        <ele>169.2</ele>
        <time>2023-01-29T13:57:27.000Z</time>
      </trkpt>
      <trkpt lat="43.48306" lon="6.33688">
        <ele>170.2</ele>
        <time>2023-01-29T13:57:33.000Z</time>
      </trkpt>
      <trkpt lat="43.48306" lon="6.33688">
        <ele>170.2</ele>
        <time>2023-01-29T13:57:34.000Z</time>
      </trkpt>
      <trkpt lat="43.48309" lon="6.33687">
        <ele>170.8</ele>
        <time>2023-01-29T13:57:39.000Z</time>
      </trkpt>
      <trkpt lat="43.48308" lon="6.33686">
        <ele>171</ele>
        <time>2023-01-29T13:57:40.000Z</time>
      </trkpt>
      <trkpt lat="43.48312" lon="6.33687">
        <ele>171.2</ele>
        <time>2023-01-29T13:57:50.000Z</time>
      </trkpt>
      <trkpt lat="43.48311" lon="6.33686">
        <ele>171.2</ele>
        <time>2023-01-29T13:57:51.000Z</time>
      </trkpt>
      <trkpt lat="43.48312" lon="6.33686">
        <ele>171.6</ele>
        <time>2023-01-29T13:57:58.000Z</time>
      </trkpt>
      <trkpt lat="43.48312" lon="6.33686">
        <ele>171.7</ele>
        <time>2023-01-29T13:57:59.000Z</time>
      </trkpt>
      <trkpt lat="43.48313" lon="6.33686">
        <ele>171.9</ele>
        <time>2023-01-29T13:58:03.000Z</time>
      </trkpt>
      <trkpt lat="43.48313" lon="6.33685">
        <ele>171.8</ele>
        <time>2023-01-29T13:58:05.000Z</time>
      </trkpt>
      <trkpt lat="43.48313" lon="6.33685">
        <ele>171.8</ele>
        <time>2023-01-29T13:58:08.000Z</time>
      </trkpt>
      <trkpt lat="43.48314" lon="6.33685">
        <ele>171.8</ele>
        <time>2023-01-29T13:58:09.000Z</time>
      </trkpt>
      <trkpt lat="43.4832" lon="6.33676">
        <ele>174.2</ele>
        <time>2023-01-29T13:58:33.000Z</time>
      </trkpt>
      <trkpt lat="43.48322" lon="6.33665">
        <ele>175.3</ele>
        <time>2023-01-29T13:58:46.000Z</time>
      </trkpt>
      <trkpt lat="43.48322" lon="6.33665">
        <ele>175.2</ele>
        <time>2023-01-29T13:58:47.000Z</time>
      </trkpt>
      <trkpt lat="43.48329" lon="6.33655">
        <ele>176.3</ele>
        <time>2023-01-29T13:59:03.000Z</time>
      </trkpt>
      <trkpt lat="43.48333" lon="6.33653">
        <ele>177</ele>
        <time>2023-01-29T13:59:14.000Z</time>
      </trkpt>
      <trkpt lat="43.48333" lon="6.33653">
        <ele>177.1</ele>
        <time>2023-01-29T13:59:15.000Z</time>
      </trkpt>
      <trkpt lat="43.48333" lon="6.33653">
        <ele>177.2</ele>
        <time>2023-01-29T13:59:16.000Z</time>
      </trkpt>
      <trkpt lat="43.48333" lon="6.33654">
        <ele>177.3</ele>
        <time>2023-01-29T13:59:17.000Z</time>
      </trkpt>
      <trkpt lat="43.48332" lon="6.33656">
        <ele>177.7</ele>
        <time>2023-01-29T13:59:22.000Z</time>
      </trkpt>
      <trkpt lat="43.48332" lon="6.33655">
        <ele>177.7</ele>
        <time>2023-01-29T13:59:24.000Z</time>
      </trkpt>
      <trkpt lat="43.48332" lon="6.33655">
        <ele>177.8</ele>
        <time>2023-01-29T13:59:26.000Z</time>
      </trkpt>
      <trkpt lat="43.48332" lon="6.33655">
        <ele>177.8</ele>
        <time>2023-01-29T13:59:27.000Z</time>
      </trkpt>
      <trkpt lat="43.48331" lon="6.33655">
        <ele>177.7</ele>
        <time>2023-01-29T13:59:29.000Z</time>
      </trkpt>
      <trkpt lat="43.48331" lon="6.33654">
        <ele>177.6</ele>
        <time>2023-01-29T13:59:31.000Z</time>
      </trkpt>
      <trkpt lat="43.48331" lon="6.33654">
        <ele>177</ele>
        <time>2023-01-29T13:59:34.000Z</time>
      </trkpt>
      <trkpt lat="43.48331" lon="6.33654">
        <ele>177</ele>
        <time>2023-01-29T13:59:35.000Z</time>
      </trkpt>
      <trkpt lat="43.48331" lon="6.33651">
        <ele>177.8</ele>
        <time>2023-01-29T13:59:44.000Z</time>
      </trkpt>
      <trkpt lat="43.48331" lon="6.3365">
        <ele>177.6</ele>
        <time>2023-01-29T13:59:45.000Z</time>
      </trkpt>
      <trkpt lat="43.48331" lon="6.3365">
        <ele>177.6</ele>
        <time>2023-01-29T13:59:46.000Z</time>
      </trkpt>
      <trkpt lat="43.48332" lon="6.3365">
        <ele>177.5</ele>
        <time>2023-01-29T14:00:06.000Z</time>
      </trkpt>
      <trkpt lat="43.48332" lon="6.3365">
        <ele>177.4</ele>
        <time>2023-01-29T14:00:07.000Z</time>
      </trkpt>
      <trkpt lat="43.48331" lon="6.3365">
        <ele>177.1</ele>
        <time>2023-01-29T14:00:16.000Z</time>
      </trkpt>
      <trkpt lat="43.48331" lon="6.33649">
        <ele>177.3</ele>
        <time>2023-01-29T14:00:19.000Z</time>
      </trkpt>
      <trkpt lat="43.48331" lon="6.33649">
        <ele>177.3</ele>
        <time>2023-01-29T14:00:20.000Z</time>
      </trkpt>
      <trkpt lat="43.48331" lon="6.33649">
        <ele>177.3</ele>
        <time>2023-01-29T14:00:21.000Z</time>
      </trkpt>
      <trkpt lat="43.48331" lon="6.3365">
        <ele>177.5</ele>
        <time>2023-01-29T14:00:27.000Z</time>
      </trkpt>
      <trkpt lat="43.48331" lon="6.3365">
        <ele>177.6</ele>
        <time>2023-01-29T14:00:30.000Z</time>
      </trkpt>
      <trkpt lat="43.48331" lon="6.33651">
        <ele>177.6</ele>
        <time>2023-01-29T14:00:31.000Z</time>
      </trkpt>
      <trkpt lat="43.48331" lon="6.33651">
        <ele>177.6</ele>
        <time>2023-01-29T14:00:32.000Z</time>
      </trkpt>
      <trkpt lat="43.48332" lon="6.33651">
        <ele>177.6</ele>
        <time>2023-01-29T14:00:33.000Z</time>
      </trkpt>
      <trkpt lat="43.48332" lon="6.33651">
        <ele>177.6</ele>
        <time>2023-01-29T14:00:34.000Z</time>
      </trkpt>
      <trkpt lat="43.48331" lon="6.33651">
        <ele>177.5</ele>
        <time>2023-01-29T14:00:51.000Z</time>
      </trkpt>
      <trkpt lat="43.48333" lon="6.33652">
        <ele>177.4</ele>
        <time>2023-01-29T14:00:55.000Z</time>
      </trkpt>
      <trkpt lat="43.48332" lon="6.33652">
        <ele>177.5</ele>
        <time>2023-01-29T14:00:59.000Z</time>
      </trkpt>
      <trkpt lat="43.48328" lon="6.33653">
        <ele>177.4</ele>
        <time>2023-01-29T14:01:07.000Z</time>
      </trkpt>
      <trkpt lat="43.48328" lon="6.33653">
        <ele>177.4</ele>
        <time>2023-01-29T14:01:08.000Z</time>
      </trkpt>
      <trkpt lat="43.48328" lon="6.33653">
        <ele>177.3</ele>
        <time>2023-01-29T14:01:10.000Z</time>
      </trkpt>
      <trkpt lat="43.48328" lon="6.33653">
        <ele>177.3</ele>
        <time>2023-01-29T14:01:11.000Z</time>
      </trkpt>
      <trkpt lat="43.48329" lon="6.3365">
        <ele>177</ele>
        <time>2023-01-29T14:01:28.000Z</time>
      </trkpt>
      <trkpt lat="43.48329" lon="6.33649">
        <ele>177.1</ele>
        <time>2023-01-29T14:01:29.000Z</time>
      </trkpt>
      <trkpt lat="43.48329" lon="6.33649">
        <ele>176.9</ele>
        <time>2023-01-29T14:01:33.000Z</time>
      </trkpt>
      <trkpt lat="43.48329" lon="6.33648">
        <ele>176.9</ele>
        <time>2023-01-29T14:01:34.000Z</time>
      </trkpt>
      <trkpt lat="43.4833" lon="6.33649">
        <ele>177</ele>
        <time>2023-01-29T14:01:41.000Z</time>
      </trkpt>
      <trkpt lat="43.4833" lon="6.33649">
        <ele>177.1</ele>
        <time>2023-01-29T14:01:42.000Z</time>
      </trkpt>
      <trkpt lat="43.48331" lon="6.33649">
        <ele>176.9</ele>
        <time>2023-01-29T14:01:44.000Z</time>
      </trkpt>
      <trkpt lat="43.4833" lon="6.33649">
        <ele>176.9</ele>
        <time>2023-01-29T14:01:45.000Z</time>
      </trkpt>
      <trkpt lat="43.48329" lon="6.33649">
        <ele>176.6</ele>
        <time>2023-01-29T14:01:56.000Z</time>
      </trkpt>
      <trkpt lat="43.48329" lon="6.33649">
        <ele>176.6</ele>
        <time>2023-01-29T14:01:57.000Z</time>
      </trkpt>
      <trkpt lat="43.48329" lon="6.33649">
        <ele>176.5</ele>
        <time>2023-01-29T14:02:02.000Z</time>
      </trkpt>
      <trkpt lat="43.48329" lon="6.33649">
        <ele>176.7</ele>
        <time>2023-01-29T14:02:04.000Z</time>
      </trkpt>
      <trkpt lat="43.48329" lon="6.3365">
        <ele>176.6</ele>
        <time>2023-01-29T14:02:08.000Z</time>
      </trkpt>
      <trkpt lat="43.48329" lon="6.3365">
        <ele>176.5</ele>
        <time>2023-01-29T14:02:09.000Z</time>
      </trkpt>
      <trkpt lat="43.48329" lon="6.33649">
        <ele>176.8</ele>
        <time>2023-01-29T14:02:19.000Z</time>
      </trkpt>
      <trkpt lat="43.48328" lon="6.33648">
        <ele>176.8</ele>
        <time>2023-01-29T14:02:21.000Z</time>
      </trkpt>
      <trkpt lat="43.48331" lon="6.33651">
        <ele>176.8</ele>
        <time>2023-01-29T14:02:30.000Z</time>
      </trkpt>
      <trkpt lat="43.4833" lon="6.3365">
        <ele>176.8</ele>
        <time>2023-01-29T14:02:31.000Z</time>
      </trkpt>
      <trkpt lat="43.48326" lon="6.33655">
        <ele>176.7</ele>
        <time>2023-01-29T14:02:51.000Z</time>
      </trkpt>
      <trkpt lat="43.48327" lon="6.33656">
        <ele>176.6</ele>
        <time>2023-01-29T14:02:53.000Z</time>
      </trkpt>
      <trkpt lat="43.48327" lon="6.33656">
        <ele>176.8</ele>
        <time>2023-01-29T14:02:55.000Z</time>
      </trkpt>
      <trkpt lat="43.48327" lon="6.33655">
        <ele>176.4</ele>
        <time>2023-01-29T14:03:17.000Z</time>
      </trkpt>
      <trkpt lat="43.48327" lon="6.33655">
        <ele>176.4</ele>
        <time>2023-01-29T14:03:19.000Z</time>
      </trkpt>
      <trkpt lat="43.48327" lon="6.33655">
        <ele>176.3</ele>
        <time>2023-01-29T14:03:23.000Z</time>
      </trkpt>
      <trkpt lat="43.48327" lon="6.33655">
        <ele>176.3</ele>
        <time>2023-01-29T14:03:24.000Z</time>
      </trkpt>
      <trkpt lat="43.48327" lon="6.33655">
        <ele>176.2</ele>
        <time>2023-01-29T14:03:41.000Z</time>
      </trkpt>
      <trkpt lat="43.48327" lon="6.33655">
        <ele>176.1</ele>
        <time>2023-01-29T14:03:42.000Z</time>
      </trkpt>
      <trkpt lat="43.48327" lon="6.33655">
        <ele>175.7</ele>
        <time>2023-01-29T14:03:54.000Z</time>
      </trkpt>
      <trkpt lat="43.48327" lon="6.33655">
        <ele>175.9</ele>
        <time>2023-01-29T14:03:55.000Z</time>
      </trkpt>
      <trkpt lat="43.48327" lon="6.33655">
        <ele>175.9</ele>
        <time>2023-01-29T14:04:16.000Z</time>
      </trkpt>
      <trkpt lat="43.48327" lon="6.33655">
        <ele>175.8</ele>
        <time>2023-01-29T14:04:17.000Z</time>
      </trkpt>
      <trkpt lat="43.48327" lon="6.33655">
        <ele>174.9</ele>
        <time>2023-01-29T14:05:21.000Z</time>
      </trkpt>
      <trkpt lat="43.48327" lon="6.33655">
        <ele>174.9</ele>
        <time>2023-01-29T14:05:22.000Z</time>
      </trkpt>
      <trkpt lat="43.48327" lon="6.33654">
        <ele>174.9</ele>
        <time>2023-01-29T14:05:45.000Z</time>
      </trkpt>
      <trkpt lat="43.48327" lon="6.33654">
        <ele>174.5</ele>
        <time>2023-01-29T14:05:49.000Z</time>
      </trkpt>
      <trkpt lat="43.48328" lon="6.33655">
        <ele>174.6</ele>
        <time>2023-01-29T14:05:50.000Z</time>
      </trkpt>
      <trkpt lat="43.48328" lon="6.33656">
        <ele>174.4</ele>
        <time>2023-01-29T14:05:53.000Z</time>
      </trkpt>
      <trkpt lat="43.48328" lon="6.33656">
        <ele>174.5</ele>
        <time>2023-01-29T14:05:54.000Z</time>
      </trkpt>
      <trkpt lat="43.48328" lon="6.33656">
        <ele>174.5</ele>
        <time>2023-01-29T14:05:55.000Z</time>
      </trkpt>
      <trkpt lat="43.48328" lon="6.33657">
        <ele>174.6</ele>
        <time>2023-01-29T14:05:57.000Z</time>
      </trkpt>
      <trkpt lat="43.48328" lon="6.33657">
        <ele>174.5</ele>
        <time>2023-01-29T14:05:58.000Z</time>
      </trkpt>
      <trkpt lat="43.48328" lon="6.33657">
        <ele>174.4</ele>
        <time>2023-01-29T14:06:03.000Z</time>
      </trkpt>
      <trkpt lat="43.48328" lon="6.33657">
        <ele>174.4</ele>
        <time>2023-01-29T14:06:05.000Z</time>
      </trkpt>
      <trkpt lat="43.48328" lon="6.33658">
        <ele>174</ele>
        <time>2023-01-29T14:06:57.000Z</time>
      </trkpt>
      <trkpt lat="43.48328" lon="6.33658">
        <ele>174.1</ele>
        <time>2023-01-29T14:06:58.000Z</time>
      </trkpt>
      <trkpt lat="43.48328" lon="6.33657">
        <ele>174.7</ele>
        <time>2023-01-29T14:07:05.000Z</time>
      </trkpt>
      <trkpt lat="43.48328" lon="6.33658">
        <ele>174.7</ele>
        <time>2023-01-29T14:07:08.000Z</time>
      </trkpt>
      <trkpt lat="43.48328" lon="6.33658">
        <ele>174.4</ele>
        <time>2023-01-29T14:07:11.000Z</time>
      </trkpt>
      <trkpt lat="43.48328" lon="6.33658">
        <ele>174.3</ele>
        <time>2023-01-29T14:07:12.000Z</time>
      </trkpt>
      <trkpt lat="43.48328" lon="6.33658">
        <ele>174.2</ele>
        <time>2023-01-29T14:07:13.000Z</time>
      </trkpt>
      <trkpt lat="43.48328" lon="6.33657">
        <ele>174</ele>
        <time>2023-01-29T14:07:14.000Z</time>
      </trkpt>
      <trkpt lat="43.48328" lon="6.33657">
        <ele>173.8</ele>
        <time>2023-01-29T14:07:15.000Z</time>
      </trkpt>
      <trkpt lat="43.48328" lon="6.33657">
        <ele>173.8</ele>
        <time>2023-01-29T14:07:16.000Z</time>
      </trkpt>
      <trkpt lat="43.48328" lon="6.33657">
        <ele>173.8</ele>
        <time>2023-01-29T14:07:18.000Z</time>
      </trkpt>
      <trkpt lat="43.48328" lon="6.33657">
        <ele>173.7</ele>
        <time>2023-01-29T14:07:19.000Z</time>
      </trkpt>
      <trkpt lat="43.48328" lon="6.33657">
        <ele>173.6</ele>
        <time>2023-01-29T14:07:20.000Z</time>
      </trkpt>
      <trkpt lat="43.48327" lon="6.3366">
        <ele>173.6</ele>
        <time>2023-01-29T14:07:27.000Z</time>
      </trkpt>
      <trkpt lat="43.48327" lon="6.3366">
        <ele>173.7</ele>
        <time>2023-01-29T14:07:31.000Z</time>
      </trkpt>
      <trkpt lat="43.48327" lon="6.3366">
        <ele>173.7</ele>
        <time>2023-01-29T14:07:32.000Z</time>
      </trkpt>
      <trkpt lat="43.48326" lon="6.3366">
        <ele>173.7</ele>
        <time>2023-01-29T14:07:33.000Z</time>
      </trkpt>
      <trkpt lat="43.48326" lon="6.3366">
        <ele>173.3</ele>
        <time>2023-01-29T14:07:39.000Z</time>
      </trkpt>
      <trkpt lat="43.48326" lon="6.3366">
        <ele>173.6</ele>
        <time>2023-01-29T14:07:47.000Z</time>
      </trkpt>
      <trkpt lat="43.4833" lon="6.33659">
        <ele>173.1</ele>
        <time>2023-01-29T14:07:54.000Z</time>
      </trkpt>
      <trkpt lat="43.4833" lon="6.33659">
        <ele>173.2</ele>
        <time>2023-01-29T14:07:55.000Z</time>
      </trkpt>
      <trkpt lat="43.4833" lon="6.3366">
        <ele>173.1</ele>
        <time>2023-01-29T14:07:59.000Z</time>
      </trkpt>
      <trkpt lat="43.4833" lon="6.3366">
        <ele>173.2</ele>
        <time>2023-01-29T14:08:00.000Z</time>
      </trkpt>
      <trkpt lat="43.48329" lon="6.3366">
        <ele>173.2</ele>
        <time>2023-01-29T14:08:10.000Z</time>
      </trkpt>
      <trkpt lat="43.48329" lon="6.33659">
        <ele>173.3</ele>
        <time>2023-01-29T14:08:11.000Z</time>
      </trkpt>
      <trkpt lat="43.48329" lon="6.33658">
        <ele>173</ele>
        <time>2023-01-29T14:08:15.000Z</time>
      </trkpt>
      <trkpt lat="43.48329" lon="6.33658">
        <ele>172.9</ele>
        <time>2023-01-29T14:08:16.000Z</time>
      </trkpt>
      <trkpt lat="43.48328" lon="6.33657">
        <ele>173</ele>
        <time>2023-01-29T14:08:18.000Z</time>
      </trkpt>
      <trkpt lat="43.48329" lon="6.33657">
        <ele>173.3</ele>
        <time>2023-01-29T14:08:23.000Z</time>
      </trkpt>
      <trkpt lat="43.48329" lon="6.33656">
        <ele>173.2</ele>
        <time>2023-01-29T14:08:26.000Z</time>
      </trkpt>
      <trkpt lat="43.48329" lon="6.33656">
        <ele>173.2</ele>
        <time>2023-01-29T14:08:30.000Z</time>
      </trkpt>
      <trkpt lat="43.48329" lon="6.33656">
        <ele>173.2</ele>
        <time>2023-01-29T14:08:31.000Z</time>
      </trkpt>
      <trkpt lat="43.48329" lon="6.33656">
        <ele>173.2</ele>
        <time>2023-01-29T14:08:33.000Z</time>
      </trkpt>
      <trkpt lat="43.4833" lon="6.33656">
        <ele>173.1</ele>
        <time>2023-01-29T14:08:35.000Z</time>
      </trkpt>
      <trkpt lat="43.4833" lon="6.33656">
        <ele>173</ele>
        <time>2023-01-29T14:08:36.000Z</time>
      </trkpt>
      <trkpt lat="43.4833" lon="6.33654">
        <ele>172.8</ele>
        <time>2023-01-29T14:08:41.000Z</time>
      </trkpt>
      <trkpt lat="43.4833" lon="6.33654">
        <ele>172.7</ele>
        <time>2023-01-29T14:08:48.000Z</time>
      </trkpt>
      <trkpt lat="43.4833" lon="6.33654">
        <ele>172.7</ele>
        <time>2023-01-29T14:08:49.000Z</time>
      </trkpt>
      <trkpt lat="43.4833" lon="6.33654">
        <ele>172.7</ele>
        <time>2023-01-29T14:08:56.000Z</time>
      </trkpt>
      <trkpt lat="43.4833" lon="6.33654">
        <ele>172.6</ele>
        <time>2023-01-29T14:08:57.000Z</time>
      </trkpt>
      <trkpt lat="43.4833" lon="6.33655">
        <ele>172.5</ele>
        <time>2023-01-29T14:08:58.000Z</time>
      </trkpt>
      <trkpt lat="43.48328" lon="6.33656">
        <ele>172.7</ele>
        <time>2023-01-29T14:09:10.000Z</time>
      </trkpt>
      <trkpt lat="43.48328" lon="6.33656">
        <ele>172.9</ele>
        <time>2023-01-29T14:09:20.000Z</time>
      </trkpt>
      <trkpt lat="43.48331" lon="6.33656">
        <ele>172.5</ele>
        <time>2023-01-29T14:09:32.000Z</time>
      </trkpt>
      <trkpt lat="43.48331" lon="6.33656">
        <ele>172.4</ele>
        <time>2023-01-29T14:09:37.000Z</time>
      </trkpt>
      <trkpt lat="43.48331" lon="6.33656">
        <ele>172.4</ele>
        <time>2023-01-29T14:09:41.000Z</time>
      </trkpt>
      <trkpt lat="43.48331" lon="6.33656">
        <ele>172.4</ele>
        <time>2023-01-29T14:09:42.000Z</time>
      </trkpt>
      <trkpt lat="43.48331" lon="6.33656">
        <ele>172.6</ele>
        <time>2023-01-29T14:09:43.000Z</time>
      </trkpt>
      <trkpt lat="43.48331" lon="6.33656">
        <ele>172.5</ele>
        <time>2023-01-29T14:09:44.000Z</time>
      </trkpt>
      <trkpt lat="43.48331" lon="6.33655">
        <ele>172.4</ele>
        <time>2023-01-29T14:09:45.000Z</time>
      </trkpt>
      <trkpt lat="43.48331" lon="6.33656">
        <ele>172.6</ele>
        <time>2023-01-29T14:09:52.000Z</time>
      </trkpt>
      <trkpt lat="43.48327" lon="6.3366">
        <ele>172.8</ele>
        <time>2023-01-29T14:10:05.000Z</time>
      </trkpt>
      <trkpt lat="43.48327" lon="6.3366">
        <ele>172.7</ele>
        <time>2023-01-29T14:10:06.000Z</time>
      </trkpt>
      <trkpt lat="43.48323" lon="6.33671">
        <ele>171.9</ele>
        <time>2023-01-29T14:10:23.000Z</time>
      </trkpt>
      <trkpt lat="43.48325" lon="6.33683">
        <ele>171.2</ele>
        <time>2023-01-29T14:10:38.000Z</time>
      </trkpt>
      <trkpt lat="43.48326" lon="6.33683">
        <ele>171.5</ele>
        <time>2023-01-29T14:10:41.000Z</time>
      </trkpt>
      <trkpt lat="43.48331" lon="6.33694">
        <ele>171</ele>
        <time>2023-01-29T14:11:00.000Z</time>
      </trkpt>
      <trkpt lat="43.48339" lon="6.33701">
        <ele>171.1</ele>
        <time>2023-01-29T14:11:14.000Z</time>
      </trkpt>
      <trkpt lat="43.48348" lon="6.33702">
        <ele>171.6</ele>
        <time>2023-01-29T14:11:27.000Z</time>
      </trkpt>
      <trkpt lat="43.4835" lon="6.33715">
        <ele>170.5</ele>
        <time>2023-01-29T14:11:50.000Z</time>
      </trkpt>
      <trkpt lat="43.48349" lon="6.33719">
        <ele>170.3</ele>
        <time>2023-01-29T14:11:58.000Z</time>
      </trkpt>
      <trkpt lat="43.48349" lon="6.33719">
        <ele>170</ele>
        <time>2023-01-29T14:12:05.000Z</time>
      </trkpt>
      <trkpt lat="43.48349" lon="6.33719">
        <ele>170.1</ele>
        <time>2023-01-29T14:12:06.000Z</time>
      </trkpt>
      <trkpt lat="43.48349" lon="6.33719">
        <ele>170.3</ele>
        <time>2023-01-29T14:12:08.000Z</time>
      </trkpt>
      <trkpt lat="43.4835" lon="6.3372">
        <ele>170.7</ele>
        <time>2023-01-29T14:12:10.000Z</time>
      </trkpt>
      <trkpt lat="43.4835" lon="6.3372">
        <ele>170.3</ele>
        <time>2023-01-29T14:12:16.000Z</time>
      </trkpt>
      <trkpt lat="43.48351" lon="6.33719">
        <ele>170</ele>
        <time>2023-01-29T14:12:23.000Z</time>
      </trkpt>
      <trkpt lat="43.48351" lon="6.33719">
        <ele>169.9</ele>
        <time>2023-01-29T14:12:24.000Z</time>
      </trkpt>
      <trkpt lat="43.48351" lon="6.33719">
        <ele>170</ele>
        <time>2023-01-29T14:12:25.000Z</time>
      </trkpt>
      <trkpt lat="43.48351" lon="6.33719">
        <ele>170.3</ele>
        <time>2023-01-29T14:12:39.000Z</time>
      </trkpt>
      <trkpt lat="43.48351" lon="6.33719">
        <ele>170.3</ele>
        <time>2023-01-29T14:12:40.000Z</time>
      </trkpt>
      <trkpt lat="43.4835" lon="6.33719">
        <ele>169.9</ele>
        <time>2023-01-29T14:12:46.000Z</time>
      </trkpt>
      <trkpt lat="43.4835" lon="6.33719">
        <ele>170</ele>
        <time>2023-01-29T14:12:49.000Z</time>
      </trkpt>
      <trkpt lat="43.4835" lon="6.33719">
        <ele>170.2</ele>
        <time>2023-01-29T14:12:58.000Z</time>
      </trkpt>
      <trkpt lat="43.4836" lon="6.33715">
        <ele>170.7</ele>
        <time>2023-01-29T14:13:08.000Z</time>
      </trkpt>
      <trkpt lat="43.48369" lon="6.3371">
        <ele>170.5</ele>
        <time>2023-01-29T14:13:16.000Z</time>
      </trkpt>
      <trkpt lat="43.48378" lon="6.33707">
        <ele>170.3</ele>
        <time>2023-01-29T14:13:23.000Z</time>
      </trkpt>
      <trkpt lat="43.48381" lon="6.33701">
        <ele>168.8</ele>
        <time>2023-01-29T14:13:38.000Z</time>
      </trkpt>
      <trkpt lat="43.48381" lon="6.33701">
        <ele>168.8</ele>
        <time>2023-01-29T14:13:39.000Z</time>
      </trkpt>
      <trkpt lat="43.48379" lon="6.33702">
        <ele>168.6</ele>
        <time>2023-01-29T14:13:43.000Z</time>
      </trkpt>
      <trkpt lat="43.48379" lon="6.33702">
        <ele>168.5</ele>
        <time>2023-01-29T14:13:44.000Z</time>
      </trkpt>
      <trkpt lat="43.48378" lon="6.33702">
        <ele>168.7</ele>
        <time>2023-01-29T14:13:46.000Z</time>
      </trkpt>
      <trkpt lat="43.48378" lon="6.33701">
        <ele>168.3</ele>
        <time>2023-01-29T14:14:00.000Z</time>
      </trkpt>
      <trkpt lat="43.48378" lon="6.33701">
        <ele>168.3</ele>
        <time>2023-01-29T14:14:01.000Z</time>
      </trkpt>
      <trkpt lat="43.48378" lon="6.33701">
        <ele>168.1</ele>
        <time>2023-01-29T14:14:20.000Z</time>
      </trkpt>
      <trkpt lat="43.48378" lon="6.33701">
        <ele>168</ele>
        <time>2023-01-29T14:14:21.000Z</time>
      </trkpt>
      <trkpt lat="43.48378" lon="6.337">
        <ele>168</ele>
        <time>2023-01-29T14:14:26.000Z</time>
      </trkpt>
      <trkpt lat="43.48377" lon="6.33699">
        <ele>168.1</ele>
        <time>2023-01-29T14:14:28.000Z</time>
      </trkpt>
      <trkpt lat="43.48377" lon="6.33698">
        <ele>167.7</ele>
        <time>2023-01-29T14:14:33.000Z</time>
      </trkpt>
      <trkpt lat="43.48377" lon="6.33698">
        <ele>167.8</ele>
        <time>2023-01-29T14:14:34.000Z</time>
      </trkpt>
      <trkpt lat="43.48377" lon="6.33698">
        <ele>167.9</ele>
        <time>2023-01-29T14:14:35.000Z</time>
      </trkpt>
      <trkpt lat="43.48377" lon="6.33698">
        <ele>168</ele>
        <time>2023-01-29T14:14:36.000Z</time>
      </trkpt>
      <trkpt lat="43.48377" lon="6.33698">
        <ele>167.5</ele>
        <time>2023-01-29T14:15:21.000Z</time>
      </trkpt>
      <trkpt lat="43.48386" lon="6.33701">
        <ele>165.4</ele>
        <time>2023-01-29T14:15:37.000Z</time>
      </trkpt>
      <trkpt lat="43.48393" lon="6.33706">
        <ele>163.5</ele>
        <time>2023-01-29T14:15:51.000Z</time>
      </trkpt>
      <trkpt lat="43.48394" lon="6.33707">
        <ele>163.6</ele>
        <time>2023-01-29T14:15:54.000Z</time>
      </trkpt>
      <trkpt lat="43.484" lon="6.33717">
        <ele>162.6</ele>
        <time>2023-01-29T14:16:03.000Z</time>
      </trkpt>
      <trkpt lat="43.48409" lon="6.33722">
        <ele>161.2</ele>
        <time>2023-01-29T14:16:11.000Z</time>
      </trkpt>
      <trkpt lat="43.48417" lon="6.3373">
        <ele>159.6</ele>
        <time>2023-01-29T14:16:25.000Z</time>
      </trkpt>
      <trkpt lat="43.48426" lon="6.33737">
        <ele>158.5</ele>
        <time>2023-01-29T14:16:36.000Z</time>
      </trkpt>
      <trkpt lat="43.48434" lon="6.33745">
        <ele>156.9</ele>
        <time>2023-01-29T14:16:46.000Z</time>
      </trkpt>
      <trkpt lat="43.48437" lon="6.33757">
        <ele>155.7</ele>
        <time>2023-01-29T14:16:59.000Z</time>
      </trkpt>
      <trkpt lat="43.48442" lon="6.33767">
        <ele>155.7</ele>
        <time>2023-01-29T14:17:12.000Z</time>
      </trkpt>
      <trkpt lat="43.4845" lon="6.33774">
        <ele>154.6</ele>
        <time>2023-01-29T14:17:23.000Z</time>
      </trkpt>
      <trkpt lat="43.48458" lon="6.33779">
        <ele>153.3</ele>
        <time>2023-01-29T14:17:37.000Z</time>
      </trkpt>
      <trkpt lat="43.48464" lon="6.33789">
        <ele>151.8</ele>
        <time>2023-01-29T14:17:50.000Z</time>
      </trkpt>
      <trkpt lat="43.48465" lon="6.33792">
        <ele>151.3</ele>
        <time>2023-01-29T14:17:58.000Z</time>
      </trkpt>
      <trkpt lat="43.48466" lon="6.33791">
        <ele>151.1</ele>
        <time>2023-01-29T14:17:59.000Z</time>
      </trkpt>
      <trkpt lat="43.48466" lon="6.33791">
        <ele>150.9</ele>
        <time>2023-01-29T14:18:00.000Z</time>
      </trkpt>
      <trkpt lat="43.48466" lon="6.33791">
        <ele>151</ele>
        <time>2023-01-29T14:18:01.000Z</time>
      </trkpt>
      <trkpt lat="43.48466" lon="6.33791">
        <ele>151.1</ele>
        <time>2023-01-29T14:18:04.000Z</time>
      </trkpt>
      <trkpt lat="43.48466" lon="6.33791">
        <ele>151</ele>
        <time>2023-01-29T14:18:15.000Z</time>
      </trkpt>
      <trkpt lat="43.48467" lon="6.33794">
        <ele>150.5</ele>
        <time>2023-01-29T14:18:20.000Z</time>
      </trkpt>
      <trkpt lat="43.48467" lon="6.33794">
        <ele>150.4</ele>
        <time>2023-01-29T14:18:21.000Z</time>
      </trkpt>
      <trkpt lat="43.48472" lon="6.33801">
        <ele>149.2</ele>
        <time>2023-01-29T14:18:35.000Z</time>
      </trkpt>
      <trkpt lat="43.48472" lon="6.33801">
        <ele>149.3</ele>
        <time>2023-01-29T14:18:36.000Z</time>
      </trkpt>
      <trkpt lat="43.48472" lon="6.33801">
        <ele>149.2</ele>
        <time>2023-01-29T14:18:37.000Z</time>
      </trkpt>
      <trkpt lat="43.48472" lon="6.33801">
        <ele>149.3</ele>
        <time>2023-01-29T14:18:45.000Z</time>
      </trkpt>
      <trkpt lat="43.4848" lon="6.33808">
        <ele>147.1</ele>
        <time>2023-01-29T14:19:02.000Z</time>
      </trkpt>
      <trkpt lat="43.48482" lon="6.33821">
        <ele>146.1</ele>
        <time>2023-01-29T14:19:18.000Z</time>
      </trkpt>
      <trkpt lat="43.48488" lon="6.33831">
        <ele>144.7</ele>
        <time>2023-01-29T14:19:33.000Z</time>
      </trkpt>
      <trkpt lat="43.48497" lon="6.3383">
        <ele>143.4</ele>
        <time>2023-01-29T14:19:43.000Z</time>
      </trkpt>
      <trkpt lat="43.48506" lon="6.33825">
        <ele>142.2</ele>
        <time>2023-01-29T14:19:52.000Z</time>
      </trkpt>
      <trkpt lat="43.48514" lon="6.33819">
        <ele>140.9</ele>
        <time>2023-01-29T14:20:01.000Z</time>
      </trkpt>
      <trkpt lat="43.48522" lon="6.33813">
        <ele>140.2</ele>
        <time>2023-01-29T14:20:10.000Z</time>
      </trkpt>
      <trkpt lat="43.48526" lon="6.33806">
        <ele>139.2</ele>
        <time>2023-01-29T14:20:20.000Z</time>
      </trkpt>
      <trkpt lat="43.48527" lon="6.33806">
        <ele>139</ele>
        <time>2023-01-29T14:20:21.000Z</time>
      </trkpt>
      <trkpt lat="43.48534" lon="6.33797">
        <ele>138</ele>
        <time>2023-01-29T14:20:32.000Z</time>
      </trkpt>
      <trkpt lat="43.48536" lon="6.33784">
        <ele>137.4</ele>
        <time>2023-01-29T14:20:41.000Z</time>
      </trkpt>
      <trkpt lat="43.48535" lon="6.33771">
        <ele>136.7</ele>
        <time>2023-01-29T14:20:50.000Z</time>
      </trkpt>
      <trkpt lat="43.48528" lon="6.33762">
        <ele>136.6</ele>
        <time>2023-01-29T14:20:57.000Z</time>
      </trkpt>
      <trkpt lat="43.48523" lon="6.33752">
        <ele>136.1</ele>
        <time>2023-01-29T14:21:06.000Z</time>
      </trkpt>
      <trkpt lat="43.48518" lon="6.33741">
        <ele>136.2</ele>
        <time>2023-01-29T14:21:16.000Z</time>
      </trkpt>
      <trkpt lat="43.48512" lon="6.33731">
        <ele>135.8</ele>
        <time>2023-01-29T14:21:24.000Z</time>
      </trkpt>
      <trkpt lat="43.48506" lon="6.3372">
        <ele>135.3</ele>
        <time>2023-01-29T14:21:34.000Z</time>
      </trkpt>
      <trkpt lat="43.485" lon="6.3371">
        <ele>135</ele>
        <time>2023-01-29T14:21:44.000Z</time>
      </trkpt>
      <trkpt lat="43.48493" lon="6.33703">
        <ele>135</ele>
        <time>2023-01-29T14:21:57.000Z</time>
      </trkpt>
      <trkpt lat="43.48493" lon="6.33703">
        <ele>135.1</ele>
        <time>2023-01-29T14:22:00.000Z</time>
      </trkpt>
      <trkpt lat="43.48501" lon="6.33697">
        <ele>134.5</ele>
        <time>2023-01-29T14:22:20.000Z</time>
      </trkpt>
      <trkpt lat="43.4851" lon="6.33701">
        <ele>134.7</ele>
        <time>2023-01-29T14:22:30.000Z</time>
      </trkpt>
      <trkpt lat="43.48519" lon="6.33707">
        <ele>135</ele>
        <time>2023-01-29T14:22:39.000Z</time>
      </trkpt>
      <trkpt lat="43.4852" lon="6.33708">
        <ele>135</ele>
        <time>2023-01-29T14:22:43.000Z</time>
      </trkpt>
      <trkpt lat="43.4852" lon="6.33708">
        <ele>135.1</ele>
        <time>2023-01-29T14:22:44.000Z</time>
      </trkpt>
      <trkpt lat="43.48529" lon="6.33711">
        <ele>135.3</ele>
        <time>2023-01-29T14:23:00.000Z</time>
      </trkpt>
      <trkpt lat="43.48538" lon="6.33716">
        <ele>135.3</ele>
        <time>2023-01-29T14:23:07.000Z</time>
      </trkpt>
      <trkpt lat="43.48545" lon="6.33725">
        <ele>135.5</ele>
        <time>2023-01-29T14:23:16.000Z</time>
      </trkpt>
      <trkpt lat="43.48551" lon="6.33732">
        <ele>135.6</ele>
        <time>2023-01-29T14:23:27.000Z</time>
      </trkpt>
      <trkpt lat="43.48551" lon="6.33731">
        <ele>135.5</ele>
        <time>2023-01-29T14:23:29.000Z</time>
      </trkpt>
      <trkpt lat="43.48553" lon="6.33729">
        <ele>135.8</ele>
        <time>2023-01-29T14:23:33.000Z</time>
      </trkpt>
      <trkpt lat="43.48553" lon="6.33729">
        <ele>135.8</ele>
        <time>2023-01-29T14:23:34.000Z</time>
      </trkpt>
      <trkpt lat="43.48559" lon="6.33728">
        <ele>135.8</ele>
        <time>2023-01-29T14:23:43.000Z</time>
      </trkpt>
      <trkpt lat="43.48559" lon="6.33728">
        <ele>135.9</ele>
        <time>2023-01-29T14:23:44.000Z</time>
      </trkpt>
      <trkpt lat="43.48559" lon="6.33727">
        <ele>136.1</ele>
        <time>2023-01-29T14:23:46.000Z</time>
      </trkpt>
      <trkpt lat="43.48559" lon="6.33727">
        <ele>136</ele>
        <time>2023-01-29T14:23:47.000Z</time>
      </trkpt>
      <trkpt lat="43.48559" lon="6.33727">
        <ele>135.7</ele>
        <time>2023-01-29T14:23:49.000Z</time>
      </trkpt>
      <trkpt lat="43.48559" lon="6.33727">
        <ele>135.8</ele>
        <time>2023-01-29T14:23:53.000Z</time>
      </trkpt>
      <trkpt lat="43.48569" lon="6.33727">
        <ele>135.6</ele>
        <time>2023-01-29T14:24:03.000Z</time>
      </trkpt>
      <trkpt lat="43.48578" lon="6.33726">
        <ele>135.5</ele>
        <time>2023-01-29T14:24:14.000Z</time>
      </trkpt>
      <trkpt lat="43.48587" lon="6.33731">
        <ele>135.2</ele>
        <time>2023-01-29T14:24:24.000Z</time>
      </trkpt>
      <trkpt lat="43.48596" lon="6.33733">
        <ele>135.5</ele>
        <time>2023-01-29T14:24:34.000Z</time>
      </trkpt>
      <trkpt lat="43.48606" lon="6.33729">
        <ele>135.6</ele>
        <time>2023-01-29T14:24:44.000Z</time>
      </trkpt>
      <trkpt lat="43.4861" lon="6.33718">
        <ele>135.8</ele>
        <time>2023-01-29T14:24:52.000Z</time>
      </trkpt>
      <trkpt lat="43.48614" lon="6.33706">
        <ele>135.9</ele>
        <time>2023-01-29T14:25:00.000Z</time>
      </trkpt>
      <trkpt lat="43.48615" lon="6.33698">
        <ele>135.9</ele>
        <time>2023-01-29T14:25:08.000Z</time>
      </trkpt>
      <trkpt lat="43.48615" lon="6.33697">
        <ele>135.9</ele>
        <time>2023-01-29T14:25:13.000Z</time>
      </trkpt>
      <trkpt lat="43.48615" lon="6.33697">
        <ele>135.8</ele>
        <time>2023-01-29T14:25:15.000Z</time>
      </trkpt>
      <trkpt lat="43.48615" lon="6.33697">
        <ele>135.9</ele>
        <time>2023-01-29T14:25:17.000Z</time>
      </trkpt>
      <trkpt lat="43.48609" lon="6.33687">
        <ele>135</ele>
        <time>2023-01-29T14:25:26.000Z</time>
      </trkpt>
      <trkpt lat="43.48603" lon="6.33677">
        <ele>135.3</ele>
        <time>2023-01-29T14:25:33.000Z</time>
      </trkpt>
      <trkpt lat="43.48597" lon="6.33668">
        <ele>135.3</ele>
        <time>2023-01-29T14:25:40.000Z</time>
      </trkpt>
      <trkpt lat="43.4859" lon="6.33659">
        <ele>135.9</ele>
        <time>2023-01-29T14:25:49.000Z</time>
      </trkpt>
      <trkpt lat="43.48583" lon="6.33651">
        <ele>136.8</ele>
        <time>2023-01-29T14:25:58.000Z</time>
      </trkpt>
      <trkpt lat="43.48575" lon="6.33644">
        <ele>137.1</ele>
        <time>2023-01-29T14:26:07.000Z</time>
      </trkpt>
      <trkpt lat="43.48566" lon="6.33638">
        <ele>137.7</ele>
        <time>2023-01-29T14:26:17.000Z</time>
      </trkpt>
      <trkpt lat="43.48557" lon="6.33633">
        <ele>138.7</ele>
        <time>2023-01-29T14:26:28.000Z</time>
      </trkpt>
      <trkpt lat="43.48549" lon="6.33626">
        <ele>139.5</ele>
        <time>2023-01-29T14:26:41.000Z</time>
      </trkpt>
      <trkpt lat="43.48544" lon="6.33615">
        <ele>138.8</ele>
        <time>2023-01-29T14:26:51.000Z</time>
      </trkpt>
      <trkpt lat="43.4854" lon="6.33603">
        <ele>137.8</ele>
        <time>2023-01-29T14:27:01.000Z</time>
      </trkpt>
      <trkpt lat="43.48534" lon="6.33592">
        <ele>137.3</ele>
        <time>2023-01-29T14:27:09.000Z</time>
      </trkpt>
      <trkpt lat="43.4853" lon="6.3358">
        <ele>136.8</ele>
        <time>2023-01-29T14:27:19.000Z</time>
      </trkpt>
      <trkpt lat="43.48528" lon="6.33568">
        <ele>136.7</ele>
        <time>2023-01-29T14:27:28.000Z</time>
      </trkpt>
      <trkpt lat="43.48524" lon="6.33557">
        <ele>136.9</ele>
        <time>2023-01-29T14:27:36.000Z</time>
      </trkpt>
      <trkpt lat="43.48519" lon="6.33547">
        <ele>137.1</ele>
        <time>2023-01-29T14:27:44.000Z</time>
      </trkpt>
      <trkpt lat="43.48513" lon="6.33537">
        <ele>137.9</ele>
        <time>2023-01-29T14:27:55.000Z</time>
      </trkpt>
      <trkpt lat="43.48507" lon="6.33527">
        <ele>138.5</ele>
        <time>2023-01-29T14:28:08.000Z</time>
      </trkpt>
      <trkpt lat="43.48503" lon="6.33519">
        <ele>138.8</ele>
        <time>2023-01-29T14:28:17.000Z</time>
      </trkpt>
      <trkpt lat="43.48502" lon="6.33519">
        <ele>139</ele>
        <time>2023-01-29T14:28:22.000Z</time>
      </trkpt>
      <trkpt lat="43.48495" lon="6.3351">
        <ele>139.6</ele>
        <time>2023-01-29T14:28:34.000Z</time>
      </trkpt>
      <trkpt lat="43.48492" lon="6.33498">
        <ele>140.4</ele>
        <time>2023-01-29T14:28:44.000Z</time>
      </trkpt>
      <trkpt lat="43.48493" lon="6.33485">
        <ele>141.3</ele>
        <time>2023-01-29T14:28:56.000Z</time>
      </trkpt>
      <trkpt lat="43.4849" lon="6.33473">
        <ele>140.8</ele>
        <time>2023-01-29T14:29:05.000Z</time>
      </trkpt>
      <trkpt lat="43.48489" lon="6.3346">
        <ele>140.1</ele>
        <time>2023-01-29T14:29:14.000Z</time>
      </trkpt>
      <trkpt lat="43.48489" lon="6.33446">
        <ele>139.1</ele>
        <time>2023-01-29T14:29:27.000Z</time>
      </trkpt>
      <trkpt lat="43.48492" lon="6.33434">
        <ele>137.8</ele>
        <time>2023-01-29T14:29:37.000Z</time>
      </trkpt>
      <trkpt lat="43.48492" lon="6.33421">
        <ele>137.4</ele>
        <time>2023-01-29T14:29:46.000Z</time>
      </trkpt>
      <trkpt lat="43.48494" lon="6.33408">
        <ele>137.5</ele>
        <time>2023-01-29T14:29:55.000Z</time>
      </trkpt>
      <trkpt lat="43.48497" lon="6.33396">
        <ele>138.2</ele>
        <time>2023-01-29T14:30:04.000Z</time>
      </trkpt>
      <trkpt lat="43.48499" lon="6.33384">
        <ele>138.6</ele>
        <time>2023-01-29T14:30:13.000Z</time>
      </trkpt>
      <trkpt lat="43.48501" lon="6.33371">
        <ele>138.6</ele>
        <time>2023-01-29T14:30:23.000Z</time>
      </trkpt>
      <trkpt lat="43.48497" lon="6.3336">
        <ele>139.2</ele>
        <time>2023-01-29T14:30:32.000Z</time>
      </trkpt>
      <trkpt lat="43.4849" lon="6.33352">
        <ele>139.4</ele>
        <time>2023-01-29T14:30:40.000Z</time>
      </trkpt>
      <trkpt lat="43.48484" lon="6.33342">
        <ele>139.6</ele>
        <time>2023-01-29T14:30:49.000Z</time>
      </trkpt>
      <trkpt lat="43.48476" lon="6.33336">
        <ele>140.3</ele>
        <time>2023-01-29T14:31:04.000Z</time>
      </trkpt>
      <trkpt lat="43.48467" lon="6.33332">
        <ele>140.4</ele>
        <time>2023-01-29T14:31:11.000Z</time>
      </trkpt>
      <trkpt lat="43.48458" lon="6.33333">
        <ele>141.2</ele>
        <time>2023-01-29T14:31:20.000Z</time>
      </trkpt>
      <trkpt lat="43.48455" lon="6.33336">
        <ele>141.4</ele>
        <time>2023-01-29T14:31:28.000Z</time>
      </trkpt>
      <trkpt lat="43.48455" lon="6.33336">
        <ele>141.5</ele>
        <time>2023-01-29T14:31:35.000Z</time>
      </trkpt>
      <trkpt lat="43.48454" lon="6.33335">
        <ele>141.6</ele>
        <time>2023-01-29T14:31:40.000Z</time>
      </trkpt>
      <trkpt lat="43.48454" lon="6.33335">
        <ele>141.8</ele>
        <time>2023-01-29T14:31:50.000Z</time>
      </trkpt>
      <trkpt lat="43.48454" lon="6.33335">
        <ele>141.6</ele>
        <time>2023-01-29T14:31:51.000Z</time>
      </trkpt>
      <trkpt lat="43.48454" lon="6.33335">
        <ele>141.8</ele>
        <time>2023-01-29T14:31:52.000Z</time>
      </trkpt>
      <trkpt lat="43.48451" lon="6.33334">
        <ele>142</ele>
        <time>2023-01-29T14:31:58.000Z</time>
      </trkpt>
      <trkpt lat="43.48451" lon="6.33333">
        <ele>142.1</ele>
        <time>2023-01-29T14:32:02.000Z</time>
      </trkpt>
      <trkpt lat="43.48451" lon="6.33333">
        <ele>142.1</ele>
        <time>2023-01-29T14:32:03.000Z</time>
      </trkpt>
      <trkpt lat="43.4845" lon="6.33333">
        <ele>142.2</ele>
        <time>2023-01-29T14:32:04.000Z</time>
      </trkpt>
      <trkpt lat="43.48451" lon="6.33333">
        <ele>142.3</ele>
        <time>2023-01-29T14:32:06.000Z</time>
      </trkpt>
      <trkpt lat="43.4845" lon="6.33333">
        <ele>142.3</ele>
        <time>2023-01-29T14:32:07.000Z</time>
      </trkpt>
      <trkpt lat="43.4845" lon="6.33333">
        <ele>142.2</ele>
        <time>2023-01-29T14:32:08.000Z</time>
      </trkpt>
      <trkpt lat="43.48451" lon="6.33333">
        <ele>142.2</ele>
        <time>2023-01-29T14:32:12.000Z</time>
      </trkpt>
      <trkpt lat="43.48459" lon="6.33326">
        <ele>143.9</ele>
        <time>2023-01-29T14:32:26.000Z</time>
      </trkpt>
      <trkpt lat="43.48465" lon="6.33315">
        <ele>144.7</ele>
        <time>2023-01-29T14:32:35.000Z</time>
      </trkpt>
      <trkpt lat="43.48468" lon="6.33302">
        <ele>146</ele>
        <time>2023-01-29T14:32:45.000Z</time>
      </trkpt>
      <trkpt lat="43.48468" lon="6.3329">
        <ele>146.6</ele>
        <time>2023-01-29T14:32:55.000Z</time>
      </trkpt>
      <trkpt lat="43.48466" lon="6.33276">
        <ele>147.6</ele>
        <time>2023-01-29T14:33:05.000Z</time>
      </trkpt>
      <trkpt lat="43.48465" lon="6.33263">
        <ele>148</ele>
        <time>2023-01-29T14:33:15.000Z</time>
      </trkpt>
      <trkpt lat="43.48462" lon="6.33251">
        <ele>148.7</ele>
        <time>2023-01-29T14:33:25.000Z</time>
      </trkpt>
      <trkpt lat="43.48459" lon="6.33238">
        <ele>149.6</ele>
        <time>2023-01-29T14:33:34.000Z</time>
      </trkpt>
      <trkpt lat="43.48457" lon="6.33226">
        <ele>150</ele>
        <time>2023-01-29T14:33:45.000Z</time>
      </trkpt>
      <trkpt lat="43.48457" lon="6.33212">
        <ele>150.8</ele>
        <time>2023-01-29T14:33:56.000Z</time>
      </trkpt>
      <trkpt lat="43.48454" lon="6.332">
        <ele>151.8</ele>
        <time>2023-01-29T14:34:06.000Z</time>
      </trkpt>
      <trkpt lat="43.4845" lon="6.33188">
        <ele>151.9</ele>
        <time>2023-01-29T14:34:18.000Z</time>
      </trkpt>
      <trkpt lat="43.48447" lon="6.33176">
        <ele>152.6</ele>
        <time>2023-01-29T14:34:28.000Z</time>
      </trkpt>
      <trkpt lat="43.48445" lon="6.33163">
        <ele>153.3</ele>
        <time>2023-01-29T14:34:38.000Z</time>
      </trkpt>
      <trkpt lat="43.48443" lon="6.33151">
        <ele>153.6</ele>
        <time>2023-01-29T14:34:47.000Z</time>
      </trkpt>
      <trkpt lat="43.48437" lon="6.3314">
        <ele>155</ele>
        <time>2023-01-29T14:34:56.000Z</time>
      </trkpt>
      <trkpt lat="43.48434" lon="6.33128">
        <ele>155.2</ele>
        <time>2023-01-29T14:35:07.000Z</time>
      </trkpt>
      <trkpt lat="43.48436" lon="6.33115">
        <ele>156</ele>
        <time>2023-01-29T14:35:18.000Z</time>
      </trkpt>
      <trkpt lat="43.48435" lon="6.33105">
        <ele>156.6</ele>
        <time>2023-01-29T14:35:28.000Z</time>
      </trkpt>
      <trkpt lat="43.48435" lon="6.33105">
        <ele>156.7</ele>
        <time>2023-01-29T14:35:35.000Z</time>
      </trkpt>
      <trkpt lat="43.48434" lon="6.33102">
        <ele>156.8</ele>
        <time>2023-01-29T14:35:42.000Z</time>
      </trkpt>
      <trkpt lat="43.48434" lon="6.33102">
        <ele>156.9</ele>
        <time>2023-01-29T14:35:46.000Z</time>
      </trkpt>
      <trkpt lat="43.48434" lon="6.33101">
        <ele>156.9</ele>
        <time>2023-01-29T14:35:47.000Z</time>
      </trkpt>
      <trkpt lat="43.48433" lon="6.33101">
        <ele>156.8</ele>
        <time>2023-01-29T14:35:48.000Z</time>
      </trkpt>
      <trkpt lat="43.48433" lon="6.331">
        <ele>157</ele>
        <time>2023-01-29T14:35:50.000Z</time>
      </trkpt>
      <trkpt lat="43.48433" lon="6.331">
        <ele>157</ele>
        <time>2023-01-29T14:35:56.000Z</time>
      </trkpt>
      <trkpt lat="43.48431" lon="6.33099">
        <ele>157.3</ele>
        <time>2023-01-29T14:36:08.000Z</time>
      </trkpt>
      <trkpt lat="43.48431" lon="6.33099">
        <ele>157.2</ele>
        <time>2023-01-29T14:36:10.000Z</time>
      </trkpt>
      <trkpt lat="43.48431" lon="6.33099">
        <ele>157.2</ele>
        <time>2023-01-29T14:36:11.000Z</time>
      </trkpt>
      <trkpt lat="43.48431" lon="6.33099">
        <ele>157.1</ele>
        <time>2023-01-29T14:36:21.000Z</time>
      </trkpt>
      <trkpt lat="43.48432" lon="6.33099">
        <ele>157.2</ele>
        <time>2023-01-29T14:36:23.000Z</time>
      </trkpt>
      <trkpt lat="43.48431" lon="6.33098">
        <ele>157.1</ele>
        <time>2023-01-29T14:36:40.000Z</time>
      </trkpt>
      <trkpt lat="43.48427" lon="6.33094">
        <ele>157.4</ele>
        <time>2023-01-29T14:36:52.000Z</time>
      </trkpt>
      <trkpt lat="43.48427" lon="6.33094">
        <ele>157.4</ele>
        <time>2023-01-29T14:36:54.000Z</time>
      </trkpt>
      <trkpt lat="43.48426" lon="6.33094">
        <ele>157.4</ele>
        <time>2023-01-29T14:36:57.000Z</time>
      </trkpt>
      <trkpt lat="43.48426" lon="6.33093">
        <ele>157.6</ele>
        <time>2023-01-29T14:36:59.000Z</time>
      </trkpt>
      <trkpt lat="43.48424" lon="6.33093">
        <ele>157.8</ele>
        <time>2023-01-29T14:37:03.000Z</time>
      </trkpt>
      <trkpt lat="43.48424" lon="6.33092">
        <ele>157.5</ele>
        <time>2023-01-29T14:37:11.000Z</time>
      </trkpt>
      <trkpt lat="43.48421" lon="6.33091">
        <ele>157.4</ele>
        <time>2023-01-29T14:37:16.000Z</time>
      </trkpt>
      <trkpt lat="43.4842" lon="6.33091">
        <ele>157.7</ele>
        <time>2023-01-29T14:37:23.000Z</time>
      </trkpt>
      <trkpt lat="43.48411" lon="6.33091">
        <ele>157.8</ele>
        <time>2023-01-29T14:37:32.000Z</time>
      </trkpt>
      <trkpt lat="43.48401" lon="6.3309">
        <ele>157.2</ele>
        <time>2023-01-29T14:37:40.000Z</time>
      </trkpt>
      <trkpt lat="43.48392" lon="6.3309">
        <ele>156.8</ele>
        <time>2023-01-29T14:37:53.000Z</time>
      </trkpt>
      <trkpt lat="43.48382" lon="6.33091">
        <ele>156.4</ele>
        <time>2023-01-29T14:38:04.000Z</time>
      </trkpt>
      <trkpt lat="43.48372" lon="6.33092">
        <ele>156.3</ele>
        <time>2023-01-29T14:38:12.000Z</time>
      </trkpt>
      <trkpt lat="43.48363" lon="6.33094">
        <ele>155.9</ele>
        <time>2023-01-29T14:38:21.000Z</time>
      </trkpt>
      <trkpt lat="43.48354" lon="6.33091">
        <ele>155.4</ele>
        <time>2023-01-29T14:38:32.000Z</time>
      </trkpt>
      <trkpt lat="43.48344" lon="6.3309">
        <ele>154.7</ele>
        <time>2023-01-29T14:38:41.000Z</time>
      </trkpt>
      <trkpt lat="43.48335" lon="6.33089">
        <ele>154.5</ele>
        <time>2023-01-29T14:38:49.000Z</time>
      </trkpt>
      <trkpt lat="43.48326" lon="6.33089">
        <ele>153.9</ele>
        <time>2023-01-29T14:38:57.000Z</time>
      </trkpt>
      <trkpt lat="43.48316" lon="6.33089">
        <ele>153</ele>
        <time>2023-01-29T14:39:05.000Z</time>
      </trkpt>
      <trkpt lat="43.48307" lon="6.33091">
        <ele>152.6</ele>
        <time>2023-01-29T14:39:13.000Z</time>
      </trkpt>
      <trkpt lat="43.48297" lon="6.33092">
        <ele>152.2</ele>
        <time>2023-01-29T14:39:22.000Z</time>
      </trkpt>
      <trkpt lat="43.48288" lon="6.33092">
        <ele>151.8</ele>
        <time>2023-01-29T14:39:31.000Z</time>
      </trkpt>
      <trkpt lat="43.48283" lon="6.33091">
        <ele>151.5</ele>
        <time>2023-01-29T14:39:38.000Z</time>
      </trkpt>
      <trkpt lat="43.48283" lon="6.33092">
        <ele>151.4</ele>
        <time>2023-01-29T14:39:40.000Z</time>
      </trkpt>
      <trkpt lat="43.48282" lon="6.33092">
        <ele>151.3</ele>
        <time>2023-01-29T14:39:42.000Z</time>
      </trkpt>
      <trkpt lat="43.48282" lon="6.33092">
        <ele>151.4</ele>
        <time>2023-01-29T14:39:47.000Z</time>
      </trkpt>
      <trkpt lat="43.48274" lon="6.33096">
        <ele>151.4</ele>
        <time>2023-01-29T14:39:56.000Z</time>
      </trkpt>
      <trkpt lat="43.48264" lon="6.33097">
        <ele>149.9</ele>
        <time>2023-01-29T14:40:09.000Z</time>
      </trkpt>
      <trkpt lat="43.48255" lon="6.33099">
        <ele>148.3</ele>
        <time>2023-01-29T14:40:20.000Z</time>
      </trkpt>
      <trkpt lat="43.48246" lon="6.33101">
        <ele>148</ele>
        <time>2023-01-29T14:40:30.000Z</time>
      </trkpt>
      <trkpt lat="43.48236" lon="6.33102">
        <ele>146.7</ele>
        <time>2023-01-29T14:40:39.000Z</time>
      </trkpt>
      <trkpt lat="43.48227" lon="6.33103">
        <ele>145.9</ele>
        <time>2023-01-29T14:40:48.000Z</time>
      </trkpt>
      <trkpt lat="43.48217" lon="6.33103">
        <ele>145.7</ele>
        <time>2023-01-29T14:40:57.000Z</time>
      </trkpt>
      <trkpt lat="43.48208" lon="6.33101">
        <ele>144.7</ele>
        <time>2023-01-29T14:41:06.000Z</time>
      </trkpt>
      <trkpt lat="43.48201" lon="6.33092">
        <ele>144.2</ele>
        <time>2023-01-29T14:41:15.000Z</time>
      </trkpt>
      <trkpt lat="43.48194" lon="6.33084">
        <ele>143.6</ele>
        <time>2023-01-29T14:41:24.000Z</time>
      </trkpt>
      <trkpt lat="43.48187" lon="6.33074">
        <ele>142.7</ele>
        <time>2023-01-29T14:41:34.000Z</time>
      </trkpt>
      <trkpt lat="43.48182" lon="6.33063">
        <ele>142.4</ele>
        <time>2023-01-29T14:41:43.000Z</time>
      </trkpt>
      <trkpt lat="43.48178" lon="6.3305">
        <ele>141.7</ele>
        <time>2023-01-29T14:41:52.000Z</time>
      </trkpt>
      <trkpt lat="43.48176" lon="6.33038">
        <ele>141.5</ele>
        <time>2023-01-29T14:42:02.000Z</time>
      </trkpt>
      <trkpt lat="43.48172" lon="6.33025">
        <ele>141.4</ele>
        <time>2023-01-29T14:42:11.000Z</time>
      </trkpt>
      <trkpt lat="43.48169" lon="6.33013">
        <ele>141.4</ele>
        <time>2023-01-29T14:42:19.000Z</time>
      </trkpt>
      <trkpt lat="43.48166" lon="6.33">
        <ele>141.1</ele>
        <time>2023-01-29T14:42:28.000Z</time>
      </trkpt>
      <trkpt lat="43.48164" lon="6.32987">
        <ele>141.1</ele>
        <time>2023-01-29T14:42:37.000Z</time>
      </trkpt>
      <trkpt lat="43.48161" lon="6.32974">
        <ele>141.6</ele>
        <time>2023-01-29T14:42:46.000Z</time>
      </trkpt>
      <trkpt lat="43.48159" lon="6.32962">
        <ele>141.8</ele>
        <time>2023-01-29T14:42:54.000Z</time>
      </trkpt>
      <trkpt lat="43.48157" lon="6.32949">
        <ele>142.5</ele>
        <time>2023-01-29T14:43:03.000Z</time>
      </trkpt>
      <trkpt lat="43.48154" lon="6.32936">
        <ele>142.6</ele>
        <time>2023-01-29T14:43:12.000Z</time>
      </trkpt>
      <trkpt lat="43.48151" lon="6.32923">
        <ele>142.8</ele>
        <time>2023-01-29T14:43:21.000Z</time>
      </trkpt>
      <trkpt lat="43.48148" lon="6.32911">
        <ele>143.1</ele>
        <time>2023-01-29T14:43:29.000Z</time>
      </trkpt>
      <trkpt lat="43.48146" lon="6.32905">
        <ele>143.5</ele>
        <time>2023-01-29T14:43:36.000Z</time>
      </trkpt>
      <trkpt lat="43.48146" lon="6.32904">
        <ele>143.4</ele>
        <time>2023-01-29T14:43:38.000Z</time>
      </trkpt>
      <trkpt lat="43.48144" lon="6.32892">
        <ele>143.8</ele>
        <time>2023-01-29T14:43:48.000Z</time>
      </trkpt>
      <trkpt lat="43.48143" lon="6.32879">
        <ele>144.2</ele>
        <time>2023-01-29T14:43:58.000Z</time>
      </trkpt>
      <trkpt lat="43.48143" lon="6.32866">
        <ele>144.3</ele>
        <time>2023-01-29T14:44:08.000Z</time>
      </trkpt>
      <trkpt lat="43.48139" lon="6.32854">
        <ele>143.8</ele>
        <time>2023-01-29T14:44:17.000Z</time>
      </trkpt>
      <trkpt lat="43.48137" lon="6.32849">
        <ele>144.1</ele>
        <time>2023-01-29T14:44:26.000Z</time>
      </trkpt>
      <trkpt lat="43.48137" lon="6.32848">
        <ele>143.8</ele>
        <time>2023-01-29T14:44:31.000Z</time>
      </trkpt>
      <trkpt lat="43.48135" lon="6.32838">
        <ele>143.2</ele>
        <time>2023-01-29T14:44:41.000Z</time>
      </trkpt>
      <trkpt lat="43.48135" lon="6.32838">
        <ele>143.3</ele>
        <time>2023-01-29T14:44:42.000Z</time>
      </trkpt>
      <trkpt lat="43.4814" lon="6.32832">
        <ele>143.3</ele>
        <time>2023-01-29T14:44:53.000Z</time>
      </trkpt>
      <trkpt lat="43.48139" lon="6.32832">
        <ele>143.2</ele>
        <time>2023-01-29T14:44:55.000Z</time>
      </trkpt>
      <trkpt lat="43.48139" lon="6.32832">
        <ele>143.2</ele>
        <time>2023-01-29T14:44:56.000Z</time>
      </trkpt>
      <trkpt lat="43.48139" lon="6.32832">
        <ele>143.4</ele>
        <time>2023-01-29T14:45:00.000Z</time>
      </trkpt>
      <trkpt lat="43.48139" lon="6.32832">
        <ele>143.3</ele>
        <time>2023-01-29T14:45:01.000Z</time>
      </trkpt>
      <trkpt lat="43.48139" lon="6.32831">
        <ele>143.5</ele>
        <time>2023-01-29T14:45:09.000Z</time>
      </trkpt>
      <trkpt lat="43.48138" lon="6.32818">
        <ele>142.7</ele>
        <time>2023-01-29T14:45:19.000Z</time>
      </trkpt>
      <trkpt lat="43.48139" lon="6.3281">
        <ele>142.8</ele>
        <time>2023-01-29T14:45:26.000Z</time>
      </trkpt>
    </trkseg>
  </trk>
</gpx>